<?xml version="1.0" encoding="UTF-8" standalone="no" ?>
<gpx xmlns="http://www.topografix.com/GPX/1/1" xmlns:xsi="http://www.w3.org/2001/XMLSchema-instance" xsi:schemaLocation="http://www.topografix.com/GPX/1/1 http://www.topografix.com/GPX/1/1/gpx.xsd" version="1.1" creator="VisuGPX - https://www.visugpx.com">
  <metadata>
    <name>boucle St martin de castillon</name>
  </metadata>
  <trk>
    <name><![CDATA[boucle St martin de castillon]]></name>
    <trkseg>
      <trkpt lat="43.85606" lon="5.51984">
        <ele>313.5</ele>
        <time>2015-06-21T07:52:46Z</time>
      </trkpt>
      <trkpt lat="43.85606" lon="5.51984">
        <ele>313.5</ele>
        <time>2015-06-21T07:52:47Z</time>
      </trkpt>
      <trkpt lat="43.85613" lon="5.51993">
        <ele>316.9</ele>
        <time>2015-06-21T07:54:20Z</time>
      </trkpt>
      <trkpt lat="43.8562" lon="5.52001">
        <ele>331.5</ele>
        <time>2015-06-21T08:00:09Z</time>
      </trkpt>
      <trkpt lat="43.85629" lon="5.52005">
        <ele>332.2</ele>
        <time>2015-06-21T08:00:24Z</time>
      </trkpt>
      <trkpt lat="43.85638" lon="5.52012">
        <ele>336.2</ele>
        <time>2015-06-21T08:01:30Z</time>
      </trkpt>
      <trkpt lat="43.85645" lon="5.52022">
        <ele>336.6</ele>
        <time>2015-06-21T08:01:43Z</time>
      </trkpt>
      <trkpt lat="43.85655" lon="5.52027">
        <ele>336.6</ele>
        <time>2015-06-21T08:01:52Z</time>
      </trkpt>
      <trkpt lat="43.85664" lon="5.52033">
        <ele>336.5</ele>
        <time>2015-06-21T08:01:59Z</time>
      </trkpt>
      <trkpt lat="43.85674" lon="5.52032">
        <ele>336.5</ele>
        <time>2015-06-21T08:02:05Z</time>
      </trkpt>
      <trkpt lat="43.85682" lon="5.52039">
        <ele>336.6</ele>
        <time>2015-06-21T08:02:12Z</time>
      </trkpt>
      <trkpt lat="43.85691" lon="5.52042">
        <ele>336.8</ele>
        <time>2015-06-21T08:02:19Z</time>
      </trkpt>
      <trkpt lat="43.85701" lon="5.52038">
        <ele>336.9</ele>
        <time>2015-06-21T08:02:27Z</time>
      </trkpt>
      <trkpt lat="43.85712" lon="5.52036">
        <ele>337</ele>
        <time>2015-06-21T08:02:32Z</time>
      </trkpt>
      <trkpt lat="43.85721" lon="5.52032">
        <ele>337.3</ele>
        <time>2015-06-21T08:02:39Z</time>
      </trkpt>
      <trkpt lat="43.8573" lon="5.52031">
        <ele>337.8</ele>
        <time>2015-06-21T08:02:45Z</time>
      </trkpt>
      <trkpt lat="43.8574" lon="5.52028">
        <ele>338.6</ele>
        <time>2015-06-21T08:02:52Z</time>
      </trkpt>
      <trkpt lat="43.8575" lon="5.52025">
        <ele>339.3</ele>
        <time>2015-06-21T08:02:59Z</time>
      </trkpt>
      <trkpt lat="43.85759" lon="5.5202">
        <ele>340</ele>
        <time>2015-06-21T08:03:06Z</time>
      </trkpt>
      <trkpt lat="43.85767" lon="5.52016">
        <ele>340.9</ele>
        <time>2015-06-21T08:03:13Z</time>
      </trkpt>
      <trkpt lat="43.85776" lon="5.52011">
        <ele>342</ele>
        <time>2015-06-21T08:03:22Z</time>
      </trkpt>
      <trkpt lat="43.85786" lon="5.52006">
        <ele>342.8</ele>
        <time>2015-06-21T08:03:31Z</time>
      </trkpt>
      <trkpt lat="43.85796" lon="5.52003">
        <ele>343.6</ele>
        <time>2015-06-21T08:03:38Z</time>
      </trkpt>
      <trkpt lat="43.85806" lon="5.51999">
        <ele>344.3</ele>
        <time>2015-06-21T08:03:45Z</time>
      </trkpt>
      <trkpt lat="43.85815" lon="5.51995">
        <ele>345.4</ele>
        <time>2015-06-21T08:03:54Z</time>
      </trkpt>
      <trkpt lat="43.85824" lon="5.51992">
        <ele>346.2</ele>
        <time>2015-06-21T08:04:01Z</time>
      </trkpt>
      <trkpt lat="43.85833" lon="5.51989">
        <ele>347.1</ele>
        <time>2015-06-21T08:04:09Z</time>
      </trkpt>
      <trkpt lat="43.85843" lon="5.51986">
        <ele>347.7</ele>
        <time>2015-06-21T08:04:16Z</time>
      </trkpt>
      <trkpt lat="43.85852" lon="5.51982">
        <ele>348.4</ele>
        <time>2015-06-21T08:04:23Z</time>
      </trkpt>
      <trkpt lat="43.85861" lon="5.51978">
        <ele>349.1</ele>
        <time>2015-06-21T08:04:30Z</time>
      </trkpt>
      <trkpt lat="43.8587" lon="5.51972">
        <ele>349.9</ele>
        <time>2015-06-21T08:04:37Z</time>
      </trkpt>
      <trkpt lat="43.85877" lon="5.51963">
        <ele>350.7</ele>
        <time>2015-06-21T08:04:44Z</time>
      </trkpt>
      <trkpt lat="43.85887" lon="5.51963">
        <ele>353.1</ele>
        <time>2015-06-21T08:05:00Z</time>
      </trkpt>
      <trkpt lat="43.85895" lon="5.5197">
        <ele>353.5</ele>
        <time>2015-06-21T08:05:06Z</time>
      </trkpt>
      <trkpt lat="43.85904" lon="5.51972">
        <ele>353.4</ele>
        <time>2015-06-21T08:05:14Z</time>
      </trkpt>
      <trkpt lat="43.85914" lon="5.51974">
        <ele>353.4</ele>
        <time>2015-06-21T08:05:23Z</time>
      </trkpt>
      <trkpt lat="43.85923" lon="5.51977">
        <ele>353.8</ele>
        <time>2015-06-21T08:05:32Z</time>
      </trkpt>
      <trkpt lat="43.85932" lon="5.51984">
        <ele>355.7</ele>
        <time>2015-06-21T08:06:24Z</time>
      </trkpt>
      <trkpt lat="43.85942" lon="5.51983">
        <ele>355.9</ele>
        <time>2015-06-21T08:06:31Z</time>
      </trkpt>
      <trkpt lat="43.85952" lon="5.51981">
        <ele>356.3</ele>
        <time>2015-06-21T08:06:38Z</time>
      </trkpt>
      <trkpt lat="43.85962" lon="5.51977">
        <ele>356.9</ele>
        <time>2015-06-21T08:06:45Z</time>
      </trkpt>
      <trkpt lat="43.85971" lon="5.51972">
        <ele>357.3</ele>
        <time>2015-06-21T08:06:52Z</time>
      </trkpt>
      <trkpt lat="43.8598" lon="5.51966">
        <ele>358</ele>
        <time>2015-06-21T08:07:00Z</time>
      </trkpt>
      <trkpt lat="43.85988" lon="5.51957">
        <ele>359</ele>
        <time>2015-06-21T08:07:09Z</time>
      </trkpt>
      <trkpt lat="43.85994" lon="5.51947">
        <ele>360</ele>
        <time>2015-06-21T08:07:16Z</time>
      </trkpt>
      <trkpt lat="43.86001" lon="5.51938">
        <ele>361.4</ele>
        <time>2015-06-21T08:07:23Z</time>
      </trkpt>
      <trkpt lat="43.86008" lon="5.51929">
        <ele>362.8</ele>
        <time>2015-06-21T08:07:30Z</time>
      </trkpt>
      <trkpt lat="43.86017" lon="5.51922">
        <ele>364.3</ele>
        <time>2015-06-21T08:07:37Z</time>
      </trkpt>
      <trkpt lat="43.86023" lon="5.51914">
        <ele>366</ele>
        <time>2015-06-21T08:07:45Z</time>
      </trkpt>
      <trkpt lat="43.86024" lon="5.519">
        <ele>368.1</ele>
        <time>2015-06-21T08:07:55Z</time>
      </trkpt>
      <trkpt lat="43.86018" lon="5.51889">
        <ele>369.9</ele>
        <time>2015-06-21T08:08:03Z</time>
      </trkpt>
      <trkpt lat="43.8601" lon="5.51882">
        <ele>370.9</ele>
        <time>2015-06-21T08:08:09Z</time>
      </trkpt>
      <trkpt lat="43.86002" lon="5.51874">
        <ele>372.5</ele>
        <time>2015-06-21T08:08:18Z</time>
      </trkpt>
      <trkpt lat="43.85995" lon="5.51864">
        <ele>373.9</ele>
        <time>2015-06-21T08:08:26Z</time>
      </trkpt>
      <trkpt lat="43.86" lon="5.51854">
        <ele>375</ele>
        <time>2015-06-21T08:08:32Z</time>
      </trkpt>
      <trkpt lat="43.8601" lon="5.51853">
        <ele>376.6</ele>
        <time>2015-06-21T08:08:42Z</time>
      </trkpt>
      <trkpt lat="43.86019" lon="5.51855">
        <ele>378.2</ele>
        <time>2015-06-21T08:08:50Z</time>
      </trkpt>
      <trkpt lat="43.86029" lon="5.51856">
        <ele>380</ele>
        <time>2015-06-21T08:08:59Z</time>
      </trkpt>
      <trkpt lat="43.86038" lon="5.51856">
        <ele>381</ele>
        <time>2015-06-21T08:09:06Z</time>
      </trkpt>
      <trkpt lat="43.86047" lon="5.51852">
        <ele>382.3</ele>
        <time>2015-06-21T08:09:16Z</time>
      </trkpt>
      <trkpt lat="43.86057" lon="5.51847">
        <ele>383.6</ele>
        <time>2015-06-21T08:09:22Z</time>
      </trkpt>
      <trkpt lat="43.86065" lon="5.51839">
        <ele>384.5</ele>
        <time>2015-06-21T08:09:30Z</time>
      </trkpt>
      <trkpt lat="43.86073" lon="5.51832">
        <ele>384.8</ele>
        <time>2015-06-21T08:09:36Z</time>
      </trkpt>
      <trkpt lat="43.86082" lon="5.51826">
        <ele>385.3</ele>
        <time>2015-06-21T08:09:42Z</time>
      </trkpt>
      <trkpt lat="43.86088" lon="5.51817">
        <ele>386.2</ele>
        <time>2015-06-21T08:09:49Z</time>
      </trkpt>
      <trkpt lat="43.86089" lon="5.51804">
        <ele>387.7</ele>
        <time>2015-06-21T08:09:57Z</time>
      </trkpt>
      <trkpt lat="43.86091" lon="5.5179">
        <ele>389.1</ele>
        <time>2015-06-21T08:10:06Z</time>
      </trkpt>
      <trkpt lat="43.86088" lon="5.51778">
        <ele>390.4</ele>
        <time>2015-06-21T08:10:14Z</time>
      </trkpt>
      <trkpt lat="43.86097" lon="5.5178">
        <ele>391.7</ele>
        <time>2015-06-21T08:10:21Z</time>
      </trkpt>
      <trkpt lat="43.86107" lon="5.51783">
        <ele>394.4</ele>
        <time>2015-06-21T08:10:40Z</time>
      </trkpt>
      <trkpt lat="43.86116" lon="5.51786">
        <ele>394.9</ele>
        <time>2015-06-21T08:10:47Z</time>
      </trkpt>
      <trkpt lat="43.86125" lon="5.51781">
        <ele>395.7</ele>
        <time>2015-06-21T08:11:08Z</time>
      </trkpt>
      <trkpt lat="43.86132" lon="5.51772">
        <ele>396.4</ele>
        <time>2015-06-21T08:11:15Z</time>
      </trkpt>
      <trkpt lat="43.86141" lon="5.51775">
        <ele>397.6</ele>
        <time>2015-06-21T08:11:24Z</time>
      </trkpt>
      <trkpt lat="43.86149" lon="5.51769">
        <ele>398.5</ele>
        <time>2015-06-21T08:11:32Z</time>
      </trkpt>
      <trkpt lat="43.86157" lon="5.51759">
        <ele>399.4</ele>
        <time>2015-06-21T08:11:39Z</time>
      </trkpt>
      <trkpt lat="43.86162" lon="5.51748">
        <ele>400.5</ele>
        <time>2015-06-21T08:11:45Z</time>
      </trkpt>
      <trkpt lat="43.86169" lon="5.51741">
        <ele>401.9</ele>
        <time>2015-06-21T08:11:53Z</time>
      </trkpt>
      <trkpt lat="43.86176" lon="5.51731">
        <ele>403.5</ele>
        <time>2015-06-21T08:12:00Z</time>
      </trkpt>
      <trkpt lat="43.86182" lon="5.51721">
        <ele>405.7</ele>
        <time>2015-06-21T08:12:12Z</time>
      </trkpt>
      <trkpt lat="43.86187" lon="5.5171">
        <ele>406.7</ele>
        <time>2015-06-21T08:12:19Z</time>
      </trkpt>
      <trkpt lat="43.86195" lon="5.51702">
        <ele>408.5</ele>
        <time>2015-06-21T08:12:28Z</time>
      </trkpt>
      <trkpt lat="43.86203" lon="5.51699">
        <ele>409.3</ele>
        <time>2015-06-21T08:12:34Z</time>
      </trkpt>
      <trkpt lat="43.86214" lon="5.51697">
        <ele>409.9</ele>
        <time>2015-06-21T08:12:40Z</time>
      </trkpt>
      <trkpt lat="43.86223" lon="5.51695">
        <ele>410.3</ele>
        <time>2015-06-21T08:12:46Z</time>
      </trkpt>
      <trkpt lat="43.86232" lon="5.51692">
        <ele>410.6</ele>
        <time>2015-06-21T08:12:53Z</time>
      </trkpt>
      <trkpt lat="43.86242" lon="5.5169">
        <ele>410.8</ele>
        <time>2015-06-21T08:12:59Z</time>
      </trkpt>
      <trkpt lat="43.86252" lon="5.5169">
        <ele>411</ele>
        <time>2015-06-21T08:13:05Z</time>
      </trkpt>
      <trkpt lat="43.86261" lon="5.51692">
        <ele>411.2</ele>
        <time>2015-06-21T08:13:11Z</time>
      </trkpt>
      <trkpt lat="43.8627" lon="5.51688">
        <ele>411.4</ele>
        <time>2015-06-21T08:13:18Z</time>
      </trkpt>
      <trkpt lat="43.86275" lon="5.51676">
        <ele>411.9</ele>
        <time>2015-06-21T08:13:25Z</time>
      </trkpt>
      <trkpt lat="43.8628" lon="5.51666">
        <ele>412.6</ele>
        <time>2015-06-21T08:13:32Z</time>
      </trkpt>
      <trkpt lat="43.86287" lon="5.51656">
        <ele>413.3</ele>
        <time>2015-06-21T08:13:39Z</time>
      </trkpt>
      <trkpt lat="43.86294" lon="5.51646">
        <ele>414.4</ele>
        <time>2015-06-21T08:13:48Z</time>
      </trkpt>
      <trkpt lat="43.86296" lon="5.51633">
        <ele>415.7</ele>
        <time>2015-06-21T08:13:56Z</time>
      </trkpt>
      <trkpt lat="43.86296" lon="5.5162">
        <ele>416.8</ele>
        <time>2015-06-21T08:14:02Z</time>
      </trkpt>
      <trkpt lat="43.86291" lon="5.51609">
        <ele>417.4</ele>
        <time>2015-06-21T08:14:07Z</time>
      </trkpt>
      <trkpt lat="43.86284" lon="5.51599">
        <ele>417.8</ele>
        <time>2015-06-21T08:14:12Z</time>
      </trkpt>
      <trkpt lat="43.86275" lon="5.51595">
        <ele>418.5</ele>
        <time>2015-06-21T08:14:18Z</time>
      </trkpt>
      <trkpt lat="43.86267" lon="5.51589">
        <ele>419.2</ele>
        <time>2015-06-21T08:14:23Z</time>
      </trkpt>
      <trkpt lat="43.86258" lon="5.51586">
        <ele>420.2</ele>
        <time>2015-06-21T08:14:30Z</time>
      </trkpt>
      <trkpt lat="43.86248" lon="5.51583">
        <ele>420.8</ele>
        <time>2015-06-21T08:14:37Z</time>
      </trkpt>
      <trkpt lat="43.86239" lon="5.51578">
        <ele>421.4</ele>
        <time>2015-06-21T08:14:45Z</time>
      </trkpt>
      <trkpt lat="43.86231" lon="5.51571">
        <ele>422.2</ele>
        <time>2015-06-21T08:14:54Z</time>
      </trkpt>
      <trkpt lat="43.86221" lon="5.51569">
        <ele>422.7</ele>
        <time>2015-06-21T08:15:01Z</time>
      </trkpt>
      <trkpt lat="43.86212" lon="5.51569">
        <ele>422.9</ele>
        <time>2015-06-21T08:15:05Z</time>
      </trkpt>
      <trkpt lat="43.86203" lon="5.51566">
        <ele>423.6</ele>
        <time>2015-06-21T08:15:11Z</time>
      </trkpt>
      <trkpt lat="43.86194" lon="5.51565">
        <ele>424.1</ele>
        <time>2015-06-21T08:15:16Z</time>
      </trkpt>
      <trkpt lat="43.86183" lon="5.51567">
        <ele>424.6</ele>
        <time>2015-06-21T08:15:23Z</time>
      </trkpt>
      <trkpt lat="43.86172" lon="5.51565">
        <ele>425</ele>
        <time>2015-06-21T08:15:31Z</time>
      </trkpt>
      <trkpt lat="43.86164" lon="5.5156">
        <ele>425.3</ele>
        <time>2015-06-21T08:15:38Z</time>
      </trkpt>
      <trkpt lat="43.86155" lon="5.51554">
        <ele>425.8</ele>
        <time>2015-06-21T08:15:46Z</time>
      </trkpt>
      <trkpt lat="43.86147" lon="5.51548">
        <ele>426.6</ele>
        <time>2015-06-21T08:15:52Z</time>
      </trkpt>
      <trkpt lat="43.86137" lon="5.51544">
        <ele>427.1</ele>
        <time>2015-06-21T08:15:56Z</time>
      </trkpt>
      <trkpt lat="43.86129" lon="5.51537">
        <ele>428</ele>
        <time>2015-06-21T08:16:02Z</time>
      </trkpt>
      <trkpt lat="43.86123" lon="5.51526">
        <ele>428.8</ele>
        <time>2015-06-21T08:16:09Z</time>
      </trkpt>
      <trkpt lat="43.86131" lon="5.51516">
        <ele>430.1</ele>
        <time>2015-06-21T08:16:18Z</time>
      </trkpt>
      <trkpt lat="43.86142" lon="5.51517">
        <ele>431.7</ele>
        <time>2015-06-21T08:16:28Z</time>
      </trkpt>
      <trkpt lat="43.86152" lon="5.51521">
        <ele>432.2</ele>
        <time>2015-06-21T08:16:32Z</time>
      </trkpt>
      <trkpt lat="43.86162" lon="5.51524">
        <ele>432.9</ele>
        <time>2015-06-21T08:16:39Z</time>
      </trkpt>
      <trkpt lat="43.86172" lon="5.51526">
        <ele>433.5</ele>
        <time>2015-06-21T08:16:46Z</time>
      </trkpt>
      <trkpt lat="43.86182" lon="5.51526">
        <ele>434.3</ele>
        <time>2015-06-21T08:16:54Z</time>
      </trkpt>
      <trkpt lat="43.86192" lon="5.51524">
        <ele>434.9</ele>
        <time>2015-06-21T08:17:00Z</time>
      </trkpt>
      <trkpt lat="43.862" lon="5.51519">
        <ele>435.4</ele>
        <time>2015-06-21T08:17:07Z</time>
      </trkpt>
      <trkpt lat="43.86209" lon="5.51511">
        <ele>436.5</ele>
        <time>2015-06-21T08:17:15Z</time>
      </trkpt>
      <trkpt lat="43.86216" lon="5.51502">
        <ele>437.7</ele>
        <time>2015-06-21T08:17:23Z</time>
      </trkpt>
      <trkpt lat="43.86223" lon="5.51492">
        <ele>438.7</ele>
        <time>2015-06-21T08:17:29Z</time>
      </trkpt>
      <trkpt lat="43.86231" lon="5.51485">
        <ele>439.6</ele>
        <time>2015-06-21T08:17:34Z</time>
      </trkpt>
      <trkpt lat="43.8624" lon="5.51477">
        <ele>441</ele>
        <time>2015-06-21T08:17:42Z</time>
      </trkpt>
      <trkpt lat="43.86247" lon="5.51468">
        <ele>441.9</ele>
        <time>2015-06-21T08:17:48Z</time>
      </trkpt>
      <trkpt lat="43.86252" lon="5.51456">
        <ele>443.5</ele>
        <time>2015-06-21T08:17:56Z</time>
      </trkpt>
      <trkpt lat="43.86258" lon="5.51445">
        <ele>445.2</ele>
        <time>2015-06-21T08:18:04Z</time>
      </trkpt>
      <trkpt lat="43.86267" lon="5.51441">
        <ele>446.9</ele>
        <time>2015-06-21T08:18:12Z</time>
      </trkpt>
      <trkpt lat="43.86276" lon="5.51447">
        <ele>448.4</ele>
        <time>2015-06-21T08:18:21Z</time>
      </trkpt>
      <trkpt lat="43.86284" lon="5.51454">
        <ele>448.9</ele>
        <time>2015-06-21T08:18:32Z</time>
      </trkpt>
      <trkpt lat="43.86294" lon="5.51459">
        <ele>448.7</ele>
        <time>2015-06-21T08:18:38Z</time>
      </trkpt>
      <trkpt lat="43.86303" lon="5.51463">
        <ele>448.2</ele>
        <time>2015-06-21T08:18:45Z</time>
      </trkpt>
      <trkpt lat="43.86312" lon="5.51466">
        <ele>447</ele>
        <time>2015-06-21T08:18:53Z</time>
      </trkpt>
      <trkpt lat="43.86321" lon="5.5147">
        <ele>446.4</ele>
        <time>2015-06-21T08:18:59Z</time>
      </trkpt>
      <trkpt lat="43.86331" lon="5.51472">
        <ele>444.9</ele>
        <time>2015-06-21T08:19:06Z</time>
      </trkpt>
      <trkpt lat="43.8634" lon="5.51471">
        <ele>443.7</ele>
        <time>2015-06-21T08:19:11Z</time>
      </trkpt>
      <trkpt lat="43.86349" lon="5.51469">
        <ele>442.8</ele>
        <time>2015-06-21T08:19:17Z</time>
      </trkpt>
      <trkpt lat="43.86359" lon="5.51469">
        <ele>442.2</ele>
        <time>2015-06-21T08:19:24Z</time>
      </trkpt>
      <trkpt lat="43.86367" lon="5.51475">
        <ele>441.4</ele>
        <time>2015-06-21T08:19:32Z</time>
      </trkpt>
      <trkpt lat="43.86376" lon="5.51478">
        <ele>440.3</ele>
        <time>2015-06-21T08:19:40Z</time>
      </trkpt>
      <trkpt lat="43.86384" lon="5.51483">
        <ele>439.2</ele>
        <time>2015-06-21T08:19:56Z</time>
      </trkpt>
      <trkpt lat="43.86394" lon="5.51484">
        <ele>438.1</ele>
        <time>2015-06-21T08:20:05Z</time>
      </trkpt>
      <trkpt lat="43.86402" lon="5.51492">
        <ele>437.6</ele>
        <time>2015-06-21T08:20:11Z</time>
      </trkpt>
      <trkpt lat="43.86411" lon="5.51496">
        <ele>437.3</ele>
        <time>2015-06-21T08:20:17Z</time>
      </trkpt>
      <trkpt lat="43.86421" lon="5.51498">
        <ele>437.1</ele>
        <time>2015-06-21T08:20:22Z</time>
      </trkpt>
      <trkpt lat="43.86425" lon="5.51511">
        <ele>437</ele>
        <time>2015-06-21T08:20:27Z</time>
      </trkpt>
      <trkpt lat="43.86435" lon="5.51514">
        <ele>436.9</ele>
        <time>2015-06-21T08:20:32Z</time>
      </trkpt>
      <trkpt lat="43.8644" lon="5.51525">
        <ele>437</ele>
        <time>2015-06-21T08:20:39Z</time>
      </trkpt>
      <trkpt lat="43.86448" lon="5.51531">
        <ele>437</ele>
        <time>2015-06-21T08:20:45Z</time>
      </trkpt>
      <trkpt lat="43.8645" lon="5.51544">
        <ele>437</ele>
        <time>2015-06-21T08:20:58Z</time>
      </trkpt>
      <trkpt lat="43.86448" lon="5.51556">
        <ele>436.8</ele>
        <time>2015-06-21T08:21:06Z</time>
      </trkpt>
      <trkpt lat="43.86446" lon="5.51569">
        <ele>436.2</ele>
        <time>2015-06-21T08:21:16Z</time>
      </trkpt>
      <trkpt lat="43.86448" lon="5.51582">
        <ele>435.4</ele>
        <time>2015-06-21T08:21:24Z</time>
      </trkpt>
      <trkpt lat="43.86445" lon="5.51594">
        <ele>433.6</ele>
        <time>2015-06-21T08:21:36Z</time>
      </trkpt>
      <trkpt lat="43.8644" lon="5.51607">
        <ele>432.7</ele>
        <time>2015-06-21T08:21:43Z</time>
      </trkpt>
      <trkpt lat="43.86434" lon="5.5162">
        <ele>429.3</ele>
        <time>2015-06-21T08:22:05Z</time>
      </trkpt>
      <trkpt lat="43.86432" lon="5.51637">
        <ele>426.6</ele>
        <time>2015-06-21T08:22:27Z</time>
      </trkpt>
      <trkpt lat="43.86424" lon="5.51647">
        <ele>424.6</ele>
        <time>2015-06-21T08:22:40Z</time>
      </trkpt>
      <trkpt lat="43.86416" lon="5.51653">
        <ele>423.4</ele>
        <time>2015-06-21T08:22:46Z</time>
      </trkpt>
      <trkpt lat="43.86407" lon="5.51659">
        <ele>422.2</ele>
        <time>2015-06-21T08:22:52Z</time>
      </trkpt>
      <trkpt lat="43.86397" lon="5.51663">
        <ele>420.8</ele>
        <time>2015-06-21T08:22:58Z</time>
      </trkpt>
      <trkpt lat="43.8639" lon="5.51671">
        <ele>419.9</ele>
        <time>2015-06-21T08:23:03Z</time>
      </trkpt>
      <trkpt lat="43.86383" lon="5.51679">
        <ele>419</ele>
        <time>2015-06-21T08:23:07Z</time>
      </trkpt>
      <trkpt lat="43.86378" lon="5.51692">
        <ele>418.2</ele>
        <time>2015-06-21T08:23:13Z</time>
      </trkpt>
      <trkpt lat="43.86383" lon="5.51704">
        <ele>417.2</ele>
        <time>2015-06-21T08:23:21Z</time>
      </trkpt>
      <trkpt lat="43.8639" lon="5.51712">
        <ele>416.8</ele>
        <time>2015-06-21T08:23:26Z</time>
      </trkpt>
      <trkpt lat="43.86398" lon="5.51721">
        <ele>416.4</ele>
        <time>2015-06-21T08:23:32Z</time>
      </trkpt>
      <trkpt lat="43.86404" lon="5.51731">
        <ele>415.5</ele>
        <time>2015-06-21T08:23:39Z</time>
      </trkpt>
      <trkpt lat="43.86408" lon="5.51744">
        <ele>414.3</ele>
        <time>2015-06-21T08:23:49Z</time>
      </trkpt>
      <trkpt lat="43.86412" lon="5.51755">
        <ele>413.8</ele>
        <time>2015-06-21T08:24:00Z</time>
      </trkpt>
      <trkpt lat="43.8642" lon="5.51761">
        <ele>413.6</ele>
        <time>2015-06-21T08:24:08Z</time>
      </trkpt>
      <trkpt lat="43.8643" lon="5.5176">
        <ele>413.5</ele>
        <time>2015-06-21T08:24:12Z</time>
      </trkpt>
      <trkpt lat="43.86436" lon="5.51776">
        <ele>413.7</ele>
        <time>2015-06-21T08:24:21Z</time>
      </trkpt>
      <trkpt lat="43.86445" lon="5.51783">
        <ele>414.1</ele>
        <time>2015-06-21T08:24:29Z</time>
      </trkpt>
      <trkpt lat="43.86455" lon="5.51783">
        <ele>414.6</ele>
        <time>2015-06-21T08:24:38Z</time>
      </trkpt>
      <trkpt lat="43.86465" lon="5.51786">
        <ele>414.9</ele>
        <time>2015-06-21T08:24:46Z</time>
      </trkpt>
      <trkpt lat="43.86474" lon="5.51785">
        <ele>415.1</ele>
        <time>2015-06-21T08:24:52Z</time>
      </trkpt>
      <trkpt lat="43.86483" lon="5.51791">
        <ele>415.2</ele>
        <time>2015-06-21T08:25:00Z</time>
      </trkpt>
      <trkpt lat="43.86491" lon="5.51799">
        <ele>415.3</ele>
        <time>2015-06-21T08:25:06Z</time>
      </trkpt>
      <trkpt lat="43.86499" lon="5.51807">
        <ele>415.4</ele>
        <time>2015-06-21T08:25:12Z</time>
      </trkpt>
      <trkpt lat="43.86507" lon="5.51815">
        <ele>415.5</ele>
        <time>2015-06-21T08:25:20Z</time>
      </trkpt>
      <trkpt lat="43.86515" lon="5.51821">
        <ele>415.8</ele>
        <time>2015-06-21T08:25:26Z</time>
      </trkpt>
      <trkpt lat="43.86523" lon="5.51829">
        <ele>416.1</ele>
        <time>2015-06-21T08:25:31Z</time>
      </trkpt>
      <trkpt lat="43.86532" lon="5.51831">
        <ele>416.7</ele>
        <time>2015-06-21T08:25:40Z</time>
      </trkpt>
      <trkpt lat="43.86542" lon="5.51832">
        <ele>417.2</ele>
        <time>2015-06-21T08:25:48Z</time>
      </trkpt>
      <trkpt lat="43.86552" lon="5.5183">
        <ele>417.7</ele>
        <time>2015-06-21T08:25:55Z</time>
      </trkpt>
      <trkpt lat="43.86561" lon="5.5183">
        <ele>418.2</ele>
        <time>2015-06-21T08:26:02Z</time>
      </trkpt>
      <trkpt lat="43.8657" lon="5.5183">
        <ele>418.3</ele>
        <time>2015-06-21T08:26:07Z</time>
      </trkpt>
      <trkpt lat="43.86579" lon="5.51834">
        <ele>418.9</ele>
        <time>2015-06-21T08:26:13Z</time>
      </trkpt>
      <trkpt lat="43.86588" lon="5.51839">
        <ele>419.4</ele>
        <time>2015-06-21T08:26:19Z</time>
      </trkpt>
      <trkpt lat="43.86597" lon="5.51844">
        <ele>419.7</ele>
        <time>2015-06-21T08:26:24Z</time>
      </trkpt>
      <trkpt lat="43.86605" lon="5.51851">
        <ele>420.1</ele>
        <time>2015-06-21T08:26:31Z</time>
      </trkpt>
      <trkpt lat="43.86608" lon="5.51863">
        <ele>420.6</ele>
        <time>2015-06-21T08:26:40Z</time>
      </trkpt>
      <trkpt lat="43.86608" lon="5.51877">
        <ele>420.8</ele>
        <time>2015-06-21T08:26:48Z</time>
      </trkpt>
      <trkpt lat="43.86612" lon="5.51889">
        <ele>420.6</ele>
        <time>2015-06-21T08:26:56Z</time>
      </trkpt>
      <trkpt lat="43.86619" lon="5.51929">
        <ele>420</ele>
        <time>2015-06-21T08:27:05Z</time>
      </trkpt>
      <trkpt lat="43.86625" lon="5.5194">
        <ele>420.1</ele>
        <time>2015-06-21T08:27:13Z</time>
      </trkpt>
      <trkpt lat="43.86634" lon="5.51945">
        <ele>419.9</ele>
        <time>2015-06-21T08:27:18Z</time>
      </trkpt>
      <trkpt lat="43.86646" lon="5.51945">
        <ele>419.8</ele>
        <time>2015-06-21T08:27:22Z</time>
      </trkpt>
      <trkpt lat="43.86655" lon="5.51946">
        <ele>419.6</ele>
        <time>2015-06-21T08:27:25Z</time>
      </trkpt>
      <trkpt lat="43.86665" lon="5.5195">
        <ele>419.3</ele>
        <time>2015-06-21T08:27:31Z</time>
      </trkpt>
      <trkpt lat="43.86674" lon="5.51952">
        <ele>418.6</ele>
        <time>2015-06-21T08:27:36Z</time>
      </trkpt>
      <trkpt lat="43.86683" lon="5.51954">
        <ele>418.2</ele>
        <time>2015-06-21T08:27:45Z</time>
      </trkpt>
      <trkpt lat="43.86693" lon="5.51953">
        <ele>417.9</ele>
        <time>2015-06-21T08:27:52Z</time>
      </trkpt>
      <trkpt lat="43.86703" lon="5.5195">
        <ele>417.2</ele>
        <time>2015-06-21T08:28:02Z</time>
      </trkpt>
      <trkpt lat="43.86712" lon="5.51948">
        <ele>416.9</ele>
        <time>2015-06-21T08:28:09Z</time>
      </trkpt>
      <trkpt lat="43.86721" lon="5.51943">
        <ele>416.7</ele>
        <time>2015-06-21T08:28:15Z</time>
      </trkpt>
      <trkpt lat="43.8673" lon="5.5194">
        <ele>416.1</ele>
        <time>2015-06-21T08:28:21Z</time>
      </trkpt>
      <trkpt lat="43.86751" lon="5.51934">
        <ele>415</ele>
        <time>2015-06-21T08:28:29Z</time>
      </trkpt>
      <trkpt lat="43.8676" lon="5.5193">
        <ele>414.9</ele>
        <time>2015-06-21T08:28:39Z</time>
      </trkpt>
      <trkpt lat="43.86774" lon="5.51929">
        <ele>414.7</ele>
        <time>2015-06-21T08:28:44Z</time>
      </trkpt>
      <trkpt lat="43.86783" lon="5.51927">
        <ele>414.6</ele>
        <time>2015-06-21T08:28:47Z</time>
      </trkpt>
      <trkpt lat="43.86792" lon="5.51923">
        <ele>414.4</ele>
        <time>2015-06-21T08:28:52Z</time>
      </trkpt>
      <trkpt lat="43.86803" lon="5.51921">
        <ele>413.7</ele>
        <time>2015-06-21T08:28:59Z</time>
      </trkpt>
      <trkpt lat="43.86814" lon="5.5192">
        <ele>412.9</ele>
        <time>2015-06-21T08:29:05Z</time>
      </trkpt>
      <trkpt lat="43.86824" lon="5.5192">
        <ele>411.9</ele>
        <time>2015-06-21T08:29:11Z</time>
      </trkpt>
      <trkpt lat="43.86833" lon="5.5192">
        <ele>410.7</ele>
        <time>2015-06-21T08:29:19Z</time>
      </trkpt>
      <trkpt lat="43.86842" lon="5.51916">
        <ele>409.8</ele>
        <time>2015-06-21T08:29:27Z</time>
      </trkpt>
      <trkpt lat="43.86853" lon="5.51918">
        <ele>409</ele>
        <time>2015-06-21T08:29:34Z</time>
      </trkpt>
      <trkpt lat="43.86862" lon="5.51919">
        <ele>408.5</ele>
        <time>2015-06-21T08:29:39Z</time>
      </trkpt>
      <trkpt lat="43.86873" lon="5.5192">
        <ele>407.7</ele>
        <time>2015-06-21T08:29:47Z</time>
      </trkpt>
      <trkpt lat="43.86882" lon="5.51919">
        <ele>406.9</ele>
        <time>2015-06-21T08:29:55Z</time>
      </trkpt>
      <trkpt lat="43.86892" lon="5.51919">
        <ele>406</ele>
        <time>2015-06-21T08:30:03Z</time>
      </trkpt>
      <trkpt lat="43.86902" lon="5.51919">
        <ele>405.6</ele>
        <time>2015-06-21T08:30:10Z</time>
      </trkpt>
      <trkpt lat="43.86912" lon="5.51919">
        <ele>405.3</ele>
        <time>2015-06-21T08:30:13Z</time>
      </trkpt>
      <trkpt lat="43.86921" lon="5.51917">
        <ele>405</ele>
        <time>2015-06-21T08:30:19Z</time>
      </trkpt>
      <trkpt lat="43.86931" lon="5.51916">
        <ele>404.4</ele>
        <time>2015-06-21T08:30:29Z</time>
      </trkpt>
      <trkpt lat="43.8693" lon="5.51929">
        <ele>403.7</ele>
        <time>2015-06-21T08:30:42Z</time>
      </trkpt>
      <trkpt lat="43.86929" lon="5.51942">
        <ele>402.4</ele>
        <time>2015-06-21T08:30:54Z</time>
      </trkpt>
      <trkpt lat="43.86927" lon="5.51955">
        <ele>400.7</ele>
        <time>2015-06-21T08:31:04Z</time>
      </trkpt>
      <trkpt lat="43.86928" lon="5.51967">
        <ele>398.2</ele>
        <time>2015-06-21T08:31:19Z</time>
      </trkpt>
      <trkpt lat="43.86923" lon="5.51979">
        <ele>396.8</ele>
        <time>2015-06-21T08:31:26Z</time>
      </trkpt>
      <trkpt lat="43.86916" lon="5.51989">
        <ele>395.6</ele>
        <time>2015-06-21T08:31:33Z</time>
      </trkpt>
      <trkpt lat="43.86908" lon="5.51998">
        <ele>394.3</ele>
        <time>2015-06-21T08:31:40Z</time>
      </trkpt>
      <trkpt lat="43.86904" lon="5.5201">
        <ele>390.6</ele>
        <time>2015-06-21T08:31:55Z</time>
      </trkpt>
      <trkpt lat="43.86901" lon="5.52022">
        <ele>388.7</ele>
        <time>2015-06-21T08:32:02Z</time>
      </trkpt>
      <trkpt lat="43.86902" lon="5.52036">
        <ele>386.8</ele>
        <time>2015-06-21T08:32:09Z</time>
      </trkpt>
      <trkpt lat="43.86902" lon="5.52049">
        <ele>385.2</ele>
        <time>2015-06-21T08:32:15Z</time>
      </trkpt>
      <trkpt lat="43.86907" lon="5.5206">
        <ele>383.3</ele>
        <time>2015-06-21T08:32:23Z</time>
      </trkpt>
      <trkpt lat="43.86912" lon="5.5207">
        <ele>380.8</ele>
        <time>2015-06-21T08:32:33Z</time>
      </trkpt>
      <trkpt lat="43.86914" lon="5.52083">
        <ele>379</ele>
        <time>2015-06-21T08:32:40Z</time>
      </trkpt>
      <trkpt lat="43.86918" lon="5.52096">
        <ele>376.8</ele>
        <time>2015-06-21T08:32:48Z</time>
      </trkpt>
      <trkpt lat="43.86926" lon="5.521">
        <ele>375.4</ele>
        <time>2015-06-21T08:32:54Z</time>
      </trkpt>
      <trkpt lat="43.86936" lon="5.52102">
        <ele>374.6</ele>
        <time>2015-06-21T08:33:00Z</time>
      </trkpt>
      <trkpt lat="43.86945" lon="5.52104">
        <ele>374.3</ele>
        <time>2015-06-21T08:33:08Z</time>
      </trkpt>
      <trkpt lat="43.86955" lon="5.52104">
        <ele>374.2</ele>
        <time>2015-06-21T08:33:12Z</time>
      </trkpt>
      <trkpt lat="43.86962" lon="5.52096">
        <ele>374.2</ele>
        <time>2015-06-21T08:33:19Z</time>
      </trkpt>
      <trkpt lat="43.86971" lon="5.52089">
        <ele>374.5</ele>
        <time>2015-06-21T08:33:24Z</time>
      </trkpt>
      <trkpt lat="43.86978" lon="5.52082">
        <ele>375</ele>
        <time>2015-06-21T08:33:31Z</time>
      </trkpt>
      <trkpt lat="43.86987" lon="5.52076">
        <ele>375.3</ele>
        <time>2015-06-21T08:33:39Z</time>
      </trkpt>
      <trkpt lat="43.86996" lon="5.5207">
        <ele>375.5</ele>
        <time>2015-06-21T08:33:44Z</time>
      </trkpt>
      <trkpt lat="43.87005" lon="5.52064">
        <ele>376.2</ele>
        <time>2015-06-21T08:33:50Z</time>
      </trkpt>
      <trkpt lat="43.87014" lon="5.52057">
        <ele>376.8</ele>
        <time>2015-06-21T08:33:57Z</time>
      </trkpt>
      <trkpt lat="43.87023" lon="5.52052">
        <ele>377.6</ele>
        <time>2015-06-21T08:34:05Z</time>
      </trkpt>
      <trkpt lat="43.87032" lon="5.52049">
        <ele>378.4</ele>
        <time>2015-06-21T08:34:14Z</time>
      </trkpt>
      <trkpt lat="43.87042" lon="5.52047">
        <ele>379</ele>
        <time>2015-06-21T08:34:22Z</time>
      </trkpt>
      <trkpt lat="43.87051" lon="5.52041">
        <ele>379.6</ele>
        <time>2015-06-21T08:34:30Z</time>
      </trkpt>
      <trkpt lat="43.87059" lon="5.52033">
        <ele>380.5</ele>
        <time>2015-06-21T08:34:38Z</time>
      </trkpt>
      <trkpt lat="43.87067" lon="5.52027">
        <ele>381.4</ele>
        <time>2015-06-21T08:34:47Z</time>
      </trkpt>
      <trkpt lat="43.87072" lon="5.52016">
        <ele>382.5</ele>
        <time>2015-06-21T08:34:57Z</time>
      </trkpt>
      <trkpt lat="43.87077" lon="5.52005">
        <ele>383.4</ele>
        <time>2015-06-21T08:35:06Z</time>
      </trkpt>
      <trkpt lat="43.87084" lon="5.51996">
        <ele>384.7</ele>
        <time>2015-06-21T08:35:14Z</time>
      </trkpt>
      <trkpt lat="43.87093" lon="5.5199">
        <ele>386.3</ele>
        <time>2015-06-21T08:35:24Z</time>
      </trkpt>
      <trkpt lat="43.87103" lon="5.51988">
        <ele>387.3</ele>
        <time>2015-06-21T08:35:32Z</time>
      </trkpt>
      <trkpt lat="43.87113" lon="5.51987">
        <ele>387.9</ele>
        <time>2015-06-21T08:35:39Z</time>
      </trkpt>
      <trkpt lat="43.87121" lon="5.51983">
        <ele>388.3</ele>
        <time>2015-06-21T08:35:46Z</time>
      </trkpt>
      <trkpt lat="43.87131" lon="5.51984">
        <ele>388.9</ele>
        <time>2015-06-21T08:35:57Z</time>
      </trkpt>
      <trkpt lat="43.87139" lon="5.51978">
        <ele>389.3</ele>
        <time>2015-06-21T08:36:07Z</time>
      </trkpt>
      <trkpt lat="43.87148" lon="5.51982">
        <ele>389.4</ele>
        <time>2015-06-21T08:36:36Z</time>
      </trkpt>
      <trkpt lat="43.87154" lon="5.51993">
        <ele>388.6</ele>
        <time>2015-06-21T08:36:46Z</time>
      </trkpt>
      <trkpt lat="43.87156" lon="5.52006">
        <ele>387.2</ele>
        <time>2015-06-21T08:36:57Z</time>
      </trkpt>
      <trkpt lat="43.87161" lon="5.52018">
        <ele>385.7</ele>
        <time>2015-06-21T08:37:05Z</time>
      </trkpt>
      <trkpt lat="43.87168" lon="5.52026">
        <ele>384.8</ele>
        <time>2015-06-21T08:37:12Z</time>
      </trkpt>
      <trkpt lat="43.87177" lon="5.5203">
        <ele>383.7</ele>
        <time>2015-06-21T08:37:24Z</time>
      </trkpt>
      <trkpt lat="43.87186" lon="5.5203">
        <ele>383.9</ele>
        <time>2015-06-21T08:37:31Z</time>
      </trkpt>
      <trkpt lat="43.87195" lon="5.52027">
        <ele>384.5</ele>
        <time>2015-06-21T08:37:39Z</time>
      </trkpt>
      <trkpt lat="43.87204" lon="5.52033">
        <ele>384.8</ele>
        <time>2015-06-21T08:37:47Z</time>
      </trkpt>
      <trkpt lat="43.87212" lon="5.52041">
        <ele>385.3</ele>
        <time>2015-06-21T08:37:54Z</time>
      </trkpt>
      <trkpt lat="43.87221" lon="5.52044">
        <ele>385.6</ele>
        <time>2015-06-21T08:38:01Z</time>
      </trkpt>
      <trkpt lat="43.87231" lon="5.52046">
        <ele>385.9</ele>
        <time>2015-06-21T08:38:08Z</time>
      </trkpt>
      <trkpt lat="43.8724" lon="5.52042">
        <ele>386.5</ele>
        <time>2015-06-21T08:38:15Z</time>
      </trkpt>
      <trkpt lat="43.87251" lon="5.52043">
        <ele>386.9</ele>
        <time>2015-06-21T08:38:22Z</time>
      </trkpt>
      <trkpt lat="43.87263" lon="5.52044">
        <ele>387.1</ele>
        <time>2015-06-21T08:38:25Z</time>
      </trkpt>
      <trkpt lat="43.87271" lon="5.52036">
        <ele>387.7</ele>
        <time>2015-06-21T08:38:33Z</time>
      </trkpt>
      <trkpt lat="43.8728" lon="5.5203">
        <ele>388.6</ele>
        <time>2015-06-21T08:38:41Z</time>
      </trkpt>
      <trkpt lat="43.8729" lon="5.52029">
        <ele>389</ele>
        <time>2015-06-21T08:38:46Z</time>
      </trkpt>
      <trkpt lat="43.873" lon="5.52027">
        <ele>389.4</ele>
        <time>2015-06-21T08:38:51Z</time>
      </trkpt>
      <trkpt lat="43.87309" lon="5.52024">
        <ele>389.8</ele>
        <time>2015-06-21T08:38:57Z</time>
      </trkpt>
      <trkpt lat="43.87319" lon="5.52021">
        <ele>390.2</ele>
        <time>2015-06-21T08:39:02Z</time>
      </trkpt>
      <trkpt lat="43.87327" lon="5.52014">
        <ele>390.9</ele>
        <time>2015-06-21T08:39:11Z</time>
      </trkpt>
      <trkpt lat="43.87336" lon="5.52011">
        <ele>391.2</ele>
        <time>2015-06-21T08:39:23Z</time>
      </trkpt>
      <trkpt lat="43.87346" lon="5.52016">
        <ele>391.1</ele>
        <time>2015-06-21T08:39:30Z</time>
      </trkpt>
      <trkpt lat="43.87348" lon="5.52029">
        <ele>391</ele>
        <time>2015-06-21T08:39:36Z</time>
      </trkpt>
      <trkpt lat="43.8735" lon="5.52043">
        <ele>390.8</ele>
        <time>2015-06-21T08:39:41Z</time>
      </trkpt>
      <trkpt lat="43.87353" lon="5.52057">
        <ele>390.6</ele>
        <time>2015-06-21T08:39:52Z</time>
      </trkpt>
      <trkpt lat="43.87345" lon="5.52068">
        <ele>390.4</ele>
        <time>2015-06-21T08:40:01Z</time>
      </trkpt>
      <trkpt lat="43.87337" lon="5.52077">
        <ele>390.3</ele>
        <time>2015-06-21T08:40:10Z</time>
      </trkpt>
      <trkpt lat="43.8733" lon="5.52086">
        <ele>390.4</ele>
        <time>2015-06-21T08:40:15Z</time>
      </trkpt>
      <trkpt lat="43.87327" lon="5.52099">
        <ele>390.8</ele>
        <time>2015-06-21T08:40:23Z</time>
      </trkpt>
      <trkpt lat="43.8732" lon="5.52111">
        <ele>391.1</ele>
        <time>2015-06-21T08:40:29Z</time>
      </trkpt>
      <trkpt lat="43.87329" lon="5.52115">
        <ele>391.6</ele>
        <time>2015-06-21T08:40:41Z</time>
      </trkpt>
      <trkpt lat="43.87337" lon="5.52109">
        <ele>391.8</ele>
        <time>2015-06-21T08:40:48Z</time>
      </trkpt>
      <trkpt lat="43.87342" lon="5.52098">
        <ele>391.8</ele>
        <time>2015-06-21T08:40:53Z</time>
      </trkpt>
      <trkpt lat="43.87352" lon="5.52093">
        <ele>392.6</ele>
        <time>2015-06-21T08:41:00Z</time>
      </trkpt>
      <trkpt lat="43.8736" lon="5.52088">
        <ele>392.2</ele>
        <time>2015-06-21T08:41:07Z</time>
      </trkpt>
      <trkpt lat="43.87369" lon="5.52083">
        <ele>392.5</ele>
        <time>2015-06-21T08:41:15Z</time>
      </trkpt>
      <trkpt lat="43.87378" lon="5.52081">
        <ele>392.9</ele>
        <time>2015-06-21T08:41:22Z</time>
      </trkpt>
      <trkpt lat="43.87387" lon="5.52078">
        <ele>393.4</ele>
        <time>2015-06-21T08:41:29Z</time>
      </trkpt>
      <trkpt lat="43.87396" lon="5.52073">
        <ele>394.3</ele>
        <time>2015-06-21T08:41:39Z</time>
      </trkpt>
      <trkpt lat="43.87407" lon="5.52068">
        <ele>395</ele>
        <time>2015-06-21T08:41:49Z</time>
      </trkpt>
      <trkpt lat="43.87417" lon="5.52065">
        <ele>395.2</ele>
        <time>2015-06-21T08:41:54Z</time>
      </trkpt>
      <trkpt lat="43.87427" lon="5.52062">
        <ele>395.6</ele>
        <time>2015-06-21T08:42:00Z</time>
      </trkpt>
      <trkpt lat="43.87436" lon="5.52059">
        <ele>396</ele>
        <time>2015-06-21T08:42:07Z</time>
      </trkpt>
      <trkpt lat="43.87446" lon="5.52062">
        <ele>396.4</ele>
        <time>2015-06-21T08:42:15Z</time>
      </trkpt>
      <trkpt lat="43.87455" lon="5.52063">
        <ele>396.9</ele>
        <time>2015-06-21T08:42:22Z</time>
      </trkpt>
      <trkpt lat="43.87464" lon="5.52061">
        <ele>397.5</ele>
        <time>2015-06-21T08:42:30Z</time>
      </trkpt>
      <trkpt lat="43.87473" lon="5.52058">
        <ele>397.9</ele>
        <time>2015-06-21T08:42:38Z</time>
      </trkpt>
      <trkpt lat="43.87483" lon="5.52058">
        <ele>398.3</ele>
        <time>2015-06-21T08:42:47Z</time>
      </trkpt>
      <trkpt lat="43.87496" lon="5.52058">
        <ele>398.6</ele>
        <time>2015-06-21T08:42:54Z</time>
      </trkpt>
      <trkpt lat="43.87505" lon="5.52063">
        <ele>399.1</ele>
        <time>2015-06-21T08:43:03Z</time>
      </trkpt>
      <trkpt lat="43.87514" lon="5.52063">
        <ele>399.5</ele>
        <time>2015-06-21T08:43:11Z</time>
      </trkpt>
      <trkpt lat="43.87524" lon="5.52065">
        <ele>400.1</ele>
        <time>2015-06-21T08:43:19Z</time>
      </trkpt>
      <trkpt lat="43.87533" lon="5.52064">
        <ele>400.5</ele>
        <time>2015-06-21T08:43:24Z</time>
      </trkpt>
      <trkpt lat="43.87543" lon="5.52065">
        <ele>401</ele>
        <time>2015-06-21T08:43:32Z</time>
      </trkpt>
      <trkpt lat="43.87552" lon="5.52072">
        <ele>401.5</ele>
        <time>2015-06-21T08:43:39Z</time>
      </trkpt>
      <trkpt lat="43.87561" lon="5.52079">
        <ele>402.1</ele>
        <time>2015-06-21T08:43:47Z</time>
      </trkpt>
      <trkpt lat="43.8757" lon="5.52083">
        <ele>402.4</ele>
        <time>2015-06-21T08:43:54Z</time>
      </trkpt>
      <trkpt lat="43.87579" lon="5.52087">
        <ele>402.7</ele>
        <time>2015-06-21T08:44:01Z</time>
      </trkpt>
      <trkpt lat="43.87588" lon="5.5209">
        <ele>403.1</ele>
        <time>2015-06-21T08:44:09Z</time>
      </trkpt>
      <trkpt lat="43.87598" lon="5.52092">
        <ele>403.5</ele>
        <time>2015-06-21T08:44:16Z</time>
      </trkpt>
      <trkpt lat="43.87607" lon="5.52094">
        <ele>404</ele>
        <time>2015-06-21T08:44:23Z</time>
      </trkpt>
      <trkpt lat="43.87616" lon="5.52098">
        <ele>404.3</ele>
        <time>2015-06-21T08:44:29Z</time>
      </trkpt>
      <trkpt lat="43.87626" lon="5.52103">
        <ele>404.6</ele>
        <time>2015-06-21T08:44:37Z</time>
      </trkpt>
      <trkpt lat="43.87635" lon="5.52107">
        <ele>404.9</ele>
        <time>2015-06-21T08:44:43Z</time>
      </trkpt>
      <trkpt lat="43.87644" lon="5.52111">
        <ele>405.2</ele>
        <time>2015-06-21T08:44:50Z</time>
      </trkpt>
      <trkpt lat="43.87655" lon="5.52113">
        <ele>405.7</ele>
        <time>2015-06-21T08:44:58Z</time>
      </trkpt>
      <trkpt lat="43.87664" lon="5.52119">
        <ele>406.1</ele>
        <time>2015-06-21T08:45:05Z</time>
      </trkpt>
      <trkpt lat="43.87673" lon="5.52124">
        <ele>406.7</ele>
        <time>2015-06-21T08:45:13Z</time>
      </trkpt>
      <trkpt lat="43.87682" lon="5.52131">
        <ele>407.3</ele>
        <time>2015-06-21T08:45:20Z</time>
      </trkpt>
      <trkpt lat="43.87692" lon="5.52135">
        <ele>407.7</ele>
        <time>2015-06-21T08:45:28Z</time>
      </trkpt>
      <trkpt lat="43.87701" lon="5.52139">
        <ele>407.7</ele>
        <time>2015-06-21T08:45:33Z</time>
      </trkpt>
      <trkpt lat="43.8771" lon="5.52144">
        <ele>408.1</ele>
        <time>2015-06-21T08:45:40Z</time>
      </trkpt>
      <trkpt lat="43.87719" lon="5.52151">
        <ele>408.3</ele>
        <time>2015-06-21T08:45:48Z</time>
      </trkpt>
      <trkpt lat="43.87727" lon="5.52158">
        <ele>408.4</ele>
        <time>2015-06-21T08:45:55Z</time>
      </trkpt>
      <trkpt lat="43.87735" lon="5.52164">
        <ele>408.8</ele>
        <time>2015-06-21T08:46:00Z</time>
      </trkpt>
      <trkpt lat="43.87743" lon="5.52172">
        <ele>409.4</ele>
        <time>2015-06-21T08:46:06Z</time>
      </trkpt>
      <trkpt lat="43.8775" lon="5.52179">
        <ele>409.7</ele>
        <time>2015-06-21T08:46:13Z</time>
      </trkpt>
      <trkpt lat="43.87759" lon="5.52186">
        <ele>410</ele>
        <time>2015-06-21T08:46:19Z</time>
      </trkpt>
      <trkpt lat="43.87767" lon="5.52194">
        <ele>410.6</ele>
        <time>2015-06-21T08:46:27Z</time>
      </trkpt>
      <trkpt lat="43.87774" lon="5.52204">
        <ele>411.2</ele>
        <time>2015-06-21T08:46:34Z</time>
      </trkpt>
      <trkpt lat="43.87783" lon="5.5221">
        <ele>411.7</ele>
        <time>2015-06-21T08:46:41Z</time>
      </trkpt>
      <trkpt lat="43.87792" lon="5.52215">
        <ele>412</ele>
        <time>2015-06-21T08:46:47Z</time>
      </trkpt>
      <trkpt lat="43.878" lon="5.52224">
        <ele>412.5</ele>
        <time>2015-06-21T08:46:56Z</time>
      </trkpt>
      <trkpt lat="43.87808" lon="5.52231">
        <ele>412.7</ele>
        <time>2015-06-21T08:47:02Z</time>
      </trkpt>
      <trkpt lat="43.87816" lon="5.52239">
        <ele>413.2</ele>
        <time>2015-06-21T08:47:07Z</time>
      </trkpt>
      <trkpt lat="43.87823" lon="5.52246">
        <ele>413.7</ele>
        <time>2015-06-21T08:47:14Z</time>
      </trkpt>
      <trkpt lat="43.8783" lon="5.52256">
        <ele>414</ele>
        <time>2015-06-21T08:47:21Z</time>
      </trkpt>
      <trkpt lat="43.87838" lon="5.52264">
        <ele>414.5</ele>
        <time>2015-06-21T08:47:26Z</time>
      </trkpt>
      <trkpt lat="43.87845" lon="5.52273">
        <ele>415.3</ele>
        <time>2015-06-21T08:47:34Z</time>
      </trkpt>
      <trkpt lat="43.87851" lon="5.52284">
        <ele>415.9</ele>
        <time>2015-06-21T08:47:41Z</time>
      </trkpt>
      <trkpt lat="43.87858" lon="5.52294">
        <ele>416.3</ele>
        <time>2015-06-21T08:47:48Z</time>
      </trkpt>
      <trkpt lat="43.87865" lon="5.52304">
        <ele>416.9</ele>
        <time>2015-06-21T08:47:55Z</time>
      </trkpt>
      <trkpt lat="43.8787" lon="5.52314">
        <ele>417.3</ele>
        <time>2015-06-21T08:48:01Z</time>
      </trkpt>
      <trkpt lat="43.87876" lon="5.52325">
        <ele>417.8</ele>
        <time>2015-06-21T08:48:08Z</time>
      </trkpt>
      <trkpt lat="43.87878" lon="5.52338">
        <ele>418.5</ele>
        <time>2015-06-21T08:48:16Z</time>
      </trkpt>
      <trkpt lat="43.87879" lon="5.5235">
        <ele>418.8</ele>
        <time>2015-06-21T08:48:24Z</time>
      </trkpt>
      <trkpt lat="43.87874" lon="5.52363">
        <ele>419</ele>
        <time>2015-06-21T08:48:32Z</time>
      </trkpt>
      <trkpt lat="43.87869" lon="5.52373">
        <ele>419.4</ele>
        <time>2015-06-21T08:48:40Z</time>
      </trkpt>
      <trkpt lat="43.87864" lon="5.52384">
        <ele>419.6</ele>
        <time>2015-06-21T08:48:47Z</time>
      </trkpt>
      <trkpt lat="43.87862" lon="5.52397">
        <ele>419.8</ele>
        <time>2015-06-21T08:48:54Z</time>
      </trkpt>
      <trkpt lat="43.87859" lon="5.5241">
        <ele>420.2</ele>
        <time>2015-06-21T08:49:00Z</time>
      </trkpt>
      <trkpt lat="43.87857" lon="5.52422">
        <ele>420.7</ele>
        <time>2015-06-21T08:49:09Z</time>
      </trkpt>
      <trkpt lat="43.87858" lon="5.52436">
        <ele>421</ele>
        <time>2015-06-21T08:49:16Z</time>
      </trkpt>
      <trkpt lat="43.87853" lon="5.52447">
        <ele>421.3</ele>
        <time>2015-06-21T08:49:23Z</time>
      </trkpt>
      <trkpt lat="43.87851" lon="5.5246">
        <ele>421.6</ele>
        <time>2015-06-21T08:49:31Z</time>
      </trkpt>
      <trkpt lat="43.87849" lon="5.52473">
        <ele>421.8</ele>
        <time>2015-06-21T08:49:38Z</time>
      </trkpt>
      <trkpt lat="43.87844" lon="5.52487">
        <ele>421.9</ele>
        <time>2015-06-21T08:49:45Z</time>
      </trkpt>
      <trkpt lat="43.87842" lon="5.525">
        <ele>421.9</ele>
        <time>2015-06-21T08:49:51Z</time>
      </trkpt>
      <trkpt lat="43.87842" lon="5.52513">
        <ele>422</ele>
        <time>2015-06-21T08:50:00Z</time>
      </trkpt>
      <trkpt lat="43.8784" lon="5.52527">
        <ele>422</ele>
        <time>2015-06-21T08:50:10Z</time>
      </trkpt>
      <trkpt lat="43.8784" lon="5.5254">
        <ele>422</ele>
        <time>2015-06-21T08:50:23Z</time>
      </trkpt>
      <trkpt lat="43.87839" lon="5.52553">
        <ele>422.2</ele>
        <time>2015-06-21T08:50:30Z</time>
      </trkpt>
      <trkpt lat="43.87842" lon="5.52566">
        <ele>422.3</ele>
        <time>2015-06-21T08:50:34Z</time>
      </trkpt>
      <trkpt lat="43.8785" lon="5.52569">
        <ele>422.5</ele>
        <time>2015-06-21T08:50:43Z</time>
      </trkpt>
      <trkpt lat="43.87859" lon="5.52569">
        <ele>422.6</ele>
        <time>2015-06-21T08:50:50Z</time>
      </trkpt>
      <trkpt lat="43.87869" lon="5.52567">
        <ele>422.7</ele>
        <time>2015-06-21T08:50:57Z</time>
      </trkpt>
      <trkpt lat="43.87878" lon="5.52573">
        <ele>422.7</ele>
        <time>2015-06-21T08:51:05Z</time>
      </trkpt>
      <trkpt lat="43.87887" lon="5.52579">
        <ele>422.7</ele>
        <time>2015-06-21T08:51:12Z</time>
      </trkpt>
      <trkpt lat="43.87893" lon="5.5259">
        <ele>423</ele>
        <time>2015-06-21T08:51:19Z</time>
      </trkpt>
      <trkpt lat="43.879" lon="5.52598">
        <ele>423.1</ele>
        <time>2015-06-21T08:51:26Z</time>
      </trkpt>
      <trkpt lat="43.87907" lon="5.52607">
        <ele>423.1</ele>
        <time>2015-06-21T08:51:33Z</time>
      </trkpt>
      <trkpt lat="43.87915" lon="5.52613">
        <ele>423.1</ele>
        <time>2015-06-21T08:51:38Z</time>
      </trkpt>
      <trkpt lat="43.87924" lon="5.52618">
        <ele>423.1</ele>
        <time>2015-06-21T08:51:46Z</time>
      </trkpt>
      <trkpt lat="43.87931" lon="5.52625">
        <ele>423.3</ele>
        <time>2015-06-21T08:51:54Z</time>
      </trkpt>
      <trkpt lat="43.87942" lon="5.52627">
        <ele>423.7</ele>
        <time>2015-06-21T08:52:01Z</time>
      </trkpt>
      <trkpt lat="43.8795" lon="5.52632">
        <ele>423.9</ele>
        <time>2015-06-21T08:52:09Z</time>
      </trkpt>
      <trkpt lat="43.87958" lon="5.52638">
        <ele>424</ele>
        <time>2015-06-21T08:52:16Z</time>
      </trkpt>
      <trkpt lat="43.87966" lon="5.52643">
        <ele>424.1</ele>
        <time>2015-06-21T08:52:22Z</time>
      </trkpt>
      <trkpt lat="43.87974" lon="5.52648">
        <ele>424.2</ele>
        <time>2015-06-21T08:52:28Z</time>
      </trkpt>
      <trkpt lat="43.87983" lon="5.52652">
        <ele>424.2</ele>
        <time>2015-06-21T08:52:36Z</time>
      </trkpt>
      <trkpt lat="43.87993" lon="5.52655">
        <ele>424.2</ele>
        <time>2015-06-21T08:52:42Z</time>
      </trkpt>
      <trkpt lat="43.88004" lon="5.52658">
        <ele>424.2</ele>
        <time>2015-06-21T08:52:49Z</time>
      </trkpt>
      <trkpt lat="43.88013" lon="5.52664">
        <ele>424.2</ele>
        <time>2015-06-21T08:52:56Z</time>
      </trkpt>
      <trkpt lat="43.88021" lon="5.5267">
        <ele>424.1</ele>
        <time>2015-06-21T08:53:04Z</time>
      </trkpt>
      <trkpt lat="43.88029" lon="5.52679">
        <ele>424.1</ele>
        <time>2015-06-21T08:53:11Z</time>
      </trkpt>
      <trkpt lat="43.88037" lon="5.52687">
        <ele>424.2</ele>
        <time>2015-06-21T08:53:20Z</time>
      </trkpt>
      <trkpt lat="43.88043" lon="5.52698">
        <ele>424.3</ele>
        <time>2015-06-21T08:53:28Z</time>
      </trkpt>
      <trkpt lat="43.88048" lon="5.5271">
        <ele>424.4</ele>
        <time>2015-06-21T08:53:35Z</time>
      </trkpt>
      <trkpt lat="43.88053" lon="5.52724">
        <ele>424.4</ele>
        <time>2015-06-21T08:53:42Z</time>
      </trkpt>
      <trkpt lat="43.88058" lon="5.52734">
        <ele>424.4</ele>
        <time>2015-06-21T08:53:48Z</time>
      </trkpt>
      <trkpt lat="43.88063" lon="5.52745">
        <ele>424.2</ele>
        <time>2015-06-21T08:53:55Z</time>
      </trkpt>
      <trkpt lat="43.88069" lon="5.52755">
        <ele>423.8</ele>
        <time>2015-06-21T08:54:01Z</time>
      </trkpt>
      <trkpt lat="43.88078" lon="5.52762">
        <ele>423.5</ele>
        <time>2015-06-21T08:54:08Z</time>
      </trkpt>
      <trkpt lat="43.88087" lon="5.52769">
        <ele>423.3</ele>
        <time>2015-06-21T08:54:13Z</time>
      </trkpt>
      <trkpt lat="43.88097" lon="5.52772">
        <ele>423</ele>
        <time>2015-06-21T08:54:19Z</time>
      </trkpt>
      <trkpt lat="43.88107" lon="5.52773">
        <ele>422.6</ele>
        <time>2015-06-21T08:54:27Z</time>
      </trkpt>
      <trkpt lat="43.88116" lon="5.52776">
        <ele>422.3</ele>
        <time>2015-06-21T08:54:34Z</time>
      </trkpt>
      <trkpt lat="43.88125" lon="5.52782">
        <ele>422</ele>
        <time>2015-06-21T08:54:41Z</time>
      </trkpt>
      <trkpt lat="43.88133" lon="5.52789">
        <ele>421.7</ele>
        <time>2015-06-21T08:54:48Z</time>
      </trkpt>
      <trkpt lat="43.88142" lon="5.52796">
        <ele>421.6</ele>
        <time>2015-06-21T08:54:56Z</time>
      </trkpt>
      <trkpt lat="43.8815" lon="5.52803">
        <ele>421.5</ele>
        <time>2015-06-21T08:55:03Z</time>
      </trkpt>
      <trkpt lat="43.88158" lon="5.5281">
        <ele>421.3</ele>
        <time>2015-06-21T08:55:11Z</time>
      </trkpt>
      <trkpt lat="43.88167" lon="5.52817">
        <ele>421.3</ele>
        <time>2015-06-21T08:55:19Z</time>
      </trkpt>
      <trkpt lat="43.88172" lon="5.52827">
        <ele>421.3</ele>
        <time>2015-06-21T08:55:26Z</time>
      </trkpt>
      <trkpt lat="43.8818" lon="5.52835">
        <ele>421.2</ele>
        <time>2015-06-21T08:55:33Z</time>
      </trkpt>
      <trkpt lat="43.88188" lon="5.52843">
        <ele>421.2</ele>
        <time>2015-06-21T08:55:40Z</time>
      </trkpt>
      <trkpt lat="43.88196" lon="5.52849">
        <ele>421.2</ele>
        <time>2015-06-21T08:55:46Z</time>
      </trkpt>
      <trkpt lat="43.88204" lon="5.52856">
        <ele>421.3</ele>
        <time>2015-06-21T08:55:53Z</time>
      </trkpt>
      <trkpt lat="43.8821" lon="5.52867">
        <ele>421.4</ele>
        <time>2015-06-21T08:56:00Z</time>
      </trkpt>
      <trkpt lat="43.88215" lon="5.52879">
        <ele>421.5</ele>
        <time>2015-06-21T08:56:08Z</time>
      </trkpt>
      <trkpt lat="43.88222" lon="5.52888">
        <ele>421.5</ele>
        <time>2015-06-21T08:56:15Z</time>
      </trkpt>
      <trkpt lat="43.88231" lon="5.52895">
        <ele>421.8</ele>
        <time>2015-06-21T08:56:21Z</time>
      </trkpt>
      <trkpt lat="43.88238" lon="5.52905">
        <ele>422</ele>
        <time>2015-06-21T08:56:27Z</time>
      </trkpt>
      <trkpt lat="43.88244" lon="5.52915">
        <ele>422.1</ele>
        <time>2015-06-21T08:56:33Z</time>
      </trkpt>
      <trkpt lat="43.88249" lon="5.52927">
        <ele>422.4</ele>
        <time>2015-06-21T08:56:40Z</time>
      </trkpt>
      <trkpt lat="43.88253" lon="5.5294">
        <ele>422.7</ele>
        <time>2015-06-21T08:56:48Z</time>
      </trkpt>
      <trkpt lat="43.88259" lon="5.52949">
        <ele>422.8</ele>
        <time>2015-06-21T08:56:54Z</time>
      </trkpt>
      <trkpt lat="43.88264" lon="5.52962">
        <ele>423</ele>
        <time>2015-06-21T08:57:02Z</time>
      </trkpt>
      <trkpt lat="43.88269" lon="5.52972">
        <ele>423.1</ele>
        <time>2015-06-21T08:57:08Z</time>
      </trkpt>
      <trkpt lat="43.88274" lon="5.52984">
        <ele>423.4</ele>
        <time>2015-06-21T08:57:15Z</time>
      </trkpt>
      <trkpt lat="43.88279" lon="5.52995">
        <ele>423.6</ele>
        <time>2015-06-21T08:57:22Z</time>
      </trkpt>
      <trkpt lat="43.88287" lon="5.53004">
        <ele>423.8</ele>
        <time>2015-06-21T08:57:28Z</time>
      </trkpt>
      <trkpt lat="43.88294" lon="5.53013">
        <ele>423.8</ele>
        <time>2015-06-21T08:57:35Z</time>
      </trkpt>
      <trkpt lat="43.88301" lon="5.53023">
        <ele>423.7</ele>
        <time>2015-06-21T08:57:44Z</time>
      </trkpt>
      <trkpt lat="43.88308" lon="5.53031">
        <ele>423.6</ele>
        <time>2015-06-21T08:57:50Z</time>
      </trkpt>
      <trkpt lat="43.88315" lon="5.53039">
        <ele>423.4</ele>
        <time>2015-06-21T08:57:56Z</time>
      </trkpt>
      <trkpt lat="43.88321" lon="5.5305">
        <ele>423.2</ele>
        <time>2015-06-21T08:58:04Z</time>
      </trkpt>
      <trkpt lat="43.88327" lon="5.53061">
        <ele>423</ele>
        <time>2015-06-21T08:58:12Z</time>
      </trkpt>
      <trkpt lat="43.88336" lon="5.53069">
        <ele>423</ele>
        <time>2015-06-21T08:58:18Z</time>
      </trkpt>
      <trkpt lat="43.88344" lon="5.53076">
        <ele>422.8</ele>
        <time>2015-06-21T08:58:25Z</time>
      </trkpt>
      <trkpt lat="43.88352" lon="5.53086">
        <ele>422.9</ele>
        <time>2015-06-21T08:58:32Z</time>
      </trkpt>
      <trkpt lat="43.88356" lon="5.53099">
        <ele>422.9</ele>
        <time>2015-06-21T08:58:40Z</time>
      </trkpt>
      <trkpt lat="43.88362" lon="5.5311">
        <ele>423</ele>
        <time>2015-06-21T08:58:47Z</time>
      </trkpt>
      <trkpt lat="43.88366" lon="5.53123">
        <ele>423.2</ele>
        <time>2015-06-21T08:58:54Z</time>
      </trkpt>
      <trkpt lat="43.88372" lon="5.53133">
        <ele>423.3</ele>
        <time>2015-06-21T08:59:00Z</time>
      </trkpt>
      <trkpt lat="43.88375" lon="5.53147">
        <ele>423.5</ele>
        <time>2015-06-21T08:59:08Z</time>
      </trkpt>
      <trkpt lat="43.88377" lon="5.5316">
        <ele>423.7</ele>
        <time>2015-06-21T08:59:16Z</time>
      </trkpt>
      <trkpt lat="43.88375" lon="5.53173">
        <ele>423.7</ele>
        <time>2015-06-21T08:59:26Z</time>
      </trkpt>
      <trkpt lat="43.88377" lon="5.53186">
        <ele>423.8</ele>
        <time>2015-06-21T08:59:34Z</time>
      </trkpt>
      <trkpt lat="43.88387" lon="5.53187">
        <ele>423.8</ele>
        <time>2015-06-21T08:59:43Z</time>
      </trkpt>
      <trkpt lat="43.88397" lon="5.53189">
        <ele>423.8</ele>
        <time>2015-06-21T08:59:49Z</time>
      </trkpt>
      <trkpt lat="43.88406" lon="5.53194">
        <ele>423.9</ele>
        <time>2015-06-21T08:59:55Z</time>
      </trkpt>
      <trkpt lat="43.88413" lon="5.53202">
        <ele>424.1</ele>
        <time>2015-06-21T09:00:03Z</time>
      </trkpt>
      <trkpt lat="43.88423" lon="5.53206">
        <ele>424.3</ele>
        <time>2015-06-21T09:00:08Z</time>
      </trkpt>
      <trkpt lat="43.88432" lon="5.53212">
        <ele>424.6</ele>
        <time>2015-06-21T09:00:12Z</time>
      </trkpt>
      <trkpt lat="43.88441" lon="5.53216">
        <ele>425.4</ele>
        <time>2015-06-21T09:00:21Z</time>
      </trkpt>
      <trkpt lat="43.88449" lon="5.53224">
        <ele>426.1</ele>
        <time>2015-06-21T09:00:30Z</time>
      </trkpt>
      <trkpt lat="43.88454" lon="5.53235">
        <ele>426.7</ele>
        <time>2015-06-21T09:00:37Z</time>
      </trkpt>
      <trkpt lat="43.88461" lon="5.53245">
        <ele>427.5</ele>
        <time>2015-06-21T09:00:44Z</time>
      </trkpt>
      <trkpt lat="43.88469" lon="5.53256">
        <ele>428.2</ele>
        <time>2015-06-21T09:00:51Z</time>
      </trkpt>
      <trkpt lat="43.88477" lon="5.53264">
        <ele>428.7</ele>
        <time>2015-06-21T09:00:57Z</time>
      </trkpt>
      <trkpt lat="43.88485" lon="5.53271">
        <ele>429.2</ele>
        <time>2015-06-21T09:01:02Z</time>
      </trkpt>
      <trkpt lat="43.88492" lon="5.53279">
        <ele>429.7</ele>
        <time>2015-06-21T09:01:08Z</time>
      </trkpt>
      <trkpt lat="43.88501" lon="5.53281">
        <ele>430.2</ele>
        <time>2015-06-21T09:01:14Z</time>
      </trkpt>
      <trkpt lat="43.88509" lon="5.53288">
        <ele>430.8</ele>
        <time>2015-06-21T09:01:21Z</time>
      </trkpt>
      <trkpt lat="43.88518" lon="5.53295">
        <ele>431.3</ele>
        <time>2015-06-21T09:01:27Z</time>
      </trkpt>
      <trkpt lat="43.88527" lon="5.53298">
        <ele>432.1</ele>
        <time>2015-06-21T09:01:33Z</time>
      </trkpt>
      <trkpt lat="43.88536" lon="5.53302">
        <ele>433</ele>
        <time>2015-06-21T09:01:40Z</time>
      </trkpt>
      <trkpt lat="43.88544" lon="5.53308">
        <ele>433.9</ele>
        <time>2015-06-21T09:01:46Z</time>
      </trkpt>
      <trkpt lat="43.88554" lon="5.53313">
        <ele>434.7</ele>
        <time>2015-06-21T09:01:54Z</time>
      </trkpt>
      <trkpt lat="43.88564" lon="5.53316">
        <ele>435.3</ele>
        <time>2015-06-21T09:02:00Z</time>
      </trkpt>
      <trkpt lat="43.88572" lon="5.53322">
        <ele>436.1</ele>
        <time>2015-06-21T09:02:08Z</time>
      </trkpt>
      <trkpt lat="43.88581" lon="5.53327">
        <ele>436.9</ele>
        <time>2015-06-21T09:02:15Z</time>
      </trkpt>
      <trkpt lat="43.88591" lon="5.53333">
        <ele>438.2</ele>
        <time>2015-06-21T09:02:25Z</time>
      </trkpt>
      <trkpt lat="43.886" lon="5.53336">
        <ele>438.9</ele>
        <time>2015-06-21T09:02:31Z</time>
      </trkpt>
      <trkpt lat="43.8861" lon="5.53343">
        <ele>439.6</ele>
        <time>2015-06-21T09:02:38Z</time>
      </trkpt>
      <trkpt lat="43.8862" lon="5.53347">
        <ele>440.1</ele>
        <time>2015-06-21T09:02:43Z</time>
      </trkpt>
      <trkpt lat="43.88629" lon="5.53352">
        <ele>440.9</ele>
        <time>2015-06-21T09:02:50Z</time>
      </trkpt>
      <trkpt lat="43.88638" lon="5.53355">
        <ele>441.9</ele>
        <time>2015-06-21T09:02:57Z</time>
      </trkpt>
      <trkpt lat="43.88648" lon="5.53361">
        <ele>442.9</ele>
        <time>2015-06-21T09:03:05Z</time>
      </trkpt>
      <trkpt lat="43.88656" lon="5.53366">
        <ele>443.7</ele>
        <time>2015-06-21T09:03:11Z</time>
      </trkpt>
      <trkpt lat="43.88664" lon="5.53371">
        <ele>444.2</ele>
        <time>2015-06-21T09:03:17Z</time>
      </trkpt>
      <trkpt lat="43.88673" lon="5.53378">
        <ele>445.3</ele>
        <time>2015-06-21T09:03:26Z</time>
      </trkpt>
      <trkpt lat="43.88682" lon="5.53385">
        <ele>445.9</ele>
        <time>2015-06-21T09:03:34Z</time>
      </trkpt>
      <trkpt lat="43.8869" lon="5.53393">
        <ele>446.5</ele>
        <time>2015-06-21T09:03:42Z</time>
      </trkpt>
      <trkpt lat="43.887" lon="5.53395">
        <ele>446.9</ele>
        <time>2015-06-21T09:03:47Z</time>
      </trkpt>
      <trkpt lat="43.8871" lon="5.53399">
        <ele>447.3</ele>
        <time>2015-06-21T09:03:52Z</time>
      </trkpt>
      <trkpt lat="43.88719" lon="5.53404">
        <ele>447.9</ele>
        <time>2015-06-21T09:03:57Z</time>
      </trkpt>
      <trkpt lat="43.88728" lon="5.53409">
        <ele>448.6</ele>
        <time>2015-06-21T09:04:03Z</time>
      </trkpt>
      <trkpt lat="43.88736" lon="5.53414">
        <ele>449.2</ele>
        <time>2015-06-21T09:04:08Z</time>
      </trkpt>
      <trkpt lat="43.88745" lon="5.53422">
        <ele>449.7</ele>
        <time>2015-06-21T09:04:14Z</time>
      </trkpt>
      <trkpt lat="43.88754" lon="5.53424">
        <ele>450.3</ele>
        <time>2015-06-21T09:04:20Z</time>
      </trkpt>
      <trkpt lat="43.88763" lon="5.53428">
        <ele>450.8</ele>
        <time>2015-06-21T09:04:26Z</time>
      </trkpt>
      <trkpt lat="43.88773" lon="5.53433">
        <ele>451.5</ele>
        <time>2015-06-21T09:04:32Z</time>
      </trkpt>
      <trkpt lat="43.88782" lon="5.53437">
        <ele>452.3</ele>
        <time>2015-06-21T09:04:38Z</time>
      </trkpt>
      <trkpt lat="43.8879" lon="5.53443">
        <ele>453.3</ele>
        <time>2015-06-21T09:04:46Z</time>
      </trkpt>
      <trkpt lat="43.88799" lon="5.53452">
        <ele>454</ele>
        <time>2015-06-21T09:04:52Z</time>
      </trkpt>
      <trkpt lat="43.88809" lon="5.53456">
        <ele>454.8</ele>
        <time>2015-06-21T09:04:58Z</time>
      </trkpt>
      <trkpt lat="43.88819" lon="5.53459">
        <ele>455.6</ele>
        <time>2015-06-21T09:05:04Z</time>
      </trkpt>
      <trkpt lat="43.88828" lon="5.53463">
        <ele>456.2</ele>
        <time>2015-06-21T09:05:09Z</time>
      </trkpt>
      <trkpt lat="43.88838" lon="5.53467">
        <ele>457.1</ele>
        <time>2015-06-21T09:05:16Z</time>
      </trkpt>
      <trkpt lat="43.88847" lon="5.53472">
        <ele>457.7</ele>
        <time>2015-06-21T09:05:22Z</time>
      </trkpt>
      <trkpt lat="43.88855" lon="5.5348">
        <ele>458.5</ele>
        <time>2015-06-21T09:05:28Z</time>
      </trkpt>
      <trkpt lat="43.88865" lon="5.53485">
        <ele>459.3</ele>
        <time>2015-06-21T09:05:35Z</time>
      </trkpt>
      <trkpt lat="43.88873" lon="5.5349">
        <ele>459.9</ele>
        <time>2015-06-21T09:05:41Z</time>
      </trkpt>
      <trkpt lat="43.88882" lon="5.53494">
        <ele>460.7</ele>
        <time>2015-06-21T09:05:48Z</time>
      </trkpt>
      <trkpt lat="43.8889" lon="5.53502">
        <ele>461.6</ele>
        <time>2015-06-21T09:05:56Z</time>
      </trkpt>
      <trkpt lat="43.88899" lon="5.53507">
        <ele>462.2</ele>
        <time>2015-06-21T09:06:02Z</time>
      </trkpt>
      <trkpt lat="43.88909" lon="5.53511">
        <ele>462.6</ele>
        <time>2015-06-21T09:06:07Z</time>
      </trkpt>
      <trkpt lat="43.88916" lon="5.5352">
        <ele>463.3</ele>
        <time>2015-06-21T09:06:14Z</time>
      </trkpt>
      <trkpt lat="43.88922" lon="5.5353">
        <ele>464</ele>
        <time>2015-06-21T09:06:20Z</time>
      </trkpt>
      <trkpt lat="43.88931" lon="5.53538">
        <ele>464.6</ele>
        <time>2015-06-21T09:06:27Z</time>
      </trkpt>
      <trkpt lat="43.88939" lon="5.53544">
        <ele>465.4</ele>
        <time>2015-06-21T09:06:34Z</time>
      </trkpt>
      <trkpt lat="43.88948" lon="5.53552">
        <ele>466.2</ele>
        <time>2015-06-21T09:06:42Z</time>
      </trkpt>
      <trkpt lat="43.88956" lon="5.53559">
        <ele>466.7</ele>
        <time>2015-06-21T09:06:48Z</time>
      </trkpt>
      <trkpt lat="43.88966" lon="5.53564">
        <ele>467.3</ele>
        <time>2015-06-21T09:06:53Z</time>
      </trkpt>
      <trkpt lat="43.88973" lon="5.53574">
        <ele>468</ele>
        <time>2015-06-21T09:07:02Z</time>
      </trkpt>
      <trkpt lat="43.88977" lon="5.53586">
        <ele>469.1</ele>
        <time>2015-06-21T09:07:13Z</time>
      </trkpt>
      <trkpt lat="43.88985" lon="5.53593">
        <ele>469.6</ele>
        <time>2015-06-21T09:07:19Z</time>
      </trkpt>
      <trkpt lat="43.88992" lon="5.536">
        <ele>470.2</ele>
        <time>2015-06-21T09:07:27Z</time>
      </trkpt>
      <trkpt lat="43.89002" lon="5.53605">
        <ele>470.6</ele>
        <time>2015-06-21T09:07:31Z</time>
      </trkpt>
      <trkpt lat="43.89012" lon="5.53609">
        <ele>471</ele>
        <time>2015-06-21T09:07:35Z</time>
      </trkpt>
      <trkpt lat="43.8902" lon="5.53615">
        <ele>471.6</ele>
        <time>2015-06-21T09:07:42Z</time>
      </trkpt>
      <trkpt lat="43.89029" lon="5.5362">
        <ele>472.1</ele>
        <time>2015-06-21T09:07:48Z</time>
      </trkpt>
      <trkpt lat="43.89035" lon="5.53631">
        <ele>472.6</ele>
        <time>2015-06-21T09:07:54Z</time>
      </trkpt>
      <trkpt lat="43.89043" lon="5.53639">
        <ele>473</ele>
        <time>2015-06-21T09:07:58Z</time>
      </trkpt>
      <trkpt lat="43.89049" lon="5.53648">
        <ele>473.5</ele>
        <time>2015-06-21T09:08:04Z</time>
      </trkpt>
      <trkpt lat="43.89057" lon="5.53659">
        <ele>474</ele>
        <time>2015-06-21T09:08:11Z</time>
      </trkpt>
      <trkpt lat="43.89065" lon="5.53668">
        <ele>474.8</ele>
        <time>2015-06-21T09:08:18Z</time>
      </trkpt>
      <trkpt lat="43.89074" lon="5.53674">
        <ele>475.3</ele>
        <time>2015-06-21T09:08:24Z</time>
      </trkpt>
      <trkpt lat="43.89082" lon="5.53679">
        <ele>475.8</ele>
        <time>2015-06-21T09:08:31Z</time>
      </trkpt>
      <trkpt lat="43.89092" lon="5.53685">
        <ele>476.1</ele>
        <time>2015-06-21T09:08:38Z</time>
      </trkpt>
      <trkpt lat="43.89101" lon="5.53688">
        <ele>476.4</ele>
        <time>2015-06-21T09:08:44Z</time>
      </trkpt>
      <trkpt lat="43.8911" lon="5.53692">
        <ele>476.9</ele>
        <time>2015-06-21T09:08:52Z</time>
      </trkpt>
      <trkpt lat="43.8912" lon="5.53694">
        <ele>477.1</ele>
        <time>2015-06-21T09:08:58Z</time>
      </trkpt>
      <trkpt lat="43.8913" lon="5.53696">
        <ele>477.2</ele>
        <time>2015-06-21T09:09:03Z</time>
      </trkpt>
      <trkpt lat="43.89141" lon="5.537">
        <ele>477.3</ele>
        <time>2015-06-21T09:09:08Z</time>
      </trkpt>
      <trkpt lat="43.8915" lon="5.53705">
        <ele>477.4</ele>
        <time>2015-06-21T09:09:16Z</time>
      </trkpt>
      <trkpt lat="43.8916" lon="5.53705">
        <ele>477.4</ele>
        <time>2015-06-21T09:09:20Z</time>
      </trkpt>
      <trkpt lat="43.89171" lon="5.53706">
        <ele>477.4</ele>
        <time>2015-06-21T09:09:24Z</time>
      </trkpt>
      <trkpt lat="43.89181" lon="5.53704">
        <ele>477.3</ele>
        <time>2015-06-21T09:09:29Z</time>
      </trkpt>
      <trkpt lat="43.8919" lon="5.53695">
        <ele>477.3</ele>
        <time>2015-06-21T09:09:37Z</time>
      </trkpt>
      <trkpt lat="43.89195" lon="5.53683">
        <ele>477.3</ele>
        <time>2015-06-21T09:09:46Z</time>
      </trkpt>
      <trkpt lat="43.89204" lon="5.53678">
        <ele>477.3</ele>
        <time>2015-06-21T09:09:50Z</time>
      </trkpt>
      <trkpt lat="43.89213" lon="5.53676">
        <ele>477.3</ele>
        <time>2015-06-21T09:09:56Z</time>
      </trkpt>
      <trkpt lat="43.89223" lon="5.53676">
        <ele>477</ele>
        <time>2015-06-21T09:10:02Z</time>
      </trkpt>
      <trkpt lat="43.89232" lon="5.53678">
        <ele>476.8</ele>
        <time>2015-06-21T09:10:07Z</time>
      </trkpt>
      <trkpt lat="43.89242" lon="5.53674">
        <ele>476.7</ele>
        <time>2015-06-21T09:10:11Z</time>
      </trkpt>
      <trkpt lat="43.89252" lon="5.53673">
        <ele>476.5</ele>
        <time>2015-06-21T09:10:17Z</time>
      </trkpt>
      <trkpt lat="43.89261" lon="5.53674">
        <ele>476.3</ele>
        <time>2015-06-21T09:10:24Z</time>
      </trkpt>
      <trkpt lat="43.89272" lon="5.53674">
        <ele>476.2</ele>
        <time>2015-06-21T09:10:31Z</time>
      </trkpt>
      <trkpt lat="43.89281" lon="5.53672">
        <ele>476.2</ele>
        <time>2015-06-21T09:10:36Z</time>
      </trkpt>
      <trkpt lat="43.89292" lon="5.53665">
        <ele>476.3</ele>
        <time>2015-06-21T09:10:41Z</time>
      </trkpt>
      <trkpt lat="43.89303" lon="5.53661">
        <ele>476.7</ele>
        <time>2015-06-21T09:10:46Z</time>
      </trkpt>
      <trkpt lat="43.89312" lon="5.53655">
        <ele>477.1</ele>
        <time>2015-06-21T09:10:49Z</time>
      </trkpt>
      <trkpt lat="43.89322" lon="5.53657">
        <ele>478.8</ele>
        <time>2015-06-21T09:11:00Z</time>
      </trkpt>
      <trkpt lat="43.89332" lon="5.53662">
        <ele>479.7</ele>
        <time>2015-06-21T09:11:06Z</time>
      </trkpt>
      <trkpt lat="43.89343" lon="5.53665">
        <ele>480.5</ele>
        <time>2015-06-21T09:11:11Z</time>
      </trkpt>
      <trkpt lat="43.89354" lon="5.53663">
        <ele>481.8</ele>
        <time>2015-06-21T09:11:19Z</time>
      </trkpt>
      <trkpt lat="43.89363" lon="5.53658">
        <ele>483.4</ele>
        <time>2015-06-21T09:11:28Z</time>
      </trkpt>
      <trkpt lat="43.89372" lon="5.53654">
        <ele>484.3</ele>
        <time>2015-06-21T09:11:35Z</time>
      </trkpt>
      <trkpt lat="43.89381" lon="5.53652">
        <ele>485.3</ele>
        <time>2015-06-21T09:11:41Z</time>
      </trkpt>
      <trkpt lat="43.8939" lon="5.53651">
        <ele>486.7</ele>
        <time>2015-06-21T09:11:49Z</time>
      </trkpt>
      <trkpt lat="43.89402" lon="5.53653">
        <ele>487.5</ele>
        <time>2015-06-21T09:11:54Z</time>
      </trkpt>
      <trkpt lat="43.89412" lon="5.53653">
        <ele>488.3</ele>
        <time>2015-06-21T09:11:59Z</time>
      </trkpt>
      <trkpt lat="43.89421" lon="5.53651">
        <ele>489.3</ele>
        <time>2015-06-21T09:12:06Z</time>
      </trkpt>
      <trkpt lat="43.89429" lon="5.53644">
        <ele>490.4</ele>
        <time>2015-06-21T09:12:14Z</time>
      </trkpt>
      <trkpt lat="43.89439" lon="5.53642">
        <ele>491.5</ele>
        <time>2015-06-21T09:12:21Z</time>
      </trkpt>
      <trkpt lat="43.89449" lon="5.53643">
        <ele>492.7</ele>
        <time>2015-06-21T09:12:27Z</time>
      </trkpt>
      <trkpt lat="43.89456" lon="5.53635">
        <ele>494.7</ele>
        <time>2015-06-21T09:12:40Z</time>
      </trkpt>
      <trkpt lat="43.89466" lon="5.53635">
        <ele>496.4</ele>
        <time>2015-06-21T09:12:51Z</time>
      </trkpt>
      <trkpt lat="43.89473" lon="5.53642">
        <ele>498</ele>
        <time>2015-06-21T09:13:00Z</time>
      </trkpt>
      <trkpt lat="43.89479" lon="5.53653">
        <ele>498.7</ele>
        <time>2015-06-21T09:13:05Z</time>
      </trkpt>
      <trkpt lat="43.89486" lon="5.53663">
        <ele>499.9</ele>
        <time>2015-06-21T09:13:12Z</time>
      </trkpt>
      <trkpt lat="43.89494" lon="5.5367">
        <ele>501.1</ele>
        <time>2015-06-21T09:13:19Z</time>
      </trkpt>
      <trkpt lat="43.89502" lon="5.53677">
        <ele>501.9</ele>
        <time>2015-06-21T09:13:26Z</time>
      </trkpt>
      <trkpt lat="43.8951" lon="5.53684">
        <ele>503.1</ele>
        <time>2015-06-21T09:13:33Z</time>
      </trkpt>
      <trkpt lat="43.89517" lon="5.53695">
        <ele>504</ele>
        <time>2015-06-21T09:13:40Z</time>
      </trkpt>
      <trkpt lat="43.89522" lon="5.53708">
        <ele>504.6</ele>
        <time>2015-06-21T09:13:46Z</time>
      </trkpt>
      <trkpt lat="43.89534" lon="5.53719">
        <ele>505.8</ele>
        <time>2015-06-21T09:13:53Z</time>
      </trkpt>
      <trkpt lat="43.89544" lon="5.53724">
        <ele>506.7</ele>
        <time>2015-06-21T09:13:59Z</time>
      </trkpt>
      <trkpt lat="43.89528" lon="5.53742">
        <ele>508</ele>
        <time>2015-06-21T09:14:12Z</time>
      </trkpt>
      <trkpt lat="43.89519" lon="5.53747">
        <ele>509.2</ele>
        <time>2015-06-21T09:14:17Z</time>
      </trkpt>
      <trkpt lat="43.8953" lon="5.53749">
        <ele>510.5</ele>
        <time>2015-06-21T09:14:27Z</time>
      </trkpt>
      <trkpt lat="43.8954" lon="5.53747">
        <ele>512.1</ele>
        <time>2015-06-21T09:14:36Z</time>
      </trkpt>
      <trkpt lat="43.89548" lon="5.5375">
        <ele>514.9</ele>
        <time>2015-06-21T09:14:47Z</time>
      </trkpt>
      <trkpt lat="43.89557" lon="5.53754">
        <ele>516.9</ele>
        <time>2015-06-21T09:14:54Z</time>
      </trkpt>
      <trkpt lat="43.89568" lon="5.53757">
        <ele>518.2</ele>
        <time>2015-06-21T09:14:59Z</time>
      </trkpt>
      <trkpt lat="43.89577" lon="5.53756">
        <ele>519.5</ele>
        <time>2015-06-21T09:15:06Z</time>
      </trkpt>
      <trkpt lat="43.89585" lon="5.53749">
        <ele>521.6</ele>
        <time>2015-06-21T09:15:19Z</time>
      </trkpt>
      <trkpt lat="43.89596" lon="5.5375">
        <ele>523.2</ele>
        <time>2015-06-21T09:15:27Z</time>
      </trkpt>
      <trkpt lat="43.89607" lon="5.53752">
        <ele>524</ele>
        <time>2015-06-21T09:15:32Z</time>
      </trkpt>
      <trkpt lat="43.89617" lon="5.53755">
        <ele>525</ele>
        <time>2015-06-21T09:15:37Z</time>
      </trkpt>
      <trkpt lat="43.89626" lon="5.5376">
        <ele>526.7</ele>
        <time>2015-06-21T09:15:45Z</time>
      </trkpt>
      <trkpt lat="43.89635" lon="5.53761">
        <ele>528</ele>
        <time>2015-06-21T09:15:51Z</time>
      </trkpt>
      <trkpt lat="43.89644" lon="5.53764">
        <ele>529.3</ele>
        <time>2015-06-21T09:15:57Z</time>
      </trkpt>
      <trkpt lat="43.89653" lon="5.53766">
        <ele>530.8</ele>
        <time>2015-06-21T09:16:04Z</time>
      </trkpt>
      <trkpt lat="43.89662" lon="5.53771">
        <ele>531.8</ele>
        <time>2015-06-21T09:16:09Z</time>
      </trkpt>
      <trkpt lat="43.89671" lon="5.53774">
        <ele>533.4</ele>
        <time>2015-06-21T09:16:17Z</time>
      </trkpt>
      <trkpt lat="43.8968" lon="5.53773">
        <ele>534.8</ele>
        <time>2015-06-21T09:16:24Z</time>
      </trkpt>
      <trkpt lat="43.8969" lon="5.53773">
        <ele>536.2</ele>
        <time>2015-06-21T09:16:31Z</time>
      </trkpt>
      <trkpt lat="43.89699" lon="5.53776">
        <ele>537.9</ele>
        <time>2015-06-21T09:16:39Z</time>
      </trkpt>
      <trkpt lat="43.89709" lon="5.53775">
        <ele>539.4</ele>
        <time>2015-06-21T09:16:47Z</time>
      </trkpt>
      <trkpt lat="43.89718" lon="5.53778">
        <ele>540.4</ele>
        <time>2015-06-21T09:16:53Z</time>
      </trkpt>
      <trkpt lat="43.89727" lon="5.53782">
        <ele>541.8</ele>
        <time>2015-06-21T09:17:01Z</time>
      </trkpt>
      <trkpt lat="43.89737" lon="5.53785">
        <ele>543.3</ele>
        <time>2015-06-21T09:17:09Z</time>
      </trkpt>
      <trkpt lat="43.89747" lon="5.53785">
        <ele>544.8</ele>
        <time>2015-06-21T09:17:17Z</time>
      </trkpt>
      <trkpt lat="43.89757" lon="5.53785">
        <ele>547</ele>
        <time>2015-06-21T09:17:28Z</time>
      </trkpt>
      <trkpt lat="43.89767" lon="5.53784">
        <ele>547.9</ele>
        <time>2015-06-21T09:17:33Z</time>
      </trkpt>
      <trkpt lat="43.89777" lon="5.53782">
        <ele>550.1</ele>
        <time>2015-06-21T09:17:44Z</time>
      </trkpt>
      <trkpt lat="43.89786" lon="5.53779">
        <ele>551.6</ele>
        <time>2015-06-21T09:17:53Z</time>
      </trkpt>
      <trkpt lat="43.89795" lon="5.53777">
        <ele>552.7</ele>
        <time>2015-06-21T09:18:01Z</time>
      </trkpt>
      <trkpt lat="43.89805" lon="5.53779">
        <ele>553.7</ele>
        <time>2015-06-21T09:18:07Z</time>
      </trkpt>
      <trkpt lat="43.89814" lon="5.53781">
        <ele>555.1</ele>
        <time>2015-06-21T09:18:14Z</time>
      </trkpt>
      <trkpt lat="43.89823" lon="5.53779">
        <ele>556.9</ele>
        <time>2015-06-21T09:18:29Z</time>
      </trkpt>
      <trkpt lat="43.89832" lon="5.53775">
        <ele>557.6</ele>
        <time>2015-06-21T09:18:37Z</time>
      </trkpt>
      <trkpt lat="43.8984" lon="5.5377">
        <ele>558.1</ele>
        <time>2015-06-21T09:18:46Z</time>
      </trkpt>
      <trkpt lat="43.89848" lon="5.53762">
        <ele>558.7</ele>
        <time>2015-06-21T09:18:55Z</time>
      </trkpt>
      <trkpt lat="43.89857" lon="5.53757">
        <ele>560.2</ele>
        <time>2015-06-21T09:19:09Z</time>
      </trkpt>
      <trkpt lat="43.89865" lon="5.53749">
        <ele>561.4</ele>
        <time>2015-06-21T09:19:17Z</time>
      </trkpt>
      <trkpt lat="43.89878" lon="5.53746">
        <ele>561.7</ele>
        <time>2015-06-21T09:19:20Z</time>
      </trkpt>
      <trkpt lat="43.89887" lon="5.53746">
        <ele>562.1</ele>
        <time>2015-06-21T09:19:25Z</time>
      </trkpt>
      <trkpt lat="43.89897" lon="5.53749">
        <ele>562.8</ele>
        <time>2015-06-21T09:19:32Z</time>
      </trkpt>
      <trkpt lat="43.89907" lon="5.53754">
        <ele>563.6</ele>
        <time>2015-06-21T09:19:38Z</time>
      </trkpt>
      <trkpt lat="43.89916" lon="5.53759">
        <ele>564.1</ele>
        <time>2015-06-21T09:19:43Z</time>
      </trkpt>
      <trkpt lat="43.89925" lon="5.53767">
        <ele>564.7</ele>
        <time>2015-06-21T09:19:50Z</time>
      </trkpt>
      <trkpt lat="43.89934" lon="5.53768">
        <ele>565.2</ele>
        <time>2015-06-21T09:19:55Z</time>
      </trkpt>
      <trkpt lat="43.89942" lon="5.53776">
        <ele>565.8</ele>
        <time>2015-06-21T09:20:03Z</time>
      </trkpt>
      <trkpt lat="43.8995" lon="5.53785">
        <ele>566.4</ele>
        <time>2015-06-21T09:20:10Z</time>
      </trkpt>
      <trkpt lat="43.8996" lon="5.53788">
        <ele>566.9</ele>
        <time>2015-06-21T09:20:18Z</time>
      </trkpt>
      <trkpt lat="43.8997" lon="5.53788">
        <ele>567.4</ele>
        <time>2015-06-21T09:20:25Z</time>
      </trkpt>
      <trkpt lat="43.8998" lon="5.53786">
        <ele>567.9</ele>
        <time>2015-06-21T09:20:31Z</time>
      </trkpt>
      <trkpt lat="43.89989" lon="5.53783">
        <ele>568.4</ele>
        <time>2015-06-21T09:20:38Z</time>
      </trkpt>
      <trkpt lat="43.89998" lon="5.5378">
        <ele>568.8</ele>
        <time>2015-06-21T09:20:43Z</time>
      </trkpt>
      <trkpt lat="43.90008" lon="5.53776">
        <ele>569.2</ele>
        <time>2015-06-21T09:20:49Z</time>
      </trkpt>
      <trkpt lat="43.90017" lon="5.53774">
        <ele>569.8</ele>
        <time>2015-06-21T09:20:56Z</time>
      </trkpt>
      <trkpt lat="43.90027" lon="5.53773">
        <ele>570.1</ele>
        <time>2015-06-21T09:21:00Z</time>
      </trkpt>
      <trkpt lat="43.90036" lon="5.53772">
        <ele>570.7</ele>
        <time>2015-06-21T09:21:06Z</time>
      </trkpt>
      <trkpt lat="43.90045" lon="5.53775">
        <ele>571.7</ele>
        <time>2015-06-21T09:21:14Z</time>
      </trkpt>
      <trkpt lat="43.90055" lon="5.53772">
        <ele>572.2</ele>
        <time>2015-06-21T09:21:20Z</time>
      </trkpt>
      <trkpt lat="43.90065" lon="5.53775">
        <ele>572.5</ele>
        <time>2015-06-21T09:21:26Z</time>
      </trkpt>
      <trkpt lat="43.90075" lon="5.53773">
        <ele>572.8</ele>
        <time>2015-06-21T09:21:32Z</time>
      </trkpt>
      <trkpt lat="43.90084" lon="5.53771">
        <ele>573.1</ele>
        <time>2015-06-21T09:21:38Z</time>
      </trkpt>
      <trkpt lat="43.90093" lon="5.53772">
        <ele>573.8</ele>
        <time>2015-06-21T09:21:44Z</time>
      </trkpt>
      <trkpt lat="43.90103" lon="5.53772">
        <ele>574.6</ele>
        <time>2015-06-21T09:21:50Z</time>
      </trkpt>
      <trkpt lat="43.90113" lon="5.53776">
        <ele>574.9</ele>
        <time>2015-06-21T09:21:57Z</time>
      </trkpt>
      <trkpt lat="43.90122" lon="5.53779">
        <ele>575.7</ele>
        <time>2015-06-21T09:22:05Z</time>
      </trkpt>
      <trkpt lat="43.90129" lon="5.53788">
        <ele>576.6</ele>
        <time>2015-06-21T09:22:14Z</time>
      </trkpt>
      <trkpt lat="43.90136" lon="5.53798">
        <ele>577.1</ele>
        <time>2015-06-21T09:22:21Z</time>
      </trkpt>
      <trkpt lat="43.90144" lon="5.53807">
        <ele>577.7</ele>
        <time>2015-06-21T09:22:25Z</time>
      </trkpt>
      <trkpt lat="43.90146" lon="5.5382">
        <ele>578.6</ele>
        <time>2015-06-21T09:22:31Z</time>
      </trkpt>
      <trkpt lat="43.9015" lon="5.53833">
        <ele>579.4</ele>
        <time>2015-06-21T09:22:35Z</time>
      </trkpt>
      <trkpt lat="43.90154" lon="5.53846">
        <ele>580.2</ele>
        <time>2015-06-21T09:22:39Z</time>
      </trkpt>
      <trkpt lat="43.90161" lon="5.53856">
        <ele>581.7</ele>
        <time>2015-06-21T09:22:45Z</time>
      </trkpt>
      <trkpt lat="43.90168" lon="5.53864">
        <ele>583.3</ele>
        <time>2015-06-21T09:22:52Z</time>
      </trkpt>
      <trkpt lat="43.90171" lon="5.53877">
        <ele>584.9</ele>
        <time>2015-06-21T09:23:00Z</time>
      </trkpt>
      <trkpt lat="43.90171" lon="5.53891">
        <ele>586</ele>
        <time>2015-06-21T09:23:06Z</time>
      </trkpt>
      <trkpt lat="43.90175" lon="5.53905">
        <ele>587.1</ele>
        <time>2015-06-21T09:23:12Z</time>
      </trkpt>
      <trkpt lat="43.90171" lon="5.53917">
        <ele>588.1</ele>
        <time>2015-06-21T09:23:17Z</time>
      </trkpt>
      <trkpt lat="43.90172" lon="5.53931">
        <ele>590.1</ele>
        <time>2015-06-21T09:23:26Z</time>
      </trkpt>
      <trkpt lat="43.90174" lon="5.53944">
        <ele>593.7</ele>
        <time>2015-06-21T09:23:49Z</time>
      </trkpt>
      <trkpt lat="43.90173" lon="5.53957">
        <ele>594.2</ele>
        <time>2015-06-21T09:23:55Z</time>
      </trkpt>
      <trkpt lat="43.90179" lon="5.53969">
        <ele>594.9</ele>
        <time>2015-06-21T09:24:01Z</time>
      </trkpt>
      <trkpt lat="43.90184" lon="5.53981">
        <ele>595.9</ele>
        <time>2015-06-21T09:24:08Z</time>
      </trkpt>
      <trkpt lat="43.90189" lon="5.53993">
        <ele>597.1</ele>
        <time>2015-06-21T09:24:16Z</time>
      </trkpt>
      <trkpt lat="43.90194" lon="5.54005">
        <ele>598.1</ele>
        <time>2015-06-21T09:24:22Z</time>
      </trkpt>
      <trkpt lat="43.90201" lon="5.54014">
        <ele>599.2</ele>
        <time>2015-06-21T09:24:29Z</time>
      </trkpt>
      <trkpt lat="43.90206" lon="5.54026">
        <ele>600.3</ele>
        <time>2015-06-21T09:24:37Z</time>
      </trkpt>
      <trkpt lat="43.90205" lon="5.54039">
        <ele>601.7</ele>
        <time>2015-06-21T09:24:46Z</time>
      </trkpt>
      <trkpt lat="43.90194" lon="5.54044">
        <ele>602.6</ele>
        <time>2015-06-21T09:24:52Z</time>
      </trkpt>
      <trkpt lat="43.90186" lon="5.54051">
        <ele>602.9</ele>
        <time>2015-06-21T09:24:56Z</time>
      </trkpt>
      <trkpt lat="43.90177" lon="5.54047">
        <ele>603.3</ele>
        <time>2015-06-21T09:25:06Z</time>
      </trkpt>
      <trkpt lat="43.90168" lon="5.54045">
        <ele>603.3</ele>
        <time>2015-06-21T09:25:13Z</time>
      </trkpt>
      <trkpt lat="43.90159" lon="5.54046">
        <ele>603.1</ele>
        <time>2015-06-21T09:25:19Z</time>
      </trkpt>
      <trkpt lat="43.9015" lon="5.5405">
        <ele>602.9</ele>
        <time>2015-06-21T09:25:25Z</time>
      </trkpt>
      <trkpt lat="43.90146" lon="5.54063">
        <ele>602.6</ele>
        <time>2015-06-21T09:25:35Z</time>
      </trkpt>
      <trkpt lat="43.90142" lon="5.54075">
        <ele>602.2</ele>
        <time>2015-06-21T09:25:42Z</time>
      </trkpt>
      <trkpt lat="43.9014" lon="5.54087">
        <ele>601.7</ele>
        <time>2015-06-21T09:25:48Z</time>
      </trkpt>
      <trkpt lat="43.90138" lon="5.541">
        <ele>601.2</ele>
        <time>2015-06-21T09:25:54Z</time>
      </trkpt>
      <trkpt lat="43.90136" lon="5.54112">
        <ele>600.7</ele>
        <time>2015-06-21T09:26:03Z</time>
      </trkpt>
      <trkpt lat="43.90133" lon="5.54126">
        <ele>600.3</ele>
        <time>2015-06-21T09:26:10Z</time>
      </trkpt>
      <trkpt lat="43.90131" lon="5.54139">
        <ele>599.9</ele>
        <time>2015-06-21T09:26:16Z</time>
      </trkpt>
      <trkpt lat="43.9013" lon="5.54152">
        <ele>599.2</ele>
        <time>2015-06-21T09:26:23Z</time>
      </trkpt>
      <trkpt lat="43.90132" lon="5.54165">
        <ele>598.6</ele>
        <time>2015-06-21T09:26:32Z</time>
      </trkpt>
      <trkpt lat="43.90132" lon="5.54179">
        <ele>598.2</ele>
        <time>2015-06-21T09:26:39Z</time>
      </trkpt>
      <trkpt lat="43.90129" lon="5.54193">
        <ele>597.8</ele>
        <time>2015-06-21T09:26:45Z</time>
      </trkpt>
      <trkpt lat="43.90126" lon="5.54206">
        <ele>597.6</ele>
        <time>2015-06-21T09:26:50Z</time>
      </trkpt>
      <trkpt lat="43.90122" lon="5.54218">
        <ele>597.4</ele>
        <time>2015-06-21T09:26:56Z</time>
      </trkpt>
      <trkpt lat="43.90119" lon="5.54231">
        <ele>597.3</ele>
        <time>2015-06-21T09:27:02Z</time>
      </trkpt>
      <trkpt lat="43.90115" lon="5.54243">
        <ele>597.2</ele>
        <time>2015-06-21T09:27:08Z</time>
      </trkpt>
      <trkpt lat="43.90112" lon="5.54256">
        <ele>597.1</ele>
        <time>2015-06-21T09:27:14Z</time>
      </trkpt>
      <trkpt lat="43.90109" lon="5.54268">
        <ele>596.8</ele>
        <time>2015-06-21T09:27:21Z</time>
      </trkpt>
      <trkpt lat="43.9011" lon="5.54283">
        <ele>596.9</ele>
        <time>2015-06-21T09:27:28Z</time>
      </trkpt>
      <trkpt lat="43.90109" lon="5.54296">
        <ele>597.2</ele>
        <time>2015-06-21T09:27:35Z</time>
      </trkpt>
      <trkpt lat="43.90108" lon="5.54309">
        <ele>597.6</ele>
        <time>2015-06-21T09:27:42Z</time>
      </trkpt>
      <trkpt lat="43.90106" lon="5.54322">
        <ele>597.8</ele>
        <time>2015-06-21T09:27:47Z</time>
      </trkpt>
      <trkpt lat="43.90105" lon="5.54335">
        <ele>598.1</ele>
        <time>2015-06-21T09:27:53Z</time>
      </trkpt>
      <trkpt lat="43.90106" lon="5.54348">
        <ele>598.5</ele>
        <time>2015-06-21T09:28:00Z</time>
      </trkpt>
      <trkpt lat="43.90104" lon="5.54361">
        <ele>599.1</ele>
        <time>2015-06-21T09:28:08Z</time>
      </trkpt>
      <trkpt lat="43.90102" lon="5.54375">
        <ele>599.7</ele>
        <time>2015-06-21T09:28:14Z</time>
      </trkpt>
      <trkpt lat="43.90102" lon="5.54389">
        <ele>600.3</ele>
        <time>2015-06-21T09:28:20Z</time>
      </trkpt>
      <trkpt lat="43.90102" lon="5.54402">
        <ele>601</ele>
        <time>2015-06-21T09:28:27Z</time>
      </trkpt>
      <trkpt lat="43.90103" lon="5.54415">
        <ele>601.4</ele>
        <time>2015-06-21T09:28:32Z</time>
      </trkpt>
      <trkpt lat="43.90105" lon="5.54428">
        <ele>602</ele>
        <time>2015-06-21T09:28:39Z</time>
      </trkpt>
      <trkpt lat="43.90105" lon="5.54442">
        <ele>602.8</ele>
        <time>2015-06-21T09:28:48Z</time>
      </trkpt>
      <trkpt lat="43.90106" lon="5.54455">
        <ele>603.5</ele>
        <time>2015-06-21T09:28:56Z</time>
      </trkpt>
      <trkpt lat="43.90104" lon="5.54468">
        <ele>604</ele>
        <time>2015-06-21T09:29:01Z</time>
      </trkpt>
      <trkpt lat="43.90102" lon="5.5448">
        <ele>604.4</ele>
        <time>2015-06-21T09:29:06Z</time>
      </trkpt>
      <trkpt lat="43.90107" lon="5.54492">
        <ele>605</ele>
        <time>2015-06-21T09:29:12Z</time>
      </trkpt>
      <trkpt lat="43.90112" lon="5.54503">
        <ele>605.5</ele>
        <time>2015-06-21T09:29:18Z</time>
      </trkpt>
      <trkpt lat="43.90116" lon="5.54515">
        <ele>606</ele>
        <time>2015-06-21T09:29:24Z</time>
      </trkpt>
      <trkpt lat="43.90117" lon="5.54529">
        <ele>606.3</ele>
        <time>2015-06-21T09:29:31Z</time>
      </trkpt>
      <trkpt lat="43.90117" lon="5.54542">
        <ele>606.3</ele>
        <time>2015-06-21T09:29:38Z</time>
      </trkpt>
      <trkpt lat="43.90117" lon="5.54555">
        <ele>606.3</ele>
        <time>2015-06-21T09:29:46Z</time>
      </trkpt>
      <trkpt lat="43.90113" lon="5.54567">
        <ele>606.2</ele>
        <time>2015-06-21T09:29:52Z</time>
      </trkpt>
      <trkpt lat="43.90115" lon="5.5458">
        <ele>605.9</ele>
        <time>2015-06-21T09:30:02Z</time>
      </trkpt>
      <trkpt lat="43.90117" lon="5.54593">
        <ele>605.7</ele>
        <time>2015-06-21T09:30:11Z</time>
      </trkpt>
      <trkpt lat="43.90117" lon="5.54608">
        <ele>605.5</ele>
        <time>2015-06-21T09:30:19Z</time>
      </trkpt>
      <trkpt lat="43.90116" lon="5.54622">
        <ele>605</ele>
        <time>2015-06-21T09:30:29Z</time>
      </trkpt>
      <trkpt lat="43.90116" lon="5.54635">
        <ele>604.2</ele>
        <time>2015-06-21T09:30:42Z</time>
      </trkpt>
      <trkpt lat="43.90113" lon="5.54648">
        <ele>603.6</ele>
        <time>2015-06-21T09:30:50Z</time>
      </trkpt>
      <trkpt lat="43.90111" lon="5.54663">
        <ele>603.1</ele>
        <time>2015-06-21T09:30:56Z</time>
      </trkpt>
      <trkpt lat="43.90111" lon="5.54678">
        <ele>602.9</ele>
        <time>2015-06-21T09:31:01Z</time>
      </trkpt>
      <trkpt lat="43.90111" lon="5.5469">
        <ele>602.8</ele>
        <time>2015-06-21T09:31:06Z</time>
      </trkpt>
      <trkpt lat="43.9011" lon="5.54705">
        <ele>602.8</ele>
        <time>2015-06-21T09:31:08Z</time>
      </trkpt>
      <trkpt lat="43.90111" lon="5.54718">
        <ele>602.7</ele>
        <time>2015-06-21T09:31:13Z</time>
      </trkpt>
      <trkpt lat="43.9011" lon="5.54731">
        <ele>602.8</ele>
        <time>2015-06-21T09:31:19Z</time>
      </trkpt>
      <trkpt lat="43.90112" lon="5.54743">
        <ele>603.4</ele>
        <time>2015-06-21T09:31:39Z</time>
      </trkpt>
      <trkpt lat="43.90116" lon="5.54757">
        <ele>606.8</ele>
        <time>2015-06-21T09:32:21Z</time>
      </trkpt>
      <trkpt lat="43.9012" lon="5.54768">
        <ele>607.3</ele>
        <time>2015-06-21T09:32:27Z</time>
      </trkpt>
      <trkpt lat="43.90119" lon="5.54782">
        <ele>607.7</ele>
        <time>2015-06-21T09:32:33Z</time>
      </trkpt>
      <trkpt lat="43.90116" lon="5.54795">
        <ele>608.2</ele>
        <time>2015-06-21T09:32:39Z</time>
      </trkpt>
      <trkpt lat="43.90113" lon="5.54808">
        <ele>608.6</ele>
        <time>2015-06-21T09:32:48Z</time>
      </trkpt>
      <trkpt lat="43.90109" lon="5.5482">
        <ele>608.6</ele>
        <time>2015-06-21T09:32:55Z</time>
      </trkpt>
      <trkpt lat="43.90109" lon="5.54835">
        <ele>608.5</ele>
        <time>2015-06-21T09:33:02Z</time>
      </trkpt>
      <trkpt lat="43.90113" lon="5.54847">
        <ele>608.4</ele>
        <time>2015-06-21T09:33:11Z</time>
      </trkpt>
      <trkpt lat="43.90107" lon="5.54856">
        <ele>608.1</ele>
        <time>2015-06-21T09:33:18Z</time>
      </trkpt>
      <trkpt lat="43.90098" lon="5.54863">
        <ele>608.1</ele>
        <time>2015-06-21T09:33:23Z</time>
      </trkpt>
      <trkpt lat="43.90091" lon="5.54874">
        <ele>608.2</ele>
        <time>2015-06-21T09:33:29Z</time>
      </trkpt>
      <trkpt lat="43.90085" lon="5.54884">
        <ele>608.2</ele>
        <time>2015-06-21T09:33:32Z</time>
      </trkpt>
      <trkpt lat="43.90078" lon="5.54892">
        <ele>608.4</ele>
        <time>2015-06-21T09:33:37Z</time>
      </trkpt>
      <trkpt lat="43.90069" lon="5.54899">
        <ele>608.8</ele>
        <time>2015-06-21T09:33:46Z</time>
      </trkpt>
      <trkpt lat="43.90061" lon="5.54905">
        <ele>609.9</ele>
        <time>2015-06-21T09:33:56Z</time>
      </trkpt>
      <trkpt lat="43.90053" lon="5.54911">
        <ele>612.2</ele>
        <time>2015-06-21T09:34:08Z</time>
      </trkpt>
      <trkpt lat="43.90047" lon="5.54923">
        <ele>613.7</ele>
        <time>2015-06-21T09:34:15Z</time>
      </trkpt>
      <trkpt lat="43.90043" lon="5.54935">
        <ele>615.1</ele>
        <time>2015-06-21T09:34:22Z</time>
      </trkpt>
      <trkpt lat="43.9004" lon="5.54947">
        <ele>616</ele>
        <time>2015-06-21T09:34:26Z</time>
      </trkpt>
      <trkpt lat="43.90039" lon="5.5496">
        <ele>617.8</ele>
        <time>2015-06-21T09:34:35Z</time>
      </trkpt>
      <trkpt lat="43.90034" lon="5.54971">
        <ele>619.1</ele>
        <time>2015-06-21T09:34:43Z</time>
      </trkpt>
      <trkpt lat="43.90034" lon="5.54984">
        <ele>619.8</ele>
        <time>2015-06-21T09:34:48Z</time>
      </trkpt>
      <trkpt lat="43.90034" lon="5.54998">
        <ele>620.5</ele>
        <time>2015-06-21T09:34:53Z</time>
      </trkpt>
      <trkpt lat="43.90031" lon="5.55011">
        <ele>621.2</ele>
        <time>2015-06-21T09:34:59Z</time>
      </trkpt>
      <trkpt lat="43.90026" lon="5.55024">
        <ele>621.6</ele>
        <time>2015-06-21T09:35:03Z</time>
      </trkpt>
      <trkpt lat="43.9002" lon="5.55034">
        <ele>622</ele>
        <time>2015-06-21T09:35:07Z</time>
      </trkpt>
      <trkpt lat="43.9002" lon="5.55047">
        <ele>622.6</ele>
        <time>2015-06-21T09:35:13Z</time>
      </trkpt>
      <trkpt lat="43.90015" lon="5.55059">
        <ele>622.4</ele>
        <time>2015-06-21T09:35:25Z</time>
      </trkpt>
      <trkpt lat="43.90009" lon="5.5507">
        <ele>623</ele>
        <time>2015-06-21T09:35:32Z</time>
      </trkpt>
      <trkpt lat="43.90003" lon="5.55081">
        <ele>623.5</ele>
        <time>2015-06-21T09:35:39Z</time>
      </trkpt>
      <trkpt lat="43.89995" lon="5.55089">
        <ele>623.8</ele>
        <time>2015-06-21T09:35:44Z</time>
      </trkpt>
      <trkpt lat="43.89985" lon="5.55094">
        <ele>623.8</ele>
        <time>2015-06-21T09:35:48Z</time>
      </trkpt>
      <trkpt lat="43.89982" lon="5.55106">
        <ele>626</ele>
        <time>2015-06-21T09:36:36Z</time>
      </trkpt>
      <trkpt lat="43.89978" lon="5.55118">
        <ele>626</ele>
        <time>2015-06-21T09:36:39Z</time>
      </trkpt>
      <trkpt lat="43.89975" lon="5.5513">
        <ele>626</ele>
        <time>2015-06-21T09:36:42Z</time>
      </trkpt>
      <trkpt lat="43.89971" lon="5.55145">
        <ele>626</ele>
        <time>2015-06-21T09:36:46Z</time>
      </trkpt>
      <trkpt lat="43.89967" lon="5.55161">
        <ele>626</ele>
        <time>2015-06-21T09:36:48Z</time>
      </trkpt>
      <trkpt lat="43.89964" lon="5.55174">
        <ele>626</ele>
        <time>2015-06-21T09:36:51Z</time>
      </trkpt>
      <trkpt lat="43.89961" lon="5.55187">
        <ele>626.1</ele>
        <time>2015-06-21T09:36:56Z</time>
      </trkpt>
      <trkpt lat="43.89957" lon="5.55198">
        <ele>626.2</ele>
        <time>2015-06-21T09:37:01Z</time>
      </trkpt>
      <trkpt lat="43.89954" lon="5.55211">
        <ele>626.4</ele>
        <time>2015-06-21T09:37:09Z</time>
      </trkpt>
      <trkpt lat="43.89954" lon="5.55225">
        <ele>626.5</ele>
        <time>2015-06-21T09:37:16Z</time>
      </trkpt>
      <trkpt lat="43.89951" lon="5.55237">
        <ele>626.6</ele>
        <time>2015-06-21T09:37:23Z</time>
      </trkpt>
      <trkpt lat="43.89951" lon="5.55251">
        <ele>626.9</ele>
        <time>2015-06-21T09:37:32Z</time>
      </trkpt>
      <trkpt lat="43.89947" lon="5.55265">
        <ele>627</ele>
        <time>2015-06-21T09:37:38Z</time>
      </trkpt>
      <trkpt lat="43.89941" lon="5.55276">
        <ele>627</ele>
        <time>2015-06-21T09:37:43Z</time>
      </trkpt>
      <trkpt lat="43.8994" lon="5.5529">
        <ele>627.4</ele>
        <time>2015-06-21T09:37:50Z</time>
      </trkpt>
      <trkpt lat="43.89942" lon="5.55302">
        <ele>627.8</ele>
        <time>2015-06-21T09:37:56Z</time>
      </trkpt>
      <trkpt lat="43.89942" lon="5.55314">
        <ele>628.1</ele>
        <time>2015-06-21T09:38:01Z</time>
      </trkpt>
      <trkpt lat="43.89941" lon="5.55332">
        <ele>628.7</ele>
        <time>2015-06-21T09:38:08Z</time>
      </trkpt>
      <trkpt lat="43.89943" lon="5.55345">
        <ele>629.1</ele>
        <time>2015-06-21T09:38:13Z</time>
      </trkpt>
      <trkpt lat="43.89942" lon="5.55358">
        <ele>629.6</ele>
        <time>2015-06-21T09:38:20Z</time>
      </trkpt>
      <trkpt lat="43.89941" lon="5.55372">
        <ele>630.7</ele>
        <time>2015-06-21T09:38:29Z</time>
      </trkpt>
      <trkpt lat="43.89939" lon="5.55385">
        <ele>631.4</ele>
        <time>2015-06-21T09:38:35Z</time>
      </trkpt>
      <trkpt lat="43.89939" lon="5.55398">
        <ele>632.5</ele>
        <time>2015-06-21T09:38:43Z</time>
      </trkpt>
      <trkpt lat="43.89937" lon="5.55411">
        <ele>633.3</ele>
        <time>2015-06-21T09:38:49Z</time>
      </trkpt>
      <trkpt lat="43.89937" lon="5.55424">
        <ele>634.2</ele>
        <time>2015-06-21T09:38:56Z</time>
      </trkpt>
      <trkpt lat="43.89933" lon="5.55436">
        <ele>635.1</ele>
        <time>2015-06-21T09:39:03Z</time>
      </trkpt>
      <trkpt lat="43.89926" lon="5.55447">
        <ele>635.8</ele>
        <time>2015-06-21T09:39:10Z</time>
      </trkpt>
      <trkpt lat="43.89919" lon="5.55456">
        <ele>636.4</ele>
        <time>2015-06-21T09:39:17Z</time>
      </trkpt>
      <trkpt lat="43.89913" lon="5.55468">
        <ele>637</ele>
        <time>2015-06-21T09:39:24Z</time>
      </trkpt>
      <trkpt lat="43.89906" lon="5.55477">
        <ele>637.4</ele>
        <time>2015-06-21T09:39:31Z</time>
      </trkpt>
      <trkpt lat="43.89899" lon="5.55486">
        <ele>637.7</ele>
        <time>2015-06-21T09:39:35Z</time>
      </trkpt>
      <trkpt lat="43.89892" lon="5.55495">
        <ele>637.9</ele>
        <time>2015-06-21T09:39:39Z</time>
      </trkpt>
      <trkpt lat="43.89886" lon="5.55506">
        <ele>638.3</ele>
        <time>2015-06-21T09:39:46Z</time>
      </trkpt>
      <trkpt lat="43.89883" lon="5.55518">
        <ele>638.8</ele>
        <time>2015-06-21T09:39:55Z</time>
      </trkpt>
      <trkpt lat="43.89883" lon="5.55531">
        <ele>638.9</ele>
        <time>2015-06-21T09:40:02Z</time>
      </trkpt>
      <trkpt lat="43.89878" lon="5.55543">
        <ele>638.9</ele>
        <time>2015-06-21T09:40:08Z</time>
      </trkpt>
      <trkpt lat="43.89881" lon="5.55557">
        <ele>639.2</ele>
        <time>2015-06-21T09:40:18Z</time>
      </trkpt>
      <trkpt lat="43.89881" lon="5.5557">
        <ele>639.6</ele>
        <time>2015-06-21T09:40:26Z</time>
      </trkpt>
      <trkpt lat="43.89885" lon="5.55583">
        <ele>640</ele>
        <time>2015-06-21T09:40:36Z</time>
      </trkpt>
      <trkpt lat="43.89881" lon="5.55599">
        <ele>640.1</ele>
        <time>2015-06-21T09:40:43Z</time>
      </trkpt>
      <trkpt lat="43.89877" lon="5.55612">
        <ele>640.3</ele>
        <time>2015-06-21T09:40:47Z</time>
      </trkpt>
      <trkpt lat="43.89873" lon="5.55624">
        <ele>640.5</ele>
        <time>2015-06-21T09:40:53Z</time>
      </trkpt>
      <trkpt lat="43.89868" lon="5.55639">
        <ele>640.7</ele>
        <time>2015-06-21T09:40:58Z</time>
      </trkpt>
      <trkpt lat="43.89865" lon="5.55654">
        <ele>640.9</ele>
        <time>2015-06-21T09:41:02Z</time>
      </trkpt>
      <trkpt lat="43.89861" lon="5.55667">
        <ele>641.1</ele>
        <time>2015-06-21T09:41:08Z</time>
      </trkpt>
      <trkpt lat="43.89859" lon="5.5568">
        <ele>641.3</ele>
        <time>2015-06-21T09:41:16Z</time>
      </trkpt>
      <trkpt lat="43.89853" lon="5.55691">
        <ele>641.4</ele>
        <time>2015-06-21T09:41:23Z</time>
      </trkpt>
      <trkpt lat="43.89848" lon="5.55703">
        <ele>641.6</ele>
        <time>2015-06-21T09:41:29Z</time>
      </trkpt>
      <trkpt lat="43.89844" lon="5.55716">
        <ele>641.8</ele>
        <time>2015-06-21T09:41:35Z</time>
      </trkpt>
      <trkpt lat="43.89841" lon="5.55728">
        <ele>641.9</ele>
        <time>2015-06-21T09:41:42Z</time>
      </trkpt>
      <trkpt lat="43.89837" lon="5.5574">
        <ele>642.3</ele>
        <time>2015-06-21T09:41:50Z</time>
      </trkpt>
      <trkpt lat="43.89834" lon="5.55753">
        <ele>642.9</ele>
        <time>2015-06-21T09:41:58Z</time>
      </trkpt>
      <trkpt lat="43.89832" lon="5.55768">
        <ele>643.5</ele>
        <time>2015-06-21T09:42:06Z</time>
      </trkpt>
      <trkpt lat="43.89831" lon="5.55782">
        <ele>643.9</ele>
        <time>2015-06-21T09:42:11Z</time>
      </trkpt>
      <trkpt lat="43.8983" lon="5.55796">
        <ele>644.5</ele>
        <time>2015-06-21T09:42:17Z</time>
      </trkpt>
      <trkpt lat="43.89829" lon="5.5581">
        <ele>645</ele>
        <time>2015-06-21T09:42:23Z</time>
      </trkpt>
      <trkpt lat="43.89827" lon="5.55823">
        <ele>645.5</ele>
        <time>2015-06-21T09:42:28Z</time>
      </trkpt>
      <trkpt lat="43.89825" lon="5.55836">
        <ele>646.1</ele>
        <time>2015-06-21T09:42:35Z</time>
      </trkpt>
      <trkpt lat="43.89822" lon="5.55851">
        <ele>646.6</ele>
        <time>2015-06-21T09:42:41Z</time>
      </trkpt>
      <trkpt lat="43.89819" lon="5.55865">
        <ele>646.6</ele>
        <time>2015-06-21T09:42:47Z</time>
      </trkpt>
      <trkpt lat="43.89816" lon="5.55877">
        <ele>646.6</ele>
        <time>2015-06-21T09:43:03Z</time>
      </trkpt>
      <trkpt lat="43.89815" lon="5.55891">
        <ele>645.7</ele>
        <time>2015-06-21T09:43:16Z</time>
      </trkpt>
      <trkpt lat="43.89812" lon="5.55904">
        <ele>644.7</ele>
        <time>2015-06-21T09:43:25Z</time>
      </trkpt>
      <trkpt lat="43.89808" lon="5.55916">
        <ele>644.4</ele>
        <time>2015-06-21T09:43:32Z</time>
      </trkpt>
      <trkpt lat="43.89802" lon="5.55927">
        <ele>644.3</ele>
        <time>2015-06-21T09:43:39Z</time>
      </trkpt>
      <trkpt lat="43.89797" lon="5.5594">
        <ele>644.3</ele>
        <time>2015-06-21T09:43:43Z</time>
      </trkpt>
      <trkpt lat="43.89794" lon="5.55952">
        <ele>644.2</ele>
        <time>2015-06-21T09:43:47Z</time>
      </trkpt>
      <trkpt lat="43.89794" lon="5.55966">
        <ele>644.1</ele>
        <time>2015-06-21T09:43:53Z</time>
      </trkpt>
      <trkpt lat="43.8979" lon="5.55979">
        <ele>644.2</ele>
        <time>2015-06-21T09:43:58Z</time>
      </trkpt>
      <trkpt lat="43.89786" lon="5.55992">
        <ele>644.5</ele>
        <time>2015-06-21T09:44:04Z</time>
      </trkpt>
      <trkpt lat="43.89785" lon="5.56005">
        <ele>644.8</ele>
        <time>2015-06-21T09:44:11Z</time>
      </trkpt>
      <trkpt lat="43.89783" lon="5.56018">
        <ele>645.1</ele>
        <time>2015-06-21T09:44:19Z</time>
      </trkpt>
      <trkpt lat="43.89777" lon="5.56029">
        <ele>645.2</ele>
        <time>2015-06-21T09:44:26Z</time>
      </trkpt>
      <trkpt lat="43.89769" lon="5.56038">
        <ele>645.3</ele>
        <time>2015-06-21T09:44:33Z</time>
      </trkpt>
      <trkpt lat="43.89761" lon="5.56044">
        <ele>645.1</ele>
        <time>2015-06-21T09:44:41Z</time>
      </trkpt>
      <trkpt lat="43.89755" lon="5.56054">
        <ele>644.6</ele>
        <time>2015-06-21T09:44:48Z</time>
      </trkpt>
      <trkpt lat="43.89748" lon="5.56064">
        <ele>644.3</ele>
        <time>2015-06-21T09:44:54Z</time>
      </trkpt>
      <trkpt lat="43.89742" lon="5.56076">
        <ele>643.9</ele>
        <time>2015-06-21T09:44:59Z</time>
      </trkpt>
      <trkpt lat="43.89736" lon="5.56085">
        <ele>643.4</ele>
        <time>2015-06-21T09:45:04Z</time>
      </trkpt>
      <trkpt lat="43.8973" lon="5.56096">
        <ele>642.9</ele>
        <time>2015-06-21T09:45:09Z</time>
      </trkpt>
      <trkpt lat="43.89723" lon="5.56106">
        <ele>642.1</ele>
        <time>2015-06-21T09:45:14Z</time>
      </trkpt>
      <trkpt lat="43.89717" lon="5.56117">
        <ele>641.7</ele>
        <time>2015-06-21T09:45:18Z</time>
      </trkpt>
      <trkpt lat="43.89712" lon="5.56127">
        <ele>641.4</ele>
        <time>2015-06-21T09:45:23Z</time>
      </trkpt>
      <trkpt lat="43.89706" lon="5.56138">
        <ele>640.8</ele>
        <time>2015-06-21T09:45:30Z</time>
      </trkpt>
      <trkpt lat="43.89702" lon="5.56156">
        <ele>640.3</ele>
        <time>2015-06-21T09:45:38Z</time>
      </trkpt>
      <trkpt lat="43.897" lon="5.56168">
        <ele>640</ele>
        <time>2015-06-21T09:45:44Z</time>
      </trkpt>
      <trkpt lat="43.89698" lon="5.56182">
        <ele>639.9</ele>
        <time>2015-06-21T09:45:50Z</time>
      </trkpt>
      <trkpt lat="43.89694" lon="5.56196">
        <ele>639.8</ele>
        <time>2015-06-21T09:45:57Z</time>
      </trkpt>
      <trkpt lat="43.8969" lon="5.56209">
        <ele>639.7</ele>
        <time>2015-06-21T09:46:03Z</time>
      </trkpt>
      <trkpt lat="43.89689" lon="5.56221">
        <ele>639.5</ele>
        <time>2015-06-21T09:46:09Z</time>
      </trkpt>
      <trkpt lat="43.89688" lon="5.56235">
        <ele>639.1</ele>
        <time>2015-06-21T09:46:17Z</time>
      </trkpt>
      <trkpt lat="43.89683" lon="5.56247">
        <ele>638.9</ele>
        <time>2015-06-21T09:46:23Z</time>
      </trkpt>
      <trkpt lat="43.89683" lon="5.56261">
        <ele>638.6</ele>
        <time>2015-06-21T09:46:33Z</time>
      </trkpt>
      <trkpt lat="43.8968" lon="5.56273">
        <ele>638.6</ele>
        <time>2015-06-21T09:46:40Z</time>
      </trkpt>
      <trkpt lat="43.89677" lon="5.56286">
        <ele>638.6</ele>
        <time>2015-06-21T09:46:46Z</time>
      </trkpt>
      <trkpt lat="43.89673" lon="5.56299">
        <ele>638.5</ele>
        <time>2015-06-21T09:46:52Z</time>
      </trkpt>
      <trkpt lat="43.8967" lon="5.56311">
        <ele>638.5</ele>
        <time>2015-06-21T09:46:57Z</time>
      </trkpt>
      <trkpt lat="43.89667" lon="5.56324">
        <ele>638.8</ele>
        <time>2015-06-21T09:47:07Z</time>
      </trkpt>
      <trkpt lat="43.89662" lon="5.56335">
        <ele>638.4</ele>
        <time>2015-06-21T09:47:18Z</time>
      </trkpt>
      <trkpt lat="43.89659" lon="5.56347">
        <ele>638.2</ele>
        <time>2015-06-21T09:47:25Z</time>
      </trkpt>
      <trkpt lat="43.89656" lon="5.56361">
        <ele>638.1</ele>
        <time>2015-06-21T09:47:32Z</time>
      </trkpt>
      <trkpt lat="43.89651" lon="5.56372">
        <ele>637.3</ele>
        <time>2015-06-21T09:47:38Z</time>
      </trkpt>
      <trkpt lat="43.89645" lon="5.56382">
        <ele>637.1</ele>
        <time>2015-06-21T09:47:46Z</time>
      </trkpt>
      <trkpt lat="43.89636" lon="5.56387">
        <ele>636.9</ele>
        <time>2015-06-21T09:47:52Z</time>
      </trkpt>
      <trkpt lat="43.89631" lon="5.564">
        <ele>636.7</ele>
        <time>2015-06-21T09:47:58Z</time>
      </trkpt>
      <trkpt lat="43.89628" lon="5.56413">
        <ele>636.6</ele>
        <time>2015-06-21T09:48:03Z</time>
      </trkpt>
      <trkpt lat="43.89628" lon="5.56427">
        <ele>636.7</ele>
        <time>2015-06-21T09:48:07Z</time>
      </trkpt>
      <trkpt lat="43.89627" lon="5.5644">
        <ele>636.9</ele>
        <time>2015-06-21T09:48:14Z</time>
      </trkpt>
      <trkpt lat="43.8963" lon="5.56454">
        <ele>637.3</ele>
        <time>2015-06-21T09:48:23Z</time>
      </trkpt>
      <trkpt lat="43.89632" lon="5.56467">
        <ele>637.6</ele>
        <time>2015-06-21T09:48:29Z</time>
      </trkpt>
      <trkpt lat="43.89632" lon="5.56481">
        <ele>637.8</ele>
        <time>2015-06-21T09:48:34Z</time>
      </trkpt>
      <trkpt lat="43.89631" lon="5.56494">
        <ele>637.7</ele>
        <time>2015-06-21T09:48:38Z</time>
      </trkpt>
      <trkpt lat="43.89638" lon="5.56503">
        <ele>637.6</ele>
        <time>2015-06-21T09:48:46Z</time>
      </trkpt>
      <trkpt lat="43.89641" lon="5.56515">
        <ele>637.6</ele>
        <time>2015-06-21T09:48:52Z</time>
      </trkpt>
      <trkpt lat="43.89639" lon="5.56528">
        <ele>637.5</ele>
        <time>2015-06-21T09:48:59Z</time>
      </trkpt>
      <trkpt lat="43.8963" lon="5.56531">
        <ele>637.2</ele>
        <time>2015-06-21T09:49:06Z</time>
      </trkpt>
      <trkpt lat="43.8962" lon="5.56533">
        <ele>636.9</ele>
        <time>2015-06-21T09:49:12Z</time>
      </trkpt>
      <trkpt lat="43.89611" lon="5.56533">
        <ele>636.1</ele>
        <time>2015-06-21T09:49:21Z</time>
      </trkpt>
      <trkpt lat="43.89601" lon="5.56531">
        <ele>635.6</ele>
        <time>2015-06-21T09:49:30Z</time>
      </trkpt>
      <trkpt lat="43.89592" lon="5.56529">
        <ele>634.9</ele>
        <time>2015-06-21T09:49:38Z</time>
      </trkpt>
      <trkpt lat="43.89583" lon="5.56536">
        <ele>634.4</ele>
        <time>2015-06-21T09:49:49Z</time>
      </trkpt>
      <trkpt lat="43.89575" lon="5.56543">
        <ele>633.8</ele>
        <time>2015-06-21T09:50:05Z</time>
      </trkpt>
      <trkpt lat="43.89573" lon="5.56556">
        <ele>634.8</ele>
        <time>2015-06-21T09:50:35Z</time>
      </trkpt>
      <trkpt lat="43.89563" lon="5.56555">
        <ele>641.4</ele>
        <time>2015-06-21T09:52:11Z</time>
      </trkpt>
      <trkpt lat="43.89569" lon="5.56566">
        <ele>645.2</ele>
        <time>2015-06-21T09:52:53Z</time>
      </trkpt>
      <trkpt lat="43.89577" lon="5.56573">
        <ele>646.1</ele>
        <time>2015-06-21T09:53:04Z</time>
      </trkpt>
      <trkpt lat="43.89585" lon="5.56582">
        <ele>646</ele>
        <time>2015-06-21T09:53:12Z</time>
      </trkpt>
      <trkpt lat="43.89577" lon="5.5656">
        <ele>647</ele>
        <time>2015-06-21T09:53:24Z</time>
      </trkpt>
      <trkpt lat="43.89563" lon="5.56553">
        <ele>649</ele>
        <time>2015-06-21T09:53:36Z</time>
      </trkpt>
      <trkpt lat="43.89555" lon="5.56548">
        <ele>649.9</ele>
        <time>2015-06-21T09:53:47Z</time>
      </trkpt>
      <trkpt lat="43.89543" lon="5.56547">
        <ele>650.5</ele>
        <time>2015-06-21T09:53:56Z</time>
      </trkpt>
      <trkpt lat="43.89541" lon="5.5656">
        <ele>651.2</ele>
        <time>2015-06-21T09:54:05Z</time>
      </trkpt>
      <trkpt lat="43.8954" lon="5.56573">
        <ele>652.1</ele>
        <time>2015-06-21T09:54:16Z</time>
      </trkpt>
      <trkpt lat="43.8955" lon="5.56591">
        <ele>658</ele>
        <time>2015-06-21T09:55:42Z</time>
      </trkpt>
      <trkpt lat="43.89556" lon="5.56605">
        <ele>659.3</ele>
        <time>2015-06-21T09:56:00Z</time>
      </trkpt>
      <trkpt lat="43.8956" lon="5.56617">
        <ele>660.2</ele>
        <time>2015-06-21T09:56:12Z</time>
      </trkpt>
      <trkpt lat="43.89567" lon="5.56625">
        <ele>661.7</ele>
        <time>2015-06-21T09:56:31Z</time>
      </trkpt>
      <trkpt lat="43.89559" lon="5.56617">
        <ele>663.5</ele>
        <time>2015-06-21T09:56:49Z</time>
      </trkpt>
      <trkpt lat="43.8955" lon="5.56621">
        <ele>668.1</ele>
        <time>2015-06-21T09:57:58Z</time>
      </trkpt>
      <trkpt lat="43.89544" lon="5.56631">
        <ele>667.7</ele>
        <time>2015-06-21T09:58:13Z</time>
      </trkpt>
      <trkpt lat="43.89538" lon="5.56641">
        <ele>667.2</ele>
        <time>2015-06-21T09:58:23Z</time>
      </trkpt>
      <trkpt lat="43.89527" lon="5.56644">
        <ele>665.7</ele>
        <time>2015-06-21T09:58:39Z</time>
      </trkpt>
      <trkpt lat="43.89524" lon="5.56657">
        <ele>664.9</ele>
        <time>2015-06-21T09:58:47Z</time>
      </trkpt>
      <trkpt lat="43.89518" lon="5.56666">
        <ele>664.3</ele>
        <time>2015-06-21T09:58:53Z</time>
      </trkpt>
      <trkpt lat="43.89512" lon="5.56677">
        <ele>664</ele>
        <time>2015-06-21T09:58:59Z</time>
      </trkpt>
      <trkpt lat="43.89505" lon="5.56685">
        <ele>663.6</ele>
        <time>2015-06-21T09:59:07Z</time>
      </trkpt>
      <trkpt lat="43.89496" lon="5.56693">
        <ele>662.8</ele>
        <time>2015-06-21T09:59:19Z</time>
      </trkpt>
      <trkpt lat="43.89491" lon="5.56706">
        <ele>662.5</ele>
        <time>2015-06-21T09:59:26Z</time>
      </trkpt>
      <trkpt lat="43.89483" lon="5.56712">
        <ele>662.1</ele>
        <time>2015-06-21T09:59:32Z</time>
      </trkpt>
      <trkpt lat="43.89475" lon="5.56721">
        <ele>661.8</ele>
        <time>2015-06-21T09:59:36Z</time>
      </trkpt>
      <trkpt lat="43.89468" lon="5.56731">
        <ele>661.4</ele>
        <time>2015-06-21T09:59:42Z</time>
      </trkpt>
      <trkpt lat="43.8947" lon="5.56743">
        <ele>661.2</ele>
        <time>2015-06-21T09:59:46Z</time>
      </trkpt>
      <trkpt lat="43.89468" lon="5.56756">
        <ele>660</ele>
        <time>2015-06-21T10:00:05Z</time>
      </trkpt>
      <trkpt lat="43.89472" lon="5.56768">
        <ele>659.1</ele>
        <time>2015-06-21T10:00:17Z</time>
      </trkpt>
      <trkpt lat="43.89466" lon="5.56777">
        <ele>657.9</ele>
        <time>2015-06-21T10:00:26Z</time>
      </trkpt>
      <trkpt lat="43.89457" lon="5.56768">
        <ele>657</ele>
        <time>2015-06-21T10:00:33Z</time>
      </trkpt>
      <trkpt lat="43.89444" lon="5.56778">
        <ele>655</ele>
        <time>2015-06-21T10:00:44Z</time>
      </trkpt>
      <trkpt lat="43.89436" lon="5.56786">
        <ele>654.1</ele>
        <time>2015-06-21T10:01:00Z</time>
      </trkpt>
      <trkpt lat="43.89421" lon="5.56779">
        <ele>653.2</ele>
        <time>2015-06-21T10:01:16Z</time>
      </trkpt>
      <trkpt lat="43.8941" lon="5.56778">
        <ele>652.6</ele>
        <time>2015-06-21T10:01:21Z</time>
      </trkpt>
      <trkpt lat="43.894" lon="5.5678">
        <ele>651.9</ele>
        <time>2015-06-21T10:01:27Z</time>
      </trkpt>
      <trkpt lat="43.89391" lon="5.56773">
        <ele>651.3</ele>
        <time>2015-06-21T10:01:32Z</time>
      </trkpt>
      <trkpt lat="43.89383" lon="5.56766">
        <ele>650.4</ele>
        <time>2015-06-21T10:01:39Z</time>
      </trkpt>
      <trkpt lat="43.89375" lon="5.56757">
        <ele>649.6</ele>
        <time>2015-06-21T10:01:46Z</time>
      </trkpt>
      <trkpt lat="43.89369" lon="5.56747">
        <ele>648.2</ele>
        <time>2015-06-21T10:01:52Z</time>
      </trkpt>
      <trkpt lat="43.89368" lon="5.56734">
        <ele>647.1</ele>
        <time>2015-06-21T10:02:00Z</time>
      </trkpt>
      <trkpt lat="43.89363" lon="5.56723">
        <ele>646.2</ele>
        <time>2015-06-21T10:02:08Z</time>
      </trkpt>
      <trkpt lat="43.89355" lon="5.56716">
        <ele>645.4</ele>
        <time>2015-06-21T10:02:16Z</time>
      </trkpt>
      <trkpt lat="43.89346" lon="5.56711">
        <ele>644</ele>
        <time>2015-06-21T10:02:26Z</time>
      </trkpt>
      <trkpt lat="43.89343" lon="5.56698">
        <ele>643.5</ele>
        <time>2015-06-21T10:02:32Z</time>
      </trkpt>
      <trkpt lat="43.89342" lon="5.56685">
        <ele>643.2</ele>
        <time>2015-06-21T10:02:40Z</time>
      </trkpt>
      <trkpt lat="43.8934" lon="5.56699">
        <ele>643.8</ele>
        <time>2015-06-21T10:03:52Z</time>
      </trkpt>
      <trkpt lat="43.89339" lon="5.56711">
        <ele>643.1</ele>
        <time>2015-06-21T10:04:00Z</time>
      </trkpt>
      <trkpt lat="43.89341" lon="5.56725">
        <ele>642.1</ele>
        <time>2015-06-21T10:04:09Z</time>
      </trkpt>
      <trkpt lat="43.89342" lon="5.56738">
        <ele>641</ele>
        <time>2015-06-21T10:04:17Z</time>
      </trkpt>
      <trkpt lat="43.89344" lon="5.56751">
        <ele>639.9</ele>
        <time>2015-06-21T10:04:26Z</time>
      </trkpt>
      <trkpt lat="43.89348" lon="5.56763">
        <ele>638.7</ele>
        <time>2015-06-21T10:04:34Z</time>
      </trkpt>
      <trkpt lat="43.8935" lon="5.56777">
        <ele>637.6</ele>
        <time>2015-06-21T10:04:41Z</time>
      </trkpt>
      <trkpt lat="43.89352" lon="5.56791">
        <ele>636.5</ele>
        <time>2015-06-21T10:04:48Z</time>
      </trkpt>
      <trkpt lat="43.89354" lon="5.56804">
        <ele>635</ele>
        <time>2015-06-21T10:04:56Z</time>
      </trkpt>
      <trkpt lat="43.89357" lon="5.56818">
        <ele>633.6</ele>
        <time>2015-06-21T10:05:03Z</time>
      </trkpt>
      <trkpt lat="43.89358" lon="5.5683">
        <ele>632.3</ele>
        <time>2015-06-21T10:05:08Z</time>
      </trkpt>
      <trkpt lat="43.89359" lon="5.56844">
        <ele>631.1</ele>
        <time>2015-06-21T10:05:14Z</time>
      </trkpt>
      <trkpt lat="43.89359" lon="5.56857">
        <ele>629.9</ele>
        <time>2015-06-21T10:05:20Z</time>
      </trkpt>
      <trkpt lat="43.8936" lon="5.56871">
        <ele>628.5</ele>
        <time>2015-06-21T10:05:27Z</time>
      </trkpt>
      <trkpt lat="43.89362" lon="5.56884">
        <ele>626.6</ele>
        <time>2015-06-21T10:05:39Z</time>
      </trkpt>
      <trkpt lat="43.89358" lon="5.56897">
        <ele>624.7</ele>
        <time>2015-06-21T10:05:49Z</time>
      </trkpt>
      <trkpt lat="43.89352" lon="5.56908">
        <ele>623.3</ele>
        <time>2015-06-21T10:05:57Z</time>
      </trkpt>
      <trkpt lat="43.89343" lon="5.56913">
        <ele>622.2</ele>
        <time>2015-06-21T10:06:02Z</time>
      </trkpt>
      <trkpt lat="43.89333" lon="5.56916">
        <ele>621.2</ele>
        <time>2015-06-21T10:06:07Z</time>
      </trkpt>
      <trkpt lat="43.89322" lon="5.56917">
        <ele>620.1</ele>
        <time>2015-06-21T10:06:13Z</time>
      </trkpt>
      <trkpt lat="43.89313" lon="5.56918">
        <ele>618.9</ele>
        <time>2015-06-21T10:06:19Z</time>
      </trkpt>
      <trkpt lat="43.89303" lon="5.56921">
        <ele>617.2</ele>
        <time>2015-06-21T10:06:27Z</time>
      </trkpt>
      <trkpt lat="43.89295" lon="5.56927">
        <ele>615.4</ele>
        <time>2015-06-21T10:06:37Z</time>
      </trkpt>
      <trkpt lat="43.89286" lon="5.56934">
        <ele>614.4</ele>
        <time>2015-06-21T10:06:45Z</time>
      </trkpt>
      <trkpt lat="43.89277" lon="5.56937">
        <ele>613.5</ele>
        <time>2015-06-21T10:06:51Z</time>
      </trkpt>
      <trkpt lat="43.89262" lon="5.56942">
        <ele>611</ele>
        <time>2015-06-21T10:07:01Z</time>
      </trkpt>
      <trkpt lat="43.89254" lon="5.5695">
        <ele>610</ele>
        <time>2015-06-21T10:07:09Z</time>
      </trkpt>
      <trkpt lat="43.89248" lon="5.56961">
        <ele>608</ele>
        <time>2015-06-21T10:07:17Z</time>
      </trkpt>
      <trkpt lat="43.89244" lon="5.56981">
        <ele>607</ele>
        <time>2015-06-21T10:07:25Z</time>
      </trkpt>
      <trkpt lat="43.89248" lon="5.56995">
        <ele>606.4</ele>
        <time>2015-06-21T10:07:32Z</time>
      </trkpt>
      <trkpt lat="43.89255" lon="5.57005">
        <ele>605.4</ele>
        <time>2015-06-21T10:07:39Z</time>
      </trkpt>
      <trkpt lat="43.89262" lon="5.57014">
        <ele>604.9</ele>
        <time>2015-06-21T10:07:43Z</time>
      </trkpt>
      <trkpt lat="43.89268" lon="5.57025">
        <ele>604.2</ele>
        <time>2015-06-21T10:07:49Z</time>
      </trkpt>
      <trkpt lat="43.89271" lon="5.5704">
        <ele>603.8</ele>
        <time>2015-06-21T10:07:54Z</time>
      </trkpt>
      <trkpt lat="43.89276" lon="5.5705">
        <ele>603</ele>
        <time>2015-06-21T10:08:01Z</time>
      </trkpt>
      <trkpt lat="43.8928" lon="5.57063">
        <ele>602.2</ele>
        <time>2015-06-21T10:08:08Z</time>
      </trkpt>
      <trkpt lat="43.89284" lon="5.57076">
        <ele>601.8</ele>
        <time>2015-06-21T10:08:14Z</time>
      </trkpt>
      <trkpt lat="43.89289" lon="5.57087">
        <ele>601.4</ele>
        <time>2015-06-21T10:08:21Z</time>
      </trkpt>
      <trkpt lat="43.89288" lon="5.57101">
        <ele>601.1</ele>
        <time>2015-06-21T10:08:28Z</time>
      </trkpt>
      <trkpt lat="43.89285" lon="5.57114">
        <ele>600.6</ele>
        <time>2015-06-21T10:08:34Z</time>
      </trkpt>
      <trkpt lat="43.89285" lon="5.57127">
        <ele>600.3</ele>
        <time>2015-06-21T10:08:41Z</time>
      </trkpt>
      <trkpt lat="43.89286" lon="5.57141">
        <ele>600.1</ele>
        <time>2015-06-21T10:08:47Z</time>
      </trkpt>
      <trkpt lat="43.89289" lon="5.57155">
        <ele>599.5</ele>
        <time>2015-06-21T10:08:54Z</time>
      </trkpt>
      <trkpt lat="43.89292" lon="5.57167">
        <ele>598.7</ele>
        <time>2015-06-21T10:08:59Z</time>
      </trkpt>
      <trkpt lat="43.89298" lon="5.57178">
        <ele>598</ele>
        <time>2015-06-21T10:09:05Z</time>
      </trkpt>
      <trkpt lat="43.89304" lon="5.57188">
        <ele>597.5</ele>
        <time>2015-06-21T10:09:11Z</time>
      </trkpt>
      <trkpt lat="43.89311" lon="5.57198">
        <ele>596.6</ele>
        <time>2015-06-21T10:09:21Z</time>
      </trkpt>
      <trkpt lat="43.89314" lon="5.57211">
        <ele>595.5</ele>
        <time>2015-06-21T10:09:42Z</time>
      </trkpt>
      <trkpt lat="43.89313" lon="5.57226">
        <ele>594.8</ele>
        <time>2015-06-21T10:09:51Z</time>
      </trkpt>
      <trkpt lat="43.89307" lon="5.57235">
        <ele>593.7</ele>
        <time>2015-06-21T10:10:03Z</time>
      </trkpt>
      <trkpt lat="43.893" lon="5.57245">
        <ele>592.8</ele>
        <time>2015-06-21T10:10:10Z</time>
      </trkpt>
      <trkpt lat="43.89294" lon="5.57255">
        <ele>591.7</ele>
        <time>2015-06-21T10:10:17Z</time>
      </trkpt>
      <trkpt lat="43.89288" lon="5.57266">
        <ele>590.8</ele>
        <time>2015-06-21T10:10:23Z</time>
      </trkpt>
      <trkpt lat="43.89282" lon="5.57276">
        <ele>589.6</ele>
        <time>2015-06-21T10:10:30Z</time>
      </trkpt>
      <trkpt lat="43.89275" lon="5.57286">
        <ele>588.1</ele>
        <time>2015-06-21T10:10:38Z</time>
      </trkpt>
      <trkpt lat="43.89267" lon="5.57296">
        <ele>586.6</ele>
        <time>2015-06-21T10:10:46Z</time>
      </trkpt>
      <trkpt lat="43.89261" lon="5.57304">
        <ele>585.2</ele>
        <time>2015-06-21T10:10:53Z</time>
      </trkpt>
      <trkpt lat="43.89256" lon="5.57317">
        <ele>583.8</ele>
        <time>2015-06-21T10:11:00Z</time>
      </trkpt>
      <trkpt lat="43.8925" lon="5.57327">
        <ele>582.6</ele>
        <time>2015-06-21T10:11:05Z</time>
      </trkpt>
      <trkpt lat="43.89242" lon="5.57336">
        <ele>581.3</ele>
        <time>2015-06-21T10:11:12Z</time>
      </trkpt>
      <trkpt lat="43.89236" lon="5.57346">
        <ele>580.5</ele>
        <time>2015-06-21T10:11:17Z</time>
      </trkpt>
      <trkpt lat="43.8923" lon="5.57355">
        <ele>579.6</ele>
        <time>2015-06-21T10:11:24Z</time>
      </trkpt>
      <trkpt lat="43.89222" lon="5.57363">
        <ele>578.5</ele>
        <time>2015-06-21T10:11:31Z</time>
      </trkpt>
      <trkpt lat="43.89216" lon="5.57373">
        <ele>577.1</ele>
        <time>2015-06-21T10:11:38Z</time>
      </trkpt>
      <trkpt lat="43.89208" lon="5.57382">
        <ele>575.8</ele>
        <time>2015-06-21T10:11:45Z</time>
      </trkpt>
      <trkpt lat="43.89203" lon="5.57393">
        <ele>574.2</ele>
        <time>2015-06-21T10:11:52Z</time>
      </trkpt>
      <trkpt lat="43.89196" lon="5.57402">
        <ele>572</ele>
        <time>2015-06-21T10:12:03Z</time>
      </trkpt>
      <trkpt lat="43.89189" lon="5.57413">
        <ele>569.8</ele>
        <time>2015-06-21T10:12:12Z</time>
      </trkpt>
      <trkpt lat="43.89185" lon="5.57426">
        <ele>568.8</ele>
        <time>2015-06-21T10:12:18Z</time>
      </trkpt>
      <trkpt lat="43.89182" lon="5.57438">
        <ele>567.1</ele>
        <time>2015-06-21T10:12:25Z</time>
      </trkpt>
      <trkpt lat="43.8918" lon="5.57451">
        <ele>565.4</ele>
        <time>2015-06-21T10:12:34Z</time>
      </trkpt>
      <trkpt lat="43.89184" lon="5.57464">
        <ele>563.7</ele>
        <time>2015-06-21T10:12:42Z</time>
      </trkpt>
      <trkpt lat="43.89184" lon="5.57479">
        <ele>562.3</ele>
        <time>2015-06-21T10:12:49Z</time>
      </trkpt>
      <trkpt lat="43.89182" lon="5.57492">
        <ele>560.6</ele>
        <time>2015-06-21T10:12:57Z</time>
      </trkpt>
      <trkpt lat="43.89179" lon="5.57504">
        <ele>559.1</ele>
        <time>2015-06-21T10:13:03Z</time>
      </trkpt>
      <trkpt lat="43.89175" lon="5.57516">
        <ele>558</ele>
        <time>2015-06-21T10:13:09Z</time>
      </trkpt>
      <trkpt lat="43.89171" lon="5.5753">
        <ele>557</ele>
        <time>2015-06-21T10:13:13Z</time>
      </trkpt>
      <trkpt lat="43.89166" lon="5.57542">
        <ele>556</ele>
        <time>2015-06-21T10:13:17Z</time>
      </trkpt>
      <trkpt lat="43.89161" lon="5.57552">
        <ele>554.5</ele>
        <time>2015-06-21T10:13:23Z</time>
      </trkpt>
      <trkpt lat="43.89155" lon="5.57563">
        <ele>552.9</ele>
        <time>2015-06-21T10:13:31Z</time>
      </trkpt>
      <trkpt lat="43.89149" lon="5.57574">
        <ele>551.6</ele>
        <time>2015-06-21T10:13:38Z</time>
      </trkpt>
      <trkpt lat="43.89148" lon="5.57588">
        <ele>550.5</ele>
        <time>2015-06-21T10:13:44Z</time>
      </trkpt>
      <trkpt lat="43.89144" lon="5.576">
        <ele>549</ele>
        <time>2015-06-21T10:13:51Z</time>
      </trkpt>
      <trkpt lat="43.89141" lon="5.57612">
        <ele>547.5</ele>
        <time>2015-06-21T10:13:58Z</time>
      </trkpt>
      <trkpt lat="43.89139" lon="5.57625">
        <ele>546.3</ele>
        <time>2015-06-21T10:14:06Z</time>
      </trkpt>
      <trkpt lat="43.89136" lon="5.57637">
        <ele>545.2</ele>
        <time>2015-06-21T10:14:13Z</time>
      </trkpt>
      <trkpt lat="43.89134" lon="5.57652">
        <ele>543.9</ele>
        <time>2015-06-21T10:14:19Z</time>
      </trkpt>
      <trkpt lat="43.89132" lon="5.57664">
        <ele>542.7</ele>
        <time>2015-06-21T10:14:26Z</time>
      </trkpt>
      <trkpt lat="43.89132" lon="5.57677">
        <ele>541.3</ele>
        <time>2015-06-21T10:14:33Z</time>
      </trkpt>
      <trkpt lat="43.89132" lon="5.57691">
        <ele>539.5</ele>
        <time>2015-06-21T10:14:42Z</time>
      </trkpt>
      <trkpt lat="43.89129" lon="5.57704">
        <ele>538.2</ele>
        <time>2015-06-21T10:14:49Z</time>
      </trkpt>
      <trkpt lat="43.89124" lon="5.57714">
        <ele>537.1</ele>
        <time>2015-06-21T10:14:55Z</time>
      </trkpt>
      <trkpt lat="43.89119" lon="5.57725">
        <ele>536</ele>
        <time>2015-06-21T10:15:02Z</time>
      </trkpt>
      <trkpt lat="43.89114" lon="5.57736">
        <ele>534.9</ele>
        <time>2015-06-21T10:15:08Z</time>
      </trkpt>
      <trkpt lat="43.89109" lon="5.57748">
        <ele>533.5</ele>
        <time>2015-06-21T10:15:15Z</time>
      </trkpt>
      <trkpt lat="43.89103" lon="5.5776">
        <ele>532.8</ele>
        <time>2015-06-21T10:15:19Z</time>
      </trkpt>
      <trkpt lat="43.891" lon="5.57774">
        <ele>531.7</ele>
        <time>2015-06-21T10:15:25Z</time>
      </trkpt>
      <trkpt lat="43.89098" lon="5.57788">
        <ele>530.3</ele>
        <time>2015-06-21T10:15:32Z</time>
      </trkpt>
      <trkpt lat="43.89094" lon="5.57801">
        <ele>529.1</ele>
        <time>2015-06-21T10:15:40Z</time>
      </trkpt>
      <trkpt lat="43.8909" lon="5.57813">
        <ele>528</ele>
        <time>2015-06-21T10:15:46Z</time>
      </trkpt>
      <trkpt lat="43.89085" lon="5.57824">
        <ele>527.2</ele>
        <time>2015-06-21T10:15:51Z</time>
      </trkpt>
      <trkpt lat="43.89078" lon="5.57834">
        <ele>526.3</ele>
        <time>2015-06-21T10:15:56Z</time>
      </trkpt>
      <trkpt lat="43.89071" lon="5.57841">
        <ele>525.6</ele>
        <time>2015-06-21T10:16:01Z</time>
      </trkpt>
      <trkpt lat="43.89064" lon="5.5785">
        <ele>524.9</ele>
        <time>2015-06-21T10:16:06Z</time>
      </trkpt>
      <trkpt lat="43.89058" lon="5.5786">
        <ele>524.1</ele>
        <time>2015-06-21T10:16:12Z</time>
      </trkpt>
      <trkpt lat="43.89051" lon="5.57868">
        <ele>523.3</ele>
        <time>2015-06-21T10:16:18Z</time>
      </trkpt>
      <trkpt lat="43.89043" lon="5.57877">
        <ele>522.4</ele>
        <time>2015-06-21T10:16:24Z</time>
      </trkpt>
      <trkpt lat="43.89035" lon="5.57885">
        <ele>521.6</ele>
        <time>2015-06-21T10:16:31Z</time>
      </trkpt>
      <trkpt lat="43.89028" lon="5.57894">
        <ele>520.7</ele>
        <time>2015-06-21T10:16:38Z</time>
      </trkpt>
      <trkpt lat="43.89022" lon="5.57903">
        <ele>519.4</ele>
        <time>2015-06-21T10:16:45Z</time>
      </trkpt>
      <trkpt lat="43.89014" lon="5.57909">
        <ele>517.9</ele>
        <time>2015-06-21T10:16:52Z</time>
      </trkpt>
      <trkpt lat="43.89006" lon="5.57918">
        <ele>516.9</ele>
        <time>2015-06-21T10:16:59Z</time>
      </trkpt>
      <trkpt lat="43.88999" lon="5.57926">
        <ele>516.2</ele>
        <time>2015-06-21T10:17:04Z</time>
      </trkpt>
      <trkpt lat="43.88992" lon="5.57936">
        <ele>515.1</ele>
        <time>2015-06-21T10:17:10Z</time>
      </trkpt>
      <trkpt lat="43.88985" lon="5.57945">
        <ele>513.9</ele>
        <time>2015-06-21T10:17:17Z</time>
      </trkpt>
      <trkpt lat="43.88979" lon="5.57954">
        <ele>512.3</ele>
        <time>2015-06-21T10:17:24Z</time>
      </trkpt>
      <trkpt lat="43.88973" lon="5.57964">
        <ele>511.1</ele>
        <time>2015-06-21T10:17:29Z</time>
      </trkpt>
      <trkpt lat="43.88967" lon="5.57973">
        <ele>509.8</ele>
        <time>2015-06-21T10:17:36Z</time>
      </trkpt>
      <trkpt lat="43.88961" lon="5.57984">
        <ele>508.7</ele>
        <time>2015-06-21T10:17:43Z</time>
      </trkpt>
      <trkpt lat="43.88955" lon="5.57993">
        <ele>507.3</ele>
        <time>2015-06-21T10:17:49Z</time>
      </trkpt>
      <trkpt lat="43.88947" lon="5.58001">
        <ele>505.9</ele>
        <time>2015-06-21T10:17:55Z</time>
      </trkpt>
      <trkpt lat="43.8894" lon="5.58008">
        <ele>504.7</ele>
        <time>2015-06-21T10:18:01Z</time>
      </trkpt>
      <trkpt lat="43.88932" lon="5.58017">
        <ele>502.8</ele>
        <time>2015-06-21T10:18:08Z</time>
      </trkpt>
      <trkpt lat="43.88924" lon="5.58024">
        <ele>500.9</ele>
        <time>2015-06-21T10:18:16Z</time>
      </trkpt>
      <trkpt lat="43.88916" lon="5.58032">
        <ele>499</ele>
        <time>2015-06-21T10:18:22Z</time>
      </trkpt>
      <trkpt lat="43.88909" lon="5.58041">
        <ele>497.6</ele>
        <time>2015-06-21T10:18:27Z</time>
      </trkpt>
      <trkpt lat="43.88901" lon="5.58051">
        <ele>496.1</ele>
        <time>2015-06-21T10:18:34Z</time>
      </trkpt>
      <trkpt lat="43.88896" lon="5.58062">
        <ele>494.2</ele>
        <time>2015-06-21T10:18:42Z</time>
      </trkpt>
      <trkpt lat="43.88889" lon="5.58071">
        <ele>492.4</ele>
        <time>2015-06-21T10:18:49Z</time>
      </trkpt>
      <trkpt lat="43.88883" lon="5.5808">
        <ele>490.9</ele>
        <time>2015-06-21T10:18:55Z</time>
      </trkpt>
      <trkpt lat="43.88875" lon="5.5809">
        <ele>489.4</ele>
        <time>2015-06-21T10:19:01Z</time>
      </trkpt>
      <trkpt lat="43.88868" lon="5.581">
        <ele>487.7</ele>
        <time>2015-06-21T10:19:08Z</time>
      </trkpt>
      <trkpt lat="43.88864" lon="5.58112">
        <ele>486.4</ele>
        <time>2015-06-21T10:19:14Z</time>
      </trkpt>
      <trkpt lat="43.88857" lon="5.58123">
        <ele>484.8</ele>
        <time>2015-06-21T10:19:21Z</time>
      </trkpt>
      <trkpt lat="43.88851" lon="5.58133">
        <ele>483.4</ele>
        <time>2015-06-21T10:19:27Z</time>
      </trkpt>
      <trkpt lat="43.88843" lon="5.58143">
        <ele>481.4</ele>
        <time>2015-06-21T10:19:35Z</time>
      </trkpt>
      <trkpt lat="43.88838" lon="5.58154">
        <ele>480.4</ele>
        <time>2015-06-21T10:19:40Z</time>
      </trkpt>
      <trkpt lat="43.88835" lon="5.58166">
        <ele>478.8</ele>
        <time>2015-06-21T10:19:46Z</time>
      </trkpt>
      <trkpt lat="43.88829" lon="5.58178">
        <ele>477.1</ele>
        <time>2015-06-21T10:19:54Z</time>
      </trkpt>
      <trkpt lat="43.88825" lon="5.5819">
        <ele>475.8</ele>
        <time>2015-06-21T10:20:00Z</time>
      </trkpt>
      <trkpt lat="43.88817" lon="5.58198">
        <ele>474</ele>
        <time>2015-06-21T10:20:08Z</time>
      </trkpt>
      <trkpt lat="43.88812" lon="5.58211">
        <ele>472.7</ele>
        <time>2015-06-21T10:20:14Z</time>
      </trkpt>
      <trkpt lat="43.88807" lon="5.58223">
        <ele>471.4</ele>
        <time>2015-06-21T10:20:19Z</time>
      </trkpt>
      <trkpt lat="43.88801" lon="5.58233">
        <ele>470</ele>
        <time>2015-06-21T10:20:25Z</time>
      </trkpt>
      <trkpt lat="43.88795" lon="5.58247">
        <ele>468.5</ele>
        <time>2015-06-21T10:20:31Z</time>
      </trkpt>
      <trkpt lat="43.88788" lon="5.58256">
        <ele>466.9</ele>
        <time>2015-06-21T10:20:39Z</time>
      </trkpt>
      <trkpt lat="43.88779" lon="5.58262">
        <ele>465.6</ele>
        <time>2015-06-21T10:20:45Z</time>
      </trkpt>
      <trkpt lat="43.88769" lon="5.58264">
        <ele>464</ele>
        <time>2015-06-21T10:20:52Z</time>
      </trkpt>
      <trkpt lat="43.88759" lon="5.58263">
        <ele>461.6</ele>
        <time>2015-06-21T10:20:59Z</time>
      </trkpt>
      <trkpt lat="43.88749" lon="5.58264">
        <ele>461.2</ele>
        <time>2015-06-21T10:21:04Z</time>
      </trkpt>
      <trkpt lat="43.8874" lon="5.58263">
        <ele>460.4</ele>
        <time>2015-06-21T10:21:10Z</time>
      </trkpt>
      <trkpt lat="43.88732" lon="5.58257">
        <ele>459.5</ele>
        <time>2015-06-21T10:21:15Z</time>
      </trkpt>
      <trkpt lat="43.88725" lon="5.58249">
        <ele>458.2</ele>
        <time>2015-06-21T10:21:21Z</time>
      </trkpt>
      <trkpt lat="43.88719" lon="5.58239">
        <ele>456.4</ele>
        <time>2015-06-21T10:21:28Z</time>
      </trkpt>
      <trkpt lat="43.88714" lon="5.58227">
        <ele>453.6</ele>
        <time>2015-06-21T10:21:38Z</time>
      </trkpt>
      <trkpt lat="43.88709" lon="5.58217">
        <ele>451.9</ele>
        <time>2015-06-21T10:21:47Z</time>
      </trkpt>
      <trkpt lat="43.88702" lon="5.58207">
        <ele>449.9</ele>
        <time>2015-06-21T10:21:56Z</time>
      </trkpt>
      <trkpt lat="43.88687" lon="5.58194">
        <ele>445</ele>
        <time>2015-06-21T10:22:31Z</time>
      </trkpt>
      <trkpt lat="43.88681" lon="5.58205">
        <ele>441.8</ele>
        <time>2015-06-21T10:23:56Z</time>
      </trkpt>
      <trkpt lat="43.88673" lon="5.58214">
        <ele>441.1</ele>
        <time>2015-06-21T10:24:03Z</time>
      </trkpt>
      <trkpt lat="43.88671" lon="5.58228">
        <ele>439.5</ele>
        <time>2015-06-21T10:24:13Z</time>
      </trkpt>
      <trkpt lat="43.88666" lon="5.5824">
        <ele>438.3</ele>
        <time>2015-06-21T10:24:23Z</time>
      </trkpt>
      <trkpt lat="43.88663" lon="5.58253">
        <ele>437.3</ele>
        <time>2015-06-21T10:24:30Z</time>
      </trkpt>
      <trkpt lat="43.88658" lon="5.58265">
        <ele>436.2</ele>
        <time>2015-06-21T10:24:37Z</time>
      </trkpt>
      <trkpt lat="43.88653" lon="5.58276">
        <ele>434.8</ele>
        <time>2015-06-21T10:24:45Z</time>
      </trkpt>
      <trkpt lat="43.8865" lon="5.58289">
        <ele>433.9</ele>
        <time>2015-06-21T10:24:50Z</time>
      </trkpt>
      <trkpt lat="43.88644" lon="5.58301">
        <ele>431.8</ele>
        <time>2015-06-21T10:24:59Z</time>
      </trkpt>
      <trkpt lat="43.88639" lon="5.58313">
        <ele>430.8</ele>
        <time>2015-06-21T10:25:06Z</time>
      </trkpt>
      <trkpt lat="43.88635" lon="5.58327">
        <ele>429.9</ele>
        <time>2015-06-21T10:25:14Z</time>
      </trkpt>
      <trkpt lat="43.88632" lon="5.5834">
        <ele>429.2</ele>
        <time>2015-06-21T10:25:21Z</time>
      </trkpt>
      <trkpt lat="43.88626" lon="5.58351">
        <ele>428</ele>
        <time>2015-06-21T10:25:28Z</time>
      </trkpt>
      <trkpt lat="43.88623" lon="5.58364">
        <ele>426.6</ele>
        <time>2015-06-21T10:25:35Z</time>
      </trkpt>
      <trkpt lat="43.88618" lon="5.58375">
        <ele>425.5</ele>
        <time>2015-06-21T10:25:40Z</time>
      </trkpt>
      <trkpt lat="43.88615" lon="5.58388">
        <ele>424.6</ele>
        <time>2015-06-21T10:25:46Z</time>
      </trkpt>
      <trkpt lat="43.88609" lon="5.58398">
        <ele>423.9</ele>
        <time>2015-06-21T10:25:51Z</time>
      </trkpt>
      <trkpt lat="43.88606" lon="5.58412">
        <ele>423.3</ele>
        <time>2015-06-21T10:25:57Z</time>
      </trkpt>
      <trkpt lat="43.88603" lon="5.58424">
        <ele>422.8</ele>
        <time>2015-06-21T10:26:03Z</time>
      </trkpt>
      <trkpt lat="43.88602" lon="5.58438">
        <ele>421.7</ele>
        <time>2015-06-21T10:26:10Z</time>
      </trkpt>
      <trkpt lat="43.88606" lon="5.58452">
        <ele>421.3</ele>
        <time>2015-06-21T10:26:17Z</time>
      </trkpt>
      <trkpt lat="43.88614" lon="5.58462">
        <ele>421</ele>
        <time>2015-06-21T10:26:25Z</time>
      </trkpt>
      <trkpt lat="43.8862" lon="5.58473">
        <ele>420.9</ele>
        <time>2015-06-21T10:26:31Z</time>
      </trkpt>
      <trkpt lat="43.88624" lon="5.58485">
        <ele>420.8</ele>
        <time>2015-06-21T10:26:37Z</time>
      </trkpt>
      <trkpt lat="43.88629" lon="5.58498">
        <ele>420.6</ele>
        <time>2015-06-21T10:26:44Z</time>
      </trkpt>
      <trkpt lat="43.88631" lon="5.58512">
        <ele>420.6</ele>
        <time>2015-06-21T10:26:49Z</time>
      </trkpt>
      <trkpt lat="43.8863" lon="5.58526">
        <ele>420.5</ele>
        <time>2015-06-21T10:26:55Z</time>
      </trkpt>
      <trkpt lat="43.88626" lon="5.58538">
        <ele>420.4</ele>
        <time>2015-06-21T10:27:01Z</time>
      </trkpt>
      <trkpt lat="43.88622" lon="5.58551">
        <ele>420.3</ele>
        <time>2015-06-21T10:27:07Z</time>
      </trkpt>
      <trkpt lat="43.8862" lon="5.58564">
        <ele>420</ele>
        <time>2015-06-21T10:27:13Z</time>
      </trkpt>
      <trkpt lat="43.88618" lon="5.58578">
        <ele>419.7</ele>
        <time>2015-06-21T10:27:19Z</time>
      </trkpt>
      <trkpt lat="43.88618" lon="5.58591">
        <ele>419.3</ele>
        <time>2015-06-21T10:27:25Z</time>
      </trkpt>
      <trkpt lat="43.88617" lon="5.58604">
        <ele>419.1</ele>
        <time>2015-06-21T10:27:30Z</time>
      </trkpt>
      <trkpt lat="43.88618" lon="5.58617">
        <ele>418.9</ele>
        <time>2015-06-21T10:27:35Z</time>
      </trkpt>
      <trkpt lat="43.88617" lon="5.58631">
        <ele>418.8</ele>
        <time>2015-06-21T10:27:41Z</time>
      </trkpt>
      <trkpt lat="43.88618" lon="5.58643">
        <ele>418.7</ele>
        <time>2015-06-21T10:27:46Z</time>
      </trkpt>
      <trkpt lat="43.88617" lon="5.58656">
        <ele>418.6</ele>
        <time>2015-06-21T10:27:51Z</time>
      </trkpt>
      <trkpt lat="43.88618" lon="5.58669">
        <ele>418.5</ele>
        <time>2015-06-21T10:27:57Z</time>
      </trkpt>
      <trkpt lat="43.88624" lon="5.5868">
        <ele>418.6</ele>
        <time>2015-06-21T10:28:04Z</time>
      </trkpt>
      <trkpt lat="43.88629" lon="5.58692">
        <ele>418.7</ele>
        <time>2015-06-21T10:28:12Z</time>
      </trkpt>
      <trkpt lat="43.88635" lon="5.58704">
        <ele>418.3</ele>
        <time>2015-06-21T10:28:18Z</time>
      </trkpt>
      <trkpt lat="43.8864" lon="5.58717">
        <ele>418.7</ele>
        <time>2015-06-21T10:28:24Z</time>
      </trkpt>
      <trkpt lat="43.88646" lon="5.58727">
        <ele>419</ele>
        <time>2015-06-21T10:28:29Z</time>
      </trkpt>
      <trkpt lat="43.88651" lon="5.58738">
        <ele>419.3</ele>
        <time>2015-06-21T10:28:36Z</time>
      </trkpt>
      <trkpt lat="43.88656" lon="5.5875">
        <ele>419.4</ele>
        <time>2015-06-21T10:28:42Z</time>
      </trkpt>
      <trkpt lat="43.88661" lon="5.58762">
        <ele>419.7</ele>
        <time>2015-06-21T10:28:47Z</time>
      </trkpt>
      <trkpt lat="43.88665" lon="5.58774">
        <ele>420.1</ele>
        <time>2015-06-21T10:28:56Z</time>
      </trkpt>
      <trkpt lat="43.88672" lon="5.58787">
        <ele>420.1</ele>
        <time>2015-06-21T10:29:03Z</time>
      </trkpt>
      <trkpt lat="43.8868" lon="5.58796">
        <ele>420.2</ele>
        <time>2015-06-21T10:29:07Z</time>
      </trkpt>
      <trkpt lat="43.88686" lon="5.58806">
        <ele>420.2</ele>
        <time>2015-06-21T10:29:12Z</time>
      </trkpt>
      <trkpt lat="43.88691" lon="5.58818">
        <ele>420.3</ele>
        <time>2015-06-21T10:29:18Z</time>
      </trkpt>
      <trkpt lat="43.88696" lon="5.58829">
        <ele>420.5</ele>
        <time>2015-06-21T10:29:24Z</time>
      </trkpt>
      <trkpt lat="43.88702" lon="5.58841">
        <ele>420.7</ele>
        <time>2015-06-21T10:29:30Z</time>
      </trkpt>
      <trkpt lat="43.88705" lon="5.58853">
        <ele>420.7</ele>
        <time>2015-06-21T10:29:36Z</time>
      </trkpt>
      <trkpt lat="43.88707" lon="5.58866">
        <ele>420.6</ele>
        <time>2015-06-21T10:29:40Z</time>
      </trkpt>
      <trkpt lat="43.88707" lon="5.58879">
        <ele>420.9</ele>
        <time>2015-06-21T10:29:46Z</time>
      </trkpt>
      <trkpt lat="43.88709" lon="5.58894">
        <ele>421.1</ele>
        <time>2015-06-21T10:29:52Z</time>
      </trkpt>
      <trkpt lat="43.88711" lon="5.58908">
        <ele>420.9</ele>
        <time>2015-06-21T10:29:58Z</time>
      </trkpt>
      <trkpt lat="43.88714" lon="5.58922">
        <ele>421.3</ele>
        <time>2015-06-21T10:30:05Z</time>
      </trkpt>
      <trkpt lat="43.8872" lon="5.58931">
        <ele>421.4</ele>
        <time>2015-06-21T10:30:13Z</time>
      </trkpt>
      <trkpt lat="43.88724" lon="5.58943">
        <ele>421.4</ele>
        <time>2015-06-21T10:30:19Z</time>
      </trkpt>
      <trkpt lat="43.88729" lon="5.58955">
        <ele>421.3</ele>
        <time>2015-06-21T10:30:27Z</time>
      </trkpt>
      <trkpt lat="43.88733" lon="5.58968">
        <ele>421</ele>
        <time>2015-06-21T10:30:52Z</time>
      </trkpt>
      <trkpt lat="43.88737" lon="5.58982">
        <ele>420.9</ele>
        <time>2015-06-21T10:30:57Z</time>
      </trkpt>
      <trkpt lat="43.88741" lon="5.58997">
        <ele>420.8</ele>
        <time>2015-06-21T10:31:01Z</time>
      </trkpt>
      <trkpt lat="43.88744" lon="5.59009">
        <ele>420.8</ele>
        <time>2015-06-21T10:31:07Z</time>
      </trkpt>
      <trkpt lat="43.88748" lon="5.59022">
        <ele>420.7</ele>
        <time>2015-06-21T10:31:13Z</time>
      </trkpt>
      <trkpt lat="43.88753" lon="5.59034">
        <ele>420.6</ele>
        <time>2015-06-21T10:31:20Z</time>
      </trkpt>
      <trkpt lat="43.88756" lon="5.59049">
        <ele>420.5</ele>
        <time>2015-06-21T10:31:27Z</time>
      </trkpt>
      <trkpt lat="43.88761" lon="5.5906">
        <ele>420.4</ele>
        <time>2015-06-21T10:31:31Z</time>
      </trkpt>
      <trkpt lat="43.88765" lon="5.59074">
        <ele>420.5</ele>
        <time>2015-06-21T10:31:36Z</time>
      </trkpt>
      <trkpt lat="43.88769" lon="5.59086">
        <ele>420.5</ele>
        <time>2015-06-21T10:31:40Z</time>
      </trkpt>
      <trkpt lat="43.88769" lon="5.591">
        <ele>420.5</ele>
        <time>2015-06-21T10:31:46Z</time>
      </trkpt>
      <trkpt lat="43.88771" lon="5.59113">
        <ele>420.6</ele>
        <time>2015-06-21T10:31:53Z</time>
      </trkpt>
      <trkpt lat="43.88774" lon="5.59126">
        <ele>420.6</ele>
        <time>2015-06-21T10:31:59Z</time>
      </trkpt>
      <trkpt lat="43.88776" lon="5.5914">
        <ele>420.6</ele>
        <time>2015-06-21T10:32:05Z</time>
      </trkpt>
      <trkpt lat="43.88777" lon="5.59153">
        <ele>420.5</ele>
        <time>2015-06-21T10:32:12Z</time>
      </trkpt>
      <trkpt lat="43.88781" lon="5.59165">
        <ele>420.6</ele>
        <time>2015-06-21T10:32:18Z</time>
      </trkpt>
      <trkpt lat="43.88785" lon="5.59176">
        <ele>420.7</ele>
        <time>2015-06-21T10:32:24Z</time>
      </trkpt>
      <trkpt lat="43.88788" lon="5.59189">
        <ele>420.8</ele>
        <time>2015-06-21T10:32:30Z</time>
      </trkpt>
      <trkpt lat="43.88791" lon="5.59204">
        <ele>420.9</ele>
        <time>2015-06-21T10:32:36Z</time>
      </trkpt>
      <trkpt lat="43.88794" lon="5.59216">
        <ele>420.8</ele>
        <time>2015-06-21T10:32:41Z</time>
      </trkpt>
      <trkpt lat="43.88798" lon="5.59229">
        <ele>420.9</ele>
        <time>2015-06-21T10:32:48Z</time>
      </trkpt>
      <trkpt lat="43.88802" lon="5.5924">
        <ele>420.7</ele>
        <time>2015-06-21T10:32:53Z</time>
      </trkpt>
      <trkpt lat="43.88804" lon="5.59255">
        <ele>421</ele>
        <time>2015-06-21T10:33:00Z</time>
      </trkpt>
      <trkpt lat="43.88806" lon="5.59269">
        <ele>421.1</ele>
        <time>2015-06-21T10:33:06Z</time>
      </trkpt>
      <trkpt lat="43.88812" lon="5.5928">
        <ele>421.3</ele>
        <time>2015-06-21T10:33:13Z</time>
      </trkpt>
      <trkpt lat="43.88817" lon="5.59292">
        <ele>421.5</ele>
        <time>2015-06-21T10:33:19Z</time>
      </trkpt>
      <trkpt lat="43.88818" lon="5.59305">
        <ele>421.6</ele>
        <time>2015-06-21T10:33:25Z</time>
      </trkpt>
      <trkpt lat="43.88822" lon="5.59318">
        <ele>421.6</ele>
        <time>2015-06-21T10:33:31Z</time>
      </trkpt>
      <trkpt lat="43.88827" lon="5.5933">
        <ele>421.6</ele>
        <time>2015-06-21T10:33:37Z</time>
      </trkpt>
      <trkpt lat="43.88828" lon="5.59344">
        <ele>421.6</ele>
        <time>2015-06-21T10:33:44Z</time>
      </trkpt>
      <trkpt lat="43.88828" lon="5.59357">
        <ele>421.8</ele>
        <time>2015-06-21T10:33:50Z</time>
      </trkpt>
      <trkpt lat="43.88833" lon="5.5937">
        <ele>422</ele>
        <time>2015-06-21T10:33:57Z</time>
      </trkpt>
      <trkpt lat="43.88835" lon="5.59383">
        <ele>422</ele>
        <time>2015-06-21T10:34:02Z</time>
      </trkpt>
      <trkpt lat="43.88836" lon="5.59396">
        <ele>422</ele>
        <time>2015-06-21T10:34:08Z</time>
      </trkpt>
      <trkpt lat="43.8884" lon="5.59411">
        <ele>422.1</ele>
        <time>2015-06-21T10:34:14Z</time>
      </trkpt>
      <trkpt lat="43.88843" lon="5.59423">
        <ele>422.2</ele>
        <time>2015-06-21T10:34:20Z</time>
      </trkpt>
      <trkpt lat="43.88839" lon="5.59435">
        <ele>422.3</ele>
        <time>2015-06-21T10:34:25Z</time>
      </trkpt>
      <trkpt lat="43.8884" lon="5.59449">
        <ele>422.4</ele>
        <time>2015-06-21T10:34:32Z</time>
      </trkpt>
      <trkpt lat="43.88843" lon="5.59462">
        <ele>422.4</ele>
        <time>2015-06-21T10:34:38Z</time>
      </trkpt>
      <trkpt lat="43.88849" lon="5.59474">
        <ele>422.4</ele>
        <time>2015-06-21T10:34:43Z</time>
      </trkpt>
      <trkpt lat="43.88852" lon="5.59485">
        <ele>422.4</ele>
        <time>2015-06-21T10:34:48Z</time>
      </trkpt>
      <trkpt lat="43.88852" lon="5.59501">
        <ele>422.4</ele>
        <time>2015-06-21T10:34:53Z</time>
      </trkpt>
      <trkpt lat="43.88854" lon="5.59515">
        <ele>422.4</ele>
        <time>2015-06-21T10:34:58Z</time>
      </trkpt>
      <trkpt lat="43.88859" lon="5.59526">
        <ele>422.4</ele>
        <time>2015-06-21T10:35:05Z</time>
      </trkpt>
      <trkpt lat="43.88866" lon="5.59535">
        <ele>422.5</ele>
        <time>2015-06-21T10:35:09Z</time>
      </trkpt>
      <trkpt lat="43.88874" lon="5.59551">
        <ele>422.5</ele>
        <time>2015-06-21T10:35:12Z</time>
      </trkpt>
      <trkpt lat="43.8888" lon="5.5956">
        <ele>422.6</ele>
        <time>2015-06-21T10:35:14Z</time>
      </trkpt>
      <trkpt lat="43.88888" lon="5.59573">
        <ele>422.7</ele>
        <time>2015-06-21T10:35:16Z</time>
      </trkpt>
      <trkpt lat="43.88898" lon="5.59582">
        <ele>422.9</ele>
        <time>2015-06-21T10:35:18Z</time>
      </trkpt>
      <trkpt lat="43.88907" lon="5.59593">
        <ele>423.1</ele>
        <time>2015-06-21T10:35:20Z</time>
      </trkpt>
      <trkpt lat="43.88915" lon="5.59605">
        <ele>423.2</ele>
        <time>2015-06-21T10:35:23Z</time>
      </trkpt>
      <trkpt lat="43.88913" lon="5.59619">
        <ele>423.9</ele>
        <time>2015-06-21T10:35:31Z</time>
      </trkpt>
      <trkpt lat="43.8892" lon="5.59629">
        <ele>424.3</ele>
        <time>2015-06-21T10:35:36Z</time>
      </trkpt>
      <trkpt lat="43.88925" lon="5.5964">
        <ele>424.5</ele>
        <time>2015-06-21T10:35:41Z</time>
      </trkpt>
      <trkpt lat="43.88927" lon="5.59653">
        <ele>424.7</ele>
        <time>2015-06-21T10:35:47Z</time>
      </trkpt>
      <trkpt lat="43.88928" lon="5.59666">
        <ele>424.9</ele>
        <time>2015-06-21T10:35:53Z</time>
      </trkpt>
      <trkpt lat="43.8893" lon="5.59679">
        <ele>425.4</ele>
        <time>2015-06-21T10:36:00Z</time>
      </trkpt>
      <trkpt lat="43.88932" lon="5.59691">
        <ele>425.9</ele>
        <time>2015-06-21T10:36:09Z</time>
      </trkpt>
      <trkpt lat="43.88935" lon="5.59704">
        <ele>426.1</ele>
        <time>2015-06-21T10:36:16Z</time>
      </trkpt>
      <trkpt lat="43.88938" lon="5.59718">
        <ele>426.2</ele>
        <time>2015-06-21T10:36:22Z</time>
      </trkpt>
      <trkpt lat="43.88938" lon="5.59732">
        <ele>426.3</ele>
        <time>2015-06-21T10:36:27Z</time>
      </trkpt>
      <trkpt lat="43.8894" lon="5.59746">
        <ele>426.4</ele>
        <time>2015-06-21T10:36:33Z</time>
      </trkpt>
      <trkpt lat="43.8894" lon="5.59761">
        <ele>426.5</ele>
        <time>2015-06-21T10:36:39Z</time>
      </trkpt>
      <trkpt lat="43.88939" lon="5.59773">
        <ele>426.5</ele>
        <time>2015-06-21T10:36:46Z</time>
      </trkpt>
      <trkpt lat="43.88939" lon="5.59788">
        <ele>426.5</ele>
        <time>2015-06-21T10:36:51Z</time>
      </trkpt>
      <trkpt lat="43.88938" lon="5.59803">
        <ele>426.4</ele>
        <time>2015-06-21T10:36:57Z</time>
      </trkpt>
      <trkpt lat="43.88936" lon="5.59816">
        <ele>426.4</ele>
        <time>2015-06-21T10:37:02Z</time>
      </trkpt>
      <trkpt lat="43.88935" lon="5.59831">
        <ele>426.5</ele>
        <time>2015-06-21T10:37:07Z</time>
      </trkpt>
      <trkpt lat="43.88932" lon="5.59847">
        <ele>426.6</ele>
        <time>2015-06-21T10:37:12Z</time>
      </trkpt>
      <trkpt lat="43.8893" lon="5.59859">
        <ele>426.7</ele>
        <time>2015-06-21T10:37:17Z</time>
      </trkpt>
      <trkpt lat="43.88926" lon="5.59871">
        <ele>426.8</ele>
        <time>2015-06-21T10:37:22Z</time>
      </trkpt>
      <trkpt lat="43.88924" lon="5.59883">
        <ele>427</ele>
        <time>2015-06-21T10:37:27Z</time>
      </trkpt>
      <trkpt lat="43.88923" lon="5.59897">
        <ele>427.2</ele>
        <time>2015-06-21T10:37:32Z</time>
      </trkpt>
      <trkpt lat="43.88921" lon="5.59912">
        <ele>427.5</ele>
        <time>2015-06-21T10:37:38Z</time>
      </trkpt>
      <trkpt lat="43.88919" lon="5.59924">
        <ele>427.8</ele>
        <time>2015-06-21T10:37:43Z</time>
      </trkpt>
      <trkpt lat="43.88917" lon="5.59938">
        <ele>428.3</ele>
        <time>2015-06-21T10:37:49Z</time>
      </trkpt>
      <trkpt lat="43.88919" lon="5.59951">
        <ele>428.9</ele>
        <time>2015-06-21T10:37:54Z</time>
      </trkpt>
      <trkpt lat="43.88921" lon="5.59966">
        <ele>429.3</ele>
        <time>2015-06-21T10:37:59Z</time>
      </trkpt>
      <trkpt lat="43.88915" lon="5.59977">
        <ele>429.7</ele>
        <time>2015-06-21T10:38:03Z</time>
      </trkpt>
      <trkpt lat="43.88912" lon="5.59989">
        <ele>430.1</ele>
        <time>2015-06-21T10:38:09Z</time>
      </trkpt>
      <trkpt lat="43.88907" lon="5.6">
        <ele>430.3</ele>
        <time>2015-06-21T10:38:13Z</time>
      </trkpt>
      <trkpt lat="43.88915" lon="5.60014">
        <ele>430.6</ele>
        <time>2015-06-21T10:38:19Z</time>
      </trkpt>
      <trkpt lat="43.88914" lon="5.60027">
        <ele>430.9</ele>
        <time>2015-06-21T10:38:24Z</time>
      </trkpt>
      <trkpt lat="43.8892" lon="5.60039">
        <ele>431.5</ele>
        <time>2015-06-21T10:38:30Z</time>
      </trkpt>
      <trkpt lat="43.88929" lon="5.60045">
        <ele>431.9</ele>
        <time>2015-06-21T10:38:35Z</time>
      </trkpt>
      <trkpt lat="43.88934" lon="5.60057">
        <ele>432.1</ele>
        <time>2015-06-21T10:38:40Z</time>
      </trkpt>
      <trkpt lat="43.88938" lon="5.6007">
        <ele>432.6</ele>
        <time>2015-06-21T10:38:47Z</time>
      </trkpt>
      <trkpt lat="43.88943" lon="5.60083">
        <ele>432.8</ele>
        <time>2015-06-21T10:38:52Z</time>
      </trkpt>
      <trkpt lat="43.88944" lon="5.60098">
        <ele>433</ele>
        <time>2015-06-21T10:38:57Z</time>
      </trkpt>
      <trkpt lat="43.88942" lon="5.60111">
        <ele>433.4</ele>
        <time>2015-06-21T10:39:03Z</time>
      </trkpt>
      <trkpt lat="43.88941" lon="5.60125">
        <ele>433.7</ele>
        <time>2015-06-21T10:39:10Z</time>
      </trkpt>
      <trkpt lat="43.88942" lon="5.60139">
        <ele>433.9</ele>
        <time>2015-06-21T10:39:16Z</time>
      </trkpt>
      <trkpt lat="43.88944" lon="5.60153">
        <ele>434.2</ele>
        <time>2015-06-21T10:39:23Z</time>
      </trkpt>
      <trkpt lat="43.88947" lon="5.60167">
        <ele>434.2</ele>
        <time>2015-06-21T10:39:27Z</time>
      </trkpt>
      <trkpt lat="43.88942" lon="5.60178">
        <ele>434.3</ele>
        <time>2015-06-21T10:39:32Z</time>
      </trkpt>
      <trkpt lat="43.88932" lon="5.60181">
        <ele>434.3</ele>
        <time>2015-06-21T10:39:35Z</time>
      </trkpt>
      <trkpt lat="43.88923" lon="5.60183">
        <ele>434.3</ele>
        <time>2015-06-21T10:39:45Z</time>
      </trkpt>
      <trkpt lat="43.88917" lon="5.60195">
        <ele>433.9</ele>
        <time>2015-06-21T10:40:04Z</time>
      </trkpt>
      <trkpt lat="43.88917" lon="5.60209">
        <ele>433.5</ele>
        <time>2015-06-21T10:40:11Z</time>
      </trkpt>
      <trkpt lat="43.88917" lon="5.60222">
        <ele>433.1</ele>
        <time>2015-06-21T10:40:15Z</time>
      </trkpt>
      <trkpt lat="43.88919" lon="5.60241">
        <ele>432.8</ele>
        <time>2015-06-21T10:40:18Z</time>
      </trkpt>
      <trkpt lat="43.88922" lon="5.60258">
        <ele>432.6</ele>
        <time>2015-06-21T10:40:20Z</time>
      </trkpt>
      <trkpt lat="43.88924" lon="5.60278">
        <ele>432.4</ele>
        <time>2015-06-21T10:40:22Z</time>
      </trkpt>
      <trkpt lat="43.88925" lon="5.60296">
        <ele>432.3</ele>
        <time>2015-06-21T10:40:24Z</time>
      </trkpt>
      <trkpt lat="43.88925" lon="5.6031">
        <ele>432.3</ele>
        <time>2015-06-21T10:40:26Z</time>
      </trkpt>
      <trkpt lat="43.88928" lon="5.60326">
        <ele>432.5</ele>
        <time>2015-06-21T10:40:29Z</time>
      </trkpt>
      <trkpt lat="43.88932" lon="5.60342">
        <ele>432.8</ele>
        <time>2015-06-21T10:40:32Z</time>
      </trkpt>
      <trkpt lat="43.88936" lon="5.60355">
        <ele>433.1</ele>
        <time>2015-06-21T10:40:36Z</time>
      </trkpt>
      <trkpt lat="43.8894" lon="5.60368">
        <ele>433.7</ele>
        <time>2015-06-21T10:40:42Z</time>
      </trkpt>
      <trkpt lat="43.88943" lon="5.6038">
        <ele>434</ele>
        <time>2015-06-21T10:40:48Z</time>
      </trkpt>
      <trkpt lat="43.88942" lon="5.60393">
        <ele>434.2</ele>
        <time>2015-06-21T10:40:52Z</time>
      </trkpt>
      <trkpt lat="43.8894" lon="5.60409">
        <ele>434.2</ele>
        <time>2015-06-21T10:40:56Z</time>
      </trkpt>
      <trkpt lat="43.88939" lon="5.60422">
        <ele>434.3</ele>
        <time>2015-06-21T10:40:58Z</time>
      </trkpt>
      <trkpt lat="43.88937" lon="5.60437">
        <ele>434.4</ele>
        <time>2015-06-21T10:41:00Z</time>
      </trkpt>
      <trkpt lat="43.88936" lon="5.60454">
        <ele>434.7</ele>
        <time>2015-06-21T10:41:02Z</time>
      </trkpt>
      <trkpt lat="43.88935" lon="5.60472">
        <ele>434.9</ele>
        <time>2015-06-21T10:41:04Z</time>
      </trkpt>
      <trkpt lat="43.88933" lon="5.60489">
        <ele>435.2</ele>
        <time>2015-06-21T10:41:06Z</time>
      </trkpt>
      <trkpt lat="43.88937" lon="5.60503">
        <ele>435.4</ele>
        <time>2015-06-21T10:41:08Z</time>
      </trkpt>
      <trkpt lat="43.88937" lon="5.60519">
        <ele>435.8</ele>
        <time>2015-06-21T10:41:11Z</time>
      </trkpt>
      <trkpt lat="43.88941" lon="5.60535">
        <ele>436.4</ele>
        <time>2015-06-21T10:41:15Z</time>
      </trkpt>
      <trkpt lat="43.88946" lon="5.60548">
        <ele>436.8</ele>
        <time>2015-06-21T10:41:18Z</time>
      </trkpt>
      <trkpt lat="43.88951" lon="5.60562">
        <ele>437.1</ele>
        <time>2015-06-21T10:41:21Z</time>
      </trkpt>
      <trkpt lat="43.88954" lon="5.60577">
        <ele>437.9</ele>
        <time>2015-06-21T10:41:26Z</time>
      </trkpt>
      <trkpt lat="43.8896" lon="5.60588">
        <ele>438.5</ele>
        <time>2015-06-21T10:41:30Z</time>
      </trkpt>
      <trkpt lat="43.88967" lon="5.60598">
        <ele>439.2</ele>
        <time>2015-06-21T10:41:34Z</time>
      </trkpt>
      <trkpt lat="43.88973" lon="5.6061">
        <ele>439.8</ele>
        <time>2015-06-21T10:41:39Z</time>
      </trkpt>
      <trkpt lat="43.88981" lon="5.60619">
        <ele>440.4</ele>
        <time>2015-06-21T10:41:45Z</time>
      </trkpt>
      <trkpt lat="43.88987" lon="5.60629">
        <ele>440.8</ele>
        <time>2015-06-21T10:41:50Z</time>
      </trkpt>
      <trkpt lat="43.88995" lon="5.60639">
        <ele>441.2</ele>
        <time>2015-06-21T10:41:55Z</time>
      </trkpt>
      <trkpt lat="43.89003" lon="5.60649">
        <ele>441.7</ele>
        <time>2015-06-21T10:42:01Z</time>
      </trkpt>
      <trkpt lat="43.89006" lon="5.60663">
        <ele>442.2</ele>
        <time>2015-06-21T10:42:06Z</time>
      </trkpt>
      <trkpt lat="43.89003" lon="5.60676">
        <ele>442.6</ele>
        <time>2015-06-21T10:42:11Z</time>
      </trkpt>
      <trkpt lat="43.89005" lon="5.60692">
        <ele>443</ele>
        <time>2015-06-21T10:42:15Z</time>
      </trkpt>
      <trkpt lat="43.89" lon="5.60703">
        <ele>443.4</ele>
        <time>2015-06-21T10:42:21Z</time>
      </trkpt>
      <trkpt lat="43.88999" lon="5.60716">
        <ele>444</ele>
        <time>2015-06-21T10:42:31Z</time>
      </trkpt>
      <trkpt lat="43.88994" lon="5.60731">
        <ele>444.5</ele>
        <time>2015-06-21T10:42:39Z</time>
      </trkpt>
      <trkpt lat="43.88991" lon="5.60747">
        <ele>444.7</ele>
        <time>2015-06-21T10:42:43Z</time>
      </trkpt>
      <trkpt lat="43.88987" lon="5.60763">
        <ele>444.7</ele>
        <time>2015-06-21T10:42:46Z</time>
      </trkpt>
      <trkpt lat="43.88984" lon="5.60776">
        <ele>444.4</ele>
        <time>2015-06-21T10:42:48Z</time>
      </trkpt>
      <trkpt lat="43.8898" lon="5.6079">
        <ele>444.2</ele>
        <time>2015-06-21T10:42:50Z</time>
      </trkpt>
      <trkpt lat="43.88976" lon="5.60804">
        <ele>444</ele>
        <time>2015-06-21T10:42:52Z</time>
      </trkpt>
      <trkpt lat="43.88971" lon="5.60819">
        <ele>443.8</ele>
        <time>2015-06-21T10:42:54Z</time>
      </trkpt>
      <trkpt lat="43.88967" lon="5.60831">
        <ele>443.7</ele>
        <time>2015-06-21T10:42:56Z</time>
      </trkpt>
      <trkpt lat="43.88963" lon="5.60843">
        <ele>443.5</ele>
        <time>2015-06-21T10:43:00Z</time>
      </trkpt>
      <trkpt lat="43.88958" lon="5.60855">
        <ele>443.3</ele>
        <time>2015-06-21T10:43:07Z</time>
      </trkpt>
      <trkpt lat="43.88954" lon="5.60867">
        <ele>443.2</ele>
        <time>2015-06-21T10:43:12Z</time>
      </trkpt>
      <trkpt lat="43.88949" lon="5.60879">
        <ele>443.1</ele>
        <time>2015-06-21T10:43:17Z</time>
      </trkpt>
      <trkpt lat="43.88943" lon="5.6089">
        <ele>443</ele>
        <time>2015-06-21T10:43:23Z</time>
      </trkpt>
      <trkpt lat="43.88939" lon="5.60903">
        <ele>443</ele>
        <time>2015-06-21T10:43:29Z</time>
      </trkpt>
      <trkpt lat="43.88934" lon="5.60918">
        <ele>443</ele>
        <time>2015-06-21T10:43:33Z</time>
      </trkpt>
      <trkpt lat="43.88932" lon="5.6093">
        <ele>442.8</ele>
        <time>2015-06-21T10:43:35Z</time>
      </trkpt>
      <trkpt lat="43.88929" lon="5.60945">
        <ele>442.5</ele>
        <time>2015-06-21T10:43:37Z</time>
      </trkpt>
      <trkpt lat="43.88927" lon="5.60961">
        <ele>442.5</ele>
        <time>2015-06-21T10:43:39Z</time>
      </trkpt>
      <trkpt lat="43.88927" lon="5.60978">
        <ele>442.5</ele>
        <time>2015-06-21T10:43:41Z</time>
      </trkpt>
      <trkpt lat="43.88928" lon="5.60995">
        <ele>442.5</ele>
        <time>2015-06-21T10:43:43Z</time>
      </trkpt>
      <trkpt lat="43.88929" lon="5.61008">
        <ele>442.6</ele>
        <time>2015-06-21T10:43:45Z</time>
      </trkpt>
      <trkpt lat="43.88931" lon="5.61021">
        <ele>442.9</ele>
        <time>2015-06-21T10:43:48Z</time>
      </trkpt>
      <trkpt lat="43.88936" lon="5.61033">
        <ele>443.6</ele>
        <time>2015-06-21T10:43:56Z</time>
      </trkpt>
      <trkpt lat="43.88935" lon="5.61046">
        <ele>444.1</ele>
        <time>2015-06-21T10:44:02Z</time>
      </trkpt>
      <trkpt lat="43.88928" lon="5.61058">
        <ele>444.3</ele>
        <time>2015-06-21T10:44:06Z</time>
      </trkpt>
      <trkpt lat="43.88918" lon="5.61064">
        <ele>444.6</ele>
        <time>2015-06-21T10:44:11Z</time>
      </trkpt>
      <trkpt lat="43.8891" lon="5.61068">
        <ele>445</ele>
        <time>2015-06-21T10:44:16Z</time>
      </trkpt>
      <trkpt lat="43.889" lon="5.61075">
        <ele>445.3</ele>
        <time>2015-06-21T10:44:22Z</time>
      </trkpt>
      <trkpt lat="43.8889" lon="5.61073">
        <ele>445.5</ele>
        <time>2015-06-21T10:44:27Z</time>
      </trkpt>
      <trkpt lat="43.88882" lon="5.61065">
        <ele>445.8</ele>
        <time>2015-06-21T10:44:42Z</time>
      </trkpt>
      <trkpt lat="43.88873" lon="5.61058">
        <ele>445.9</ele>
        <time>2015-06-21T10:44:51Z</time>
      </trkpt>
      <trkpt lat="43.88865" lon="5.61052">
        <ele>445.7</ele>
        <time>2015-06-21T10:44:55Z</time>
      </trkpt>
      <trkpt lat="43.88853" lon="5.61042">
        <ele>446.1</ele>
        <time>2015-06-21T10:45:00Z</time>
      </trkpt>
      <trkpt lat="43.88843" lon="5.6104">
        <ele>446.2</ele>
        <time>2015-06-21T10:45:02Z</time>
      </trkpt>
      <trkpt lat="43.88834" lon="5.61029">
        <ele>446.5</ele>
        <time>2015-06-21T10:45:04Z</time>
      </trkpt>
      <trkpt lat="43.88828" lon="5.61019">
        <ele>446.9</ele>
        <time>2015-06-21T10:45:07Z</time>
      </trkpt>
      <trkpt lat="43.88818" lon="5.61022">
        <ele>448.2</ele>
        <time>2015-06-21T10:45:15Z</time>
      </trkpt>
      <trkpt lat="43.88814" lon="5.61033">
        <ele>449.9</ele>
        <time>2015-06-21T10:45:23Z</time>
      </trkpt>
      <trkpt lat="43.88809" lon="5.61046">
        <ele>450.9</ele>
        <time>2015-06-21T10:45:28Z</time>
      </trkpt>
      <trkpt lat="43.88805" lon="5.61058">
        <ele>452.3</ele>
        <time>2015-06-21T10:45:35Z</time>
      </trkpt>
      <trkpt lat="43.888" lon="5.61071">
        <ele>453.7</ele>
        <time>2015-06-21T10:45:43Z</time>
      </trkpt>
      <trkpt lat="43.88794" lon="5.61081">
        <ele>454.8</ele>
        <time>2015-06-21T10:45:49Z</time>
      </trkpt>
      <trkpt lat="43.88786" lon="5.61088">
        <ele>455.6</ele>
        <time>2015-06-21T10:45:53Z</time>
      </trkpt>
      <trkpt lat="43.8878" lon="5.61098">
        <ele>456.9</ele>
        <time>2015-06-21T10:46:00Z</time>
      </trkpt>
      <trkpt lat="43.88774" lon="5.61109">
        <ele>457.8</ele>
        <time>2015-06-21T10:46:05Z</time>
      </trkpt>
      <trkpt lat="43.88765" lon="5.61115">
        <ele>459.1</ele>
        <time>2015-06-21T10:46:10Z</time>
      </trkpt>
      <trkpt lat="43.88758" lon="5.61121">
        <ele>460.2</ele>
        <time>2015-06-21T10:46:15Z</time>
      </trkpt>
      <trkpt lat="43.88749" lon="5.61126">
        <ele>461.1</ele>
        <time>2015-06-21T10:46:20Z</time>
      </trkpt>
      <trkpt lat="43.8874" lon="5.61131">
        <ele>462.5</ele>
        <time>2015-06-21T10:46:26Z</time>
      </trkpt>
      <trkpt lat="43.88732" lon="5.61137">
        <ele>463.9</ele>
        <time>2015-06-21T10:46:33Z</time>
      </trkpt>
      <trkpt lat="43.88723" lon="5.61144">
        <ele>465</ele>
        <time>2015-06-21T10:46:39Z</time>
      </trkpt>
      <trkpt lat="43.88715" lon="5.6115">
        <ele>465.8</ele>
        <time>2015-06-21T10:46:44Z</time>
      </trkpt>
      <trkpt lat="43.88706" lon="5.61155">
        <ele>466.7</ele>
        <time>2015-06-21T10:46:50Z</time>
      </trkpt>
      <trkpt lat="43.88697" lon="5.6116">
        <ele>467.7</ele>
        <time>2015-06-21T10:46:57Z</time>
      </trkpt>
      <trkpt lat="43.88688" lon="5.61162">
        <ele>468.6</ele>
        <time>2015-06-21T10:47:03Z</time>
      </trkpt>
      <trkpt lat="43.88678" lon="5.61162">
        <ele>469.3</ele>
        <time>2015-06-21T10:47:09Z</time>
      </trkpt>
      <trkpt lat="43.88669" lon="5.61163">
        <ele>470</ele>
        <time>2015-06-21T10:47:16Z</time>
      </trkpt>
      <trkpt lat="43.88659" lon="5.61165">
        <ele>470.7</ele>
        <time>2015-06-21T10:47:22Z</time>
      </trkpt>
      <trkpt lat="43.88649" lon="5.61165">
        <ele>471.3</ele>
        <time>2015-06-21T10:47:29Z</time>
      </trkpt>
      <trkpt lat="43.8864" lon="5.61167">
        <ele>472.1</ele>
        <time>2015-06-21T10:47:39Z</time>
      </trkpt>
      <trkpt lat="43.8863" lon="5.6117">
        <ele>473.1</ele>
        <time>2015-06-21T10:47:47Z</time>
      </trkpt>
      <trkpt lat="43.8862" lon="5.61171">
        <ele>474.1</ele>
        <time>2015-06-21T10:47:52Z</time>
      </trkpt>
      <trkpt lat="43.8861" lon="5.61168">
        <ele>474.9</ele>
        <time>2015-06-21T10:47:56Z</time>
      </trkpt>
      <trkpt lat="43.88599" lon="5.61164">
        <ele>475.9</ele>
        <time>2015-06-21T10:48:00Z</time>
      </trkpt>
      <trkpt lat="43.88589" lon="5.61159">
        <ele>476.9</ele>
        <time>2015-06-21T10:48:04Z</time>
      </trkpt>
      <trkpt lat="43.8858" lon="5.61158">
        <ele>478.1</ele>
        <time>2015-06-21T10:48:09Z</time>
      </trkpt>
      <trkpt lat="43.88569" lon="5.61161">
        <ele>479.3</ele>
        <time>2015-06-21T10:48:14Z</time>
      </trkpt>
      <trkpt lat="43.88557" lon="5.61166">
        <ele>480.3</ele>
        <time>2015-06-21T10:48:18Z</time>
      </trkpt>
      <trkpt lat="43.88546" lon="5.61168">
        <ele>481.5</ele>
        <time>2015-06-21T10:48:22Z</time>
      </trkpt>
      <trkpt lat="43.88536" lon="5.61169">
        <ele>483</ele>
        <time>2015-06-21T10:48:27Z</time>
      </trkpt>
      <trkpt lat="43.88526" lon="5.61166">
        <ele>485.4</ele>
        <time>2015-06-21T10:48:34Z</time>
      </trkpt>
      <trkpt lat="43.88517" lon="5.61165">
        <ele>488</ele>
        <time>2015-06-21T10:48:43Z</time>
      </trkpt>
      <trkpt lat="43.88508" lon="5.6116">
        <ele>490.3</ele>
        <time>2015-06-21T10:48:51Z</time>
      </trkpt>
      <trkpt lat="43.88499" lon="5.61155">
        <ele>491.7</ele>
        <time>2015-06-21T10:48:56Z</time>
      </trkpt>
      <trkpt lat="43.88491" lon="5.61148">
        <ele>493.4</ele>
        <time>2015-06-21T10:49:03Z</time>
      </trkpt>
      <trkpt lat="43.88482" lon="5.61143">
        <ele>494.4</ele>
        <time>2015-06-21T10:49:09Z</time>
      </trkpt>
      <trkpt lat="43.88473" lon="5.6114">
        <ele>495.6</ele>
        <time>2015-06-21T10:49:15Z</time>
      </trkpt>
      <trkpt lat="43.88462" lon="5.61142">
        <ele>496.8</ele>
        <time>2015-06-21T10:49:22Z</time>
      </trkpt>
      <trkpt lat="43.88449" lon="5.61145">
        <ele>498.2</ele>
        <time>2015-06-21T10:49:27Z</time>
      </trkpt>
      <trkpt lat="43.8844" lon="5.61151">
        <ele>499.5</ele>
        <time>2015-06-21T10:49:33Z</time>
      </trkpt>
      <trkpt lat="43.88433" lon="5.61158">
        <ele>500.4</ele>
        <time>2015-06-21T10:49:38Z</time>
      </trkpt>
      <trkpt lat="43.88423" lon="5.61161">
        <ele>501.8</ele>
        <time>2015-06-21T10:49:45Z</time>
      </trkpt>
      <trkpt lat="43.88419" lon="5.61174">
        <ele>503.5</ele>
        <time>2015-06-21T10:49:54Z</time>
      </trkpt>
      <trkpt lat="43.88412" lon="5.61182">
        <ele>505.3</ele>
        <time>2015-06-21T10:50:04Z</time>
      </trkpt>
      <trkpt lat="43.88403" lon="5.61182">
        <ele>507.6</ele>
        <time>2015-06-21T10:50:15Z</time>
      </trkpt>
      <trkpt lat="43.88394" lon="5.61179">
        <ele>509.4</ele>
        <time>2015-06-21T10:50:24Z</time>
      </trkpt>
      <trkpt lat="43.88393" lon="5.61193">
        <ele>512.2</ele>
        <time>2015-06-21T10:50:37Z</time>
      </trkpt>
      <trkpt lat="43.88386" lon="5.61205">
        <ele>514.5</ele>
        <time>2015-06-21T10:50:46Z</time>
      </trkpt>
      <trkpt lat="43.88377" lon="5.61205">
        <ele>515.6</ele>
        <time>2015-06-21T10:50:50Z</time>
      </trkpt>
      <trkpt lat="43.88367" lon="5.61198">
        <ele>516.9</ele>
        <time>2015-06-21T10:50:55Z</time>
      </trkpt>
      <trkpt lat="43.88373" lon="5.61186">
        <ele>524.2</ele>
        <time>2015-06-21T10:51:27Z</time>
      </trkpt>
      <trkpt lat="43.8838" lon="5.61194">
        <ele>526</ele>
        <time>2015-06-21T10:52:36Z</time>
      </trkpt>
      <trkpt lat="43.88358" lon="5.61197">
        <ele>523</ele>
        <time>2015-06-21T10:53:14Z</time>
      </trkpt>
      <trkpt lat="43.88347" lon="5.61203">
        <ele>523</ele>
        <time>2015-06-21T10:53:24Z</time>
      </trkpt>
      <trkpt lat="43.88338" lon="5.61208">
        <ele>523</ele>
        <time>2015-06-21T10:53:32Z</time>
      </trkpt>
      <trkpt lat="43.88328" lon="5.61216">
        <ele>523</ele>
        <time>2015-06-21T10:53:40Z</time>
      </trkpt>
      <trkpt lat="43.88337" lon="5.61201">
        <ele>523.8</ele>
        <time>2015-06-21T10:53:51Z</time>
      </trkpt>
      <trkpt lat="43.88329" lon="5.6119">
        <ele>523.8</ele>
        <time>2015-06-21T10:53:53Z</time>
      </trkpt>
      <trkpt lat="43.88339" lon="5.61191">
        <ele>523.8</ele>
        <time>2015-06-21T10:54:00Z</time>
      </trkpt>
      <trkpt lat="43.88329" lon="5.61196">
        <ele>525.7</ele>
        <time>2015-06-21T10:55:11Z</time>
      </trkpt>
      <trkpt lat="43.8832" lon="5.61201">
        <ele>526.4</ele>
        <time>2015-06-21T10:55:16Z</time>
      </trkpt>
      <trkpt lat="43.88311" lon="5.61204">
        <ele>527.4</ele>
        <time>2015-06-21T10:55:22Z</time>
      </trkpt>
      <trkpt lat="43.88302" lon="5.6121">
        <ele>528.6</ele>
        <time>2015-06-21T10:55:29Z</time>
      </trkpt>
      <trkpt lat="43.88293" lon="5.61218">
        <ele>529.9</ele>
        <time>2015-06-21T10:55:36Z</time>
      </trkpt>
      <trkpt lat="43.88285" lon="5.61224">
        <ele>531</ele>
        <time>2015-06-21T10:55:42Z</time>
      </trkpt>
      <trkpt lat="43.88276" lon="5.61232">
        <ele>531.8</ele>
        <time>2015-06-21T10:55:47Z</time>
      </trkpt>
      <trkpt lat="43.88267" lon="5.61238">
        <ele>532.4</ele>
        <time>2015-06-21T10:55:51Z</time>
      </trkpt>
      <trkpt lat="43.8826" lon="5.61249">
        <ele>532.9</ele>
        <time>2015-06-21T10:55:54Z</time>
      </trkpt>
      <trkpt lat="43.88252" lon="5.61258">
        <ele>533.6</ele>
        <time>2015-06-21T10:55:58Z</time>
      </trkpt>
      <trkpt lat="43.88243" lon="5.61263">
        <ele>534.9</ele>
        <time>2015-06-21T10:56:06Z</time>
      </trkpt>
      <trkpt lat="43.88234" lon="5.61271">
        <ele>535.8</ele>
        <time>2015-06-21T10:56:12Z</time>
      </trkpt>
      <trkpt lat="43.88226" lon="5.6128">
        <ele>536.4</ele>
        <time>2015-06-21T10:56:18Z</time>
      </trkpt>
      <trkpt lat="43.88218" lon="5.61289">
        <ele>536.8</ele>
        <time>2015-06-21T10:56:25Z</time>
      </trkpt>
      <trkpt lat="43.88209" lon="5.61293">
        <ele>537.1</ele>
        <time>2015-06-21T10:56:29Z</time>
      </trkpt>
      <trkpt lat="43.88202" lon="5.613">
        <ele>537.5</ele>
        <time>2015-06-21T10:56:35Z</time>
      </trkpt>
      <trkpt lat="43.88192" lon="5.61304">
        <ele>537.5</ele>
        <time>2015-06-21T10:56:43Z</time>
      </trkpt>
      <trkpt lat="43.88183" lon="5.61305">
        <ele>537.8</ele>
        <time>2015-06-21T10:56:50Z</time>
      </trkpt>
      <trkpt lat="43.88175" lon="5.6131">
        <ele>537.7</ele>
        <time>2015-06-21T10:56:57Z</time>
      </trkpt>
      <trkpt lat="43.88165" lon="5.61314">
        <ele>537.6</ele>
        <time>2015-06-21T10:57:01Z</time>
      </trkpt>
      <trkpt lat="43.88157" lon="5.61321">
        <ele>537.5</ele>
        <time>2015-06-21T10:57:07Z</time>
      </trkpt>
      <trkpt lat="43.88146" lon="5.6132">
        <ele>537.2</ele>
        <time>2015-06-21T10:57:14Z</time>
      </trkpt>
      <trkpt lat="43.88137" lon="5.61321">
        <ele>536.9</ele>
        <time>2015-06-21T10:57:21Z</time>
      </trkpt>
      <trkpt lat="43.88128" lon="5.61323">
        <ele>536.9</ele>
        <time>2015-06-21T10:57:27Z</time>
      </trkpt>
      <trkpt lat="43.88117" lon="5.61325">
        <ele>536.9</ele>
        <time>2015-06-21T10:57:33Z</time>
      </trkpt>
      <trkpt lat="43.88107" lon="5.61327">
        <ele>536.8</ele>
        <time>2015-06-21T10:57:39Z</time>
      </trkpt>
      <trkpt lat="43.88097" lon="5.61327">
        <ele>536.5</ele>
        <time>2015-06-21T10:57:45Z</time>
      </trkpt>
      <trkpt lat="43.88088" lon="5.61328">
        <ele>536.4</ele>
        <time>2015-06-21T10:57:50Z</time>
      </trkpt>
      <trkpt lat="43.88078" lon="5.6133">
        <ele>536</ele>
        <time>2015-06-21T10:57:55Z</time>
      </trkpt>
      <trkpt lat="43.88069" lon="5.61331">
        <ele>535.9</ele>
        <time>2015-06-21T10:58:02Z</time>
      </trkpt>
      <trkpt lat="43.88059" lon="5.61332">
        <ele>535.9</ele>
        <time>2015-06-21T10:58:09Z</time>
      </trkpt>
      <trkpt lat="43.88048" lon="5.61334">
        <ele>535.8</ele>
        <time>2015-06-21T10:58:16Z</time>
      </trkpt>
      <trkpt lat="43.88039" lon="5.61333">
        <ele>535.3</ele>
        <time>2015-06-21T10:58:21Z</time>
      </trkpt>
      <trkpt lat="43.88029" lon="5.61335">
        <ele>534.8</ele>
        <time>2015-06-21T10:58:27Z</time>
      </trkpt>
      <trkpt lat="43.88019" lon="5.61335">
        <ele>534.5</ele>
        <time>2015-06-21T10:58:35Z</time>
      </trkpt>
      <trkpt lat="43.8801" lon="5.61332">
        <ele>534.2</ele>
        <time>2015-06-21T10:58:41Z</time>
      </trkpt>
      <trkpt lat="43.88" lon="5.61327">
        <ele>533.9</ele>
        <time>2015-06-21T10:58:49Z</time>
      </trkpt>
      <trkpt lat="43.8799" lon="5.61326">
        <ele>533.7</ele>
        <time>2015-06-21T10:58:56Z</time>
      </trkpt>
      <trkpt lat="43.87981" lon="5.61327">
        <ele>533.4</ele>
        <time>2015-06-21T10:59:03Z</time>
      </trkpt>
      <trkpt lat="43.87971" lon="5.61329">
        <ele>533</ele>
        <time>2015-06-21T10:59:11Z</time>
      </trkpt>
      <trkpt lat="43.87962" lon="5.6133">
        <ele>532.8</ele>
        <time>2015-06-21T10:59:16Z</time>
      </trkpt>
      <trkpt lat="43.87952" lon="5.61332">
        <ele>532.6</ele>
        <time>2015-06-21T10:59:23Z</time>
      </trkpt>
      <trkpt lat="43.87942" lon="5.61333">
        <ele>532.5</ele>
        <time>2015-06-21T10:59:28Z</time>
      </trkpt>
      <trkpt lat="43.87932" lon="5.61334">
        <ele>532.4</ele>
        <time>2015-06-21T10:59:33Z</time>
      </trkpt>
      <trkpt lat="43.87923" lon="5.61336">
        <ele>532.2</ele>
        <time>2015-06-21T10:59:41Z</time>
      </trkpt>
      <trkpt lat="43.87914" lon="5.6134">
        <ele>531.4</ele>
        <time>2015-06-21T10:59:50Z</time>
      </trkpt>
      <trkpt lat="43.87904" lon="5.61342">
        <ele>530.5</ele>
        <time>2015-06-21T10:59:58Z</time>
      </trkpt>
      <trkpt lat="43.87895" lon="5.61346">
        <ele>529.5</ele>
        <time>2015-06-21T11:00:06Z</time>
      </trkpt>
      <trkpt lat="43.87885" lon="5.61347">
        <ele>528.7</ele>
        <time>2015-06-21T11:00:12Z</time>
      </trkpt>
      <trkpt lat="43.87874" lon="5.61348">
        <ele>528.1</ele>
        <time>2015-06-21T11:00:18Z</time>
      </trkpt>
      <trkpt lat="43.87863" lon="5.61352">
        <ele>527.7</ele>
        <time>2015-06-21T11:00:23Z</time>
      </trkpt>
      <trkpt lat="43.87854" lon="5.61355">
        <ele>527.4</ele>
        <time>2015-06-21T11:00:27Z</time>
      </trkpt>
      <trkpt lat="43.87843" lon="5.61355">
        <ele>526.9</ele>
        <time>2015-06-21T11:00:33Z</time>
      </trkpt>
      <trkpt lat="43.87833" lon="5.61355">
        <ele>526.7</ele>
        <time>2015-06-21T11:00:38Z</time>
      </trkpt>
      <trkpt lat="43.87823" lon="5.61353">
        <ele>526.5</ele>
        <time>2015-06-21T11:00:42Z</time>
      </trkpt>
      <trkpt lat="43.87813" lon="5.61351">
        <ele>526</ele>
        <time>2015-06-21T11:00:49Z</time>
      </trkpt>
      <trkpt lat="43.87804" lon="5.61354">
        <ele>525.6</ele>
        <time>2015-06-21T11:00:57Z</time>
      </trkpt>
      <trkpt lat="43.87794" lon="5.61355">
        <ele>525.1</ele>
        <time>2015-06-21T11:01:03Z</time>
      </trkpt>
      <trkpt lat="43.87785" lon="5.61361">
        <ele>524.3</ele>
        <time>2015-06-21T11:01:10Z</time>
      </trkpt>
      <trkpt lat="43.87777" lon="5.61369">
        <ele>523.2</ele>
        <time>2015-06-21T11:01:16Z</time>
      </trkpt>
      <trkpt lat="43.87771" lon="5.61379">
        <ele>521.8</ele>
        <time>2015-06-21T11:01:23Z</time>
      </trkpt>
      <trkpt lat="43.87767" lon="5.61392">
        <ele>521.1</ele>
        <time>2015-06-21T11:01:29Z</time>
      </trkpt>
      <trkpt lat="43.87764" lon="5.61405">
        <ele>520.4</ele>
        <time>2015-06-21T11:01:35Z</time>
      </trkpt>
      <trkpt lat="43.87759" lon="5.61415">
        <ele>519.6</ele>
        <time>2015-06-21T11:01:41Z</time>
      </trkpt>
      <trkpt lat="43.87751" lon="5.61423">
        <ele>519</ele>
        <time>2015-06-21T11:01:48Z</time>
      </trkpt>
      <trkpt lat="43.87742" lon="5.61428">
        <ele>518.7</ele>
        <time>2015-06-21T11:01:52Z</time>
      </trkpt>
      <trkpt lat="43.87733" lon="5.61433">
        <ele>518.2</ele>
        <time>2015-06-21T11:01:58Z</time>
      </trkpt>
      <trkpt lat="43.87724" lon="5.61436">
        <ele>517.5</ele>
        <time>2015-06-21T11:02:04Z</time>
      </trkpt>
      <trkpt lat="43.87713" lon="5.61437">
        <ele>516.6</ele>
        <time>2015-06-21T11:02:11Z</time>
      </trkpt>
      <trkpt lat="43.87704" lon="5.61441">
        <ele>516.1</ele>
        <time>2015-06-21T11:02:16Z</time>
      </trkpt>
      <trkpt lat="43.87696" lon="5.61447">
        <ele>515.3</ele>
        <time>2015-06-21T11:02:22Z</time>
      </trkpt>
      <trkpt lat="43.87688" lon="5.61454">
        <ele>514.6</ele>
        <time>2015-06-21T11:02:28Z</time>
      </trkpt>
      <trkpt lat="43.87679" lon="5.61462">
        <ele>513.9</ele>
        <time>2015-06-21T11:02:34Z</time>
      </trkpt>
      <trkpt lat="43.87671" lon="5.61469">
        <ele>513.3</ele>
        <time>2015-06-21T11:02:41Z</time>
      </trkpt>
      <trkpt lat="43.87663" lon="5.61475">
        <ele>512.7</ele>
        <time>2015-06-21T11:02:47Z</time>
      </trkpt>
      <trkpt lat="43.87655" lon="5.6148">
        <ele>511.9</ele>
        <time>2015-06-21T11:02:54Z</time>
      </trkpt>
      <trkpt lat="43.87646" lon="5.61484">
        <ele>511.2</ele>
        <time>2015-06-21T11:02:59Z</time>
      </trkpt>
      <trkpt lat="43.87637" lon="5.61487">
        <ele>510.3</ele>
        <time>2015-06-21T11:03:05Z</time>
      </trkpt>
      <trkpt lat="43.87628" lon="5.6149">
        <ele>508.7</ele>
        <time>2015-06-21T11:03:13Z</time>
      </trkpt>
      <trkpt lat="43.87618" lon="5.61495">
        <ele>507.6</ele>
        <time>2015-06-21T11:03:21Z</time>
      </trkpt>
      <trkpt lat="43.8761" lon="5.61499">
        <ele>506.5</ele>
        <time>2015-06-21T11:03:27Z</time>
      </trkpt>
      <trkpt lat="43.876" lon="5.615">
        <ele>505.8</ele>
        <time>2015-06-21T11:03:32Z</time>
      </trkpt>
      <trkpt lat="43.8759" lon="5.61505">
        <ele>505.1</ele>
        <time>2015-06-21T11:03:37Z</time>
      </trkpt>
      <trkpt lat="43.87582" lon="5.61514">
        <ele>504.1</ele>
        <time>2015-06-21T11:03:43Z</time>
      </trkpt>
      <trkpt lat="43.87572" lon="5.6152">
        <ele>503</ele>
        <time>2015-06-21T11:03:49Z</time>
      </trkpt>
      <trkpt lat="43.87563" lon="5.61527">
        <ele>502.3</ele>
        <time>2015-06-21T11:03:54Z</time>
      </trkpt>
      <trkpt lat="43.87555" lon="5.61535">
        <ele>501.8</ele>
        <time>2015-06-21T11:03:59Z</time>
      </trkpt>
      <trkpt lat="43.87549" lon="5.61545">
        <ele>501</ele>
        <time>2015-06-21T11:04:06Z</time>
      </trkpt>
      <trkpt lat="43.8754" lon="5.61553">
        <ele>499.9</ele>
        <time>2015-06-21T11:04:12Z</time>
      </trkpt>
      <trkpt lat="43.87529" lon="5.61559">
        <ele>498.9</ele>
        <time>2015-06-21T11:04:20Z</time>
      </trkpt>
      <trkpt lat="43.87519" lon="5.61563">
        <ele>498.4</ele>
        <time>2015-06-21T11:04:25Z</time>
      </trkpt>
      <trkpt lat="43.87513" lon="5.61572">
        <ele>497.4</ele>
        <time>2015-06-21T11:04:32Z</time>
      </trkpt>
      <trkpt lat="43.87507" lon="5.61583">
        <ele>496.5</ele>
        <time>2015-06-21T11:04:39Z</time>
      </trkpt>
      <trkpt lat="43.87506" lon="5.61599">
        <ele>495.8</ele>
        <time>2015-06-21T11:04:44Z</time>
      </trkpt>
      <trkpt lat="43.87502" lon="5.61613">
        <ele>495.1</ele>
        <time>2015-06-21T11:04:50Z</time>
      </trkpt>
      <trkpt lat="43.87496" lon="5.61626">
        <ele>494.2</ele>
        <time>2015-06-21T11:04:57Z</time>
      </trkpt>
      <trkpt lat="43.87492" lon="5.61638">
        <ele>493.7</ele>
        <time>2015-06-21T11:05:02Z</time>
      </trkpt>
      <trkpt lat="43.87487" lon="5.61649">
        <ele>493.2</ele>
        <time>2015-06-21T11:05:09Z</time>
      </trkpt>
      <trkpt lat="43.87496" lon="5.61656">
        <ele>492.1</ele>
        <time>2015-06-21T11:05:40Z</time>
      </trkpt>
      <trkpt lat="43.87488" lon="5.61661">
        <ele>490</ele>
        <time>2015-06-21T11:06:18Z</time>
      </trkpt>
      <trkpt lat="43.87479" lon="5.61662">
        <ele>489.9</ele>
        <time>2015-06-21T11:06:33Z</time>
      </trkpt>
      <trkpt lat="43.8747" lon="5.6166">
        <ele>489.9</ele>
        <time>2015-06-21T11:06:43Z</time>
      </trkpt>
      <trkpt lat="43.87461" lon="5.61657">
        <ele>489.9</ele>
        <time>2015-06-21T11:06:51Z</time>
      </trkpt>
      <trkpt lat="43.87451" lon="5.6166">
        <ele>490</ele>
        <time>2015-06-21T11:06:59Z</time>
      </trkpt>
      <trkpt lat="43.87444" lon="5.61668">
        <ele>490.1</ele>
        <time>2015-06-21T11:07:03Z</time>
      </trkpt>
      <trkpt lat="43.87435" lon="5.61667">
        <ele>490.1</ele>
        <time>2015-06-21T11:07:10Z</time>
      </trkpt>
      <trkpt lat="43.87426" lon="5.61669">
        <ele>490.1</ele>
        <time>2015-06-21T11:07:18Z</time>
      </trkpt>
      <trkpt lat="43.87418" lon="5.61674">
        <ele>489.8</ele>
        <time>2015-06-21T11:07:28Z</time>
      </trkpt>
      <trkpt lat="43.87408" lon="5.61675">
        <ele>489.6</ele>
        <time>2015-06-21T11:07:37Z</time>
      </trkpt>
      <trkpt lat="43.87399" lon="5.61676">
        <ele>489.2</ele>
        <time>2015-06-21T11:07:45Z</time>
      </trkpt>
      <trkpt lat="43.87392" lon="5.61685">
        <ele>488.3</ele>
        <time>2015-06-21T11:07:53Z</time>
      </trkpt>
      <trkpt lat="43.87385" lon="5.61696">
        <ele>487.1</ele>
        <time>2015-06-21T11:08:03Z</time>
      </trkpt>
      <trkpt lat="43.87207" lon="5.6163">
        <ele>486</ele>
        <time>2015-06-21T11:08:12Z</time>
      </trkpt>
      <trkpt lat="43.87137" lon="5.61599">
        <ele>485.8</ele>
        <time>2015-06-21T11:08:17Z</time>
      </trkpt>
      <trkpt lat="43.87135" lon="5.61586">
        <ele>485.2</ele>
        <time>2015-06-21T11:08:19Z</time>
      </trkpt>
      <trkpt lat="43.87119" lon="5.61586">
        <ele>484</ele>
        <time>2015-06-21T11:08:24Z</time>
      </trkpt>
      <trkpt lat="43.87107" lon="5.61584">
        <ele>484.4</ele>
        <time>2015-06-21T11:08:29Z</time>
      </trkpt>
      <trkpt lat="43.871" lon="5.61573">
        <ele>484</ele>
        <time>2015-06-21T11:08:33Z</time>
      </trkpt>
      <trkpt lat="43.8709" lon="5.61572">
        <ele>483.7</ele>
        <time>2015-06-21T11:08:36Z</time>
      </trkpt>
      <trkpt lat="43.87083" lon="5.61579">
        <ele>483.1</ele>
        <time>2015-06-21T11:08:41Z</time>
      </trkpt>
      <trkpt lat="43.87069" lon="5.61583">
        <ele>482.5</ele>
        <time>2015-06-21T11:08:45Z</time>
      </trkpt>
      <trkpt lat="43.87082" lon="5.61596">
        <ele>481.8</ele>
        <time>2015-06-21T11:08:50Z</time>
      </trkpt>
      <trkpt lat="43.87152" lon="5.6161">
        <ele>480</ele>
        <time>2015-06-21T11:09:07Z</time>
      </trkpt>
      <trkpt lat="43.87155" lon="5.61628">
        <ele>479.9</ele>
        <time>2015-06-21T11:09:12Z</time>
      </trkpt>
      <trkpt lat="43.8716" lon="5.61639">
        <ele>479.3</ele>
        <time>2015-06-21T11:09:23Z</time>
      </trkpt>
      <trkpt lat="43.8716" lon="5.61653">
        <ele>478.7</ele>
        <time>2015-06-21T11:09:30Z</time>
      </trkpt>
      <trkpt lat="43.87161" lon="5.61667">
        <ele>478.3</ele>
        <time>2015-06-21T11:09:35Z</time>
      </trkpt>
      <trkpt lat="43.87156" lon="5.6168">
        <ele>477.9</ele>
        <time>2015-06-21T11:09:40Z</time>
      </trkpt>
      <trkpt lat="43.8716" lon="5.61692">
        <ele>477</ele>
        <time>2015-06-21T11:09:48Z</time>
      </trkpt>
      <trkpt lat="43.87155" lon="5.61704">
        <ele>476.5</ele>
        <time>2015-06-21T11:09:53Z</time>
      </trkpt>
      <trkpt lat="43.87155" lon="5.61717">
        <ele>476</ele>
        <time>2015-06-21T11:09:59Z</time>
      </trkpt>
      <trkpt lat="43.87161" lon="5.61728">
        <ele>475.7</ele>
        <time>2015-06-21T11:10:03Z</time>
      </trkpt>
      <trkpt lat="43.8717" lon="5.61739">
        <ele>475.3</ele>
        <time>2015-06-21T11:10:09Z</time>
      </trkpt>
      <trkpt lat="43.87172" lon="5.61755">
        <ele>474.8</ele>
        <time>2015-06-21T11:10:16Z</time>
      </trkpt>
      <trkpt lat="43.87176" lon="5.61771">
        <ele>474.1</ele>
        <time>2015-06-21T11:10:23Z</time>
      </trkpt>
      <trkpt lat="43.87188" lon="5.61785">
        <ele>473.8</ele>
        <time>2015-06-21T11:10:27Z</time>
      </trkpt>
      <trkpt lat="43.87186" lon="5.61797">
        <ele>473.6</ele>
        <time>2015-06-21T11:10:31Z</time>
      </trkpt>
      <trkpt lat="43.8719" lon="5.6181">
        <ele>472.7</ele>
        <time>2015-06-21T11:10:41Z</time>
      </trkpt>
      <trkpt lat="43.87177" lon="5.61808">
        <ele>472.3</ele>
        <time>2015-06-21T11:10:47Z</time>
      </trkpt>
      <trkpt lat="43.87165" lon="5.61811">
        <ele>471</ele>
        <time>2015-06-21T11:11:01Z</time>
      </trkpt>
      <trkpt lat="43.87174" lon="5.61815">
        <ele>471</ele>
        <time>2015-06-21T11:11:17Z</time>
      </trkpt>
      <trkpt lat="43.87159" lon="5.6181">
        <ele>470.9</ele>
        <time>2015-06-21T11:11:20Z</time>
      </trkpt>
      <trkpt lat="43.87166" lon="5.61783">
        <ele>470</ele>
        <time>2015-06-21T11:11:25Z</time>
      </trkpt>
      <trkpt lat="43.87154" lon="5.61798">
        <ele>470.4</ele>
        <time>2015-06-21T11:11:34Z</time>
      </trkpt>
      <trkpt lat="43.87173" lon="5.61785">
        <ele>469</ele>
        <time>2015-06-21T11:11:46Z</time>
      </trkpt>
      <trkpt lat="43.8715" lon="5.61786">
        <ele>469</ele>
        <time>2015-06-21T11:12:03Z</time>
      </trkpt>
      <trkpt lat="43.87143" lon="5.61796">
        <ele>468.8</ele>
        <time>2015-06-21T11:12:08Z</time>
      </trkpt>
      <trkpt lat="43.87142" lon="5.61771">
        <ele>467</ele>
        <time>2015-06-21T11:12:42Z</time>
      </trkpt>
      <trkpt lat="43.87152" lon="5.61772">
        <ele>466.5</ele>
        <time>2015-06-21T11:14:02Z</time>
      </trkpt>
      <trkpt lat="43.87161" lon="5.61779">
        <ele>466.4</ele>
        <time>2015-06-21T11:14:16Z</time>
      </trkpt>
      <trkpt lat="43.87129" lon="5.61762">
        <ele>466</ele>
        <time>2015-06-21T11:14:31Z</time>
      </trkpt>
      <trkpt lat="43.8712" lon="5.61765">
        <ele>465.6</ele>
        <time>2015-06-21T11:15:18Z</time>
      </trkpt>
      <trkpt lat="43.87114" lon="5.61755">
        <ele>465.5</ele>
        <time>2015-06-21T11:15:32Z</time>
      </trkpt>
      <trkpt lat="43.87123" lon="5.61733">
        <ele>463</ele>
        <time>2015-06-21T11:17:23Z</time>
      </trkpt>
      <trkpt lat="43.87124" lon="5.6172">
        <ele>463.5</ele>
        <time>2015-06-21T11:17:58Z</time>
      </trkpt>
      <trkpt lat="43.87131" lon="5.61731">
        <ele>462.8</ele>
        <time>2015-06-21T11:18:50Z</time>
      </trkpt>
      <trkpt lat="43.87131" lon="5.61744">
        <ele>462.6</ele>
        <time>2015-06-21T11:19:21Z</time>
      </trkpt>
      <trkpt lat="43.8714" lon="5.61744">
        <ele>462.6</ele>
        <time>2015-06-21T11:20:05Z</time>
      </trkpt>
      <trkpt lat="43.87147" lon="5.61752">
        <ele>462.7</ele>
        <time>2015-06-21T11:20:18Z</time>
      </trkpt>
      <trkpt lat="43.87153" lon="5.6177">
        <ele>461.6</ele>
        <time>2015-06-21T11:22:47Z</time>
      </trkpt>
      <trkpt lat="43.87152" lon="5.61757">
        <ele>457.7</ele>
        <time>2015-06-21T11:28:29Z</time>
      </trkpt>
      <trkpt lat="43.8716" lon="5.61746">
        <ele>457.6</ele>
        <time>2015-06-21T11:28:43Z</time>
      </trkpt>
      <trkpt lat="43.87165" lon="5.61736">
        <ele>457.6</ele>
        <time>2015-06-21T11:28:49Z</time>
      </trkpt>
      <trkpt lat="43.87175" lon="5.61732">
        <ele>457.6</ele>
        <time>2015-06-21T11:29:00Z</time>
      </trkpt>
      <trkpt lat="43.87184" lon="5.61733">
        <ele>458</ele>
        <time>2015-06-21T11:29:11Z</time>
      </trkpt>
      <trkpt lat="43.8719" lon="5.61724">
        <ele>458.5</ele>
        <time>2015-06-21T11:29:22Z</time>
      </trkpt>
      <trkpt lat="43.87183" lon="5.61732">
        <ele>459.4</ele>
        <time>2015-06-21T11:30:16Z</time>
      </trkpt>
      <trkpt lat="43.87179" lon="5.61739">
        <ele>459.3</ele>
        <time>2015-06-21T11:30:20Z</time>
      </trkpt>
      <trkpt lat="43.87159" lon="5.61753">
        <ele>440.8</ele>
        <time>2015-06-21T13:09:14Z</time>
      </trkpt>
      <trkpt lat="43.87149" lon="5.61708">
        <ele>440</ele>
        <time>2015-06-21T13:09:28Z</time>
      </trkpt>
      <trkpt lat="43.8714" lon="5.61706">
        <ele>441</ele>
        <time>2015-06-21T13:09:40Z</time>
      </trkpt>
      <trkpt lat="43.87133" lon="5.61715">
        <ele>441</ele>
        <time>2015-06-21T13:10:09Z</time>
      </trkpt>
      <trkpt lat="43.87144" lon="5.61702">
        <ele>441.8</ele>
        <time>2015-06-21T13:14:06Z</time>
      </trkpt>
      <trkpt lat="43.87152" lon="5.61695">
        <ele>441.8</ele>
        <time>2015-06-21T13:14:16Z</time>
      </trkpt>
      <trkpt lat="43.87159" lon="5.61709">
        <ele>441.8</ele>
        <time>2015-06-21T13:15:02Z</time>
      </trkpt>
      <trkpt lat="43.87153" lon="5.61725">
        <ele>442.2</ele>
        <time>2015-06-21T13:16:01Z</time>
      </trkpt>
      <trkpt lat="43.87144" lon="5.61727">
        <ele>442.3</ele>
        <time>2015-06-21T13:16:08Z</time>
      </trkpt>
      <trkpt lat="43.87135" lon="5.61731">
        <ele>442.4</ele>
        <time>2015-06-21T13:16:14Z</time>
      </trkpt>
      <trkpt lat="43.87126" lon="5.61733">
        <ele>442.3</ele>
        <time>2015-06-21T13:16:24Z</time>
      </trkpt>
      <trkpt lat="43.8712" lon="5.61723">
        <ele>442.2</ele>
        <time>2015-06-21T13:16:32Z</time>
      </trkpt>
      <trkpt lat="43.87111" lon="5.61722">
        <ele>442.2</ele>
        <time>2015-06-21T13:16:41Z</time>
      </trkpt>
      <trkpt lat="43.87101" lon="5.61724">
        <ele>442.3</ele>
        <time>2015-06-21T13:16:48Z</time>
      </trkpt>
      <trkpt lat="43.87092" lon="5.61727">
        <ele>442.4</ele>
        <time>2015-06-21T13:16:56Z</time>
      </trkpt>
      <trkpt lat="43.87083" lon="5.61728">
        <ele>442.7</ele>
        <time>2015-06-21T13:17:09Z</time>
      </trkpt>
      <trkpt lat="43.87074" lon="5.61731">
        <ele>442.8</ele>
        <time>2015-06-21T13:17:14Z</time>
      </trkpt>
      <trkpt lat="43.87064" lon="5.61733">
        <ele>442.9</ele>
        <time>2015-06-21T13:17:23Z</time>
      </trkpt>
      <trkpt lat="43.87062" lon="5.61721">
        <ele>443.1</ele>
        <time>2015-06-21T13:17:36Z</time>
      </trkpt>
      <trkpt lat="43.87069" lon="5.61712">
        <ele>443.7</ele>
        <time>2015-06-21T13:17:43Z</time>
      </trkpt>
      <trkpt lat="43.87074" lon="5.61701">
        <ele>444.4</ele>
        <time>2015-06-21T13:17:51Z</time>
      </trkpt>
      <trkpt lat="43.87081" lon="5.61693">
        <ele>445.4</ele>
        <time>2015-06-21T13:18:02Z</time>
      </trkpt>
      <trkpt lat="43.87089" lon="5.61686">
        <ele>446</ele>
        <time>2015-06-21T13:18:08Z</time>
      </trkpt>
      <trkpt lat="43.87097" lon="5.6168">
        <ele>446.9</ele>
        <time>2015-06-21T13:18:15Z</time>
      </trkpt>
      <trkpt lat="43.87103" lon="5.61671">
        <ele>448.1</ele>
        <time>2015-06-21T13:18:22Z</time>
      </trkpt>
      <trkpt lat="43.87108" lon="5.61659">
        <ele>449.4</ele>
        <time>2015-06-21T13:18:30Z</time>
      </trkpt>
      <trkpt lat="43.87111" lon="5.61646">
        <ele>450.4</ele>
        <time>2015-06-21T13:18:37Z</time>
      </trkpt>
      <trkpt lat="43.87106" lon="5.61634">
        <ele>451.7</ele>
        <time>2015-06-21T13:18:44Z</time>
      </trkpt>
      <trkpt lat="43.871" lon="5.61621">
        <ele>453</ele>
        <time>2015-06-21T13:18:51Z</time>
      </trkpt>
      <trkpt lat="43.87093" lon="5.61612">
        <ele>454.2</ele>
        <time>2015-06-21T13:18:58Z</time>
      </trkpt>
      <trkpt lat="43.87088" lon="5.616">
        <ele>455.2</ele>
        <time>2015-06-21T13:19:05Z</time>
      </trkpt>
      <trkpt lat="43.87083" lon="5.61587">
        <ele>455.9</ele>
        <time>2015-06-21T13:19:11Z</time>
      </trkpt>
      <trkpt lat="43.87082" lon="5.61575">
        <ele>457.9</ele>
        <time>2015-06-21T13:19:49Z</time>
      </trkpt>
      <trkpt lat="43.87078" lon="5.61563">
        <ele>458.2</ele>
        <time>2015-06-21T13:20:05Z</time>
      </trkpt>
      <trkpt lat="43.87075" lon="5.61549">
        <ele>458.2</ele>
        <time>2015-06-21T13:20:15Z</time>
      </trkpt>
      <trkpt lat="43.87071" lon="5.61537">
        <ele>458.2</ele>
        <time>2015-06-21T13:20:24Z</time>
      </trkpt>
      <trkpt lat="43.8707" lon="5.61524">
        <ele>458.2</ele>
        <time>2015-06-21T13:20:42Z</time>
      </trkpt>
      <trkpt lat="43.87073" lon="5.61512">
        <ele>458.1</ele>
        <time>2015-06-21T13:20:48Z</time>
      </trkpt>
      <trkpt lat="43.87077" lon="5.615">
        <ele>458</ele>
        <time>2015-06-21T13:20:54Z</time>
      </trkpt>
      <trkpt lat="43.87081" lon="5.61488">
        <ele>457.9</ele>
        <time>2015-06-21T13:21:02Z</time>
      </trkpt>
      <trkpt lat="43.87082" lon="5.61475">
        <ele>457.8</ele>
        <time>2015-06-21T13:21:11Z</time>
      </trkpt>
      <trkpt lat="43.87085" lon="5.61463">
        <ele>457.7</ele>
        <time>2015-06-21T13:21:19Z</time>
      </trkpt>
      <trkpt lat="43.8709" lon="5.61451">
        <ele>457.7</ele>
        <time>2015-06-21T13:21:26Z</time>
      </trkpt>
      <trkpt lat="43.87095" lon="5.61439">
        <ele>457.7</ele>
        <time>2015-06-21T13:21:32Z</time>
      </trkpt>
      <trkpt lat="43.87095" lon="5.61425">
        <ele>457.7</ele>
        <time>2015-06-21T13:21:39Z</time>
      </trkpt>
      <trkpt lat="43.87095" lon="5.61412">
        <ele>457.8</ele>
        <time>2015-06-21T13:21:46Z</time>
      </trkpt>
      <trkpt lat="43.87089" lon="5.61402">
        <ele>457.9</ele>
        <time>2015-06-21T13:21:54Z</time>
      </trkpt>
      <trkpt lat="43.87082" lon="5.61393">
        <ele>457.9</ele>
        <time>2015-06-21T13:22:01Z</time>
      </trkpt>
      <trkpt lat="43.87075" lon="5.61383">
        <ele>457.7</ele>
        <time>2015-06-21T13:22:10Z</time>
      </trkpt>
      <trkpt lat="43.87068" lon="5.61376">
        <ele>456.8</ele>
        <time>2015-06-21T13:22:21Z</time>
      </trkpt>
      <trkpt lat="43.87059" lon="5.61375">
        <ele>455.1</ele>
        <time>2015-06-21T13:22:41Z</time>
      </trkpt>
      <trkpt lat="43.8705" lon="5.61377">
        <ele>454</ele>
        <time>2015-06-21T13:22:51Z</time>
      </trkpt>
      <trkpt lat="43.87041" lon="5.61374">
        <ele>452.8</ele>
        <time>2015-06-21T13:22:57Z</time>
      </trkpt>
      <trkpt lat="43.87034" lon="5.61362">
        <ele>450.3</ele>
        <time>2015-06-21T13:23:07Z</time>
      </trkpt>
      <trkpt lat="43.87031" lon="5.6135">
        <ele>449</ele>
        <time>2015-06-21T13:23:13Z</time>
      </trkpt>
      <trkpt lat="43.87031" lon="5.61337">
        <ele>447.1</ele>
        <time>2015-06-21T13:23:30Z</time>
      </trkpt>
      <trkpt lat="43.87029" lon="5.61324">
        <ele>446.7</ele>
        <time>2015-06-21T13:23:38Z</time>
      </trkpt>
      <trkpt lat="43.87026" lon="5.61311">
        <ele>446.4</ele>
        <time>2015-06-21T13:23:48Z</time>
      </trkpt>
      <trkpt lat="43.87025" lon="5.61297">
        <ele>445.8</ele>
        <time>2015-06-21T13:23:58Z</time>
      </trkpt>
      <trkpt lat="43.87021" lon="5.61284">
        <ele>445.5</ele>
        <time>2015-06-21T13:24:05Z</time>
      </trkpt>
      <trkpt lat="43.87017" lon="5.61272">
        <ele>445.2</ele>
        <time>2015-06-21T13:24:11Z</time>
      </trkpt>
      <trkpt lat="43.87013" lon="5.61259">
        <ele>445</ele>
        <time>2015-06-21T13:24:17Z</time>
      </trkpt>
      <trkpt lat="43.8701" lon="5.61244">
        <ele>444.7</ele>
        <time>2015-06-21T13:24:24Z</time>
      </trkpt>
      <trkpt lat="43.87009" lon="5.6123">
        <ele>444.2</ele>
        <time>2015-06-21T13:24:30Z</time>
      </trkpt>
      <trkpt lat="43.87008" lon="5.61216">
        <ele>443.6</ele>
        <time>2015-06-21T13:24:36Z</time>
      </trkpt>
      <trkpt lat="43.87006" lon="5.61202">
        <ele>442.9</ele>
        <time>2015-06-21T13:24:43Z</time>
      </trkpt>
      <trkpt lat="43.87001" lon="5.61191">
        <ele>442.5</ele>
        <time>2015-06-21T13:24:48Z</time>
      </trkpt>
      <trkpt lat="43.86994" lon="5.61181">
        <ele>441.8</ele>
        <time>2015-06-21T13:24:57Z</time>
      </trkpt>
      <trkpt lat="43.86987" lon="5.6117">
        <ele>441.4</ele>
        <time>2015-06-21T13:25:04Z</time>
      </trkpt>
      <trkpt lat="43.86983" lon="5.61159">
        <ele>441.2</ele>
        <time>2015-06-21T13:25:09Z</time>
      </trkpt>
      <trkpt lat="43.86978" lon="5.61148">
        <ele>441</ele>
        <time>2015-06-21T13:25:13Z</time>
      </trkpt>
      <trkpt lat="43.86974" lon="5.61136">
        <ele>440.4</ele>
        <time>2015-06-21T13:25:17Z</time>
      </trkpt>
      <trkpt lat="43.86967" lon="5.61124">
        <ele>440</ele>
        <time>2015-06-21T13:25:21Z</time>
      </trkpt>
      <trkpt lat="43.86959" lon="5.61116">
        <ele>439.5</ele>
        <time>2015-06-21T13:25:27Z</time>
      </trkpt>
      <trkpt lat="43.86955" lon="5.61104">
        <ele>439.2</ele>
        <time>2015-06-21T13:25:32Z</time>
      </trkpt>
      <trkpt lat="43.8695" lon="5.61094">
        <ele>438.8</ele>
        <time>2015-06-21T13:25:39Z</time>
      </trkpt>
      <trkpt lat="43.86942" lon="5.61085">
        <ele>438</ele>
        <time>2015-06-21T13:25:49Z</time>
      </trkpt>
      <trkpt lat="43.86937" lon="5.61074">
        <ele>437.3</ele>
        <time>2015-06-21T13:25:59Z</time>
      </trkpt>
      <trkpt lat="43.86932" lon="5.61062">
        <ele>436.6</ele>
        <time>2015-06-21T13:26:07Z</time>
      </trkpt>
      <trkpt lat="43.86928" lon="5.6105">
        <ele>435.9</ele>
        <time>2015-06-21T13:26:13Z</time>
      </trkpt>
      <trkpt lat="43.86924" lon="5.61037">
        <ele>435.2</ele>
        <time>2015-06-21T13:26:20Z</time>
      </trkpt>
      <trkpt lat="43.8692" lon="5.61026">
        <ele>434.4</ele>
        <time>2015-06-21T13:26:27Z</time>
      </trkpt>
      <trkpt lat="43.86914" lon="5.61016">
        <ele>433.9</ele>
        <time>2015-06-21T13:26:37Z</time>
      </trkpt>
      <trkpt lat="43.86911" lon="5.61002">
        <ele>433.8</ele>
        <time>2015-06-21T13:26:40Z</time>
      </trkpt>
      <trkpt lat="43.86909" lon="5.60989">
        <ele>433.7</ele>
        <time>2015-06-21T13:26:43Z</time>
      </trkpt>
      <trkpt lat="43.86905" lon="5.60977">
        <ele>433.5</ele>
        <time>2015-06-21T13:26:48Z</time>
      </trkpt>
      <trkpt lat="43.869" lon="5.60966">
        <ele>433.3</ele>
        <time>2015-06-21T13:26:52Z</time>
      </trkpt>
      <trkpt lat="43.86897" lon="5.60951">
        <ele>433</ele>
        <time>2015-06-21T13:26:56Z</time>
      </trkpt>
      <trkpt lat="43.86896" lon="5.60935">
        <ele>432.8</ele>
        <time>2015-06-21T13:27:00Z</time>
      </trkpt>
      <trkpt lat="43.86897" lon="5.60921">
        <ele>432.6</ele>
        <time>2015-06-21T13:27:03Z</time>
      </trkpt>
      <trkpt lat="43.86897" lon="5.60908">
        <ele>432.3</ele>
        <time>2015-06-21T13:27:09Z</time>
      </trkpt>
      <trkpt lat="43.86897" lon="5.60893">
        <ele>432</ele>
        <time>2015-06-21T13:27:15Z</time>
      </trkpt>
      <trkpt lat="43.8687" lon="5.60853">
        <ele>428</ele>
        <time>2015-06-21T13:29:02Z</time>
      </trkpt>
      <trkpt lat="43.8686" lon="5.60835">
        <ele>428.1</ele>
        <time>2015-06-21T13:29:07Z</time>
      </trkpt>
      <trkpt lat="43.86853" lon="5.60827">
        <ele>427.7</ele>
        <time>2015-06-21T13:29:13Z</time>
      </trkpt>
      <trkpt lat="43.86843" lon="5.60822">
        <ele>427.3</ele>
        <time>2015-06-21T13:29:19Z</time>
      </trkpt>
      <trkpt lat="43.86837" lon="5.60812">
        <ele>427.1</ele>
        <time>2015-06-21T13:29:23Z</time>
      </trkpt>
      <trkpt lat="43.86828" lon="5.60812">
        <ele>426.5</ele>
        <time>2015-06-21T13:29:32Z</time>
      </trkpt>
      <trkpt lat="43.86818" lon="5.60813">
        <ele>425.8</ele>
        <time>2015-06-21T13:29:42Z</time>
      </trkpt>
      <trkpt lat="43.86808" lon="5.60818">
        <ele>425.1</ele>
        <time>2015-06-21T13:29:49Z</time>
      </trkpt>
      <trkpt lat="43.868" lon="5.60824">
        <ele>425</ele>
        <time>2015-06-21T13:29:53Z</time>
      </trkpt>
      <trkpt lat="43.8679" lon="5.60828">
        <ele>424.6</ele>
        <time>2015-06-21T13:30:02Z</time>
      </trkpt>
      <trkpt lat="43.86781" lon="5.60829">
        <ele>424.5</ele>
        <time>2015-06-21T13:30:10Z</time>
      </trkpt>
      <trkpt lat="43.8675" lon="5.6076">
        <ele>424</ele>
        <time>2015-06-21T13:30:18Z</time>
      </trkpt>
      <trkpt lat="43.86731" lon="5.60739">
        <ele>424.4</ele>
        <time>2015-06-21T13:30:23Z</time>
      </trkpt>
      <trkpt lat="43.86721" lon="5.6074">
        <ele>424.4</ele>
        <time>2015-06-21T13:30:27Z</time>
      </trkpt>
      <trkpt lat="43.86711" lon="5.60743">
        <ele>424.5</ele>
        <time>2015-06-21T13:30:32Z</time>
      </trkpt>
      <trkpt lat="43.86701" lon="5.60746">
        <ele>424.8</ele>
        <time>2015-06-21T13:30:37Z</time>
      </trkpt>
      <trkpt lat="43.86691" lon="5.60748">
        <ele>424.4</ele>
        <time>2015-06-21T13:30:43Z</time>
      </trkpt>
      <trkpt lat="43.86682" lon="5.60747">
        <ele>424.7</ele>
        <time>2015-06-21T13:30:49Z</time>
      </trkpt>
      <trkpt lat="43.86672" lon="5.60746">
        <ele>424.8</ele>
        <time>2015-06-21T13:30:53Z</time>
      </trkpt>
      <trkpt lat="43.86664" lon="5.60753">
        <ele>425</ele>
        <time>2015-06-21T13:30:59Z</time>
      </trkpt>
      <trkpt lat="43.86654" lon="5.60752">
        <ele>425</ele>
        <time>2015-06-21T13:31:04Z</time>
      </trkpt>
      <trkpt lat="43.86645" lon="5.60752">
        <ele>425.1</ele>
        <time>2015-06-21T13:31:11Z</time>
      </trkpt>
      <trkpt lat="43.86636" lon="5.60757">
        <ele>424.8</ele>
        <time>2015-06-21T13:31:20Z</time>
      </trkpt>
      <trkpt lat="43.86626" lon="5.60758">
        <ele>423.9</ele>
        <time>2015-06-21T13:31:30Z</time>
      </trkpt>
      <trkpt lat="43.86617" lon="5.60761">
        <ele>423.1</ele>
        <time>2015-06-21T13:31:37Z</time>
      </trkpt>
      <trkpt lat="43.86607" lon="5.6076">
        <ele>421.9</ele>
        <time>2015-06-21T13:31:45Z</time>
      </trkpt>
      <trkpt lat="43.86598" lon="5.60759">
        <ele>420.9</ele>
        <time>2015-06-21T13:31:52Z</time>
      </trkpt>
      <trkpt lat="43.86589" lon="5.60755">
        <ele>420.4</ele>
        <time>2015-06-21T13:31:56Z</time>
      </trkpt>
      <trkpt lat="43.86581" lon="5.60747">
        <ele>419.7</ele>
        <time>2015-06-21T13:32:00Z</time>
      </trkpt>
      <trkpt lat="43.86574" lon="5.60739">
        <ele>419.2</ele>
        <time>2015-06-21T13:32:04Z</time>
      </trkpt>
      <trkpt lat="43.86566" lon="5.60732">
        <ele>418.4</ele>
        <time>2015-06-21T13:32:10Z</time>
      </trkpt>
      <trkpt lat="43.8656" lon="5.6072">
        <ele>417.3</ele>
        <time>2015-06-21T13:32:17Z</time>
      </trkpt>
      <trkpt lat="43.86553" lon="5.60712">
        <ele>416.5</ele>
        <time>2015-06-21T13:32:23Z</time>
      </trkpt>
      <trkpt lat="43.86543" lon="5.60709">
        <ele>415.1</ele>
        <time>2015-06-21T13:32:32Z</time>
      </trkpt>
      <trkpt lat="43.86536" lon="5.60698">
        <ele>414</ele>
        <time>2015-06-21T13:32:41Z</time>
      </trkpt>
      <trkpt lat="43.86531" lon="5.60687">
        <ele>413.4</ele>
        <time>2015-06-21T13:32:48Z</time>
      </trkpt>
      <trkpt lat="43.86524" lon="5.60679">
        <ele>413</ele>
        <time>2015-06-21T13:32:53Z</time>
      </trkpt>
      <trkpt lat="43.86515" lon="5.60672">
        <ele>411.6</ele>
        <time>2015-06-21T13:33:00Z</time>
      </trkpt>
      <trkpt lat="43.86507" lon="5.60664">
        <ele>411.1</ele>
        <time>2015-06-21T13:33:07Z</time>
      </trkpt>
      <trkpt lat="43.865" lon="5.60654">
        <ele>410.5</ele>
        <time>2015-06-21T13:33:16Z</time>
      </trkpt>
      <trkpt lat="43.86497" lon="5.6064">
        <ele>410</ele>
        <time>2015-06-21T13:33:21Z</time>
      </trkpt>
      <trkpt lat="43.86491" lon="5.60629">
        <ele>409.3</ele>
        <time>2015-06-21T13:33:28Z</time>
      </trkpt>
      <trkpt lat="43.86484" lon="5.6062">
        <ele>408.5</ele>
        <time>2015-06-21T13:33:35Z</time>
      </trkpt>
      <trkpt lat="43.86476" lon="5.60615">
        <ele>407.6</ele>
        <time>2015-06-21T13:33:42Z</time>
      </trkpt>
      <trkpt lat="43.86468" lon="5.60607">
        <ele>407</ele>
        <time>2015-06-21T13:33:48Z</time>
      </trkpt>
      <trkpt lat="43.8646" lon="5.60598">
        <ele>406.3</ele>
        <time>2015-06-21T13:33:55Z</time>
      </trkpt>
      <trkpt lat="43.86454" lon="5.60588">
        <ele>405.9</ele>
        <time>2015-06-21T13:33:59Z</time>
      </trkpt>
      <trkpt lat="43.86449" lon="5.60574">
        <ele>405.4</ele>
        <time>2015-06-21T13:34:04Z</time>
      </trkpt>
      <trkpt lat="43.86445" lon="5.60563">
        <ele>404.4</ele>
        <time>2015-06-21T13:34:11Z</time>
      </trkpt>
      <trkpt lat="43.86435" lon="5.60556">
        <ele>403.7</ele>
        <time>2015-06-21T13:34:18Z</time>
      </trkpt>
      <trkpt lat="43.86426" lon="5.60552">
        <ele>403.3</ele>
        <time>2015-06-21T13:34:25Z</time>
      </trkpt>
      <trkpt lat="43.86417" lon="5.6055">
        <ele>403</ele>
        <time>2015-06-21T13:34:30Z</time>
      </trkpt>
      <trkpt lat="43.8641" lon="5.60542">
        <ele>402.6</ele>
        <time>2015-06-21T13:34:35Z</time>
      </trkpt>
      <trkpt lat="43.86401" lon="5.60535">
        <ele>402.1</ele>
        <time>2015-06-21T13:34:42Z</time>
      </trkpt>
      <trkpt lat="43.86392" lon="5.60529">
        <ele>401.4</ele>
        <time>2015-06-21T13:34:50Z</time>
      </trkpt>
      <trkpt lat="43.86384" lon="5.60524">
        <ele>400.9</ele>
        <time>2015-06-21T13:34:56Z</time>
      </trkpt>
      <trkpt lat="43.86375" lon="5.6052">
        <ele>400.3</ele>
        <time>2015-06-21T13:35:03Z</time>
      </trkpt>
      <trkpt lat="43.86366" lon="5.60517">
        <ele>399.7</ele>
        <time>2015-06-21T13:35:10Z</time>
      </trkpt>
      <trkpt lat="43.86356" lon="5.60514">
        <ele>399.1</ele>
        <time>2015-06-21T13:35:18Z</time>
      </trkpt>
      <trkpt lat="43.8635" lon="5.60501">
        <ele>398.6</ele>
        <time>2015-06-21T13:35:24Z</time>
      </trkpt>
      <trkpt lat="43.86345" lon="5.6049">
        <ele>398.1</ele>
        <time>2015-06-21T13:35:30Z</time>
      </trkpt>
      <trkpt lat="43.86337" lon="5.60483">
        <ele>397.6</ele>
        <time>2015-06-21T13:35:37Z</time>
      </trkpt>
      <trkpt lat="43.86328" lon="5.60475">
        <ele>397</ele>
        <time>2015-06-21T13:35:44Z</time>
      </trkpt>
      <trkpt lat="43.86317" lon="5.60473">
        <ele>396.2</ele>
        <time>2015-06-21T13:35:50Z</time>
      </trkpt>
      <trkpt lat="43.86309" lon="5.60466">
        <ele>395.1</ele>
        <time>2015-06-21T13:35:59Z</time>
      </trkpt>
      <trkpt lat="43.863" lon="5.60463">
        <ele>394</ele>
        <time>2015-06-21T13:36:07Z</time>
      </trkpt>
      <trkpt lat="43.86291" lon="5.60458">
        <ele>393.1</ele>
        <time>2015-06-21T13:36:15Z</time>
      </trkpt>
      <trkpt lat="43.86282" lon="5.60454">
        <ele>392.5</ele>
        <time>2015-06-21T13:36:21Z</time>
      </trkpt>
      <trkpt lat="43.86273" lon="5.60447">
        <ele>391.5</ele>
        <time>2015-06-21T13:36:30Z</time>
      </trkpt>
      <trkpt lat="43.86267" lon="5.60438">
        <ele>390.7</ele>
        <time>2015-06-21T13:36:37Z</time>
      </trkpt>
      <trkpt lat="43.86259" lon="5.60429">
        <ele>390</ele>
        <time>2015-06-21T13:36:44Z</time>
      </trkpt>
      <trkpt lat="43.86249" lon="5.60424">
        <ele>389.4</ele>
        <time>2015-06-21T13:36:51Z</time>
      </trkpt>
      <trkpt lat="43.86239" lon="5.60422">
        <ele>389.2</ele>
        <time>2015-06-21T13:36:57Z</time>
      </trkpt>
      <trkpt lat="43.8623" lon="5.6042">
        <ele>389.5</ele>
        <time>2015-06-21T13:37:05Z</time>
      </trkpt>
      <trkpt lat="43.86221" lon="5.60414">
        <ele>390</ele>
        <time>2015-06-21T13:37:13Z</time>
      </trkpt>
      <trkpt lat="43.86212" lon="5.60411">
        <ele>390.6</ele>
        <time>2015-06-21T13:37:21Z</time>
      </trkpt>
      <trkpt lat="43.86203" lon="5.60403">
        <ele>391.1</ele>
        <time>2015-06-21T13:37:29Z</time>
      </trkpt>
      <trkpt lat="43.86194" lon="5.60398">
        <ele>391.5</ele>
        <time>2015-06-21T13:37:37Z</time>
      </trkpt>
      <trkpt lat="43.86187" lon="5.6039">
        <ele>391.9</ele>
        <time>2015-06-21T13:37:44Z</time>
      </trkpt>
      <trkpt lat="43.86178" lon="5.60384">
        <ele>392.4</ele>
        <time>2015-06-21T13:37:52Z</time>
      </trkpt>
      <trkpt lat="43.86168" lon="5.60382">
        <ele>392.9</ele>
        <time>2015-06-21T13:38:01Z</time>
      </trkpt>
      <trkpt lat="43.86155" lon="5.60386">
        <ele>393.1</ele>
        <time>2015-06-21T13:38:04Z</time>
      </trkpt>
      <trkpt lat="43.86143" lon="5.60393">
        <ele>393.3</ele>
        <time>2015-06-21T13:38:06Z</time>
      </trkpt>
      <trkpt lat="43.86127" lon="5.60402">
        <ele>393</ele>
        <time>2015-06-21T13:38:12Z</time>
      </trkpt>
      <trkpt lat="43.86112" lon="5.60411">
        <ele>394.3</ele>
        <time>2015-06-21T13:38:17Z</time>
      </trkpt>
      <trkpt lat="43.86103" lon="5.60406">
        <ele>395</ele>
        <time>2015-06-21T13:38:23Z</time>
      </trkpt>
      <trkpt lat="43.86096" lon="5.60398">
        <ele>395.8</ele>
        <time>2015-06-21T13:38:33Z</time>
      </trkpt>
      <trkpt lat="43.86094" lon="5.60385">
        <ele>396.3</ele>
        <time>2015-06-21T13:38:43Z</time>
      </trkpt>
      <trkpt lat="43.86086" lon="5.60378">
        <ele>397</ele>
        <time>2015-06-21T13:38:53Z</time>
      </trkpt>
      <trkpt lat="43.86076" lon="5.60378">
        <ele>397.7</ele>
        <time>2015-06-21T13:39:01Z</time>
      </trkpt>
      <trkpt lat="43.86066" lon="5.60379">
        <ele>398.4</ele>
        <time>2015-06-21T13:39:07Z</time>
      </trkpt>
      <trkpt lat="43.86058" lon="5.60372">
        <ele>399</ele>
        <time>2015-06-21T13:39:12Z</time>
      </trkpt>
      <trkpt lat="43.86048" lon="5.6037">
        <ele>399.9</ele>
        <time>2015-06-21T13:39:19Z</time>
      </trkpt>
      <trkpt lat="43.86038" lon="5.60371">
        <ele>400.7</ele>
        <time>2015-06-21T13:39:26Z</time>
      </trkpt>
      <trkpt lat="43.86024" lon="5.60373">
        <ele>402.1</ele>
        <time>2015-06-21T13:39:37Z</time>
      </trkpt>
      <trkpt lat="43.86007" lon="5.60381">
        <ele>402</ele>
        <time>2015-06-21T13:39:43Z</time>
      </trkpt>
      <trkpt lat="43.85992" lon="5.60385">
        <ele>403.6</ele>
        <time>2015-06-21T13:39:48Z</time>
      </trkpt>
      <trkpt lat="43.85989" lon="5.6036">
        <ele>404.2</ele>
        <time>2015-06-21T13:39:53Z</time>
      </trkpt>
      <trkpt lat="43.85975" lon="5.60363">
        <ele>404</ele>
        <time>2015-06-21T13:39:58Z</time>
      </trkpt>
      <trkpt lat="43.85977" lon="5.60349">
        <ele>406</ele>
        <time>2015-06-21T13:40:05Z</time>
      </trkpt>
      <trkpt lat="43.85974" lon="5.60335">
        <ele>406.8</ele>
        <time>2015-06-21T13:40:12Z</time>
      </trkpt>
      <trkpt lat="43.8597" lon="5.60323">
        <ele>407.5</ele>
        <time>2015-06-21T13:40:19Z</time>
      </trkpt>
      <trkpt lat="43.85967" lon="5.60309">
        <ele>408.1</ele>
        <time>2015-06-21T13:40:26Z</time>
      </trkpt>
      <trkpt lat="43.85966" lon="5.60296">
        <ele>408.8</ele>
        <time>2015-06-21T13:40:35Z</time>
      </trkpt>
      <trkpt lat="43.85962" lon="5.60284">
        <ele>409.9</ele>
        <time>2015-06-21T13:40:43Z</time>
      </trkpt>
      <trkpt lat="43.85958" lon="5.6027">
        <ele>410.8</ele>
        <time>2015-06-21T13:40:49Z</time>
      </trkpt>
      <trkpt lat="43.85948" lon="5.6027">
        <ele>413.3</ele>
        <time>2015-06-21T13:41:05Z</time>
      </trkpt>
      <trkpt lat="43.85939" lon="5.60272">
        <ele>414.1</ele>
        <time>2015-06-21T13:41:10Z</time>
      </trkpt>
      <trkpt lat="43.85929" lon="5.6027">
        <ele>415.4</ele>
        <time>2015-06-21T13:41:18Z</time>
      </trkpt>
      <trkpt lat="43.85919" lon="5.60268">
        <ele>416.7</ele>
        <time>2015-06-21T13:41:27Z</time>
      </trkpt>
      <trkpt lat="43.85909" lon="5.60264">
        <ele>418</ele>
        <time>2015-06-21T13:41:36Z</time>
      </trkpt>
      <trkpt lat="43.85901" lon="5.6026">
        <ele>419.1</ele>
        <time>2015-06-21T13:41:45Z</time>
      </trkpt>
      <trkpt lat="43.85891" lon="5.60257">
        <ele>421.3</ele>
        <time>2015-06-21T13:42:00Z</time>
      </trkpt>
      <trkpt lat="43.85881" lon="5.60255">
        <ele>424</ele>
        <time>2015-06-21T13:42:18Z</time>
      </trkpt>
      <trkpt lat="43.85873" lon="5.6025">
        <ele>425.3</ele>
        <time>2015-06-21T13:42:27Z</time>
      </trkpt>
      <trkpt lat="43.85863" lon="5.60247">
        <ele>426.4</ele>
        <time>2015-06-21T13:42:34Z</time>
      </trkpt>
      <trkpt lat="43.85853" lon="5.60243">
        <ele>427.4</ele>
        <time>2015-06-21T13:42:41Z</time>
      </trkpt>
      <trkpt lat="43.85846" lon="5.60235">
        <ele>428.5</ele>
        <time>2015-06-21T13:42:48Z</time>
      </trkpt>
      <trkpt lat="43.85837" lon="5.6023">
        <ele>429.7</ele>
        <time>2015-06-21T13:42:55Z</time>
      </trkpt>
      <trkpt lat="43.85828" lon="5.60229">
        <ele>430.8</ele>
        <time>2015-06-21T13:43:02Z</time>
      </trkpt>
      <trkpt lat="43.85819" lon="5.60235">
        <ele>431.5</ele>
        <time>2015-06-21T13:43:06Z</time>
      </trkpt>
      <trkpt lat="43.8581" lon="5.60236">
        <ele>433.8</ele>
        <time>2015-06-21T13:43:17Z</time>
      </trkpt>
      <trkpt lat="43.858" lon="5.60235">
        <ele>436.4</ele>
        <time>2015-06-21T13:43:28Z</time>
      </trkpt>
      <trkpt lat="43.8579" lon="5.60236">
        <ele>437.5</ele>
        <time>2015-06-21T13:43:33Z</time>
      </trkpt>
      <trkpt lat="43.85781" lon="5.60233">
        <ele>438.6</ele>
        <time>2015-06-21T13:43:38Z</time>
      </trkpt>
      <trkpt lat="43.85772" lon="5.60231">
        <ele>439.6</ele>
        <time>2015-06-21T13:43:43Z</time>
      </trkpt>
      <trkpt lat="43.85764" lon="5.60228">
        <ele>440.8</ele>
        <time>2015-06-21T13:43:48Z</time>
      </trkpt>
      <trkpt lat="43.85754" lon="5.60225">
        <ele>441.9</ele>
        <time>2015-06-21T13:43:53Z</time>
      </trkpt>
      <trkpt lat="43.85744" lon="5.60223">
        <ele>443.2</ele>
        <time>2015-06-21T13:43:59Z</time>
      </trkpt>
      <trkpt lat="43.85735" lon="5.60216">
        <ele>444.9</ele>
        <time>2015-06-21T13:44:07Z</time>
      </trkpt>
      <trkpt lat="43.85726" lon="5.6021">
        <ele>446.5</ele>
        <time>2015-06-21T13:44:14Z</time>
      </trkpt>
      <trkpt lat="43.85718" lon="5.60204">
        <ele>448.1</ele>
        <time>2015-06-21T13:44:21Z</time>
      </trkpt>
      <trkpt lat="43.85709" lon="5.60196">
        <ele>449.6</ele>
        <time>2015-06-21T13:44:28Z</time>
      </trkpt>
      <trkpt lat="43.85701" lon="5.60189">
        <ele>450.9</ele>
        <time>2015-06-21T13:44:34Z</time>
      </trkpt>
      <trkpt lat="43.85692" lon="5.60182">
        <ele>452.6</ele>
        <time>2015-06-21T13:44:41Z</time>
      </trkpt>
      <trkpt lat="43.85685" lon="5.60173">
        <ele>454.5</ele>
        <time>2015-06-21T13:44:48Z</time>
      </trkpt>
      <trkpt lat="43.85678" lon="5.60164">
        <ele>456.4</ele>
        <time>2015-06-21T13:44:55Z</time>
      </trkpt>
      <trkpt lat="43.8567" lon="5.60157">
        <ele>458.2</ele>
        <time>2015-06-21T13:45:02Z</time>
      </trkpt>
      <trkpt lat="43.85662" lon="5.60149">
        <ele>460.1</ele>
        <time>2015-06-21T13:45:10Z</time>
      </trkpt>
      <trkpt lat="43.85656" lon="5.60136">
        <ele>461.8</ele>
        <time>2015-06-21T13:45:17Z</time>
      </trkpt>
      <trkpt lat="43.8565" lon="5.60125">
        <ele>463.4</ele>
        <time>2015-06-21T13:45:24Z</time>
      </trkpt>
      <trkpt lat="43.85643" lon="5.60116">
        <ele>464.7</ele>
        <time>2015-06-21T13:45:30Z</time>
      </trkpt>
      <trkpt lat="43.85634" lon="5.6011">
        <ele>466.2</ele>
        <time>2015-06-21T13:45:36Z</time>
      </trkpt>
      <trkpt lat="43.85626" lon="5.60104">
        <ele>468.1</ele>
        <time>2015-06-21T13:45:43Z</time>
      </trkpt>
      <trkpt lat="43.85613" lon="5.60104">
        <ele>470</ele>
        <time>2015-06-21T13:45:49Z</time>
      </trkpt>
      <trkpt lat="43.85598" lon="5.60107">
        <ele>470.9</ele>
        <time>2015-06-21T13:45:52Z</time>
      </trkpt>
      <trkpt lat="43.85591" lon="5.60097">
        <ele>472.8</ele>
        <time>2015-06-21T13:45:59Z</time>
      </trkpt>
      <trkpt lat="43.85586" lon="5.60087">
        <ele>475</ele>
        <time>2015-06-21T13:46:09Z</time>
      </trkpt>
      <trkpt lat="43.85578" lon="5.60079">
        <ele>476.8</ele>
        <time>2015-06-21T13:46:18Z</time>
      </trkpt>
      <trkpt lat="43.85567" lon="5.60077">
        <ele>477.6</ele>
        <time>2015-06-21T13:46:25Z</time>
      </trkpt>
      <trkpt lat="43.85558" lon="5.60071">
        <ele>478</ele>
        <time>2015-06-21T13:46:31Z</time>
      </trkpt>
      <trkpt lat="43.8555" lon="5.60062">
        <ele>478.7</ele>
        <time>2015-06-21T13:46:38Z</time>
      </trkpt>
      <trkpt lat="43.8554" lon="5.60069">
        <ele>478.8</ele>
        <time>2015-06-21T13:46:40Z</time>
      </trkpt>
      <trkpt lat="43.8553" lon="5.60073">
        <ele>478.9</ele>
        <time>2015-06-21T13:46:42Z</time>
      </trkpt>
      <trkpt lat="43.85497" lon="5.60087">
        <ele>479</ele>
        <time>2015-06-21T13:46:47Z</time>
      </trkpt>
      <trkpt lat="43.85467" lon="5.60112">
        <ele>479.5</ele>
        <time>2015-06-21T13:46:52Z</time>
      </trkpt>
      <trkpt lat="43.85457" lon="5.60114">
        <ele>479.5</ele>
        <time>2015-06-21T13:46:58Z</time>
      </trkpt>
      <trkpt lat="43.8545" lon="5.60106">
        <ele>479.5</ele>
        <time>2015-06-21T13:47:03Z</time>
      </trkpt>
      <trkpt lat="43.85442" lon="5.601">
        <ele>479.4</ele>
        <time>2015-06-21T13:47:10Z</time>
      </trkpt>
      <trkpt lat="43.85437" lon="5.60089">
        <ele>479.4</ele>
        <time>2015-06-21T13:47:17Z</time>
      </trkpt>
      <trkpt lat="43.85431" lon="5.60078">
        <ele>479.6</ele>
        <time>2015-06-21T13:47:23Z</time>
      </trkpt>
      <trkpt lat="43.85425" lon="5.60068">
        <ele>479.8</ele>
        <time>2015-06-21T13:47:28Z</time>
      </trkpt>
      <trkpt lat="43.85419" lon="5.60058">
        <ele>480.1</ele>
        <time>2015-06-21T13:47:33Z</time>
      </trkpt>
      <trkpt lat="43.85412" lon="5.60047">
        <ele>480.5</ele>
        <time>2015-06-21T13:47:39Z</time>
      </trkpt>
      <trkpt lat="43.85406" lon="5.60036">
        <ele>480.7</ele>
        <time>2015-06-21T13:47:44Z</time>
      </trkpt>
      <trkpt lat="43.854" lon="5.60025">
        <ele>481.3</ele>
        <time>2015-06-21T13:47:50Z</time>
      </trkpt>
      <trkpt lat="43.85393" lon="5.60017">
        <ele>481.7</ele>
        <time>2015-06-21T13:47:55Z</time>
      </trkpt>
      <trkpt lat="43.85388" lon="5.60006">
        <ele>482.2</ele>
        <time>2015-06-21T13:48:00Z</time>
      </trkpt>
      <trkpt lat="43.85381" lon="5.59995">
        <ele>483</ele>
        <time>2015-06-21T13:48:07Z</time>
      </trkpt>
      <trkpt lat="43.85375" lon="5.59986">
        <ele>483.6</ele>
        <time>2015-06-21T13:48:11Z</time>
      </trkpt>
      <trkpt lat="43.85366" lon="5.59982">
        <ele>484.1</ele>
        <time>2015-06-21T13:48:16Z</time>
      </trkpt>
      <trkpt lat="43.85358" lon="5.5999">
        <ele>484.9</ele>
        <time>2015-06-21T13:48:24Z</time>
      </trkpt>
      <trkpt lat="43.85352" lon="5.6">
        <ele>485.2</ele>
        <time>2015-06-21T13:48:33Z</time>
      </trkpt>
      <trkpt lat="43.85345" lon="5.6001">
        <ele>487.2</ele>
        <time>2015-06-21T13:48:40Z</time>
      </trkpt>
      <trkpt lat="43.85338" lon="5.60021">
        <ele>488.7</ele>
        <time>2015-06-21T13:48:46Z</time>
      </trkpt>
      <trkpt lat="43.85332" lon="5.60032">
        <ele>489.7</ele>
        <time>2015-06-21T13:48:52Z</time>
      </trkpt>
      <trkpt lat="43.85327" lon="5.60043">
        <ele>490.6</ele>
        <time>2015-06-21T13:48:58Z</time>
      </trkpt>
      <trkpt lat="43.85318" lon="5.6005">
        <ele>491.5</ele>
        <time>2015-06-21T13:49:03Z</time>
      </trkpt>
      <trkpt lat="43.85308" lon="5.60045">
        <ele>492.6</ele>
        <time>2015-06-21T13:49:09Z</time>
      </trkpt>
      <trkpt lat="43.85312" lon="5.60033">
        <ele>494.3</ele>
        <time>2015-06-21T13:49:19Z</time>
      </trkpt>
      <trkpt lat="43.85317" lon="5.60022">
        <ele>495.5</ele>
        <time>2015-06-21T13:49:26Z</time>
      </trkpt>
      <trkpt lat="43.85323" lon="5.60012">
        <ele>496.6</ele>
        <time>2015-06-21T13:49:33Z</time>
      </trkpt>
      <trkpt lat="43.85326" lon="5.59996">
        <ele>497.5</ele>
        <time>2015-06-21T13:49:38Z</time>
      </trkpt>
      <trkpt lat="43.85318" lon="5.5999">
        <ele>501.2</ele>
        <time>2015-06-21T13:50:01Z</time>
      </trkpt>
      <trkpt lat="43.85319" lon="5.59976">
        <ele>503.8</ele>
        <time>2015-06-21T13:50:13Z</time>
      </trkpt>
      <trkpt lat="43.85323" lon="5.59964">
        <ele>505.8</ele>
        <time>2015-06-21T13:50:20Z</time>
      </trkpt>
      <trkpt lat="43.85325" lon="5.59951">
        <ele>507.5</ele>
        <time>2015-06-21T13:50:25Z</time>
      </trkpt>
      <trkpt lat="43.85325" lon="5.59934">
        <ele>510.1</ele>
        <time>2015-06-21T13:50:33Z</time>
      </trkpt>
      <trkpt lat="43.85322" lon="5.59922">
        <ele>511.1</ele>
        <time>2015-06-21T13:50:36Z</time>
      </trkpt>
      <trkpt lat="43.85322" lon="5.59909">
        <ele>512.6</ele>
        <time>2015-06-21T13:50:41Z</time>
      </trkpt>
      <trkpt lat="43.85319" lon="5.59897">
        <ele>514.5</ele>
        <time>2015-06-21T13:50:47Z</time>
      </trkpt>
      <trkpt lat="43.85311" lon="5.59901">
        <ele>518.6</ele>
        <time>2015-06-21T13:51:01Z</time>
      </trkpt>
      <trkpt lat="43.85302" lon="5.59908">
        <ele>520.7</ele>
        <time>2015-06-21T13:51:09Z</time>
      </trkpt>
      <trkpt lat="43.85296" lon="5.59918">
        <ele>522.4</ele>
        <time>2015-06-21T13:51:15Z</time>
      </trkpt>
      <trkpt lat="43.85288" lon="5.59927">
        <ele>524.5</ele>
        <time>2015-06-21T13:51:23Z</time>
      </trkpt>
      <trkpt lat="43.85282" lon="5.59937">
        <ele>526.4</ele>
        <time>2015-06-21T13:51:31Z</time>
      </trkpt>
      <trkpt lat="43.85275" lon="5.59944">
        <ele>528.1</ele>
        <time>2015-06-21T13:51:39Z</time>
      </trkpt>
      <trkpt lat="43.85267" lon="5.59951">
        <ele>529.2</ele>
        <time>2015-06-21T13:51:45Z</time>
      </trkpt>
      <trkpt lat="43.85258" lon="5.59957">
        <ele>530.5</ele>
        <time>2015-06-21T13:51:52Z</time>
      </trkpt>
      <trkpt lat="43.85249" lon="5.5996">
        <ele>531.5</ele>
        <time>2015-06-21T13:51:58Z</time>
      </trkpt>
      <trkpt lat="43.8524" lon="5.59961">
        <ele>532.4</ele>
        <time>2015-06-21T13:52:04Z</time>
      </trkpt>
      <trkpt lat="43.85229" lon="5.5996">
        <ele>533.7</ele>
        <time>2015-06-21T13:52:12Z</time>
      </trkpt>
      <trkpt lat="43.8522" lon="5.59962">
        <ele>534.9</ele>
        <time>2015-06-21T13:52:19Z</time>
      </trkpt>
      <trkpt lat="43.85211" lon="5.5996">
        <ele>535.7</ele>
        <time>2015-06-21T13:52:25Z</time>
      </trkpt>
      <trkpt lat="43.85202" lon="5.59956">
        <ele>536.8</ele>
        <time>2015-06-21T13:52:33Z</time>
      </trkpt>
      <trkpt lat="43.85192" lon="5.59958">
        <ele>537.3</ele>
        <time>2015-06-21T13:52:40Z</time>
      </trkpt>
      <trkpt lat="43.85181" lon="5.59959">
        <ele>537.8</ele>
        <time>2015-06-21T13:52:46Z</time>
      </trkpt>
      <trkpt lat="43.85172" lon="5.59963">
        <ele>538.5</ele>
        <time>2015-06-21T13:52:52Z</time>
      </trkpt>
      <trkpt lat="43.85162" lon="5.59967">
        <ele>539.2</ele>
        <time>2015-06-21T13:52:58Z</time>
      </trkpt>
      <trkpt lat="43.85152" lon="5.59968">
        <ele>540.1</ele>
        <time>2015-06-21T13:53:05Z</time>
      </trkpt>
      <trkpt lat="43.85143" lon="5.59967">
        <ele>540.7</ele>
        <time>2015-06-21T13:53:10Z</time>
      </trkpt>
      <trkpt lat="43.85122" lon="5.59956">
        <ele>558</ele>
        <time>2015-06-21T13:55:10Z</time>
      </trkpt>
      <trkpt lat="43.85111" lon="5.59954">
        <ele>559.7</ele>
        <time>2015-06-21T13:55:18Z</time>
      </trkpt>
      <trkpt lat="43.85103" lon="5.59947">
        <ele>563.8</ele>
        <time>2015-06-21T13:55:28Z</time>
      </trkpt>
      <trkpt lat="43.85097" lon="5.59937">
        <ele>567.5</ele>
        <time>2015-06-21T13:55:35Z</time>
      </trkpt>
      <trkpt lat="43.8509" lon="5.59927">
        <ele>571.9</ele>
        <time>2015-06-21T13:55:43Z</time>
      </trkpt>
      <trkpt lat="43.85082" lon="5.59917">
        <ele>575.7</ele>
        <time>2015-06-21T13:55:50Z</time>
      </trkpt>
      <trkpt lat="43.85076" lon="5.59907">
        <ele>579.4</ele>
        <time>2015-06-21T13:55:56Z</time>
      </trkpt>
      <trkpt lat="43.85075" lon="5.59894">
        <ele>584.9</ele>
        <time>2015-06-21T13:56:05Z</time>
      </trkpt>
      <trkpt lat="43.8507" lon="5.59882">
        <ele>590</ele>
        <time>2015-06-21T13:56:14Z</time>
      </trkpt>
      <trkpt lat="43.85062" lon="5.59877">
        <ele>593.7</ele>
        <time>2015-06-21T13:56:21Z</time>
      </trkpt>
      <trkpt lat="43.85059" lon="5.59864">
        <ele>599.3</ele>
        <time>2015-06-21T13:56:32Z</time>
      </trkpt>
      <trkpt lat="43.85053" lon="5.59853">
        <ele>603.1</ele>
        <time>2015-06-21T13:56:39Z</time>
      </trkpt>
      <trkpt lat="43.85049" lon="5.59842">
        <ele>605.8</ele>
        <time>2015-06-21T13:56:44Z</time>
      </trkpt>
      <trkpt lat="43.85045" lon="5.5983">
        <ele>608.6</ele>
        <time>2015-06-21T13:56:49Z</time>
      </trkpt>
      <trkpt lat="43.85039" lon="5.59818">
        <ele>613.6</ele>
        <time>2015-06-21T13:56:57Z</time>
      </trkpt>
      <trkpt lat="43.85031" lon="5.59813">
        <ele>618.5</ele>
        <time>2015-06-21T13:57:06Z</time>
      </trkpt>
      <trkpt lat="43.85029" lon="5.59799">
        <ele>621.7</ele>
        <time>2015-06-21T13:57:12Z</time>
      </trkpt>
      <trkpt lat="43.85022" lon="5.59789">
        <ele>625.7</ele>
        <time>2015-06-21T13:57:19Z</time>
      </trkpt>
      <trkpt lat="43.85013" lon="5.59783">
        <ele>629.2</ele>
        <time>2015-06-21T13:57:26Z</time>
      </trkpt>
      <trkpt lat="43.8501" lon="5.5977">
        <ele>633</ele>
        <time>2015-06-21T13:57:34Z</time>
      </trkpt>
      <trkpt lat="43.85008" lon="5.59757">
        <ele>637.2</ele>
        <time>2015-06-21T13:57:43Z</time>
      </trkpt>
      <trkpt lat="43.85004" lon="5.59744">
        <ele>639.9</ele>
        <time>2015-06-21T13:57:49Z</time>
      </trkpt>
      <trkpt lat="43.84999" lon="5.59733">
        <ele>643.2</ele>
        <time>2015-06-21T13:57:56Z</time>
      </trkpt>
      <trkpt lat="43.84998" lon="5.5972">
        <ele>647.1</ele>
        <time>2015-06-21T13:58:04Z</time>
      </trkpt>
      <trkpt lat="43.84999" lon="5.59707">
        <ele>663.5</ele>
        <time>2015-06-21T13:58:56Z</time>
      </trkpt>
      <trkpt lat="43.84997" lon="5.59695">
        <ele>665.5</ele>
        <time>2015-06-21T13:59:04Z</time>
      </trkpt>
      <trkpt lat="43.85001" lon="5.59682">
        <ele>669.6</ele>
        <time>2015-06-21T13:59:15Z</time>
      </trkpt>
      <trkpt lat="43.85006" lon="5.5967">
        <ele>671.4</ele>
        <time>2015-06-21T13:59:19Z</time>
      </trkpt>
      <trkpt lat="43.85008" lon="5.59656">
        <ele>676.1</ele>
        <time>2015-06-21T13:59:29Z</time>
      </trkpt>
      <trkpt lat="43.85002" lon="5.59645">
        <ele>679.8</ele>
        <time>2015-06-21T13:59:37Z</time>
      </trkpt>
      <trkpt lat="43.85001" lon="5.59632">
        <ele>683.1</ele>
        <time>2015-06-21T13:59:44Z</time>
      </trkpt>
      <trkpt lat="43.84999" lon="5.59619">
        <ele>686.9</ele>
        <time>2015-06-21T13:59:52Z</time>
      </trkpt>
      <trkpt lat="43.84994" lon="5.59607">
        <ele>689.5</ele>
        <time>2015-06-21T13:59:57Z</time>
      </trkpt>
      <trkpt lat="43.84991" lon="5.59595">
        <ele>692</ele>
        <time>2015-06-21T14:00:02Z</time>
      </trkpt>
      <trkpt lat="43.84988" lon="5.59582">
        <ele>696.7</ele>
        <time>2015-06-21T14:00:11Z</time>
      </trkpt>
      <trkpt lat="43.84991" lon="5.5957">
        <ele>702.2</ele>
        <time>2015-06-21T14:00:22Z</time>
      </trkpt>
      <trkpt lat="43.8499" lon="5.59553">
        <ele>705.9</ele>
        <time>2015-06-21T14:00:30Z</time>
      </trkpt>
      <trkpt lat="43.84991" lon="5.59538">
        <ele>708.6</ele>
        <time>2015-06-21T14:00:36Z</time>
      </trkpt>
      <trkpt lat="43.8499" lon="5.59524">
        <ele>711.8</ele>
        <time>2015-06-21T14:00:43Z</time>
      </trkpt>
      <trkpt lat="43.84987" lon="5.59512">
        <ele>714</ele>
        <time>2015-06-21T14:00:48Z</time>
      </trkpt>
      <trkpt lat="43.84985" lon="5.59497">
        <ele>716.6</ele>
        <time>2015-06-21T14:00:54Z</time>
      </trkpt>
      <trkpt lat="43.84983" lon="5.59485">
        <ele>719.8</ele>
        <time>2015-06-21T14:01:02Z</time>
      </trkpt>
      <trkpt lat="43.84982" lon="5.59471">
        <ele>722.9</ele>
        <time>2015-06-21T14:01:09Z</time>
      </trkpt>
      <trkpt lat="43.84981" lon="5.59458">
        <ele>728.4</ele>
        <time>2015-06-21T14:01:21Z</time>
      </trkpt>
      <trkpt lat="43.8498" lon="5.59445">
        <ele>733.4</ele>
        <time>2015-06-21T14:01:32Z</time>
      </trkpt>
      <trkpt lat="43.84982" lon="5.59431">
        <ele>736</ele>
        <time>2015-06-21T14:01:38Z</time>
      </trkpt>
      <trkpt lat="43.84991" lon="5.59429">
        <ele>759.5</ele>
        <time>2015-06-21T14:03:14Z</time>
      </trkpt>
      <trkpt lat="43.84993" lon="5.59417">
        <ele>762.7</ele>
        <time>2015-06-21T14:03:26Z</time>
      </trkpt>
      <trkpt lat="43.84996" lon="5.59403">
        <ele>766.7</ele>
        <time>2015-06-21T14:03:39Z</time>
      </trkpt>
      <trkpt lat="43.84994" lon="5.59389">
        <ele>769</ele>
        <time>2015-06-21T14:03:46Z</time>
      </trkpt>
      <trkpt lat="43.84992" lon="5.59376">
        <ele>771.2</ele>
        <time>2015-06-21T14:03:52Z</time>
      </trkpt>
      <trkpt lat="43.84992" lon="5.59362">
        <ele>773.8</ele>
        <time>2015-06-21T14:03:59Z</time>
      </trkpt>
      <trkpt lat="43.84993" lon="5.59349">
        <ele>775.9</ele>
        <time>2015-06-21T14:04:05Z</time>
      </trkpt>
      <trkpt lat="43.84992" lon="5.59337">
        <ele>777.8</ele>
        <time>2015-06-21T14:04:10Z</time>
      </trkpt>
      <trkpt lat="43.8499" lon="5.59323">
        <ele>779.1</ele>
        <time>2015-06-21T14:04:14Z</time>
      </trkpt>
      <trkpt lat="43.84989" lon="5.59308">
        <ele>781.5</ele>
        <time>2015-06-21T14:04:19Z</time>
      </trkpt>
      <trkpt lat="43.8499" lon="5.59293">
        <ele>784.2</ele>
        <time>2015-06-21T14:04:25Z</time>
      </trkpt>
      <trkpt lat="43.84992" lon="5.5928">
        <ele>787</ele>
        <time>2015-06-21T14:04:32Z</time>
      </trkpt>
      <trkpt lat="43.84991" lon="5.59266">
        <ele>789.6</ele>
        <time>2015-06-21T14:04:39Z</time>
      </trkpt>
      <trkpt lat="43.84991" lon="5.59253">
        <ele>791.2</ele>
        <time>2015-06-21T14:04:43Z</time>
      </trkpt>
      <trkpt lat="43.84991" lon="5.59239">
        <ele>793.3</ele>
        <time>2015-06-21T14:04:49Z</time>
      </trkpt>
      <trkpt lat="43.84992" lon="5.59227">
        <ele>795.2</ele>
        <time>2015-06-21T14:04:54Z</time>
      </trkpt>
      <trkpt lat="43.84992" lon="5.59212">
        <ele>797.3</ele>
        <time>2015-06-21T14:05:00Z</time>
      </trkpt>
      <trkpt lat="43.84991" lon="5.59197">
        <ele>798.8</ele>
        <time>2015-06-21T14:05:05Z</time>
      </trkpt>
      <trkpt lat="43.85002" lon="5.59187">
        <ele>819.6</ele>
        <time>2015-06-21T14:06:48Z</time>
      </trkpt>
      <trkpt lat="43.85005" lon="5.59171">
        <ele>823.2</ele>
        <time>2015-06-21T14:07:30Z</time>
      </trkpt>
      <trkpt lat="43.85002" lon="5.59158">
        <ele>823.3</ele>
        <time>2015-06-21T14:07:43Z</time>
      </trkpt>
      <trkpt lat="43.84998" lon="5.59145">
        <ele>823.1</ele>
        <time>2015-06-21T14:07:50Z</time>
      </trkpt>
      <trkpt lat="43.84999" lon="5.59132">
        <ele>822.9</ele>
        <time>2015-06-21T14:07:57Z</time>
      </trkpt>
      <trkpt lat="43.85003" lon="5.59121">
        <ele>822.8</ele>
        <time>2015-06-21T14:08:05Z</time>
      </trkpt>
      <trkpt lat="43.84994" lon="5.59095">
        <ele>823</ele>
        <time>2015-06-21T14:10:16Z</time>
      </trkpt>
      <trkpt lat="43.84994" lon="5.59081">
        <ele>823.4</ele>
        <time>2015-06-21T14:12:21Z</time>
      </trkpt>
      <trkpt lat="43.84997" lon="5.59069">
        <ele>823.5</ele>
        <time>2015-06-21T14:12:36Z</time>
      </trkpt>
      <trkpt lat="43.85" lon="5.59056">
        <ele>823.6</ele>
        <time>2015-06-21T14:12:44Z</time>
      </trkpt>
      <trkpt lat="43.85003" lon="5.59043">
        <ele>823.7</ele>
        <time>2015-06-21T14:12:52Z</time>
      </trkpt>
      <trkpt lat="43.85006" lon="5.59031">
        <ele>824</ele>
        <time>2015-06-21T14:13:00Z</time>
      </trkpt>
      <trkpt lat="43.8501" lon="5.59019">
        <ele>824.6</ele>
        <time>2015-06-21T14:13:15Z</time>
      </trkpt>
      <trkpt lat="43.85015" lon="5.59008">
        <ele>825.1</ele>
        <time>2015-06-21T14:13:26Z</time>
      </trkpt>
      <trkpt lat="43.85014" lon="5.58995">
        <ele>825.4</ele>
        <time>2015-06-21T14:13:32Z</time>
      </trkpt>
      <trkpt lat="43.85016" lon="5.58982">
        <ele>826.1</ele>
        <time>2015-06-21T14:13:39Z</time>
      </trkpt>
      <trkpt lat="43.85017" lon="5.58969">
        <ele>826.8</ele>
        <time>2015-06-21T14:13:46Z</time>
      </trkpt>
      <trkpt lat="43.8502" lon="5.58957">
        <ele>827.4</ele>
        <time>2015-06-21T14:13:52Z</time>
      </trkpt>
      <trkpt lat="43.85023" lon="5.58945">
        <ele>827.8</ele>
        <time>2015-06-21T14:13:58Z</time>
      </trkpt>
      <trkpt lat="43.85025" lon="5.58932">
        <ele>828.2</ele>
        <time>2015-06-21T14:14:04Z</time>
      </trkpt>
      <trkpt lat="43.85031" lon="5.58922">
        <ele>828.4</ele>
        <time>2015-06-21T14:14:10Z</time>
      </trkpt>
      <trkpt lat="43.85035" lon="5.58909">
        <ele>828.3</ele>
        <time>2015-06-21T14:14:17Z</time>
      </trkpt>
      <trkpt lat="43.85036" lon="5.58896">
        <ele>828</ele>
        <time>2015-06-21T14:14:23Z</time>
      </trkpt>
      <trkpt lat="43.85038" lon="5.58884">
        <ele>827.5</ele>
        <time>2015-06-21T14:14:30Z</time>
      </trkpt>
      <trkpt lat="43.85043" lon="5.58872">
        <ele>826.6</ele>
        <time>2015-06-21T14:14:39Z</time>
      </trkpt>
      <trkpt lat="43.85046" lon="5.58859">
        <ele>825.5</ele>
        <time>2015-06-21T14:14:47Z</time>
      </trkpt>
      <trkpt lat="43.85048" lon="5.58846">
        <ele>824.5</ele>
        <time>2015-06-21T14:14:54Z</time>
      </trkpt>
      <trkpt lat="43.85054" lon="5.58836">
        <ele>823.4</ele>
        <time>2015-06-21T14:15:02Z</time>
      </trkpt>
      <trkpt lat="43.85058" lon="5.58824">
        <ele>822.5</ele>
        <time>2015-06-21T14:15:08Z</time>
      </trkpt>
      <trkpt lat="43.8506" lon="5.5881">
        <ele>821.3</ele>
        <time>2015-06-21T14:15:15Z</time>
      </trkpt>
      <trkpt lat="43.85062" lon="5.58797">
        <ele>820.5</ele>
        <time>2015-06-21T14:15:21Z</time>
      </trkpt>
      <trkpt lat="43.85067" lon="5.58785">
        <ele>819.6</ele>
        <time>2015-06-21T14:15:27Z</time>
      </trkpt>
      <trkpt lat="43.85071" lon="5.58772">
        <ele>818.3</ele>
        <time>2015-06-21T14:15:34Z</time>
      </trkpt>
      <trkpt lat="43.85075" lon="5.5876">
        <ele>817.3</ele>
        <time>2015-06-21T14:15:39Z</time>
      </trkpt>
      <trkpt lat="43.85078" lon="5.58748">
        <ele>816</ele>
        <time>2015-06-21T14:15:46Z</time>
      </trkpt>
      <trkpt lat="43.85081" lon="5.58734">
        <ele>814.6</ele>
        <time>2015-06-21T14:15:53Z</time>
      </trkpt>
      <trkpt lat="43.85081" lon="5.5872">
        <ele>813.2</ele>
        <time>2015-06-21T14:15:58Z</time>
      </trkpt>
      <trkpt lat="43.85079" lon="5.58707">
        <ele>811.2</ele>
        <time>2015-06-21T14:16:06Z</time>
      </trkpt>
      <trkpt lat="43.85073" lon="5.58695">
        <ele>809</ele>
        <time>2015-06-21T14:16:15Z</time>
      </trkpt>
      <trkpt lat="43.85066" lon="5.58683">
        <ele>807.9</ele>
        <time>2015-06-21T14:16:20Z</time>
      </trkpt>
      <trkpt lat="43.8506" lon="5.58673">
        <ele>806.4</ele>
        <time>2015-06-21T14:16:26Z</time>
      </trkpt>
      <trkpt lat="43.85054" lon="5.58663">
        <ele>804.7</ele>
        <time>2015-06-21T14:16:32Z</time>
      </trkpt>
      <trkpt lat="43.85048" lon="5.58652">
        <ele>803.6</ele>
        <time>2015-06-21T14:16:37Z</time>
      </trkpt>
      <trkpt lat="43.85043" lon="5.5864">
        <ele>802</ele>
        <time>2015-06-21T14:16:44Z</time>
      </trkpt>
      <trkpt lat="43.85038" lon="5.58629">
        <ele>799.5</ele>
        <time>2015-06-21T14:16:53Z</time>
      </trkpt>
      <trkpt lat="43.85042" lon="5.58617">
        <ele>797.2</ele>
        <time>2015-06-21T14:17:02Z</time>
      </trkpt>
      <trkpt lat="43.8505" lon="5.5861">
        <ele>795.6</ele>
        <time>2015-06-21T14:17:08Z</time>
      </trkpt>
      <trkpt lat="43.85055" lon="5.586">
        <ele>793.7</ele>
        <time>2015-06-21T14:17:16Z</time>
      </trkpt>
      <trkpt lat="43.85061" lon="5.58589">
        <ele>791.7</ele>
        <time>2015-06-21T14:17:24Z</time>
      </trkpt>
      <trkpt lat="43.85059" lon="5.58575">
        <ele>790.7</ele>
        <time>2015-06-21T14:17:29Z</time>
      </trkpt>
      <trkpt lat="43.85061" lon="5.58562">
        <ele>789.4</ele>
        <time>2015-06-21T14:17:37Z</time>
      </trkpt>
      <trkpt lat="43.85062" lon="5.58547">
        <ele>788.2</ele>
        <time>2015-06-21T14:17:43Z</time>
      </trkpt>
      <trkpt lat="43.85066" lon="5.58535">
        <ele>786.8</ele>
        <time>2015-06-21T14:17:50Z</time>
      </trkpt>
      <trkpt lat="43.85068" lon="5.58523">
        <ele>785.8</ele>
        <time>2015-06-21T14:17:56Z</time>
      </trkpt>
      <trkpt lat="43.85064" lon="5.5851">
        <ele>785.3</ele>
        <time>2015-06-21T14:18:01Z</time>
      </trkpt>
      <trkpt lat="43.85065" lon="5.58497">
        <ele>784.9</ele>
        <time>2015-06-21T14:18:07Z</time>
      </trkpt>
      <trkpt lat="43.85067" lon="5.58485">
        <ele>784.5</ele>
        <time>2015-06-21T14:18:14Z</time>
      </trkpt>
      <trkpt lat="43.85071" lon="5.58472">
        <ele>784.3</ele>
        <time>2015-06-21T14:18:21Z</time>
      </trkpt>
      <trkpt lat="43.85073" lon="5.58458">
        <ele>783.9</ele>
        <time>2015-06-21T14:18:28Z</time>
      </trkpt>
      <trkpt lat="43.8507" lon="5.58445">
        <ele>783.1</ele>
        <time>2015-06-21T14:18:37Z</time>
      </trkpt>
      <trkpt lat="43.85073" lon="5.58432">
        <ele>782.5</ele>
        <time>2015-06-21T14:18:45Z</time>
      </trkpt>
      <trkpt lat="43.85075" lon="5.58419">
        <ele>781.8</ele>
        <time>2015-06-21T14:18:52Z</time>
      </trkpt>
      <trkpt lat="43.85079" lon="5.58407">
        <ele>781</ele>
        <time>2015-06-21T14:18:58Z</time>
      </trkpt>
      <trkpt lat="43.85084" lon="5.58397">
        <ele>779.8</ele>
        <time>2015-06-21T14:19:06Z</time>
      </trkpt>
      <trkpt lat="43.85085" lon="5.58383">
        <ele>776.8</ele>
        <time>2015-06-21T14:19:22Z</time>
      </trkpt>
      <trkpt lat="43.85091" lon="5.58374">
        <ele>774.5</ele>
        <time>2015-06-21T14:19:33Z</time>
      </trkpt>
      <trkpt lat="43.85094" lon="5.58359">
        <ele>773.6</ele>
        <time>2015-06-21T14:19:38Z</time>
      </trkpt>
      <trkpt lat="43.85098" lon="5.58348">
        <ele>772.3</ele>
        <time>2015-06-21T14:19:46Z</time>
      </trkpt>
      <trkpt lat="43.85097" lon="5.58334">
        <ele>771.1</ele>
        <time>2015-06-21T14:19:55Z</time>
      </trkpt>
      <trkpt lat="43.85097" lon="5.58322">
        <ele>770.2</ele>
        <time>2015-06-21T14:20:04Z</time>
      </trkpt>
      <trkpt lat="43.85106" lon="5.58316">
        <ele>769.6</ele>
        <time>2015-06-21T14:20:12Z</time>
      </trkpt>
      <trkpt lat="43.85112" lon="5.58307">
        <ele>769.3</ele>
        <time>2015-06-21T14:20:18Z</time>
      </trkpt>
      <trkpt lat="43.85119" lon="5.58296">
        <ele>769.1</ele>
        <time>2015-06-21T14:20:24Z</time>
      </trkpt>
      <trkpt lat="43.85123" lon="5.58283">
        <ele>769</ele>
        <time>2015-06-21T14:20:32Z</time>
      </trkpt>
      <trkpt lat="43.85126" lon="5.58272">
        <ele>768.9</ele>
        <time>2015-06-21T14:20:38Z</time>
      </trkpt>
      <trkpt lat="43.85131" lon="5.5826">
        <ele>768.7</ele>
        <time>2015-06-21T14:20:45Z</time>
      </trkpt>
      <trkpt lat="43.85134" lon="5.58246">
        <ele>768.4</ele>
        <time>2015-06-21T14:20:52Z</time>
      </trkpt>
      <trkpt lat="43.85136" lon="5.58234">
        <ele>768</ele>
        <time>2015-06-21T14:20:57Z</time>
      </trkpt>
      <trkpt lat="43.85141" lon="5.58223">
        <ele>767.8</ele>
        <time>2015-06-21T14:21:02Z</time>
      </trkpt>
      <trkpt lat="43.85145" lon="5.58211">
        <ele>767.5</ele>
        <time>2015-06-21T14:21:08Z</time>
      </trkpt>
      <trkpt lat="43.85151" lon="5.58199">
        <ele>766.9</ele>
        <time>2015-06-21T14:21:15Z</time>
      </trkpt>
      <trkpt lat="43.85156" lon="5.58187">
        <ele>766.3</ele>
        <time>2015-06-21T14:21:22Z</time>
      </trkpt>
      <trkpt lat="43.85163" lon="5.58179">
        <ele>764.9</ele>
        <time>2015-06-21T14:21:31Z</time>
      </trkpt>
      <trkpt lat="43.8517" lon="5.58171">
        <ele>762.9</ele>
        <time>2015-06-21T14:21:40Z</time>
      </trkpt>
      <trkpt lat="43.85179" lon="5.58167">
        <ele>761</ele>
        <time>2015-06-21T14:21:47Z</time>
      </trkpt>
      <trkpt lat="43.85188" lon="5.58159">
        <ele>759</ele>
        <time>2015-06-21T14:21:55Z</time>
      </trkpt>
      <trkpt lat="43.85194" lon="5.58149">
        <ele>757.8</ele>
        <time>2015-06-21T14:22:00Z</time>
      </trkpt>
      <trkpt lat="43.85198" lon="5.58135">
        <ele>756.3</ele>
        <time>2015-06-21T14:22:07Z</time>
      </trkpt>
      <trkpt lat="43.85206" lon="5.58126">
        <ele>755</ele>
        <time>2015-06-21T14:22:13Z</time>
      </trkpt>
      <trkpt lat="43.85211" lon="5.58114">
        <ele>754</ele>
        <time>2015-06-21T14:22:18Z</time>
      </trkpt>
      <trkpt lat="43.8522" lon="5.58106">
        <ele>753</ele>
        <time>2015-06-21T14:22:23Z</time>
      </trkpt>
      <trkpt lat="43.8523" lon="5.58101">
        <ele>752.2</ele>
        <time>2015-06-21T14:22:28Z</time>
      </trkpt>
      <trkpt lat="43.8524" lon="5.58097">
        <ele>751.5</ele>
        <time>2015-06-21T14:22:32Z</time>
      </trkpt>
      <trkpt lat="43.8525" lon="5.58095">
        <ele>750.8</ele>
        <time>2015-06-21T14:22:36Z</time>
      </trkpt>
      <trkpt lat="43.85259" lon="5.58089">
        <ele>750.1</ele>
        <time>2015-06-21T14:22:41Z</time>
      </trkpt>
      <trkpt lat="43.85255" lon="5.58074">
        <ele>748.6</ele>
        <time>2015-06-21T14:22:54Z</time>
      </trkpt>
      <trkpt lat="43.85238" lon="5.58053">
        <ele>733</ele>
        <time>2015-06-21T14:25:02Z</time>
      </trkpt>
      <trkpt lat="43.8523" lon="5.58047">
        <ele>730.5</ele>
        <time>2015-06-21T14:25:16Z</time>
      </trkpt>
      <trkpt lat="43.85223" lon="5.58039">
        <ele>727</ele>
        <time>2015-06-21T14:25:29Z</time>
      </trkpt>
      <trkpt lat="43.85214" lon="5.58027">
        <ele>721.8</ele>
        <time>2015-06-21T14:25:48Z</time>
      </trkpt>
      <trkpt lat="43.85208" lon="5.58006">
        <ele>714.1</ele>
        <time>2015-06-21T14:26:12Z</time>
      </trkpt>
      <trkpt lat="43.85202" lon="5.57995">
        <ele>713.4</ele>
        <time>2015-06-21T14:26:14Z</time>
      </trkpt>
      <trkpt lat="43.85197" lon="5.57984">
        <ele>712</ele>
        <time>2015-06-21T14:26:18Z</time>
      </trkpt>
      <trkpt lat="43.8519" lon="5.57975">
        <ele>708.5</ele>
        <time>2015-06-21T14:26:27Z</time>
      </trkpt>
      <trkpt lat="43.85182" lon="5.57967">
        <ele>705.8</ele>
        <time>2015-06-21T14:26:34Z</time>
      </trkpt>
      <trkpt lat="43.85173" lon="5.5796">
        <ele>700.8</ele>
        <time>2015-06-21T14:26:49Z</time>
      </trkpt>
      <trkpt lat="43.85167" lon="5.57951">
        <ele>698.9</ele>
        <time>2015-06-21T14:26:56Z</time>
      </trkpt>
      <trkpt lat="43.85164" lon="5.57939">
        <ele>696.2</ele>
        <time>2015-06-21T14:27:05Z</time>
      </trkpt>
      <trkpt lat="43.85155" lon="5.57935">
        <ele>692.6</ele>
        <time>2015-06-21T14:27:17Z</time>
      </trkpt>
      <trkpt lat="43.85146" lon="5.5793">
        <ele>690.4</ele>
        <time>2015-06-21T14:27:24Z</time>
      </trkpt>
      <trkpt lat="43.85137" lon="5.57927">
        <ele>687.9</ele>
        <time>2015-06-21T14:27:32Z</time>
      </trkpt>
      <trkpt lat="43.85128" lon="5.57928">
        <ele>685.2</ele>
        <time>2015-06-21T14:27:40Z</time>
      </trkpt>
      <trkpt lat="43.8512" lon="5.57936">
        <ele>680.1</ele>
        <time>2015-06-21T14:27:55Z</time>
      </trkpt>
      <trkpt lat="43.85111" lon="5.57942">
        <ele>675.1</ele>
        <time>2015-06-21T14:28:10Z</time>
      </trkpt>
      <trkpt lat="43.85103" lon="5.57945">
        <ele>671.3</ele>
        <time>2015-06-21T14:28:21Z</time>
      </trkpt>
      <trkpt lat="43.85094" lon="5.57942">
        <ele>668.4</ele>
        <time>2015-06-21T14:28:30Z</time>
      </trkpt>
      <trkpt lat="43.85085" lon="5.57938">
        <ele>664.1</ele>
        <time>2015-06-21T14:28:41Z</time>
      </trkpt>
      <trkpt lat="43.85077" lon="5.57933">
        <ele>660.2</ele>
        <time>2015-06-21T14:28:52Z</time>
      </trkpt>
      <trkpt lat="43.85072" lon="5.5792">
        <ele>651</ele>
        <time>2015-06-21T14:29:14Z</time>
      </trkpt>
      <trkpt lat="43.85081" lon="5.57915">
        <ele>648.8</ele>
        <time>2015-06-21T14:29:22Z</time>
      </trkpt>
      <trkpt lat="43.85088" lon="5.57925">
        <ele>647.8</ele>
        <time>2015-06-21T14:29:26Z</time>
      </trkpt>
      <trkpt lat="43.85096" lon="5.57932">
        <ele>647.3</ele>
        <time>2015-06-21T14:29:28Z</time>
      </trkpt>
      <trkpt lat="43.85103" lon="5.57947">
        <ele>646.5</ele>
        <time>2015-06-21T14:29:31Z</time>
      </trkpt>
      <trkpt lat="43.85109" lon="5.5796">
        <ele>646</ele>
        <time>2015-06-21T14:29:33Z</time>
      </trkpt>
      <trkpt lat="43.85116" lon="5.57976">
        <ele>645.4</ele>
        <time>2015-06-21T14:29:35Z</time>
      </trkpt>
      <trkpt lat="43.85128" lon="5.57992">
        <ele>644.9</ele>
        <time>2015-06-21T14:29:37Z</time>
      </trkpt>
      <trkpt lat="43.85138" lon="5.58008">
        <ele>644.4</ele>
        <time>2015-06-21T14:29:39Z</time>
      </trkpt>
      <trkpt lat="43.85144" lon="5.5802">
        <ele>643.3</ele>
        <time>2015-06-21T14:29:44Z</time>
      </trkpt>
      <trkpt lat="43.85133" lon="5.58014">
        <ele>641.7</ele>
        <time>2015-06-21T14:29:50Z</time>
      </trkpt>
      <trkpt lat="43.85124" lon="5.58003">
        <ele>635</ele>
        <time>2015-06-21T14:30:12Z</time>
      </trkpt>
      <trkpt lat="43.85112" lon="5.57994">
        <ele>634.5</ele>
        <time>2015-06-21T14:30:14Z</time>
      </trkpt>
      <trkpt lat="43.85101" lon="5.57981">
        <ele>634</ele>
        <time>2015-06-21T14:30:16Z</time>
      </trkpt>
      <trkpt lat="43.8509" lon="5.57965">
        <ele>633.4</ele>
        <time>2015-06-21T14:30:19Z</time>
      </trkpt>
      <trkpt lat="43.85081" lon="5.57955">
        <ele>633.1</ele>
        <time>2015-06-21T14:30:20Z</time>
      </trkpt>
      <trkpt lat="43.85071" lon="5.57939">
        <ele>632.7</ele>
        <time>2015-06-21T14:30:22Z</time>
      </trkpt>
      <trkpt lat="43.85061" lon="5.57925">
        <ele>632.3</ele>
        <time>2015-06-21T14:30:24Z</time>
      </trkpt>
      <trkpt lat="43.85046" lon="5.57909">
        <ele>631.8</ele>
        <time>2015-06-21T14:30:26Z</time>
      </trkpt>
      <trkpt lat="43.85035" lon="5.57894">
        <ele>631.6</ele>
        <time>2015-06-21T14:30:27Z</time>
      </trkpt>
      <trkpt lat="43.85026" lon="5.5788">
        <ele>631.1</ele>
        <time>2015-06-21T14:30:29Z</time>
      </trkpt>
      <trkpt lat="43.85018" lon="5.57871">
        <ele>630.7</ele>
        <time>2015-06-21T14:30:31Z</time>
      </trkpt>
      <trkpt lat="43.85009" lon="5.5786">
        <ele>630.1</ele>
        <time>2015-06-21T14:30:34Z</time>
      </trkpt>
      <trkpt lat="43.85002" lon="5.57851">
        <ele>629.6</ele>
        <time>2015-06-21T14:30:36Z</time>
      </trkpt>
      <trkpt lat="43.84995" lon="5.57839">
        <ele>628.9</ele>
        <time>2015-06-21T14:30:39Z</time>
      </trkpt>
      <trkpt lat="43.84986" lon="5.57826">
        <ele>628.4</ele>
        <time>2015-06-21T14:30:41Z</time>
      </trkpt>
      <trkpt lat="43.84976" lon="5.57815">
        <ele>627.9</ele>
        <time>2015-06-21T14:30:43Z</time>
      </trkpt>
      <trkpt lat="43.84966" lon="5.57803">
        <ele>627.2</ele>
        <time>2015-06-21T14:30:46Z</time>
      </trkpt>
      <trkpt lat="43.84958" lon="5.57796">
        <ele>626.7</ele>
        <time>2015-06-21T14:30:48Z</time>
      </trkpt>
      <trkpt lat="43.84949" lon="5.57783">
        <ele>626.1</ele>
        <time>2015-06-21T14:30:50Z</time>
      </trkpt>
      <trkpt lat="43.84941" lon="5.57769">
        <ele>625.4</ele>
        <time>2015-06-21T14:30:52Z</time>
      </trkpt>
      <trkpt lat="43.84929" lon="5.5775">
        <ele>624.8</ele>
        <time>2015-06-21T14:30:54Z</time>
      </trkpt>
      <trkpt lat="43.84921" lon="5.5774">
        <ele>624.5</ele>
        <time>2015-06-21T14:30:55Z</time>
      </trkpt>
      <trkpt lat="43.8491" lon="5.57729">
        <ele>624.2</ele>
        <time>2015-06-21T14:30:56Z</time>
      </trkpt>
      <trkpt lat="43.84903" lon="5.5772">
        <ele>623.9</ele>
        <time>2015-06-21T14:30:57Z</time>
      </trkpt>
      <trkpt lat="43.84896" lon="5.57711">
        <ele>623.6</ele>
        <time>2015-06-21T14:30:58Z</time>
      </trkpt>
      <trkpt lat="43.84885" lon="5.57699">
        <ele>623.1</ele>
        <time>2015-06-21T14:31:00Z</time>
      </trkpt>
      <trkpt lat="43.84875" lon="5.57693">
        <ele>622.6</ele>
        <time>2015-06-21T14:31:02Z</time>
      </trkpt>
      <trkpt lat="43.84867" lon="5.57684">
        <ele>621.8</ele>
        <time>2015-06-21T14:31:04Z</time>
      </trkpt>
      <trkpt lat="43.84861" lon="5.57731">
        <ele>620</ele>
        <time>2015-06-21T14:31:10Z</time>
      </trkpt>
      <trkpt lat="43.84842" lon="5.57856">
        <ele>618</ele>
        <time>2015-06-21T14:31:19Z</time>
      </trkpt>
      <trkpt lat="43.84852" lon="5.57865">
        <ele>617.1</ele>
        <time>2015-06-21T14:31:24Z</time>
      </trkpt>
      <trkpt lat="43.84862" lon="5.57862">
        <ele>616.1</ele>
        <time>2015-06-21T14:31:28Z</time>
      </trkpt>
      <trkpt lat="43.8486" lon="5.57849">
        <ele>612.4</ele>
        <time>2015-06-21T14:31:43Z</time>
      </trkpt>
      <trkpt lat="43.84851" lon="5.57845">
        <ele>608.9</ele>
        <time>2015-06-21T14:31:59Z</time>
      </trkpt>
      <trkpt lat="43.84853" lon="5.57831">
        <ele>604.9</ele>
        <time>2015-06-21T14:32:16Z</time>
      </trkpt>
      <trkpt lat="43.84845" lon="5.57834">
        <ele>600.7</ele>
        <time>2015-06-21T14:32:37Z</time>
      </trkpt>
      <trkpt lat="43.84852" lon="5.57804">
        <ele>594</ele>
        <time>2015-06-21T14:33:12Z</time>
      </trkpt>
      <trkpt lat="43.84843" lon="5.57796">
        <ele>591.7</ele>
        <time>2015-06-21T14:33:33Z</time>
      </trkpt>
      <trkpt lat="43.84836" lon="5.57785">
        <ele>589</ele>
        <time>2015-06-21T14:33:55Z</time>
      </trkpt>
      <trkpt lat="43.84826" lon="5.5778">
        <ele>588.3</ele>
        <time>2015-06-21T14:34:01Z</time>
      </trkpt>
      <trkpt lat="43.84815" lon="5.57782">
        <ele>588</ele>
        <time>2015-06-21T14:34:03Z</time>
      </trkpt>
      <trkpt lat="43.84806" lon="5.57776">
        <ele>586.9</ele>
        <time>2015-06-21T14:34:08Z</time>
      </trkpt>
      <trkpt lat="43.848" lon="5.57766">
        <ele>585.4</ele>
        <time>2015-06-21T14:34:16Z</time>
      </trkpt>
      <trkpt lat="43.8479" lon="5.5776">
        <ele>583.3</ele>
        <time>2015-06-21T14:34:27Z</time>
      </trkpt>
      <trkpt lat="43.84782" lon="5.57754">
        <ele>580.9</ele>
        <time>2015-06-21T14:34:37Z</time>
      </trkpt>
      <trkpt lat="43.84775" lon="5.57747">
        <ele>579</ele>
        <time>2015-06-21T14:34:44Z</time>
      </trkpt>
      <trkpt lat="43.84766" lon="5.57742">
        <ele>576.6</ele>
        <time>2015-06-21T14:34:54Z</time>
      </trkpt>
      <trkpt lat="43.84758" lon="5.5773">
        <ele>575.6</ele>
        <time>2015-06-21T14:34:59Z</time>
      </trkpt>
      <trkpt lat="43.8475" lon="5.57722">
        <ele>574</ele>
        <time>2015-06-21T14:35:06Z</time>
      </trkpt>
      <trkpt lat="43.84745" lon="5.57712">
        <ele>571.7</ele>
        <time>2015-06-21T14:35:15Z</time>
      </trkpt>
      <trkpt lat="43.84738" lon="5.57702">
        <ele>569.9</ele>
        <time>2015-06-21T14:35:21Z</time>
      </trkpt>
      <trkpt lat="43.84731" lon="5.57694">
        <ele>568.6</ele>
        <time>2015-06-21T14:35:26Z</time>
      </trkpt>
      <trkpt lat="43.84725" lon="5.57683">
        <ele>566.3</ele>
        <time>2015-06-21T14:35:35Z</time>
      </trkpt>
      <trkpt lat="43.84717" lon="5.57677">
        <ele>564.6</ele>
        <time>2015-06-21T14:35:42Z</time>
      </trkpt>
      <trkpt lat="43.84709" lon="5.57669">
        <ele>560</ele>
        <time>2015-06-21T14:36:06Z</time>
      </trkpt>
      <trkpt lat="43.84704" lon="5.57658">
        <ele>557.9</ele>
        <time>2015-06-21T14:36:17Z</time>
      </trkpt>
      <trkpt lat="43.84694" lon="5.57652">
        <ele>555.4</ele>
        <time>2015-06-21T14:36:29Z</time>
      </trkpt>
      <trkpt lat="43.84686" lon="5.57645">
        <ele>553.6</ele>
        <time>2015-06-21T14:36:37Z</time>
      </trkpt>
      <trkpt lat="43.84678" lon="5.57636">
        <ele>551.9</ele>
        <time>2015-06-21T14:36:44Z</time>
      </trkpt>
      <trkpt lat="43.84674" lon="5.57624">
        <ele>550.5</ele>
        <time>2015-06-21T14:36:49Z</time>
      </trkpt>
      <trkpt lat="43.84666" lon="5.57616">
        <ele>549</ele>
        <time>2015-06-21T14:36:55Z</time>
      </trkpt>
      <trkpt lat="43.84657" lon="5.57609">
        <ele>547</ele>
        <time>2015-06-21T14:37:03Z</time>
      </trkpt>
      <trkpt lat="43.84649" lon="5.57601">
        <ele>545.2</ele>
        <time>2015-06-21T14:37:12Z</time>
      </trkpt>
      <trkpt lat="43.84641" lon="5.57593">
        <ele>544</ele>
        <time>2015-06-21T14:37:19Z</time>
      </trkpt>
      <trkpt lat="43.84634" lon="5.57584">
        <ele>542.8</ele>
        <time>2015-06-21T14:37:26Z</time>
      </trkpt>
      <trkpt lat="43.84626" lon="5.57576">
        <ele>541.9</ele>
        <time>2015-06-21T14:37:32Z</time>
      </trkpt>
      <trkpt lat="43.84619" lon="5.57568">
        <ele>541.4</ele>
        <time>2015-06-21T14:37:38Z</time>
      </trkpt>
      <trkpt lat="43.84611" lon="5.57558">
        <ele>540.9</ele>
        <time>2015-06-21T14:37:44Z</time>
      </trkpt>
      <trkpt lat="43.84603" lon="5.57551">
        <ele>540.4</ele>
        <time>2015-06-21T14:37:51Z</time>
      </trkpt>
      <trkpt lat="43.84594" lon="5.57544">
        <ele>540</ele>
        <time>2015-06-21T14:37:58Z</time>
      </trkpt>
      <trkpt lat="43.84586" lon="5.57536">
        <ele>539.8</ele>
        <time>2015-06-21T14:38:05Z</time>
      </trkpt>
      <trkpt lat="43.84577" lon="5.5753">
        <ele>539.8</ele>
        <time>2015-06-21T14:38:11Z</time>
      </trkpt>
      <trkpt lat="43.84568" lon="5.57525">
        <ele>539.8</ele>
        <time>2015-06-21T14:38:17Z</time>
      </trkpt>
      <trkpt lat="43.8456" lon="5.57518">
        <ele>539.7</ele>
        <time>2015-06-21T14:38:26Z</time>
      </trkpt>
      <trkpt lat="43.8455" lon="5.57513">
        <ele>539.6</ele>
        <time>2015-06-21T14:38:34Z</time>
      </trkpt>
      <trkpt lat="43.84541" lon="5.57508">
        <ele>539.5</ele>
        <time>2015-06-21T14:38:42Z</time>
      </trkpt>
      <trkpt lat="43.84532" lon="5.57501">
        <ele>539.3</ele>
        <time>2015-06-21T14:38:53Z</time>
      </trkpt>
      <trkpt lat="43.84524" lon="5.57494">
        <ele>539.1</ele>
        <time>2015-06-21T14:39:01Z</time>
      </trkpt>
      <trkpt lat="43.84517" lon="5.57486">
        <ele>538.9</ele>
        <time>2015-06-21T14:39:09Z</time>
      </trkpt>
      <trkpt lat="43.8451" lon="5.57477">
        <ele>538.9</ele>
        <time>2015-06-21T14:39:17Z</time>
      </trkpt>
      <trkpt lat="43.84503" lon="5.5747">
        <ele>538.7</ele>
        <time>2015-06-21T14:39:25Z</time>
      </trkpt>
      <trkpt lat="43.84494" lon="5.57464">
        <ele>538.3</ele>
        <time>2015-06-21T14:39:32Z</time>
      </trkpt>
      <trkpt lat="43.84486" lon="5.57456">
        <ele>537.8</ele>
        <time>2015-06-21T14:39:40Z</time>
      </trkpt>
      <trkpt lat="43.84479" lon="5.57445">
        <ele>537.4</ele>
        <time>2015-06-21T14:39:46Z</time>
      </trkpt>
      <trkpt lat="43.84477" lon="5.57431">
        <ele>536.8</ele>
        <time>2015-06-21T14:39:53Z</time>
      </trkpt>
      <trkpt lat="43.84473" lon="5.57418">
        <ele>536.4</ele>
        <time>2015-06-21T14:39:57Z</time>
      </trkpt>
      <trkpt lat="43.84472" lon="5.57406">
        <ele>535.8</ele>
        <time>2015-06-21T14:40:07Z</time>
      </trkpt>
      <trkpt lat="43.8447" lon="5.57393">
        <ele>534.9</ele>
        <time>2015-06-21T14:40:17Z</time>
      </trkpt>
      <trkpt lat="43.84467" lon="5.57379">
        <ele>534.1</ele>
        <time>2015-06-21T14:40:23Z</time>
      </trkpt>
      <trkpt lat="43.84463" lon="5.57368">
        <ele>533.5</ele>
        <time>2015-06-21T14:40:27Z</time>
      </trkpt>
      <trkpt lat="43.84468" lon="5.57356">
        <ele>532.2</ele>
        <time>2015-06-21T14:40:34Z</time>
      </trkpt>
      <trkpt lat="43.84468" lon="5.57343">
        <ele>531.3</ele>
        <time>2015-06-21T14:40:39Z</time>
      </trkpt>
      <trkpt lat="43.8447" lon="5.5733">
        <ele>530.5</ele>
        <time>2015-06-21T14:40:44Z</time>
      </trkpt>
      <trkpt lat="43.84476" lon="5.57316">
        <ele>529.5</ele>
        <time>2015-06-21T14:40:49Z</time>
      </trkpt>
      <trkpt lat="43.84484" lon="5.57308">
        <ele>527.7</ele>
        <time>2015-06-21T14:40:57Z</time>
      </trkpt>
      <trkpt lat="43.84494" lon="5.57301">
        <ele>525.9</ele>
        <time>2015-06-21T14:41:06Z</time>
      </trkpt>
      <trkpt lat="43.84502" lon="5.57293">
        <ele>525</ele>
        <time>2015-06-21T14:41:11Z</time>
      </trkpt>
      <trkpt lat="43.84511" lon="5.57287">
        <ele>523.7</ele>
        <time>2015-06-21T14:41:18Z</time>
      </trkpt>
      <trkpt lat="43.8452" lon="5.57283">
        <ele>522.6</ele>
        <time>2015-06-21T14:41:25Z</time>
      </trkpt>
      <trkpt lat="43.84527" lon="5.57274">
        <ele>521.5</ele>
        <time>2015-06-21T14:41:31Z</time>
      </trkpt>
      <trkpt lat="43.84534" lon="5.57266">
        <ele>520.4</ele>
        <time>2015-06-21T14:41:37Z</time>
      </trkpt>
      <trkpt lat="43.84543" lon="5.57258">
        <ele>519.2</ele>
        <time>2015-06-21T14:41:44Z</time>
      </trkpt>
      <trkpt lat="43.84551" lon="5.57249">
        <ele>518.2</ele>
        <time>2015-06-21T14:41:50Z</time>
      </trkpt>
      <trkpt lat="43.84556" lon="5.57236">
        <ele>516.8</ele>
        <time>2015-06-21T14:41:58Z</time>
      </trkpt>
      <trkpt lat="43.84562" lon="5.57226">
        <ele>515.4</ele>
        <time>2015-06-21T14:42:04Z</time>
      </trkpt>
      <trkpt lat="43.84568" lon="5.57216">
        <ele>514.2</ele>
        <time>2015-06-21T14:42:09Z</time>
      </trkpt>
      <trkpt lat="43.84573" lon="5.57206">
        <ele>513.6</ele>
        <time>2015-06-21T14:42:12Z</time>
      </trkpt>
      <trkpt lat="43.84597" lon="5.57162">
        <ele>512</ele>
        <time>2015-06-21T14:42:17Z</time>
      </trkpt>
      <trkpt lat="43.846" lon="5.57147">
        <ele>510.6</ele>
        <time>2015-06-21T14:42:27Z</time>
      </trkpt>
      <trkpt lat="43.84605" lon="5.57133">
        <ele>509.8</ele>
        <time>2015-06-21T14:42:31Z</time>
      </trkpt>
      <trkpt lat="43.8461" lon="5.57121">
        <ele>508.9</ele>
        <time>2015-06-21T14:42:35Z</time>
      </trkpt>
      <trkpt lat="43.84615" lon="5.5711">
        <ele>508.1</ele>
        <time>2015-06-21T14:42:39Z</time>
      </trkpt>
      <trkpt lat="43.84621" lon="5.57095">
        <ele>507.8</ele>
        <time>2015-06-21T14:42:41Z</time>
      </trkpt>
      <trkpt lat="43.84672" lon="5.57018">
        <ele>506</ele>
        <time>2015-06-21T14:42:46Z</time>
      </trkpt>
      <trkpt lat="43.84715" lon="5.57">
        <ele>505.9</ele>
        <time>2015-06-21T14:42:51Z</time>
      </trkpt>
      <trkpt lat="43.84726" lon="5.57002">
        <ele>505.5</ele>
        <time>2015-06-21T14:42:53Z</time>
      </trkpt>
      <trkpt lat="43.84737" lon="5.57">
        <ele>504.5</ele>
        <time>2015-06-21T14:42:57Z</time>
      </trkpt>
      <trkpt lat="43.84746" lon="5.57001">
        <ele>504</ele>
        <time>2015-06-21T14:42:59Z</time>
      </trkpt>
      <trkpt lat="43.84756" lon="5.56998">
        <ele>503.1</ele>
        <time>2015-06-21T14:43:03Z</time>
      </trkpt>
      <trkpt lat="43.84766" lon="5.56998">
        <ele>501.7</ele>
        <time>2015-06-21T14:43:10Z</time>
      </trkpt>
      <trkpt lat="43.84775" lon="5.56993">
        <ele>500.8</ele>
        <time>2015-06-21T14:43:15Z</time>
      </trkpt>
      <trkpt lat="43.84783" lon="5.56987">
        <ele>499.8</ele>
        <time>2015-06-21T14:43:20Z</time>
      </trkpt>
      <trkpt lat="43.84787" lon="5.56976">
        <ele>498.7</ele>
        <time>2015-06-21T14:43:26Z</time>
      </trkpt>
      <trkpt lat="43.84792" lon="5.56964">
        <ele>497.9</ele>
        <time>2015-06-21T14:43:31Z</time>
      </trkpt>
      <trkpt lat="43.84797" lon="5.56954">
        <ele>497.2</ele>
        <time>2015-06-21T14:43:36Z</time>
      </trkpt>
      <trkpt lat="43.84803" lon="5.56942">
        <ele>496.5</ele>
        <time>2015-06-21T14:43:41Z</time>
      </trkpt>
      <trkpt lat="43.84811" lon="5.56937">
        <ele>495.6</ele>
        <time>2015-06-21T14:43:47Z</time>
      </trkpt>
      <trkpt lat="43.84816" lon="5.56926">
        <ele>494.4</ele>
        <time>2015-06-21T14:43:54Z</time>
      </trkpt>
      <trkpt lat="43.84822" lon="5.56917">
        <ele>493</ele>
        <time>2015-06-21T14:44:01Z</time>
      </trkpt>
      <trkpt lat="43.84828" lon="5.56905">
        <ele>491.6</ele>
        <time>2015-06-21T14:44:09Z</time>
      </trkpt>
      <trkpt lat="43.84817" lon="5.56888">
        <ele>489.7</ele>
        <time>2015-06-21T14:44:21Z</time>
      </trkpt>
      <trkpt lat="43.8481" lon="5.5688">
        <ele>489.5</ele>
        <time>2015-06-21T14:44:22Z</time>
      </trkpt>
      <trkpt lat="43.84798" lon="5.56869">
        <ele>489</ele>
        <time>2015-06-21T14:44:25Z</time>
      </trkpt>
      <trkpt lat="43.84789" lon="5.56861">
        <ele>487.3</ele>
        <time>2015-06-21T14:44:34Z</time>
      </trkpt>
      <trkpt lat="43.84754" lon="5.56844">
        <ele>486</ele>
        <time>2015-06-21T14:44:39Z</time>
      </trkpt>
      <trkpt lat="43.84724" lon="5.56819">
        <ele>484.6</ele>
        <time>2015-06-21T14:44:44Z</time>
      </trkpt>
      <trkpt lat="43.84712" lon="5.56807">
        <ele>484</ele>
        <time>2015-06-21T14:44:46Z</time>
      </trkpt>
      <trkpt lat="43.84703" lon="5.56798">
        <ele>483.2</ele>
        <time>2015-06-21T14:44:49Z</time>
      </trkpt>
      <trkpt lat="43.84694" lon="5.56788">
        <ele>482.6</ele>
        <time>2015-06-21T14:44:51Z</time>
      </trkpt>
      <trkpt lat="43.84688" lon="5.56777">
        <ele>481.5</ele>
        <time>2015-06-21T14:44:55Z</time>
      </trkpt>
      <trkpt lat="43.84689" lon="5.56764">
        <ele>479.6</ele>
        <time>2015-06-21T14:45:02Z</time>
      </trkpt>
      <trkpt lat="43.84691" lon="5.56751">
        <ele>478.4</ele>
        <time>2015-06-21T14:45:07Z</time>
      </trkpt>
      <trkpt lat="43.84694" lon="5.56738">
        <ele>476.3</ele>
        <time>2015-06-21T14:45:16Z</time>
      </trkpt>
      <trkpt lat="43.847" lon="5.56726">
        <ele>474.5</ele>
        <time>2015-06-21T14:45:23Z</time>
      </trkpt>
      <trkpt lat="43.84702" lon="5.56711">
        <ele>473</ele>
        <time>2015-06-21T14:45:30Z</time>
      </trkpt>
      <trkpt lat="43.84709" lon="5.56699">
        <ele>472</ele>
        <time>2015-06-21T14:45:36Z</time>
      </trkpt>
      <trkpt lat="43.84715" lon="5.56689">
        <ele>471</ele>
        <time>2015-06-21T14:45:42Z</time>
      </trkpt>
      <trkpt lat="43.84719" lon="5.56677">
        <ele>470</ele>
        <time>2015-06-21T14:45:49Z</time>
      </trkpt>
      <trkpt lat="43.84724" lon="5.56666">
        <ele>468.8</ele>
        <time>2015-06-21T14:45:57Z</time>
      </trkpt>
      <trkpt lat="43.84726" lon="5.56653">
        <ele>467.9</ele>
        <time>2015-06-21T14:46:03Z</time>
      </trkpt>
      <trkpt lat="43.84726" lon="5.56638">
        <ele>467.1</ele>
        <time>2015-06-21T14:46:09Z</time>
      </trkpt>
      <trkpt lat="43.84728" lon="5.56625">
        <ele>466.4</ele>
        <time>2015-06-21T14:46:14Z</time>
      </trkpt>
      <trkpt lat="43.84735" lon="5.56614">
        <ele>465.9</ele>
        <time>2015-06-21T14:46:18Z</time>
      </trkpt>
      <trkpt lat="43.84735" lon="5.56599">
        <ele>465.2</ele>
        <time>2015-06-21T14:46:23Z</time>
      </trkpt>
      <trkpt lat="43.84742" lon="5.56591">
        <ele>464.6</ele>
        <time>2015-06-21T14:46:27Z</time>
      </trkpt>
      <trkpt lat="43.84746" lon="5.56578">
        <ele>463.9</ele>
        <time>2015-06-21T14:46:32Z</time>
      </trkpt>
      <trkpt lat="43.84753" lon="5.56569">
        <ele>463.1</ele>
        <time>2015-06-21T14:46:38Z</time>
      </trkpt>
      <trkpt lat="43.84753" lon="5.56556">
        <ele>462.3</ele>
        <time>2015-06-21T14:46:44Z</time>
      </trkpt>
      <trkpt lat="43.84747" lon="5.56546">
        <ele>461.7</ele>
        <time>2015-06-21T14:46:48Z</time>
      </trkpt>
      <trkpt lat="43.8475" lon="5.56534">
        <ele>460.6</ele>
        <time>2015-06-21T14:46:55Z</time>
      </trkpt>
      <trkpt lat="43.84749" lon="5.56519">
        <ele>459.1</ele>
        <time>2015-06-21T14:47:02Z</time>
      </trkpt>
      <trkpt lat="43.84751" lon="5.56506">
        <ele>457.9</ele>
        <time>2015-06-21T14:47:06Z</time>
      </trkpt>
      <trkpt lat="43.84749" lon="5.56493">
        <ele>456.7</ele>
        <time>2015-06-21T14:47:11Z</time>
      </trkpt>
      <trkpt lat="43.84756" lon="5.56485">
        <ele>455.8</ele>
        <time>2015-06-21T14:47:15Z</time>
      </trkpt>
      <trkpt lat="43.84761" lon="5.56474">
        <ele>455.3</ele>
        <time>2015-06-21T14:47:19Z</time>
      </trkpt>
      <trkpt lat="43.84767" lon="5.56465">
        <ele>454.4</ele>
        <time>2015-06-21T14:47:25Z</time>
      </trkpt>
      <trkpt lat="43.84774" lon="5.56454">
        <ele>453.6</ele>
        <time>2015-06-21T14:47:31Z</time>
      </trkpt>
      <trkpt lat="43.84779" lon="5.56441">
        <ele>452.7</ele>
        <time>2015-06-21T14:47:38Z</time>
      </trkpt>
      <trkpt lat="43.84785" lon="5.5643">
        <ele>452.1</ele>
        <time>2015-06-21T14:47:43Z</time>
      </trkpt>
      <trkpt lat="43.84787" lon="5.56418">
        <ele>451.5</ele>
        <time>2015-06-21T14:47:48Z</time>
      </trkpt>
      <trkpt lat="43.84795" lon="5.56406">
        <ele>450.9</ele>
        <time>2015-06-21T14:47:52Z</time>
      </trkpt>
      <trkpt lat="43.84803" lon="5.56398">
        <ele>450.2</ele>
        <time>2015-06-21T14:47:57Z</time>
      </trkpt>
      <trkpt lat="43.84811" lon="5.56389">
        <ele>449.4</ele>
        <time>2015-06-21T14:48:03Z</time>
      </trkpt>
      <trkpt lat="43.84815" lon="5.56378">
        <ele>448.5</ele>
        <time>2015-06-21T14:48:10Z</time>
      </trkpt>
      <trkpt lat="43.8482" lon="5.56366">
        <ele>447.3</ele>
        <time>2015-06-21T14:48:20Z</time>
      </trkpt>
      <trkpt lat="43.8482" lon="5.56353">
        <ele>446.3</ele>
        <time>2015-06-21T14:48:27Z</time>
      </trkpt>
      <trkpt lat="43.84827" lon="5.56342">
        <ele>445.7</ele>
        <time>2015-06-21T14:48:32Z</time>
      </trkpt>
      <trkpt lat="43.84828" lon="5.56329">
        <ele>444.9</ele>
        <time>2015-06-21T14:48:38Z</time>
      </trkpt>
      <trkpt lat="43.84835" lon="5.5632">
        <ele>444.2</ele>
        <time>2015-06-21T14:48:43Z</time>
      </trkpt>
      <trkpt lat="43.8484" lon="5.56307">
        <ele>443.1</ele>
        <time>2015-06-21T14:48:49Z</time>
      </trkpt>
      <trkpt lat="43.84844" lon="5.56296">
        <ele>442.3</ele>
        <time>2015-06-21T14:48:54Z</time>
      </trkpt>
      <trkpt lat="43.84852" lon="5.56288">
        <ele>441.7</ele>
        <time>2015-06-21T14:48:59Z</time>
      </trkpt>
      <trkpt lat="43.8485" lon="5.56273">
        <ele>441</ele>
        <time>2015-06-21T14:49:04Z</time>
      </trkpt>
      <trkpt lat="43.84845" lon="5.5626">
        <ele>439.9</ele>
        <time>2015-06-21T14:49:11Z</time>
      </trkpt>
      <trkpt lat="43.84845" lon="5.56246">
        <ele>438.2</ele>
        <time>2015-06-21T14:49:24Z</time>
      </trkpt>
      <trkpt lat="43.84853" lon="5.56238">
        <ele>437.2</ele>
        <time>2015-06-21T14:49:31Z</time>
      </trkpt>
      <trkpt lat="43.84862" lon="5.56241">
        <ele>435.9</ele>
        <time>2015-06-21T14:49:42Z</time>
      </trkpt>
      <trkpt lat="43.84872" lon="5.56245">
        <ele>434.6</ele>
        <time>2015-06-21T14:49:51Z</time>
      </trkpt>
      <trkpt lat="43.84879" lon="5.56253">
        <ele>434</ele>
        <time>2015-06-21T14:49:55Z</time>
      </trkpt>
      <trkpt lat="43.84887" lon="5.5626">
        <ele>433.2</ele>
        <time>2015-06-21T14:50:01Z</time>
      </trkpt>
      <trkpt lat="43.84893" lon="5.56271">
        <ele>432.2</ele>
        <time>2015-06-21T14:50:09Z</time>
      </trkpt>
      <trkpt lat="43.849" lon="5.5628">
        <ele>431.4</ele>
        <time>2015-06-21T14:50:19Z</time>
      </trkpt>
      <trkpt lat="43.84909" lon="5.56287">
        <ele>431</ele>
        <time>2015-06-21T14:50:27Z</time>
      </trkpt>
      <trkpt lat="43.84916" lon="5.56298">
        <ele>430.4</ele>
        <time>2015-06-21T14:50:34Z</time>
      </trkpt>
      <trkpt lat="43.84921" lon="5.56308">
        <ele>429.5</ele>
        <time>2015-06-21T14:50:46Z</time>
      </trkpt>
      <trkpt lat="43.8493" lon="5.56316">
        <ele>429.5</ele>
        <time>2015-06-21T14:50:53Z</time>
      </trkpt>
      <trkpt lat="43.84938" lon="5.56326">
        <ele>429.4</ele>
        <time>2015-06-21T14:51:00Z</time>
      </trkpt>
      <trkpt lat="43.84947" lon="5.5633">
        <ele>429.4</ele>
        <time>2015-06-21T14:51:06Z</time>
      </trkpt>
      <trkpt lat="43.84957" lon="5.56333">
        <ele>429.6</ele>
        <time>2015-06-21T14:51:14Z</time>
      </trkpt>
      <trkpt lat="43.84967" lon="5.56334">
        <ele>430.5</ele>
        <time>2015-06-21T14:51:21Z</time>
      </trkpt>
      <trkpt lat="43.84977" lon="5.56332">
        <ele>431.2</ele>
        <time>2015-06-21T14:51:28Z</time>
      </trkpt>
      <trkpt lat="43.8498" lon="5.56318">
        <ele>431.6</ele>
        <time>2015-06-21T14:51:33Z</time>
      </trkpt>
      <trkpt lat="43.84991" lon="5.56313">
        <ele>431.8</ele>
        <time>2015-06-21T14:51:37Z</time>
      </trkpt>
      <trkpt lat="43.84998" lon="5.56304">
        <ele>432</ele>
        <time>2015-06-21T14:51:43Z</time>
      </trkpt>
      <trkpt lat="43.85004" lon="5.56294">
        <ele>432.2</ele>
        <time>2015-06-21T14:51:54Z</time>
      </trkpt>
      <trkpt lat="43.85011" lon="5.56284">
        <ele>432.4</ele>
        <time>2015-06-21T14:52:02Z</time>
      </trkpt>
      <trkpt lat="43.85015" lon="5.56271">
        <ele>432.4</ele>
        <time>2015-06-21T14:52:09Z</time>
      </trkpt>
      <trkpt lat="43.85013" lon="5.56258">
        <ele>432.5</ele>
        <time>2015-06-21T14:52:16Z</time>
      </trkpt>
      <trkpt lat="43.85017" lon="5.56245">
        <ele>432.5</ele>
        <time>2015-06-21T14:52:24Z</time>
      </trkpt>
      <trkpt lat="43.85023" lon="5.56234">
        <ele>432.5</ele>
        <time>2015-06-21T14:52:30Z</time>
      </trkpt>
      <trkpt lat="43.85033" lon="5.56224">
        <ele>432.6</ele>
        <time>2015-06-21T14:52:35Z</time>
      </trkpt>
      <trkpt lat="43.85043" lon="5.56218">
        <ele>432.6</ele>
        <time>2015-06-21T14:52:43Z</time>
      </trkpt>
      <trkpt lat="43.85052" lon="5.56211">
        <ele>432.6</ele>
        <time>2015-06-21T14:52:49Z</time>
      </trkpt>
      <trkpt lat="43.85062" lon="5.56209">
        <ele>432.6</ele>
        <time>2015-06-21T14:52:55Z</time>
      </trkpt>
      <trkpt lat="43.85071" lon="5.56207">
        <ele>432.6</ele>
        <time>2015-06-21T14:53:02Z</time>
      </trkpt>
      <trkpt lat="43.85081" lon="5.56206">
        <ele>432.6</ele>
        <time>2015-06-21T14:53:13Z</time>
      </trkpt>
      <trkpt lat="43.85091" lon="5.56199">
        <ele>432.5</ele>
        <time>2015-06-21T14:53:20Z</time>
      </trkpt>
      <trkpt lat="43.851" lon="5.56197">
        <ele>432.4</ele>
        <time>2015-06-21T14:53:24Z</time>
      </trkpt>
      <trkpt lat="43.8511" lon="5.56195">
        <ele>432.2</ele>
        <time>2015-06-21T14:53:30Z</time>
      </trkpt>
      <trkpt lat="43.8512" lon="5.56192">
        <ele>432</ele>
        <time>2015-06-21T14:53:35Z</time>
      </trkpt>
      <trkpt lat="43.85129" lon="5.5619">
        <ele>431.9</ele>
        <time>2015-06-21T14:53:40Z</time>
      </trkpt>
      <trkpt lat="43.85139" lon="5.56189">
        <ele>431.5</ele>
        <time>2015-06-21T14:53:45Z</time>
      </trkpt>
      <trkpt lat="43.85149" lon="5.56189">
        <ele>431.1</ele>
        <time>2015-06-21T14:53:51Z</time>
      </trkpt>
      <trkpt lat="43.85158" lon="5.56184">
        <ele>430.9</ele>
        <time>2015-06-21T14:53:57Z</time>
      </trkpt>
      <trkpt lat="43.85168" lon="5.56183">
        <ele>430.6</ele>
        <time>2015-06-21T14:54:05Z</time>
      </trkpt>
      <trkpt lat="43.85178" lon="5.56183">
        <ele>430.4</ele>
        <time>2015-06-21T14:54:10Z</time>
      </trkpt>
      <trkpt lat="43.85189" lon="5.56183">
        <ele>430.3</ele>
        <time>2015-06-21T14:54:17Z</time>
      </trkpt>
      <trkpt lat="43.85198" lon="5.56184">
        <ele>430.2</ele>
        <time>2015-06-21T14:54:22Z</time>
      </trkpt>
      <trkpt lat="43.85208" lon="5.56184">
        <ele>430.1</ele>
        <time>2015-06-21T14:54:26Z</time>
      </trkpt>
      <trkpt lat="43.85217" lon="5.56184">
        <ele>430</ele>
        <time>2015-06-21T14:54:33Z</time>
      </trkpt>
      <trkpt lat="43.85226" lon="5.56184">
        <ele>430</ele>
        <time>2015-06-21T14:54:38Z</time>
      </trkpt>
      <trkpt lat="43.85236" lon="5.56182">
        <ele>430</ele>
        <time>2015-06-21T14:54:43Z</time>
      </trkpt>
      <trkpt lat="43.85233" lon="5.56168">
        <ele>429.9</ele>
        <time>2015-06-21T14:54:50Z</time>
      </trkpt>
      <trkpt lat="43.85232" lon="5.56156">
        <ele>429.6</ele>
        <time>2015-06-21T14:54:56Z</time>
      </trkpt>
      <trkpt lat="43.85231" lon="5.56143">
        <ele>429.3</ele>
        <time>2015-06-21T14:55:04Z</time>
      </trkpt>
      <trkpt lat="43.85231" lon="5.5613">
        <ele>429</ele>
        <time>2015-06-21T14:55:09Z</time>
      </trkpt>
      <trkpt lat="43.85231" lon="5.56117">
        <ele>428.8</ele>
        <time>2015-06-21T14:55:15Z</time>
      </trkpt>
      <trkpt lat="43.8523" lon="5.56103">
        <ele>428.7</ele>
        <time>2015-06-21T14:55:21Z</time>
      </trkpt>
      <trkpt lat="43.85229" lon="5.56089">
        <ele>428.6</ele>
        <time>2015-06-21T14:55:28Z</time>
      </trkpt>
      <trkpt lat="43.85227" lon="5.56076">
        <ele>428.5</ele>
        <time>2015-06-21T14:55:34Z</time>
      </trkpt>
      <trkpt lat="43.85227" lon="5.56063">
        <ele>428.5</ele>
        <time>2015-06-21T14:55:41Z</time>
      </trkpt>
      <trkpt lat="43.85228" lon="5.5605">
        <ele>428.4</ele>
        <time>2015-06-21T14:55:47Z</time>
      </trkpt>
      <trkpt lat="43.85228" lon="5.56037">
        <ele>428.4</ele>
        <time>2015-06-21T14:55:53Z</time>
      </trkpt>
      <trkpt lat="43.85227" lon="5.56024">
        <ele>428.4</ele>
        <time>2015-06-21T14:55:58Z</time>
      </trkpt>
      <trkpt lat="43.85227" lon="5.56011">
        <ele>428.4</ele>
        <time>2015-06-21T14:56:05Z</time>
      </trkpt>
      <trkpt lat="43.85225" lon="5.55996">
        <ele>428.4</ele>
        <time>2015-06-21T14:56:11Z</time>
      </trkpt>
      <trkpt lat="43.85225" lon="5.55982">
        <ele>428.6</ele>
        <time>2015-06-21T14:56:17Z</time>
      </trkpt>
      <trkpt lat="43.85226" lon="5.55969">
        <ele>428.7</ele>
        <time>2015-06-21T14:56:23Z</time>
      </trkpt>
      <trkpt lat="43.85224" lon="5.55955">
        <ele>428.9</ele>
        <time>2015-06-21T14:56:29Z</time>
      </trkpt>
      <trkpt lat="43.85225" lon="5.55942">
        <ele>429.2</ele>
        <time>2015-06-21T14:56:35Z</time>
      </trkpt>
      <trkpt lat="43.85222" lon="5.55928">
        <ele>429.8</ele>
        <time>2015-06-21T14:56:43Z</time>
      </trkpt>
      <trkpt lat="43.85221" lon="5.55916">
        <ele>430.2</ele>
        <time>2015-06-21T14:56:51Z</time>
      </trkpt>
      <trkpt lat="43.85221" lon="5.55903">
        <ele>430.6</ele>
        <time>2015-06-21T14:57:01Z</time>
      </trkpt>
      <trkpt lat="43.85215" lon="5.55891">
        <ele>430.8</ele>
        <time>2015-06-21T14:57:09Z</time>
      </trkpt>
      <trkpt lat="43.85212" lon="5.55879">
        <ele>430.4</ele>
        <time>2015-06-21T14:57:18Z</time>
      </trkpt>
      <trkpt lat="43.85212" lon="5.55866">
        <ele>430.1</ele>
        <time>2015-06-21T14:57:23Z</time>
      </trkpt>
      <trkpt lat="43.85209" lon="5.55853">
        <ele>429.7</ele>
        <time>2015-06-21T14:57:29Z</time>
      </trkpt>
      <trkpt lat="43.85208" lon="5.55839">
        <ele>429</ele>
        <time>2015-06-21T14:57:36Z</time>
      </trkpt>
      <trkpt lat="43.85208" lon="5.55826">
        <ele>428</ele>
        <time>2015-06-21T14:57:45Z</time>
      </trkpt>
      <trkpt lat="43.85205" lon="5.55814">
        <ele>427.5</ele>
        <time>2015-06-21T14:57:49Z</time>
      </trkpt>
      <trkpt lat="43.85203" lon="5.55801">
        <ele>426.9</ele>
        <time>2015-06-21T14:57:53Z</time>
      </trkpt>
      <trkpt lat="43.85203" lon="5.55788">
        <ele>426.2</ele>
        <time>2015-06-21T14:57:58Z</time>
      </trkpt>
      <trkpt lat="43.85204" lon="5.55774">
        <ele>425.2</ele>
        <time>2015-06-21T14:58:05Z</time>
      </trkpt>
      <trkpt lat="43.85206" lon="5.55761">
        <ele>424.3</ele>
        <time>2015-06-21T14:58:14Z</time>
      </trkpt>
      <trkpt lat="43.85207" lon="5.55748">
        <ele>423.9</ele>
        <time>2015-06-21T14:58:20Z</time>
      </trkpt>
      <trkpt lat="43.85208" lon="5.55734">
        <ele>423.6</ele>
        <time>2015-06-21T14:58:25Z</time>
      </trkpt>
      <trkpt lat="43.85214" lon="5.55722">
        <ele>423.3</ele>
        <time>2015-06-21T14:58:31Z</time>
      </trkpt>
      <trkpt lat="43.8521" lon="5.55708">
        <ele>423</ele>
        <time>2015-06-21T14:58:38Z</time>
      </trkpt>
      <trkpt lat="43.85206" lon="5.55697">
        <ele>422.8</ele>
        <time>2015-06-21T14:58:41Z</time>
      </trkpt>
      <trkpt lat="43.85199" lon="5.5568">
        <ele>422.4</ele>
        <time>2015-06-21T14:58:44Z</time>
      </trkpt>
      <trkpt lat="43.85193" lon="5.55667">
        <ele>422.2</ele>
        <time>2015-06-21T14:58:46Z</time>
      </trkpt>
      <trkpt lat="43.85186" lon="5.55651">
        <ele>422</ele>
        <time>2015-06-21T14:58:48Z</time>
      </trkpt>
      <trkpt lat="43.85178" lon="5.55638">
        <ele>421.9</ele>
        <time>2015-06-21T14:58:50Z</time>
      </trkpt>
      <trkpt lat="43.8517" lon="5.55627">
        <ele>421.7</ele>
        <time>2015-06-21T14:58:52Z</time>
      </trkpt>
      <trkpt lat="43.85164" lon="5.55617">
        <ele>421.5</ele>
        <time>2015-06-21T14:58:54Z</time>
      </trkpt>
      <trkpt lat="43.85155" lon="5.55609">
        <ele>420.9</ele>
        <time>2015-06-21T14:58:57Z</time>
      </trkpt>
      <trkpt lat="43.85147" lon="5.55601">
        <ele>420.1</ele>
        <time>2015-06-21T14:59:03Z</time>
      </trkpt>
      <trkpt lat="43.85137" lon="5.55598">
        <ele>419.5</ele>
        <time>2015-06-21T14:59:09Z</time>
      </trkpt>
      <trkpt lat="43.85131" lon="5.55588">
        <ele>418.7</ele>
        <time>2015-06-21T14:59:17Z</time>
      </trkpt>
      <trkpt lat="43.85128" lon="5.55575">
        <ele>417.3</ele>
        <time>2015-06-21T14:59:32Z</time>
      </trkpt>
      <trkpt lat="43.85121" lon="5.55565">
        <ele>416.8</ele>
        <time>2015-06-21T14:59:37Z</time>
      </trkpt>
      <trkpt lat="43.85117" lon="5.55551">
        <ele>416.2</ele>
        <time>2015-06-21T14:59:45Z</time>
      </trkpt>
      <trkpt lat="43.85114" lon="5.55537">
        <ele>416</ele>
        <time>2015-06-21T14:59:49Z</time>
      </trkpt>
      <trkpt lat="43.85113" lon="5.55524">
        <ele>415.9</ele>
        <time>2015-06-21T14:59:54Z</time>
      </trkpt>
      <trkpt lat="43.85111" lon="5.55511">
        <ele>415.7</ele>
        <time>2015-06-21T14:59:58Z</time>
      </trkpt>
      <trkpt lat="43.85111" lon="5.55497">
        <ele>415.6</ele>
        <time>2015-06-21T15:00:03Z</time>
      </trkpt>
      <trkpt lat="43.85109" lon="5.55483">
        <ele>415.6</ele>
        <time>2015-06-21T15:00:07Z</time>
      </trkpt>
      <trkpt lat="43.85108" lon="5.5547">
        <ele>415.5</ele>
        <time>2015-06-21T15:00:14Z</time>
      </trkpt>
      <trkpt lat="43.85102" lon="5.55457">
        <ele>415.6</ele>
        <time>2015-06-21T15:00:20Z</time>
      </trkpt>
      <trkpt lat="43.85095" lon="5.55447">
        <ele>415.7</ele>
        <time>2015-06-21T15:00:27Z</time>
      </trkpt>
      <trkpt lat="43.85091" lon="5.55435">
        <ele>416.1</ele>
        <time>2015-06-21T15:00:34Z</time>
      </trkpt>
      <trkpt lat="43.85085" lon="5.5542">
        <ele>416.5</ele>
        <time>2015-06-21T15:00:39Z</time>
      </trkpt>
      <trkpt lat="43.85083" lon="5.55407">
        <ele>416.9</ele>
        <time>2015-06-21T15:00:45Z</time>
      </trkpt>
      <trkpt lat="43.85082" lon="5.55394">
        <ele>417.2</ele>
        <time>2015-06-21T15:00:51Z</time>
      </trkpt>
      <trkpt lat="43.85079" lon="5.5538">
        <ele>417.3</ele>
        <time>2015-06-21T15:00:59Z</time>
      </trkpt>
      <trkpt lat="43.85075" lon="5.55368">
        <ele>417.4</ele>
        <time>2015-06-21T15:01:05Z</time>
      </trkpt>
      <trkpt lat="43.85075" lon="5.55355">
        <ele>417.4</ele>
        <time>2015-06-21T15:01:11Z</time>
      </trkpt>
      <trkpt lat="43.85075" lon="5.55341">
        <ele>417.4</ele>
        <time>2015-06-21T15:01:18Z</time>
      </trkpt>
      <trkpt lat="43.85069" lon="5.5533">
        <ele>417.4</ele>
        <time>2015-06-21T15:01:24Z</time>
      </trkpt>
      <trkpt lat="43.85063" lon="5.5532">
        <ele>417.4</ele>
        <time>2015-06-21T15:01:30Z</time>
      </trkpt>
      <trkpt lat="43.85063" lon="5.55307">
        <ele>417.3</ele>
        <time>2015-06-21T15:01:38Z</time>
      </trkpt>
      <trkpt lat="43.85061" lon="5.55294">
        <ele>417.2</ele>
        <time>2015-06-21T15:01:42Z</time>
      </trkpt>
      <trkpt lat="43.85058" lon="5.55281">
        <ele>417.1</ele>
        <time>2015-06-21T15:01:46Z</time>
      </trkpt>
      <trkpt lat="43.85053" lon="5.55269">
        <ele>416.9</ele>
        <time>2015-06-21T15:01:51Z</time>
      </trkpt>
      <trkpt lat="43.85049" lon="5.55256">
        <ele>416.5</ele>
        <time>2015-06-21T15:01:58Z</time>
      </trkpt>
      <trkpt lat="43.85044" lon="5.55247">
        <ele>416.1</ele>
        <time>2015-06-21T15:02:03Z</time>
      </trkpt>
      <trkpt lat="43.85041" lon="5.55234">
        <ele>415.8</ele>
        <time>2015-06-21T15:02:09Z</time>
      </trkpt>
      <trkpt lat="43.85038" lon="5.5522">
        <ele>415.5</ele>
        <time>2015-06-21T15:02:16Z</time>
      </trkpt>
      <trkpt lat="43.85036" lon="5.55207">
        <ele>415.4</ele>
        <time>2015-06-21T15:02:22Z</time>
      </trkpt>
      <trkpt lat="43.85031" lon="5.55197">
        <ele>415.3</ele>
        <time>2015-06-21T15:02:26Z</time>
      </trkpt>
      <trkpt lat="43.85038" lon="5.55189">
        <ele>415.2</ele>
        <time>2015-06-21T15:02:29Z</time>
      </trkpt>
      <trkpt lat="43.85033" lon="5.55177">
        <ele>415.2</ele>
        <time>2015-06-21T15:02:37Z</time>
      </trkpt>
      <trkpt lat="43.85031" lon="5.55164">
        <ele>415.1</ele>
        <time>2015-06-21T15:02:44Z</time>
      </trkpt>
      <trkpt lat="43.85022" lon="5.55154">
        <ele>415.1</ele>
        <time>2015-06-21T15:02:51Z</time>
      </trkpt>
      <trkpt lat="43.85012" lon="5.55153">
        <ele>415</ele>
        <time>2015-06-21T15:02:54Z</time>
      </trkpt>
      <trkpt lat="43.85" lon="5.55157">
        <ele>414.8</ele>
        <time>2015-06-21T15:02:58Z</time>
      </trkpt>
      <trkpt lat="43.84991" lon="5.55162">
        <ele>414.7</ele>
        <time>2015-06-21T15:03:02Z</time>
      </trkpt>
      <trkpt lat="43.84983" lon="5.55166">
        <ele>414.6</ele>
        <time>2015-06-21T15:03:07Z</time>
      </trkpt>
      <trkpt lat="43.84974" lon="5.55171">
        <ele>414.5</ele>
        <time>2015-06-21T15:03:13Z</time>
      </trkpt>
      <trkpt lat="43.84964" lon="5.55168">
        <ele>414.4</ele>
        <time>2015-06-21T15:03:21Z</time>
      </trkpt>
      <trkpt lat="43.84957" lon="5.55155">
        <ele>414.3</ele>
        <time>2015-06-21T15:03:28Z</time>
      </trkpt>
      <trkpt lat="43.84954" lon="5.55144">
        <ele>414.3</ele>
        <time>2015-06-21T15:03:32Z</time>
      </trkpt>
      <trkpt lat="43.84954" lon="5.55131">
        <ele>414.3</ele>
        <time>2015-06-21T15:03:37Z</time>
      </trkpt>
      <trkpt lat="43.84956" lon="5.55116">
        <ele>414.1</ele>
        <time>2015-06-21T15:03:44Z</time>
      </trkpt>
      <trkpt lat="43.84957" lon="5.55102">
        <ele>414.2</ele>
        <time>2015-06-21T15:03:50Z</time>
      </trkpt>
      <trkpt lat="43.84958" lon="5.55088">
        <ele>414.3</ele>
        <time>2015-06-21T15:03:56Z</time>
      </trkpt>
      <trkpt lat="43.84962" lon="5.55076">
        <ele>414.3</ele>
        <time>2015-06-21T15:04:03Z</time>
      </trkpt>
      <trkpt lat="43.84958" lon="5.55062">
        <ele>414.3</ele>
        <time>2015-06-21T15:04:08Z</time>
      </trkpt>
      <trkpt lat="43.84957" lon="5.55047">
        <ele>414.3</ele>
        <time>2015-06-21T15:04:13Z</time>
      </trkpt>
      <trkpt lat="43.84957" lon="5.55029">
        <ele>414.3</ele>
        <time>2015-06-21T15:04:16Z</time>
      </trkpt>
      <trkpt lat="43.84957" lon="5.55013">
        <ele>413.9</ele>
        <time>2015-06-21T15:04:19Z</time>
      </trkpt>
      <trkpt lat="43.84956" lon="5.54998">
        <ele>413.8</ele>
        <time>2015-06-21T15:04:23Z</time>
      </trkpt>
      <trkpt lat="43.8496" lon="5.54985">
        <ele>413.8</ele>
        <time>2015-06-21T15:04:30Z</time>
      </trkpt>
      <trkpt lat="43.84967" lon="5.54976">
        <ele>413.6</ele>
        <time>2015-06-21T15:04:36Z</time>
      </trkpt>
      <trkpt lat="43.84976" lon="5.54969">
        <ele>413.3</ele>
        <time>2015-06-21T15:04:40Z</time>
      </trkpt>
      <trkpt lat="43.84984" lon="5.5496">
        <ele>413.1</ele>
        <time>2015-06-21T15:04:44Z</time>
      </trkpt>
      <trkpt lat="43.84987" lon="5.54946">
        <ele>412.8</ele>
        <time>2015-06-21T15:04:51Z</time>
      </trkpt>
      <trkpt lat="43.84983" lon="5.54934">
        <ele>412.6</ele>
        <time>2015-06-21T15:04:56Z</time>
      </trkpt>
      <trkpt lat="43.8498" lon="5.54921">
        <ele>412.5</ele>
        <time>2015-06-21T15:05:01Z</time>
      </trkpt>
      <trkpt lat="43.84977" lon="5.54908">
        <ele>412.4</ele>
        <time>2015-06-21T15:05:06Z</time>
      </trkpt>
      <trkpt lat="43.84976" lon="5.54893">
        <ele>412.3</ele>
        <time>2015-06-21T15:05:12Z</time>
      </trkpt>
      <trkpt lat="43.84968" lon="5.54885">
        <ele>412.2</ele>
        <time>2015-06-21T15:05:19Z</time>
      </trkpt>
      <trkpt lat="43.84961" lon="5.54875">
        <ele>412.2</ele>
        <time>2015-06-21T15:05:27Z</time>
      </trkpt>
      <trkpt lat="43.84957" lon="5.54864">
        <ele>412.2</ele>
        <time>2015-06-21T15:05:33Z</time>
      </trkpt>
      <trkpt lat="43.84958" lon="5.54851">
        <ele>412</ele>
        <time>2015-06-21T15:05:37Z</time>
      </trkpt>
      <trkpt lat="43.84958" lon="5.54837">
        <ele>411.2</ele>
        <time>2015-06-21T15:05:42Z</time>
      </trkpt>
      <trkpt lat="43.84956" lon="5.54821">
        <ele>410.9</ele>
        <time>2015-06-21T15:05:47Z</time>
      </trkpt>
      <trkpt lat="43.84953" lon="5.54809">
        <ele>410.7</ele>
        <time>2015-06-21T15:05:50Z</time>
      </trkpt>
      <trkpt lat="43.8495" lon="5.54797">
        <ele>410.8</ele>
        <time>2015-06-21T15:05:54Z</time>
      </trkpt>
      <trkpt lat="43.84955" lon="5.54785">
        <ele>411.1</ele>
        <time>2015-06-21T15:06:05Z</time>
      </trkpt>
      <trkpt lat="43.84956" lon="5.54772">
        <ele>411.3</ele>
        <time>2015-06-21T15:06:13Z</time>
      </trkpt>
      <trkpt lat="43.84954" lon="5.5476">
        <ele>411.5</ele>
        <time>2015-06-21T15:06:22Z</time>
      </trkpt>
      <trkpt lat="43.84957" lon="5.54746">
        <ele>411.5</ele>
        <time>2015-06-21T15:06:35Z</time>
      </trkpt>
      <trkpt lat="43.84959" lon="5.54733">
        <ele>411.6</ele>
        <time>2015-06-21T15:06:43Z</time>
      </trkpt>
      <trkpt lat="43.84966" lon="5.54725">
        <ele>412.2</ele>
        <time>2015-06-21T15:06:54Z</time>
      </trkpt>
      <trkpt lat="43.84974" lon="5.54715">
        <ele>412.3</ele>
        <time>2015-06-21T15:07:03Z</time>
      </trkpt>
      <trkpt lat="43.84981" lon="5.54705">
        <ele>412.3</ele>
        <time>2015-06-21T15:07:10Z</time>
      </trkpt>
      <trkpt lat="43.84975" lon="5.54694">
        <ele>412.3</ele>
        <time>2015-06-21T15:07:21Z</time>
      </trkpt>
      <trkpt lat="43.84967" lon="5.54687">
        <ele>412.2</ele>
        <time>2015-06-21T15:07:30Z</time>
      </trkpt>
      <trkpt lat="43.84959" lon="5.54682">
        <ele>412.2</ele>
        <time>2015-06-21T15:07:42Z</time>
      </trkpt>
      <trkpt lat="43.8495" lon="5.54677">
        <ele>412.4</ele>
        <time>2015-06-21T15:07:50Z</time>
      </trkpt>
      <trkpt lat="43.84909" lon="5.54596">
        <ele>412</ele>
        <time>2015-06-21T15:08:00Z</time>
      </trkpt>
      <trkpt lat="43.84887" lon="5.54573">
        <ele>413</ele>
        <time>2015-06-21T15:08:05Z</time>
      </trkpt>
      <trkpt lat="43.84877" lon="5.54577">
        <ele>413.4</ele>
        <time>2015-06-21T15:08:14Z</time>
      </trkpt>
      <trkpt lat="43.84868" lon="5.5458">
        <ele>413.8</ele>
        <time>2015-06-21T15:08:22Z</time>
      </trkpt>
      <trkpt lat="43.84859" lon="5.54574">
        <ele>414.7</ele>
        <time>2015-06-21T15:08:34Z</time>
      </trkpt>
      <trkpt lat="43.84849" lon="5.54569">
        <ele>415.1</ele>
        <time>2015-06-21T15:08:41Z</time>
      </trkpt>
      <trkpt lat="43.84839" lon="5.54564">
        <ele>415.4</ele>
        <time>2015-06-21T15:08:47Z</time>
      </trkpt>
      <trkpt lat="43.8483" lon="5.54559">
        <ele>416.1</ele>
        <time>2015-06-21T15:08:54Z</time>
      </trkpt>
      <trkpt lat="43.84821" lon="5.54553">
        <ele>416.9</ele>
        <time>2015-06-21T15:09:01Z</time>
      </trkpt>
      <trkpt lat="43.84812" lon="5.5455">
        <ele>417.9</ele>
        <time>2015-06-21T15:09:09Z</time>
      </trkpt>
      <trkpt lat="43.84802" lon="5.54548">
        <ele>418.7</ele>
        <time>2015-06-21T15:09:14Z</time>
      </trkpt>
      <trkpt lat="43.84792" lon="5.54552">
        <ele>419.5</ele>
        <time>2015-06-21T15:09:20Z</time>
      </trkpt>
      <trkpt lat="43.84781" lon="5.54553">
        <ele>420.1</ele>
        <time>2015-06-21T15:09:26Z</time>
      </trkpt>
      <trkpt lat="43.84772" lon="5.54554">
        <ele>420.7</ele>
        <time>2015-06-21T15:09:29Z</time>
      </trkpt>
      <trkpt lat="43.84761" lon="5.54553">
        <ele>421.6</ele>
        <time>2015-06-21T15:09:34Z</time>
      </trkpt>
      <trkpt lat="43.84752" lon="5.54552">
        <ele>422.5</ele>
        <time>2015-06-21T15:09:39Z</time>
      </trkpt>
      <trkpt lat="43.84742" lon="5.54548">
        <ele>423.5</ele>
        <time>2015-06-21T15:09:45Z</time>
      </trkpt>
      <trkpt lat="43.84744" lon="5.54533">
        <ele>442.8</ele>
        <time>2015-06-21T15:12:47Z</time>
      </trkpt>
      <trkpt lat="43.84739" lon="5.54522">
        <ele>445.7</ele>
        <time>2015-06-21T15:13:16Z</time>
      </trkpt>
      <trkpt lat="43.84729" lon="5.54521">
        <ele>446.3</ele>
        <time>2015-06-21T15:13:22Z</time>
      </trkpt>
      <trkpt lat="43.8472" lon="5.54522">
        <ele>446.8</ele>
        <time>2015-06-21T15:13:28Z</time>
      </trkpt>
      <trkpt lat="43.84717" lon="5.54536">
        <ele>447.4</ele>
        <time>2015-06-21T15:13:34Z</time>
      </trkpt>
      <trkpt lat="43.84708" lon="5.54528">
        <ele>450.3</ele>
        <time>2015-06-21T15:13:58Z</time>
      </trkpt>
      <trkpt lat="43.84699" lon="5.54527">
        <ele>451.7</ele>
        <time>2015-06-21T15:14:06Z</time>
      </trkpt>
      <trkpt lat="43.84689" lon="5.54523">
        <ele>452.6</ele>
        <time>2015-06-21T15:14:12Z</time>
      </trkpt>
      <trkpt lat="43.84679" lon="5.54522">
        <ele>453.4</ele>
        <time>2015-06-21T15:14:19Z</time>
      </trkpt>
      <trkpt lat="43.8467" lon="5.54517">
        <ele>454.1</ele>
        <time>2015-06-21T15:14:24Z</time>
      </trkpt>
      <trkpt lat="43.8466" lon="5.54513">
        <ele>454.7</ele>
        <time>2015-06-21T15:14:29Z</time>
      </trkpt>
      <trkpt lat="43.8465" lon="5.54512">
        <ele>455.5</ele>
        <time>2015-06-21T15:14:34Z</time>
      </trkpt>
      <trkpt lat="43.84639" lon="5.5451">
        <ele>456.4</ele>
        <time>2015-06-21T15:14:40Z</time>
      </trkpt>
      <trkpt lat="43.84645" lon="5.545">
        <ele>458.4</ele>
        <time>2015-06-21T15:14:54Z</time>
      </trkpt>
      <trkpt lat="43.84654" lon="5.54495">
        <ele>459</ele>
        <time>2015-06-21T15:15:00Z</time>
      </trkpt>
      <trkpt lat="43.84664" lon="5.54495">
        <ele>459.3</ele>
        <time>2015-06-21T15:15:04Z</time>
      </trkpt>
      <trkpt lat="43.84672" lon="5.54491">
        <ele>459.1</ele>
        <time>2015-06-21T15:15:09Z</time>
      </trkpt>
      <trkpt lat="43.84682" lon="5.5449">
        <ele>459.4</ele>
        <time>2015-06-21T15:15:14Z</time>
      </trkpt>
      <trkpt lat="43.84691" lon="5.54485">
        <ele>459.8</ele>
        <time>2015-06-21T15:15:20Z</time>
      </trkpt>
      <trkpt lat="43.84698" lon="5.54476">
        <ele>460.3</ele>
        <time>2015-06-21T15:15:26Z</time>
      </trkpt>
      <trkpt lat="43.84702" lon="5.54463">
        <ele>460.7</ele>
        <time>2015-06-21T15:15:32Z</time>
      </trkpt>
      <trkpt lat="43.84704" lon="5.5445">
        <ele>461</ele>
        <time>2015-06-21T15:15:38Z</time>
      </trkpt>
      <trkpt lat="43.84708" lon="5.54437">
        <ele>461.3</ele>
        <time>2015-06-21T15:15:44Z</time>
      </trkpt>
      <trkpt lat="43.84711" lon="5.54425">
        <ele>461.8</ele>
        <time>2015-06-21T15:15:51Z</time>
      </trkpt>
      <trkpt lat="43.84715" lon="5.54411">
        <ele>462.3</ele>
        <time>2015-06-21T15:15:57Z</time>
      </trkpt>
      <trkpt lat="43.84718" lon="5.54398">
        <ele>463</ele>
        <time>2015-06-21T15:16:03Z</time>
      </trkpt>
      <trkpt lat="43.84721" lon="5.54386">
        <ele>463.7</ele>
        <time>2015-06-21T15:16:09Z</time>
      </trkpt>
      <trkpt lat="43.8472" lon="5.54372">
        <ele>464.4</ele>
        <time>2015-06-21T15:16:17Z</time>
      </trkpt>
      <trkpt lat="43.84723" lon="5.5436">
        <ele>465</ele>
        <time>2015-06-21T15:16:23Z</time>
      </trkpt>
      <trkpt lat="43.84725" lon="5.54346">
        <ele>465.5</ele>
        <time>2015-06-21T15:16:29Z</time>
      </trkpt>
      <trkpt lat="43.84728" lon="5.54334">
        <ele>466</ele>
        <time>2015-06-21T15:16:36Z</time>
      </trkpt>
      <trkpt lat="43.84734" lon="5.54324">
        <ele>465.9</ele>
        <time>2015-06-21T15:16:42Z</time>
      </trkpt>
      <trkpt lat="43.84735" lon="5.54312">
        <ele>466</ele>
        <time>2015-06-21T15:16:45Z</time>
      </trkpt>
      <trkpt lat="43.84741" lon="5.54299">
        <ele>466.2</ele>
        <time>2015-06-21T15:16:51Z</time>
      </trkpt>
      <trkpt lat="43.84744" lon="5.54286">
        <ele>466.7</ele>
        <time>2015-06-21T15:16:56Z</time>
      </trkpt>
      <trkpt lat="43.84747" lon="5.5427">
        <ele>467</ele>
        <time>2015-06-21T15:17:02Z</time>
      </trkpt>
      <trkpt lat="43.84749" lon="5.54257">
        <ele>466.6</ele>
        <time>2015-06-21T15:17:08Z</time>
      </trkpt>
      <trkpt lat="43.84758" lon="5.5426">
        <ele>467.1</ele>
        <time>2015-06-21T15:17:16Z</time>
      </trkpt>
      <trkpt lat="43.8476" lon="5.54276">
        <ele>467.4</ele>
        <time>2015-06-21T15:17:20Z</time>
      </trkpt>
      <trkpt lat="43.84765" lon="5.54295">
        <ele>467.6</ele>
        <time>2015-06-21T15:17:23Z</time>
      </trkpt>
      <trkpt lat="43.84768" lon="5.5431">
        <ele>467.6</ele>
        <time>2015-06-21T15:17:25Z</time>
      </trkpt>
      <trkpt lat="43.84772" lon="5.54324">
        <ele>467.8</ele>
        <time>2015-06-21T15:17:27Z</time>
      </trkpt>
      <trkpt lat="43.84776" lon="5.54338">
        <ele>468</ele>
        <time>2015-06-21T15:17:29Z</time>
      </trkpt>
      <trkpt lat="43.84779" lon="5.54351">
        <ele>468.2</ele>
        <time>2015-06-21T15:17:31Z</time>
      </trkpt>
      <trkpt lat="43.84781" lon="5.54364">
        <ele>468.4</ele>
        <time>2015-06-21T15:17:33Z</time>
      </trkpt>
      <trkpt lat="43.84783" lon="5.54378">
        <ele>468.6</ele>
        <time>2015-06-21T15:17:35Z</time>
      </trkpt>
      <trkpt lat="43.84786" lon="5.54392">
        <ele>468.8</ele>
        <time>2015-06-21T15:17:37Z</time>
      </trkpt>
      <trkpt lat="43.8479" lon="5.54412">
        <ele>469.1</ele>
        <time>2015-06-21T15:17:40Z</time>
      </trkpt>
      <trkpt lat="43.848" lon="5.54412">
        <ele>469.9</ele>
        <time>2015-06-21T15:17:56Z</time>
      </trkpt>
      <trkpt lat="43.84803" lon="5.54232">
        <ele>470</ele>
        <time>2015-06-21T15:18:02Z</time>
      </trkpt>
      <trkpt lat="43.84806" lon="5.54104">
        <ele>470.5</ele>
        <time>2015-06-21T15:18:07Z</time>
      </trkpt>
      <trkpt lat="43.84809" lon="5.54091">
        <ele>470.6</ele>
        <time>2015-06-21T15:18:09Z</time>
      </trkpt>
      <trkpt lat="43.84814" lon="5.54079">
        <ele>470.6</ele>
        <time>2015-06-21T15:18:11Z</time>
      </trkpt>
      <trkpt lat="43.84821" lon="5.54066">
        <ele>470.7</ele>
        <time>2015-06-21T15:18:15Z</time>
      </trkpt>
      <trkpt lat="43.84828" lon="5.54056">
        <ele>470.7</ele>
        <time>2015-06-21T15:18:18Z</time>
      </trkpt>
      <trkpt lat="43.84834" lon="5.54045">
        <ele>470.7</ele>
        <time>2015-06-21T15:18:21Z</time>
      </trkpt>
      <trkpt lat="43.84847" lon="5.54036">
        <ele>470.8</ele>
        <time>2015-06-21T15:18:24Z</time>
      </trkpt>
      <trkpt lat="43.84856" lon="5.54033">
        <ele>470.8</ele>
        <time>2015-06-21T15:18:25Z</time>
      </trkpt>
      <trkpt lat="43.84867" lon="5.54026">
        <ele>470.9</ele>
        <time>2015-06-21T15:18:28Z</time>
      </trkpt>
      <trkpt lat="43.84874" lon="5.54017">
        <ele>471.1</ele>
        <time>2015-06-21T15:18:33Z</time>
      </trkpt>
      <trkpt lat="43.84881" lon="5.54006">
        <ele>471.3</ele>
        <time>2015-06-21T15:18:37Z</time>
      </trkpt>
      <trkpt lat="43.84841" lon="5.53959">
        <ele>471</ele>
        <time>2015-06-21T15:18:45Z</time>
      </trkpt>
      <trkpt lat="43.84826" lon="5.53944">
        <ele>471.1</ele>
        <time>2015-06-21T15:18:50Z</time>
      </trkpt>
      <trkpt lat="43.84818" lon="5.53937">
        <ele>471.1</ele>
        <time>2015-06-21T15:18:56Z</time>
      </trkpt>
      <trkpt lat="43.84812" lon="5.53927">
        <ele>471.3</ele>
        <time>2015-06-21T15:19:20Z</time>
      </trkpt>
      <trkpt lat="43.84813" lon="5.53912">
        <ele>471.2</ele>
        <time>2015-06-21T15:19:26Z</time>
      </trkpt>
      <trkpt lat="43.84817" lon="5.53899">
        <ele>471.2</ele>
        <time>2015-06-21T15:19:31Z</time>
      </trkpt>
      <trkpt lat="43.84813" lon="5.53886">
        <ele>471.4</ele>
        <time>2015-06-21T15:19:39Z</time>
      </trkpt>
      <trkpt lat="43.84819" lon="5.53876">
        <ele>471.8</ele>
        <time>2015-06-21T15:19:46Z</time>
      </trkpt>
      <trkpt lat="43.84827" lon="5.53866">
        <ele>472.1</ele>
        <time>2015-06-21T15:19:51Z</time>
      </trkpt>
      <trkpt lat="43.84829" lon="5.53853">
        <ele>472.4</ele>
        <time>2015-06-21T15:19:55Z</time>
      </trkpt>
      <trkpt lat="43.84833" lon="5.53841">
        <ele>473</ele>
        <time>2015-06-21T15:20:02Z</time>
      </trkpt>
      <trkpt lat="43.84832" lon="5.53829">
        <ele>473.7</ele>
        <time>2015-06-21T15:20:10Z</time>
      </trkpt>
      <trkpt lat="43.84833" lon="5.53815">
        <ele>475</ele>
        <time>2015-06-21T15:20:24Z</time>
      </trkpt>
      <trkpt lat="43.84833" lon="5.53801">
        <ele>475.7</ele>
        <time>2015-06-21T15:20:33Z</time>
      </trkpt>
      <trkpt lat="43.84834" lon="5.53788">
        <ele>476.4</ele>
        <time>2015-06-21T15:20:41Z</time>
      </trkpt>
      <trkpt lat="43.84831" lon="5.53776">
        <ele>477.1</ele>
        <time>2015-06-21T15:20:49Z</time>
      </trkpt>
      <trkpt lat="43.84832" lon="5.53764">
        <ele>477.6</ele>
        <time>2015-06-21T15:20:56Z</time>
      </trkpt>
      <trkpt lat="43.84834" lon="5.5375">
        <ele>478.1</ele>
        <time>2015-06-21T15:21:02Z</time>
      </trkpt>
      <trkpt lat="43.84835" lon="5.53738">
        <ele>478.4</ele>
        <time>2015-06-21T15:21:05Z</time>
      </trkpt>
      <trkpt lat="43.84835" lon="5.53722">
        <ele>478.6</ele>
        <time>2015-06-21T15:21:08Z</time>
      </trkpt>
      <trkpt lat="43.84839" lon="5.53709">
        <ele>479</ele>
        <time>2015-06-21T15:21:15Z</time>
      </trkpt>
      <trkpt lat="43.84839" lon="5.53695">
        <ele>479.1</ele>
        <time>2015-06-21T15:21:20Z</time>
      </trkpt>
      <trkpt lat="43.84839" lon="5.53681">
        <ele>478.9</ele>
        <time>2015-06-21T15:21:25Z</time>
      </trkpt>
      <trkpt lat="43.84843" lon="5.53668">
        <ele>479.1</ele>
        <time>2015-06-21T15:21:31Z</time>
      </trkpt>
      <trkpt lat="43.8485" lon="5.53658">
        <ele>479.2</ele>
        <time>2015-06-21T15:21:37Z</time>
      </trkpt>
      <trkpt lat="43.84858" lon="5.53652">
        <ele>479.3</ele>
        <time>2015-06-21T15:21:42Z</time>
      </trkpt>
      <trkpt lat="43.84866" lon="5.53646">
        <ele>479.4</ele>
        <time>2015-06-21T15:21:48Z</time>
      </trkpt>
      <trkpt lat="43.84876" lon="5.5364">
        <ele>479.5</ele>
        <time>2015-06-21T15:21:54Z</time>
      </trkpt>
      <trkpt lat="43.84885" lon="5.53632">
        <ele>479.6</ele>
        <time>2015-06-21T15:22:00Z</time>
      </trkpt>
      <trkpt lat="43.84891" lon="5.53624">
        <ele>479.7</ele>
        <time>2015-06-21T15:22:06Z</time>
      </trkpt>
      <trkpt lat="43.84899" lon="5.53615">
        <ele>479.9</ele>
        <time>2015-06-21T15:22:11Z</time>
      </trkpt>
      <trkpt lat="43.84907" lon="5.53607">
        <ele>479.8</ele>
        <time>2015-06-21T15:22:17Z</time>
      </trkpt>
      <trkpt lat="43.84915" lon="5.53599">
        <ele>479.9</ele>
        <time>2015-06-21T15:22:25Z</time>
      </trkpt>
      <trkpt lat="43.8492" lon="5.53589">
        <ele>480.3</ele>
        <time>2015-06-21T15:22:34Z</time>
      </trkpt>
      <trkpt lat="43.84925" lon="5.53579">
        <ele>481.6</ele>
        <time>2015-06-21T15:22:52Z</time>
      </trkpt>
      <trkpt lat="43.84932" lon="5.53567">
        <ele>482.5</ele>
        <time>2015-06-21T15:23:03Z</time>
      </trkpt>
      <trkpt lat="43.8493" lon="5.5355">
        <ele>488.6</ele>
        <time>2015-06-21T15:24:23Z</time>
      </trkpt>
      <trkpt lat="43.84929" lon="5.53537">
        <ele>490.1</ele>
        <time>2015-06-21T15:24:37Z</time>
      </trkpt>
      <trkpt lat="43.84929" lon="5.53496">
        <ele>502</ele>
        <time>2015-06-21T15:26:33Z</time>
      </trkpt>
      <trkpt lat="43.8494" lon="5.53498">
        <ele>502.9</ele>
        <time>2015-06-21T15:26:40Z</time>
      </trkpt>
      <trkpt lat="43.84934" lon="5.53489">
        <ele>510.9</ele>
        <time>2015-06-21T15:27:59Z</time>
      </trkpt>
      <trkpt lat="43.84941" lon="5.5348">
        <ele>511.8</ele>
        <time>2015-06-21T15:28:08Z</time>
      </trkpt>
      <trkpt lat="43.84949" lon="5.53473">
        <ele>512.5</ele>
        <time>2015-06-21T15:28:15Z</time>
      </trkpt>
      <trkpt lat="43.84956" lon="5.53463">
        <ele>513.4</ele>
        <time>2015-06-21T15:28:21Z</time>
      </trkpt>
      <trkpt lat="43.84961" lon="5.53451">
        <ele>514</ele>
        <time>2015-06-21T15:28:26Z</time>
      </trkpt>
      <trkpt lat="43.84965" lon="5.53437">
        <ele>515.1</ele>
        <time>2015-06-21T15:28:34Z</time>
      </trkpt>
      <trkpt lat="43.8497" lon="5.53427">
        <ele>515.9</ele>
        <time>2015-06-21T15:28:41Z</time>
      </trkpt>
      <trkpt lat="43.84974" lon="5.53414">
        <ele>516.6</ele>
        <time>2015-06-21T15:28:48Z</time>
      </trkpt>
      <trkpt lat="43.84975" lon="5.534">
        <ele>517</ele>
        <time>2015-06-21T15:28:52Z</time>
      </trkpt>
      <trkpt lat="43.84972" lon="5.53388">
        <ele>517.5</ele>
        <time>2015-06-21T15:28:58Z</time>
      </trkpt>
      <trkpt lat="43.84968" lon="5.53376">
        <ele>518.8</ele>
        <time>2015-06-21T15:29:08Z</time>
      </trkpt>
      <trkpt lat="43.84968" lon="5.53362">
        <ele>519.7</ele>
        <time>2015-06-21T15:29:20Z</time>
      </trkpt>
      <trkpt lat="43.8497" lon="5.53349">
        <ele>520.3</ele>
        <time>2015-06-21T15:29:27Z</time>
      </trkpt>
      <trkpt lat="43.84971" lon="5.53335">
        <ele>520.9</ele>
        <time>2015-06-21T15:29:36Z</time>
      </trkpt>
      <trkpt lat="43.84974" lon="5.53322">
        <ele>521.6</ele>
        <time>2015-06-21T15:29:43Z</time>
      </trkpt>
      <trkpt lat="43.84978" lon="5.53309">
        <ele>522</ele>
        <time>2015-06-21T15:29:50Z</time>
      </trkpt>
      <trkpt lat="43.84981" lon="5.53296">
        <ele>522.6</ele>
        <time>2015-06-21T15:29:57Z</time>
      </trkpt>
      <trkpt lat="43.84986" lon="5.53283">
        <ele>522.8</ele>
        <time>2015-06-21T15:30:02Z</time>
      </trkpt>
      <trkpt lat="43.84991" lon="5.5327">
        <ele>523</ele>
        <time>2015-06-21T15:30:07Z</time>
      </trkpt>
      <trkpt lat="43.84995" lon="5.53257">
        <ele>523.3</ele>
        <time>2015-06-21T15:30:12Z</time>
      </trkpt>
      <trkpt lat="43.84999" lon="5.53246">
        <ele>523.7</ele>
        <time>2015-06-21T15:30:17Z</time>
      </trkpt>
      <trkpt lat="43.85003" lon="5.53233">
        <ele>524.3</ele>
        <time>2015-06-21T15:30:23Z</time>
      </trkpt>
      <trkpt lat="43.85003" lon="5.53219">
        <ele>525.1</ele>
        <time>2015-06-21T15:30:30Z</time>
      </trkpt>
      <trkpt lat="43.8501" lon="5.5321">
        <ele>526.1</ele>
        <time>2015-06-21T15:30:39Z</time>
      </trkpt>
      <trkpt lat="43.85016" lon="5.532">
        <ele>526.7</ele>
        <time>2015-06-21T15:30:46Z</time>
      </trkpt>
      <trkpt lat="43.85023" lon="5.53192">
        <ele>527.3</ele>
        <time>2015-06-21T15:30:53Z</time>
      </trkpt>
      <trkpt lat="43.85027" lon="5.5318">
        <ele>527.8</ele>
        <time>2015-06-21T15:30:59Z</time>
      </trkpt>
      <trkpt lat="43.85034" lon="5.5317">
        <ele>528.1</ele>
        <time>2015-06-21T15:31:05Z</time>
      </trkpt>
      <trkpt lat="43.85042" lon="5.53163">
        <ele>528.6</ele>
        <time>2015-06-21T15:31:10Z</time>
      </trkpt>
      <trkpt lat="43.85043" lon="5.53146">
        <ele>529</ele>
        <time>2015-06-21T15:31:13Z</time>
      </trkpt>
      <trkpt lat="43.85046" lon="5.53134">
        <ele>529.7</ele>
        <time>2015-06-21T15:31:19Z</time>
      </trkpt>
      <trkpt lat="43.85052" lon="5.53122">
        <ele>530.1</ele>
        <time>2015-06-21T15:31:25Z</time>
      </trkpt>
      <trkpt lat="43.85059" lon="5.53114">
        <ele>530.7</ele>
        <time>2015-06-21T15:31:32Z</time>
      </trkpt>
      <trkpt lat="43.85062" lon="5.53102">
        <ele>531.6</ele>
        <time>2015-06-21T15:31:40Z</time>
      </trkpt>
      <trkpt lat="43.85069" lon="5.53095">
        <ele>532.6</ele>
        <time>2015-06-21T15:31:50Z</time>
      </trkpt>
      <trkpt lat="43.85078" lon="5.53089">
        <ele>533.1</ele>
        <time>2015-06-21T15:31:57Z</time>
      </trkpt>
      <trkpt lat="43.85088" lon="5.53086">
        <ele>533.3</ele>
        <time>2015-06-21T15:32:04Z</time>
      </trkpt>
      <trkpt lat="43.85098" lon="5.5308">
        <ele>533.8</ele>
        <time>2015-06-21T15:32:10Z</time>
      </trkpt>
      <trkpt lat="43.85104" lon="5.5307">
        <ele>534.6</ele>
        <time>2015-06-21T15:32:16Z</time>
      </trkpt>
      <trkpt lat="43.85105" lon="5.53057">
        <ele>536.5</ele>
        <time>2015-06-21T15:32:31Z</time>
      </trkpt>
      <trkpt lat="43.85099" lon="5.53043">
        <ele>537.6</ele>
        <time>2015-06-21T15:32:38Z</time>
      </trkpt>
      <trkpt lat="43.85095" lon="5.53031">
        <ele>538.1</ele>
        <time>2015-06-21T15:32:46Z</time>
      </trkpt>
      <trkpt lat="43.85087" lon="5.53022">
        <ele>538.8</ele>
        <time>2015-06-21T15:32:55Z</time>
      </trkpt>
      <trkpt lat="43.85081" lon="5.53013">
        <ele>539.6</ele>
        <time>2015-06-21T15:33:05Z</time>
      </trkpt>
      <trkpt lat="43.85078" lon="5.53001">
        <ele>539.7</ele>
        <time>2015-06-21T15:33:13Z</time>
      </trkpt>
      <trkpt lat="43.8507" lon="5.53006">
        <ele>541.9</ele>
        <time>2015-06-21T15:33:36Z</time>
      </trkpt>
      <trkpt lat="43.85061" lon="5.53009">
        <ele>542.8</ele>
        <time>2015-06-21T15:33:42Z</time>
      </trkpt>
      <trkpt lat="43.8505" lon="5.53008">
        <ele>543.8</ele>
        <time>2015-06-21T15:33:48Z</time>
      </trkpt>
      <trkpt lat="43.85042" lon="5.53002">
        <ele>544.8</ele>
        <time>2015-06-21T15:33:54Z</time>
      </trkpt>
      <trkpt lat="43.85035" lon="5.52994">
        <ele>545.8</ele>
        <time>2015-06-21T15:34:01Z</time>
      </trkpt>
      <trkpt lat="43.85027" lon="5.52987">
        <ele>546.7</ele>
        <time>2015-06-21T15:34:09Z</time>
      </trkpt>
      <trkpt lat="43.85018" lon="5.52981">
        <ele>547.6</ele>
        <time>2015-06-21T15:34:16Z</time>
      </trkpt>
      <trkpt lat="43.85009" lon="5.52975">
        <ele>548.4</ele>
        <time>2015-06-21T15:34:23Z</time>
      </trkpt>
      <trkpt lat="43.85001" lon="5.52967">
        <ele>549</ele>
        <time>2015-06-21T15:34:30Z</time>
      </trkpt>
      <trkpt lat="43.84995" lon="5.52956">
        <ele>549.5</ele>
        <time>2015-06-21T15:34:37Z</time>
      </trkpt>
      <trkpt lat="43.8499" lon="5.52944">
        <ele>550.2</ele>
        <time>2015-06-21T15:34:43Z</time>
      </trkpt>
      <trkpt lat="43.84981" lon="5.52939">
        <ele>551.4</ele>
        <time>2015-06-21T15:34:54Z</time>
      </trkpt>
      <trkpt lat="43.84974" lon="5.5293">
        <ele>552</ele>
        <time>2015-06-21T15:35:01Z</time>
      </trkpt>
      <trkpt lat="43.84967" lon="5.5292">
        <ele>552.5</ele>
        <time>2015-06-21T15:35:07Z</time>
      </trkpt>
      <trkpt lat="43.84963" lon="5.52908">
        <ele>553</ele>
        <time>2015-06-21T15:35:12Z</time>
      </trkpt>
      <trkpt lat="43.84955" lon="5.529">
        <ele>553.5</ele>
        <time>2015-06-21T15:35:17Z</time>
      </trkpt>
      <trkpt lat="43.84945" lon="5.52895">
        <ele>554.1</ele>
        <time>2015-06-21T15:35:23Z</time>
      </trkpt>
      <trkpt lat="43.84938" lon="5.52885">
        <ele>554.8</ele>
        <time>2015-06-21T15:35:30Z</time>
      </trkpt>
      <trkpt lat="43.84935" lon="5.52872">
        <ele>555.6</ele>
        <time>2015-06-21T15:35:37Z</time>
      </trkpt>
      <trkpt lat="43.84942" lon="5.52862">
        <ele>556.4</ele>
        <time>2015-06-21T15:35:45Z</time>
      </trkpt>
      <trkpt lat="43.84948" lon="5.52852">
        <ele>556.6</ele>
        <time>2015-06-21T15:35:50Z</time>
      </trkpt>
      <trkpt lat="43.84948" lon="5.52839">
        <ele>556.1</ele>
        <time>2015-06-21T15:36:01Z</time>
      </trkpt>
      <trkpt lat="43.84944" lon="5.52826">
        <ele>556.3</ele>
        <time>2015-06-21T15:36:09Z</time>
      </trkpt>
      <trkpt lat="43.84948" lon="5.52813">
        <ele>556.8</ele>
        <time>2015-06-21T15:36:15Z</time>
      </trkpt>
      <trkpt lat="43.84955" lon="5.52805">
        <ele>557.2</ele>
        <time>2015-06-21T15:36:19Z</time>
      </trkpt>
      <trkpt lat="43.84961" lon="5.52795">
        <ele>558</ele>
        <time>2015-06-21T15:36:24Z</time>
      </trkpt>
      <trkpt lat="43.84967" lon="5.52784">
        <ele>559.3</ele>
        <time>2015-06-21T15:36:33Z</time>
      </trkpt>
      <trkpt lat="43.8497" lon="5.52771">
        <ele>560.1</ele>
        <time>2015-06-21T15:36:39Z</time>
      </trkpt>
      <trkpt lat="43.84974" lon="5.52758">
        <ele>560.8</ele>
        <time>2015-06-21T15:36:45Z</time>
      </trkpt>
      <trkpt lat="43.84977" lon="5.52744">
        <ele>561.8</ele>
        <time>2015-06-21T15:36:52Z</time>
      </trkpt>
      <trkpt lat="43.84978" lon="5.52731">
        <ele>562.4</ele>
        <time>2015-06-21T15:36:57Z</time>
      </trkpt>
      <trkpt lat="43.84978" lon="5.52716">
        <ele>563.2</ele>
        <time>2015-06-21T15:37:04Z</time>
      </trkpt>
      <trkpt lat="43.84978" lon="5.52703">
        <ele>563.7</ele>
        <time>2015-06-21T15:37:09Z</time>
      </trkpt>
      <trkpt lat="43.84978" lon="5.5269">
        <ele>564.2</ele>
        <time>2015-06-21T15:37:16Z</time>
      </trkpt>
      <trkpt lat="43.84982" lon="5.52676">
        <ele>564.5</ele>
        <time>2015-06-21T15:37:21Z</time>
      </trkpt>
      <trkpt lat="43.84983" lon="5.52663">
        <ele>564.7</ele>
        <time>2015-06-21T15:37:25Z</time>
      </trkpt>
      <trkpt lat="43.84981" lon="5.52651">
        <ele>565.1</ele>
        <time>2015-06-21T15:37:31Z</time>
      </trkpt>
      <trkpt lat="43.84984" lon="5.52639">
        <ele>565.8</ele>
        <time>2015-06-21T15:37:40Z</time>
      </trkpt>
      <trkpt lat="43.84984" lon="5.52621">
        <ele>566.4</ele>
        <time>2015-06-21T15:37:52Z</time>
      </trkpt>
      <trkpt lat="43.84984" lon="5.52607">
        <ele>566.5</ele>
        <time>2015-06-21T15:37:55Z</time>
      </trkpt>
      <trkpt lat="43.84985" lon="5.52595">
        <ele>566.8</ele>
        <time>2015-06-21T15:38:01Z</time>
      </trkpt>
      <trkpt lat="43.84986" lon="5.52582">
        <ele>567.5</ele>
        <time>2015-06-21T15:38:09Z</time>
      </trkpt>
      <trkpt lat="43.84987" lon="5.52567">
        <ele>568.1</ele>
        <time>2015-06-21T15:38:15Z</time>
      </trkpt>
      <trkpt lat="43.84985" lon="5.52554">
        <ele>568.9</ele>
        <time>2015-06-21T15:38:23Z</time>
      </trkpt>
      <trkpt lat="43.84991" lon="5.52544">
        <ele>569.9</ele>
        <time>2015-06-21T15:38:29Z</time>
      </trkpt>
      <trkpt lat="43.84993" lon="5.5253">
        <ele>570.4</ele>
        <time>2015-06-21T15:38:35Z</time>
      </trkpt>
      <trkpt lat="43.84992" lon="5.52517">
        <ele>570.7</ele>
        <time>2015-06-21T15:38:43Z</time>
      </trkpt>
      <trkpt lat="43.84992" lon="5.52502">
        <ele>571.5</ele>
        <time>2015-06-21T15:38:51Z</time>
      </trkpt>
      <trkpt lat="43.84992" lon="5.52489">
        <ele>572.1</ele>
        <time>2015-06-21T15:39:00Z</time>
      </trkpt>
      <trkpt lat="43.84991" lon="5.52476">
        <ele>572.2</ele>
        <time>2015-06-21T15:39:06Z</time>
      </trkpt>
      <trkpt lat="43.84989" lon="5.52462">
        <ele>572.3</ele>
        <time>2015-06-21T15:39:12Z</time>
      </trkpt>
      <trkpt lat="43.84987" lon="5.52449">
        <ele>572.3</ele>
        <time>2015-06-21T15:39:19Z</time>
      </trkpt>
      <trkpt lat="43.84986" lon="5.52437">
        <ele>572.3</ele>
        <time>2015-06-21T15:39:27Z</time>
      </trkpt>
      <trkpt lat="43.84989" lon="5.52422">
        <ele>572.3</ele>
        <time>2015-06-21T15:39:36Z</time>
      </trkpt>
      <trkpt lat="43.84992" lon="5.52408">
        <ele>572.3</ele>
        <time>2015-06-21T15:39:42Z</time>
      </trkpt>
      <trkpt lat="43.84992" lon="5.52391">
        <ele>572.2</ele>
        <time>2015-06-21T15:39:48Z</time>
      </trkpt>
      <trkpt lat="43.84992" lon="5.52378">
        <ele>571.6</ele>
        <time>2015-06-21T15:39:55Z</time>
      </trkpt>
      <trkpt lat="43.84995" lon="5.52365">
        <ele>571.5</ele>
        <time>2015-06-21T15:40:02Z</time>
      </trkpt>
      <trkpt lat="43.85003" lon="5.52357">
        <ele>571.3</ele>
        <time>2015-06-21T15:40:10Z</time>
      </trkpt>
      <trkpt lat="43.85007" lon="5.52345">
        <ele>571.1</ele>
        <time>2015-06-21T15:40:15Z</time>
      </trkpt>
      <trkpt lat="43.85008" lon="5.52332">
        <ele>571.1</ele>
        <time>2015-06-21T15:40:19Z</time>
      </trkpt>
      <trkpt lat="43.85014" lon="5.52321">
        <ele>571.3</ele>
        <time>2015-06-21T15:40:24Z</time>
      </trkpt>
      <trkpt lat="43.85023" lon="5.52319">
        <ele>570.8</ele>
        <time>2015-06-21T15:40:43Z</time>
      </trkpt>
      <trkpt lat="43.85032" lon="5.52324">
        <ele>571.1</ele>
        <time>2015-06-21T15:40:52Z</time>
      </trkpt>
      <trkpt lat="43.85042" lon="5.52322">
        <ele>571</ele>
        <time>2015-06-21T15:40:59Z</time>
      </trkpt>
      <trkpt lat="43.85047" lon="5.5231">
        <ele>571.1</ele>
        <time>2015-06-21T15:41:09Z</time>
      </trkpt>
      <trkpt lat="43.85045" lon="5.52297">
        <ele>571.4</ele>
        <time>2015-06-21T15:41:16Z</time>
      </trkpt>
      <trkpt lat="43.85042" lon="5.52285">
        <ele>571.6</ele>
        <time>2015-06-21T15:41:22Z</time>
      </trkpt>
      <trkpt lat="43.8504" lon="5.52272">
        <ele>571.6</ele>
        <time>2015-06-21T15:41:28Z</time>
      </trkpt>
      <trkpt lat="43.85038" lon="5.52259">
        <ele>571.8</ele>
        <time>2015-06-21T15:41:35Z</time>
      </trkpt>
      <trkpt lat="43.85037" lon="5.52246">
        <ele>572</ele>
        <time>2015-06-21T15:41:43Z</time>
      </trkpt>
      <trkpt lat="43.85035" lon="5.52232">
        <ele>572</ele>
        <time>2015-06-21T15:41:50Z</time>
      </trkpt>
      <trkpt lat="43.85034" lon="5.52218">
        <ele>572</ele>
        <time>2015-06-21T15:41:54Z</time>
      </trkpt>
      <trkpt lat="43.85034" lon="5.52203">
        <ele>571.9</ele>
        <time>2015-06-21T15:41:58Z</time>
      </trkpt>
      <trkpt lat="43.85034" lon="5.5219">
        <ele>571.9</ele>
        <time>2015-06-21T15:42:02Z</time>
      </trkpt>
      <trkpt lat="43.85031" lon="5.52178">
        <ele>571.7</ele>
        <time>2015-06-21T15:42:05Z</time>
      </trkpt>
      <trkpt lat="43.85028" lon="5.52164">
        <ele>571.7</ele>
        <time>2015-06-21T15:42:10Z</time>
      </trkpt>
      <trkpt lat="43.85024" lon="5.52152">
        <ele>571.7</ele>
        <time>2015-06-21T15:42:13Z</time>
      </trkpt>
      <trkpt lat="43.85023" lon="5.5214">
        <ele>571.7</ele>
        <time>2015-06-21T15:42:18Z</time>
      </trkpt>
      <trkpt lat="43.85026" lon="5.52128">
        <ele>571.6</ele>
        <time>2015-06-21T15:42:24Z</time>
      </trkpt>
      <trkpt lat="43.85025" lon="5.52114">
        <ele>571.6</ele>
        <time>2015-06-21T15:42:29Z</time>
      </trkpt>
      <trkpt lat="43.85024" lon="5.521">
        <ele>571.2</ele>
        <time>2015-06-21T15:42:34Z</time>
      </trkpt>
      <trkpt lat="43.85027" lon="5.52087">
        <ele>571.3</ele>
        <time>2015-06-21T15:42:40Z</time>
      </trkpt>
      <trkpt lat="43.85029" lon="5.52073">
        <ele>571.4</ele>
        <time>2015-06-21T15:42:46Z</time>
      </trkpt>
      <trkpt lat="43.8503" lon="5.5206">
        <ele>571.4</ele>
        <time>2015-06-21T15:42:53Z</time>
      </trkpt>
      <trkpt lat="43.85037" lon="5.52069">
        <ele>572.1</ele>
        <time>2015-06-21T15:43:24Z</time>
      </trkpt>
      <trkpt lat="43.85046" lon="5.52064">
        <ele>575.5</ele>
        <time>2015-06-21T15:44:06Z</time>
      </trkpt>
      <trkpt lat="43.85054" lon="5.52058">
        <ele>576</ele>
        <time>2015-06-21T15:44:12Z</time>
      </trkpt>
      <trkpt lat="43.85062" lon="5.52049">
        <ele>576.4</ele>
        <time>2015-06-21T15:44:19Z</time>
      </trkpt>
      <trkpt lat="43.8507" lon="5.52042">
        <ele>576.7</ele>
        <time>2015-06-21T15:44:24Z</time>
      </trkpt>
      <trkpt lat="43.85078" lon="5.52034">
        <ele>576.9</ele>
        <time>2015-06-21T15:44:29Z</time>
      </trkpt>
      <trkpt lat="43.85085" lon="5.52026">
        <ele>577.1</ele>
        <time>2015-06-21T15:44:34Z</time>
      </trkpt>
      <trkpt lat="43.85092" lon="5.52016">
        <ele>577.3</ele>
        <time>2015-06-21T15:44:41Z</time>
      </trkpt>
      <trkpt lat="43.851" lon="5.52007">
        <ele>577.5</ele>
        <time>2015-06-21T15:44:47Z</time>
      </trkpt>
      <trkpt lat="43.8511" lon="5.52002">
        <ele>577.6</ele>
        <time>2015-06-21T15:44:53Z</time>
      </trkpt>
      <trkpt lat="43.85119" lon="5.52002">
        <ele>577.9</ele>
        <time>2015-06-21T15:44:58Z</time>
      </trkpt>
      <trkpt lat="43.85128" lon="5.51996">
        <ele>577.9</ele>
        <time>2015-06-21T15:45:05Z</time>
      </trkpt>
      <trkpt lat="43.85136" lon="5.52004">
        <ele>578.2</ele>
        <time>2015-06-21T15:45:13Z</time>
      </trkpt>
      <trkpt lat="43.85144" lon="5.5201">
        <ele>578.5</ele>
        <time>2015-06-21T15:45:23Z</time>
      </trkpt>
      <trkpt lat="43.85152" lon="5.52019">
        <ele>578.7</ele>
        <time>2015-06-21T15:45:34Z</time>
      </trkpt>
      <trkpt lat="43.8515" lon="5.52032">
        <ele>579.5</ele>
        <time>2015-06-21T15:46:17Z</time>
      </trkpt>
      <trkpt lat="43.85159" lon="5.52029">
        <ele>578</ele>
        <time>2015-06-21T15:47:03Z</time>
      </trkpt>
      <trkpt lat="43.85164" lon="5.52018">
        <ele>576.6</ele>
        <time>2015-06-21T15:47:13Z</time>
      </trkpt>
      <trkpt lat="43.8517" lon="5.52006">
        <ele>576.6</ele>
        <time>2015-06-21T15:47:22Z</time>
      </trkpt>
      <trkpt lat="43.85179" lon="5.52003">
        <ele>577</ele>
        <time>2015-06-21T15:47:29Z</time>
      </trkpt>
      <trkpt lat="43.85185" lon="5.51993">
        <ele>577.6</ele>
        <time>2015-06-21T15:47:37Z</time>
      </trkpt>
      <trkpt lat="43.85186" lon="5.5198">
        <ele>578</ele>
        <time>2015-06-21T15:47:44Z</time>
      </trkpt>
      <trkpt lat="43.85181" lon="5.51969">
        <ele>578.4</ele>
        <time>2015-06-21T15:47:51Z</time>
      </trkpt>
      <trkpt lat="43.8518" lon="5.51956">
        <ele>578.9</ele>
        <time>2015-06-21T15:48:01Z</time>
      </trkpt>
      <trkpt lat="43.85176" lon="5.51945">
        <ele>579.2</ele>
        <time>2015-06-21T15:48:08Z</time>
      </trkpt>
      <trkpt lat="43.85173" lon="5.51932">
        <ele>579.5</ele>
        <time>2015-06-21T15:48:14Z</time>
      </trkpt>
      <trkpt lat="43.85177" lon="5.51921">
        <ele>580.1</ele>
        <time>2015-06-21T15:48:19Z</time>
      </trkpt>
      <trkpt lat="43.85186" lon="5.5191">
        <ele>580.8</ele>
        <time>2015-06-21T15:48:24Z</time>
      </trkpt>
      <trkpt lat="43.85195" lon="5.51911">
        <ele>582.7</ele>
        <time>2015-06-21T15:48:33Z</time>
      </trkpt>
      <trkpt lat="43.85204" lon="5.5191">
        <ele>584.8</ele>
        <time>2015-06-21T15:48:42Z</time>
      </trkpt>
      <trkpt lat="43.85213" lon="5.51917">
        <ele>585.8</ele>
        <time>2015-06-21T15:48:49Z</time>
      </trkpt>
      <trkpt lat="43.85219" lon="5.51929">
        <ele>586.6</ele>
        <time>2015-06-21T15:48:56Z</time>
      </trkpt>
      <trkpt lat="43.85222" lon="5.51941">
        <ele>587.2</ele>
        <time>2015-06-21T15:49:02Z</time>
      </trkpt>
      <trkpt lat="43.85224" lon="5.51955">
        <ele>588</ele>
        <time>2015-06-21T15:49:10Z</time>
      </trkpt>
      <trkpt lat="43.85221" lon="5.51969">
        <ele>588.8</ele>
        <time>2015-06-21T15:49:18Z</time>
      </trkpt>
      <trkpt lat="43.85292" lon="5.51991">
        <ele>589</ele>
        <time>2015-06-21T15:49:31Z</time>
      </trkpt>
      <trkpt lat="43.85363" lon="5.52009">
        <ele>590</ele>
        <time>2015-06-21T15:49:40Z</time>
      </trkpt>
      <trkpt lat="43.85385" lon="5.52016">
        <ele>591.2</ele>
        <time>2015-06-21T15:49:45Z</time>
      </trkpt>
      <trkpt lat="43.85397" lon="5.52016">
        <ele>591.6</ele>
        <time>2015-06-21T15:49:48Z</time>
      </trkpt>
      <trkpt lat="43.85407" lon="5.52015">
        <ele>592</ele>
        <time>2015-06-21T15:49:50Z</time>
      </trkpt>
      <trkpt lat="43.85416" lon="5.52013">
        <ele>592.1</ele>
        <time>2015-06-21T15:49:51Z</time>
      </trkpt>
      <trkpt lat="43.85427" lon="5.52005">
        <ele>592.6</ele>
        <time>2015-06-21T15:49:55Z</time>
      </trkpt>
      <trkpt lat="43.85438" lon="5.52002">
        <ele>593</ele>
        <time>2015-06-21T15:49:58Z</time>
      </trkpt>
      <trkpt lat="43.85448" lon="5.52001">
        <ele>594.3</ele>
        <time>2015-06-21T15:50:06Z</time>
      </trkpt>
      <trkpt lat="43.85457" lon="5.52002">
        <ele>595.1</ele>
        <time>2015-06-21T15:50:11Z</time>
      </trkpt>
      <trkpt lat="43.85466" lon="5.52007">
        <ele>596.7</ele>
        <time>2015-06-21T15:50:20Z</time>
      </trkpt>
      <trkpt lat="43.85475" lon="5.52011">
        <ele>597.7</ele>
        <time>2015-06-21T15:50:26Z</time>
      </trkpt>
      <trkpt lat="43.85485" lon="5.52015">
        <ele>598.8</ele>
        <time>2015-06-21T15:50:33Z</time>
      </trkpt>
      <trkpt lat="43.85496" lon="5.5202">
        <ele>599.4</ele>
        <time>2015-06-21T15:50:39Z</time>
      </trkpt>
      <trkpt lat="43.85506" lon="5.52022">
        <ele>600.2</ele>
        <time>2015-06-21T15:50:44Z</time>
      </trkpt>
      <trkpt lat="43.85516" lon="5.52021">
        <ele>601</ele>
        <time>2015-06-21T15:50:49Z</time>
      </trkpt>
      <trkpt lat="43.8552" lon="5.52009">
        <ele>602.2</ele>
        <time>2015-06-21T15:50:56Z</time>
      </trkpt>
      <trkpt lat="43.85531" lon="5.52007">
        <ele>602.8</ele>
        <time>2015-06-21T15:51:00Z</time>
      </trkpt>
      <trkpt lat="43.85542" lon="5.52006">
        <ele>603.2</ele>
        <time>2015-06-21T15:51:02Z</time>
      </trkpt>
      <trkpt lat="43.85552" lon="5.51999">
        <ele>604.4</ele>
        <time>2015-06-21T15:51:09Z</time>
      </trkpt>
      <trkpt lat="43.85543" lon="5.52001">
        <ele>608.1</ele>
        <time>2015-06-21T15:51:36Z</time>
      </trkpt>
      <trkpt lat="43.85532" lon="5.52003">
        <ele>608.5</ele>
        <time>2015-06-21T15:51:41Z</time>
      </trkpt>
      <trkpt lat="43.85525" lon="5.51994">
        <ele>609.6</ele>
        <time>2015-06-21T15:51:51Z</time>
      </trkpt>
      <trkpt lat="43.85528" lon="5.51981">
        <ele>610.6</ele>
        <time>2015-06-21T15:52:01Z</time>
      </trkpt>
      <trkpt lat="43.85535" lon="5.51973">
        <ele>611.4</ele>
        <time>2015-06-21T15:52:13Z</time>
      </trkpt>
      <trkpt lat="43.8555" lon="5.51982">
        <ele>611.5</ele>
        <time>2015-06-21T15:52:54Z</time>
      </trkpt>
      <trkpt lat="43.85559" lon="5.51985">
        <ele>611.2</ele>
        <time>2015-06-21T15:53:03Z</time>
      </trkpt>
      <trkpt lat="43.85566" lon="5.51994">
        <ele>610.9</ele>
        <time>2015-06-21T15:53:11Z</time>
      </trkpt>
      <trkpt lat="43.85575" lon="5.51991">
        <ele>610.7</ele>
        <time>2015-06-21T15:53:16Z</time>
      </trkpt>
      <trkpt lat="43.85587" lon="5.51986">
        <ele>608.2</ele>
        <time>2015-06-21T15:54:01Z</time>
      </trkpt>
      <trkpt lat="43.85592" lon="5.51975">
        <ele>607.8</ele>
        <time>2015-06-21T15:54:07Z</time>
      </trkpt>
      <trkpt lat="43.856" lon="5.51969">
        <ele>607.1</ele>
        <time>2015-06-21T15:54:20Z</time>
      </trkpt>
      <trkpt lat="43.856" lon="5.51978">
        <ele>603.1</ele>
        <time>2015-06-21T15:55:36Z</time>
      </trkpt>
    </trkseg>
  </trk>
</gpx>